<?xml version="1.0" encoding="utf-8"?>
<gpx xmlns:xsi="http://www.w3.org/2001/XMLSchema-instance" xmlns:xsd="http://www.w3.org/2001/XMLSchema" version="1.1" creator="Shapelink.com" xmlns="http://www.topografix.com/GPX/1/1" xmlns:gpxtpx="http://www.garmin.com/xmlschemas/TrackPointExtension/v1">
  <metadata>
    <name>Löpning 13.97 km, 2018-01-06</name>
    <desc></desc>
    <author><name>Bengt-Åke Forslund</name></author> 
    <time>2018-01-06T11:23:16Z</time>
  </metadata>
  <trk>
    <name>Löpning 13.97 km, 2018-01-06</name>
    <trkseg>
      <trkpt lat="62.641649115673" lon="17.899170180681">
        <ele>17</ele>
        <time>2018-01-06T11:23:16Z</time>
      </trkpt>
      <trkpt lat="62.641680212522" lon="17.898948814702">
        <ele>17.4</ele>
        <time>2018-01-06T11:23:28Z</time>
      </trkpt>
      <trkpt lat="62.641685996033" lon="17.898924088097">
        <ele>17.4</ele>
        <time>2018-01-06T11:23:29Z</time>
      </trkpt>
      <trkpt lat="62.641700915815" lon="17.898857787268">
        <ele>17.4</ele>
        <time>2018-01-06T11:23:30Z</time>
      </trkpt>
      <trkpt lat="62.641705022946" lon="17.898822667107">
        <ele>17.4</ele>
        <time>2018-01-06T11:23:31Z</time>
      </trkpt>
      <trkpt lat="62.641710555" lon="17.898758629391">
        <ele>17.4</ele>
        <time>2018-01-06T11:23:32Z</time>
      </trkpt>
      <trkpt lat="62.641714662131" lon="17.898703727946">
        <ele>17.8</ele>
        <time>2018-01-06T11:23:33Z</time>
      </trkpt>
      <trkpt lat="62.641719020719" lon="17.898649329415">
        <ele>17.8</ele>
        <time>2018-01-06T11:23:34Z</time>
      </trkpt>
      <trkpt lat="62.64172815699" lon="17.898579592007">
        <ele>17.8</ele>
        <time>2018-01-06T11:23:35Z</time>
      </trkpt>
      <trkpt lat="62.641731006836" lon="17.898543885113">
        <ele>17.8</ele>
        <time>2018-01-06T11:23:36Z</time>
      </trkpt>
      <trkpt lat="62.641739388736" lon="17.898464676158">
        <ele>18</ele>
        <time>2018-01-06T11:23:37Z</time>
      </trkpt>
      <trkpt lat="62.641741651849" lon="17.898409858532">
        <ele>17.8</ele>
        <time>2018-01-06T11:23:38Z</time>
      </trkpt>
      <trkpt lat="62.641749530835" lon="17.898339953486">
        <ele>17.8</ele>
        <time>2018-01-06T11:23:39Z</time>
      </trkpt>
      <trkpt lat="62.641749782292" lon="17.898289242991">
        <ele>17.4</ele>
        <time>2018-01-06T11:23:40Z</time>
      </trkpt>
      <trkpt lat="62.641756152536" lon="17.898216823375">
        <ele>17.4</ele>
        <time>2018-01-06T11:23:41Z</time>
      </trkpt>
      <trkpt lat="62.641761516952" lon="17.898132836737">
        <ele>17.2</ele>
        <time>2018-01-06T11:23:42Z</time>
      </trkpt>
      <trkpt lat="62.641766043178" lon="17.898067877012">
        <ele>17.2</ele>
        <time>2018-01-06T11:23:43Z</time>
      </trkpt>
      <trkpt lat="62.641775766182" lon="17.897963187081">
        <ele>16.8</ele>
        <time>2018-01-06T11:23:44Z</time>
      </trkpt>
      <trkpt lat="62.64178263934" lon="17.897891018922">
        <ele>16.4</ele>
        <time>2018-01-06T11:23:45Z</time>
      </trkpt>
      <trkpt lat="62.641782806978" lon="17.89784760068">
        <ele>16</ele>
        <time>2018-01-06T11:23:46Z</time>
      </trkpt>
      <trkpt lat="62.641783645168" lon="17.897756154151">
        <ele>16</ele>
        <time>2018-01-06T11:23:47Z</time>
      </trkpt>
      <trkpt lat="62.641773503069" lon="17.897687422571">
        <ele>15.8</ele>
        <time>2018-01-06T11:23:48Z</time>
      </trkpt>
      <trkpt lat="62.641747938274" lon="17.897622546665">
        <ele>15.4</ele>
        <time>2018-01-06T11:23:49Z</time>
      </trkpt>
      <trkpt lat="62.641725810058" lon="17.897602262467">
        <ele>15.2</ele>
        <time>2018-01-06T11:23:50Z</time>
      </trkpt>
      <trkpt lat="62.641705609679" lon="17.897597400965">
        <ele>15.2</ele>
        <time>2018-01-06T11:23:51Z</time>
      </trkpt>
      <trkpt lat="62.641684403472" lon="17.897603268295">
        <ele>14.8</ele>
        <time>2018-01-06T11:23:52Z</time>
      </trkpt>
      <trkpt lat="62.641660766514" lon="17.897629503642">
        <ele>14.6</ele>
        <time>2018-01-06T11:23:53Z</time>
      </trkpt>
      <trkpt lat="62.641645343818" lon="17.897649704021">
        <ele>14.6</ele>
        <time>2018-01-06T11:23:54Z</time>
      </trkpt>
      <trkpt lat="62.641622293593" lon="17.897680130318">
        <ele>14.6</ele>
        <time>2018-01-06T11:23:55Z</time>
      </trkpt>
      <trkpt lat="62.641604859241" lon="17.897711394805">
        <ele>14.4</ele>
        <time>2018-01-06T11:23:56Z</time>
      </trkpt>
      <trkpt lat="62.641582814844" lon="17.897742743111">
        <ele>14.4</ele>
        <time>2018-01-06T11:23:57Z</time>
      </trkpt>
      <trkpt lat="62.641553142918" lon="17.897780713118">
        <ele>14.4</ele>
        <time>2018-01-06T11:23:58Z</time>
      </trkpt>
      <trkpt lat="62.641533026358" lon="17.897810636501">
        <ele>14.4</ele>
        <time>2018-01-06T11:23:59Z</time>
      </trkpt>
      <trkpt lat="62.641513161255" lon="17.897839889332">
        <ele>14.2</ele>
        <time>2018-01-06T11:24:00Z</time>
      </trkpt>
      <trkpt lat="62.64149514017" lon="17.897866376136">
        <ele>14</ele>
        <time>2018-01-06T11:24:01Z</time>
      </trkpt>
      <trkpt lat="62.641476364714" lon="17.897890516008">
        <ele>14</ele>
        <time>2018-01-06T11:24:02Z</time>
      </trkpt>
      <trkpt lat="62.641458427448" lon="17.897906609256">
        <ele>14</ele>
        <time>2018-01-06T11:24:03Z</time>
      </trkpt>
      <trkpt lat="62.641438646164" lon="17.897922451047">
        <ele>14</ele>
        <time>2018-01-06T11:24:04Z</time>
      </trkpt>
      <trkpt lat="62.641419786889" lon="17.897946088005">
        <ele>14</ele>
        <time>2018-01-06T11:24:05Z</time>
      </trkpt>
      <trkpt lat="62.641404196555" lon="17.897965869289">
        <ele>14.2</ele>
        <time>2018-01-06T11:24:06Z</time>
      </trkpt>
      <trkpt lat="62.641384079995" lon="17.897979112691">
        <ele>14.4</ele>
        <time>2018-01-06T11:24:07Z</time>
      </trkpt>
      <trkpt lat="62.641362789969" lon="17.897991098808">
        <ele>14.8</ele>
        <time>2018-01-06T11:24:08Z</time>
      </trkpt>
      <trkpt lat="62.641343176323" lon="17.898006102409">
        <ele>15</ele>
        <time>2018-01-06T11:24:09Z</time>
      </trkpt>
      <trkpt lat="62.641329849102" lon="17.898018842897">
        <ele>15.2</ele>
        <time>2018-01-06T11:24:10Z</time>
      </trkpt>
      <trkpt lat="62.641309229628" lon="17.898036444887">
        <ele>15.4</ele>
        <time>2018-01-06T11:24:11Z</time>
      </trkpt>
      <trkpt lat="62.641290789448" lon="17.898051364669">
        <ele>15.6</ele>
        <time>2018-01-06T11:24:12Z</time>
      </trkpt>
      <trkpt lat="62.641264554101" lon="17.898065278623">
        <ele>15.6</ele>
        <time>2018-01-06T11:24:13Z</time>
      </trkpt>
      <trkpt lat="62.641240833324" lon="17.898081036595">
        <ele>16</ele>
        <time>2018-01-06T11:24:14Z</time>
      </trkpt>
      <trkpt lat="62.641216944909" lon="17.898096878386">
        <ele>16.2</ele>
        <time>2018-01-06T11:24:15Z</time>
      </trkpt>
      <trkpt lat="62.641194984331" lon="17.898104673553">
        <ele>16.4</ele>
        <time>2018-01-06T11:24:16Z</time>
      </trkpt>
      <trkpt lat="62.641173359029" lon="17.898111043797">
        <ele>16.6</ele>
        <time>2018-01-06T11:24:17Z</time>
      </trkpt>
      <trkpt lat="62.641151566089" lon="17.898110708521">
        <ele>16.6</ele>
        <time>2018-01-06T11:24:18Z</time>
      </trkpt>
      <trkpt lat="62.641131281891" lon="17.898112384901">
        <ele>16.8</ele>
        <time>2018-01-06T11:24:19Z</time>
      </trkpt>
      <trkpt lat="62.641113679901" lon="17.898110121788">
        <ele>16.8</ele>
        <time>2018-01-06T11:24:20Z</time>
      </trkpt>
      <trkpt lat="62.64109448535" lon="17.898106266114">
        <ele>16.8</ele>
        <time>2018-01-06T11:24:21Z</time>
      </trkpt>
      <trkpt lat="62.641079146473" lon="17.898092100703">
        <ele>17</ele>
        <time>2018-01-06T11:24:22Z</time>
      </trkpt>
      <trkpt lat="62.641060622474" lon="17.898067038822">
        <ele>17</ele>
        <time>2018-01-06T11:24:23Z</time>
      </trkpt>
      <trkpt lat="62.641045115959" lon="17.898039210914">
        <ele>17</ele>
        <time>2018-01-06T11:24:24Z</time>
      </trkpt>
      <trkpt lat="62.641032124014" lon="17.898007024418">
        <ele>17.2</ele>
        <time>2018-01-06T11:24:25Z</time>
      </trkpt>
      <trkpt lat="62.641021059906" lon="17.897974670284">
        <ele>17.2</ele>
        <time>2018-01-06T11:24:26Z</time>
      </trkpt>
      <trkpt lat="62.641015360214" lon="17.897946926195">
        <ele>17.4</ele>
        <time>2018-01-06T11:24:27Z</time>
      </trkpt>
      <trkpt lat="62.641007984142" lon="17.897916080803">
        <ele>17.6</ele>
        <time>2018-01-06T11:24:28Z</time>
      </trkpt>
      <trkpt lat="62.641001110984" lon="17.897881882651">
        <ele>17.6</ele>
        <time>2018-01-06T11:24:29Z</time>
      </trkpt>
      <trkpt lat="62.640994573102" lon="17.897842068626">
        <ele>17.8</ele>
        <time>2018-01-06T11:24:30Z</time>
      </trkpt>
      <trkpt lat="62.64098887341" lon="17.897810217406">
        <ele>18</ele>
        <time>2018-01-06T11:24:31Z</time>
      </trkpt>
      <trkpt lat="62.64098300608" lon="17.897769816648">
        <ele>18.4</ele>
        <time>2018-01-06T11:24:32Z</time>
      </trkpt>
      <trkpt lat="62.640975713827" lon="17.897738887437">
        <ele>18.4</ele>
        <time>2018-01-06T11:24:33Z</time>
      </trkpt>
      <trkpt lat="62.640973869809" lon="17.897700498335">
        <ele>18.6</ele>
        <time>2018-01-06T11:24:34Z</time>
      </trkpt>
      <trkpt lat="62.640965487909" lon="17.897666803097">
        <ele>19</ele>
        <time>2018-01-06T11:24:35Z</time>
      </trkpt>
      <trkpt lat="62.640958866208" lon="17.897632353488">
        <ele>19</ele>
        <time>2018-01-06T11:24:36Z</time>
      </trkpt>
      <trkpt lat="62.640953585611" lon="17.897595892223">
        <ele>19.2</ele>
        <time>2018-01-06T11:24:37Z</time>
      </trkpt>
      <trkpt lat="62.640949227023" lon="17.897571500894">
        <ele>19.2</ele>
        <time>2018-01-06T11:24:38Z</time>
      </trkpt>
      <trkpt lat="62.640945874263" lon="17.89752405934">
        <ele>19.4</ele>
        <time>2018-01-06T11:24:39Z</time>
      </trkpt>
      <trkpt lat="62.640943024417" lon="17.897485837876">
        <ele>19.6</ele>
        <time>2018-01-06T11:24:40Z</time>
      </trkpt>
      <trkpt lat="62.640935313069" lon="17.897453902837">
        <ele>19.8</ele>
        <time>2018-01-06T11:24:41Z</time>
      </trkpt>
      <trkpt lat="62.640927434083" lon="17.897413585898">
        <ele>19.8</ele>
        <time>2018-01-06T11:24:42Z</time>
      </trkpt>
      <trkpt lat="62.64091930364" lon="17.897370083837">
        <ele>20</ele>
        <time>2018-01-06T11:24:43Z</time>
      </trkpt>
      <trkpt lat="62.640913603948" lon="17.897333622572">
        <ele>20.2</ele>
        <time>2018-01-06T11:24:44Z</time>
      </trkpt>
      <trkpt lat="62.640909161541" lon="17.897295568746">
        <ele>20.4</ele>
        <time>2018-01-06T11:24:45Z</time>
      </trkpt>
      <trkpt lat="62.640904970591" lon="17.89726338225">
        <ele>20.4</ele>
        <time>2018-01-06T11:24:46Z</time>
      </trkpt>
      <trkpt lat="62.64089918708" lon="17.897226334252">
        <ele>20.4</ele>
        <time>2018-01-06T11:24:47Z</time>
      </trkpt>
      <trkpt lat="62.640896085777" lon="17.897203786941">
        <ele>20.8</ele>
        <time>2018-01-06T11:24:48Z</time>
      </trkpt>
      <trkpt lat="62.640890218447" lon="17.897163134726">
        <ele>21</ele>
        <time>2018-01-06T11:24:49Z</time>
      </trkpt>
      <trkpt lat="62.640881165995" lon="17.897125164719">
        <ele>21.2</ele>
        <time>2018-01-06T11:24:50Z</time>
      </trkpt>
      <trkpt lat="62.640877310321" lon="17.897089290187">
        <ele>21.4</ele>
        <time>2018-01-06T11:24:51Z</time>
      </trkpt>
      <trkpt lat="62.640872281181" lon="17.897056768415">
        <ele>21.6</ele>
        <time>2018-01-06T11:24:52Z</time>
      </trkpt>
      <trkpt lat="62.64086063034" lon="17.897028437593">
        <ele>21.6</ele>
        <time>2018-01-06T11:24:53Z</time>
      </trkpt>
      <trkpt lat="62.640853170449" lon="17.896996921649">
        <ele>21.8</ele>
        <time>2018-01-06T11:24:54Z</time>
      </trkpt>
      <trkpt lat="62.640849063318" lon="17.896960963298">
        <ele>21.8</ele>
        <time>2018-01-06T11:24:55Z</time>
      </trkpt>
      <trkpt lat="62.640839172676" lon="17.896929028259">
        <ele>22</ele>
        <time>2018-01-06T11:24:56Z</time>
      </trkpt>
      <trkpt lat="62.640830958414" lon="17.896902373817">
        <ele>22.2</ele>
        <time>2018-01-06T11:24:57Z</time>
      </trkpt>
      <trkpt lat="62.640821486867" lon="17.896875719375">
        <ele>22.2</ele>
        <time>2018-01-06T11:24:58Z</time>
      </trkpt>
      <trkpt lat="62.640813524062" lon="17.896845628354">
        <ele>22.4</ele>
        <time>2018-01-06T11:24:59Z</time>
      </trkpt>
      <trkpt lat="62.640807740551" lon="17.896814699143">
        <ele>22.6</ele>
        <time>2018-01-06T11:25:00Z</time>
      </trkpt>
      <trkpt lat="62.640799191013" lon="17.896790894547">
        <ele>22.8</ele>
        <time>2018-01-06T11:25:01Z</time>
      </trkpt>
      <trkpt lat="62.640789970923" lon="17.896759713879">
        <ele>23</ele>
        <time>2018-01-06T11:25:02Z</time>
      </trkpt>
      <trkpt lat="62.640779661186" lon="17.896741692794">
        <ele>23</ele>
        <time>2018-01-06T11:25:03Z</time>
      </trkpt>
      <trkpt lat="62.64077010582" lon="17.896712523782">
        <ele>23.2</ele>
        <time>2018-01-06T11:25:04Z</time>
      </trkpt>
      <trkpt lat="62.640759628445" lon="17.896686791349">
        <ele>23.2</ele>
        <time>2018-01-06T11:25:05Z</time>
      </trkpt>
      <trkpt lat="62.640748983432" lon="17.896656784147">
        <ele>23.4</ele>
        <time>2018-01-06T11:25:06Z</time>
      </trkpt>
      <trkpt lat="62.640743199921" lon="17.896625352022">
        <ele>23.6</ele>
        <time>2018-01-06T11:25:07Z</time>
      </trkpt>
      <trkpt lat="62.640737081134" lon="17.896601463607">
        <ele>23.6</ele>
        <time>2018-01-06T11:25:08Z</time>
      </trkpt>
      <trkpt lat="62.640727190492" lon="17.896573300423">
        <ele>23.8</ele>
        <time>2018-01-06T11:25:09Z</time>
      </trkpt>
      <trkpt lat="62.640718221859" lon="17.896552513311">
        <ele>24</ele>
        <time>2018-01-06T11:25:10Z</time>
      </trkpt>
      <trkpt lat="62.64071143252" lon="17.896522757566">
        <ele>24.4</ele>
        <time>2018-01-06T11:25:11Z</time>
      </trkpt>
      <trkpt lat="62.640704475543" lon="17.896493756192">
        <ele>24.6</ele>
        <time>2018-01-06T11:25:12Z</time>
      </trkpt>
      <trkpt lat="62.640693495254" lon="17.896461066782">
        <ele>24.8</ele>
        <time>2018-01-06T11:25:13Z</time>
      </trkpt>
      <trkpt lat="62.64068377225" lon="17.896427455363">
        <ele>25</ele>
        <time>2018-01-06T11:25:14Z</time>
      </trkpt>
      <trkpt lat="62.640674803617" lon="17.89639082646">
        <ele>25.2</ele>
        <time>2018-01-06T11:25:15Z</time>
      </trkpt>
      <trkpt lat="62.64066784664" lon="17.896368530606">
        <ele>25.2</ele>
        <time>2018-01-06T11:25:16Z</time>
      </trkpt>
      <trkpt lat="62.640657117808" lon="17.89632628583">
        <ele>25.4</ele>
        <time>2018-01-06T11:25:17Z</time>
      </trkpt>
      <trkpt lat="62.64065108284" lon="17.896300888673">
        <ele>25.6</ele>
        <time>2018-01-06T11:25:18Z</time>
      </trkpt>
      <trkpt lat="62.640640102551" lon="17.896259398268">
        <ele>25.6</ele>
        <time>2018-01-06T11:25:19Z</time>
      </trkpt>
      <trkpt lat="62.640634486678" lon="17.8962114538">
        <ele>25.8</ele>
        <time>2018-01-06T11:25:20Z</time>
      </trkpt>
      <trkpt lat="62.640631469194" lon="17.896172645603">
        <ele>26</ele>
        <time>2018-01-06T11:25:21Z</time>
      </trkpt>
      <trkpt lat="62.640626356235" lon="17.896143141315">
        <ele>25.8</ele>
        <time>2018-01-06T11:25:22Z</time>
      </trkpt>
      <trkpt lat="62.640617387602" lon="17.89610835643">
        <ele>26</ele>
        <time>2018-01-06T11:25:23Z</time>
      </trkpt>
      <trkpt lat="62.640613531928" lon="17.896070721699">
        <ele>26</ele>
        <time>2018-01-06T11:25:24Z</time>
      </trkpt>
      <trkpt lat="62.640607413141" lon="17.896027219638">
        <ele>26.2</ele>
        <time>2018-01-06T11:25:25Z</time>
      </trkpt>
      <trkpt lat="62.640599617974" lon="17.895984723405">
        <ele>26.2</ele>
        <time>2018-01-06T11:25:26Z</time>
      </trkpt>
      <trkpt lat="62.640594756472" lon="17.895955722031">
        <ele>26.4</ele>
        <time>2018-01-06T11:25:27Z</time>
      </trkpt>
      <trkpt lat="62.640592660997" lon="17.895919176947">
        <ele>26.4</ele>
        <time>2018-01-06T11:25:28Z</time>
      </trkpt>
      <trkpt lat="62.640586123115" lon="17.895880033474">
        <ele>26.6</ele>
        <time>2018-01-06T11:25:29Z</time>
      </trkpt>
      <trkpt lat="62.640582854174" lon="17.895845919141">
        <ele>26.8</ele>
        <time>2018-01-06T11:25:30Z</time>
      </trkpt>
      <trkpt lat="62.640577657396" lon="17.895799818691">
        <ele>27</ele>
        <time>2018-01-06T11:25:31Z</time>
      </trkpt>
      <trkpt lat="62.640572125342" lon="17.895750952214">
        <ele>27.2</ele>
        <time>2018-01-06T11:25:32Z</time>
      </trkpt>
      <trkpt lat="62.64057145479" lon="17.895718681899">
        <ele>27.4</ele>
        <time>2018-01-06T11:25:33Z</time>
      </trkpt>
      <trkpt lat="62.640569359315" lon="17.895684902842">
        <ele>27.6</ele>
        <time>2018-01-06T11:25:34Z</time>
      </trkpt>
      <trkpt lat="62.640569946048" lon="17.895639305306">
        <ele>27.8</ele>
        <time>2018-01-06T11:25:35Z</time>
      </trkpt>
      <trkpt lat="62.640562905252" lon="17.895593456313">
        <ele>27.8</ele>
        <time>2018-01-06T11:25:36Z</time>
      </trkpt>
      <trkpt lat="62.640560725958" lon="17.895558084695">
        <ele>28</ele>
        <time>2018-01-06T11:25:37Z</time>
      </trkpt>
      <trkpt lat="62.640555612999" lon="17.89550821239">
        <ele>28</ele>
        <time>2018-01-06T11:25:38Z</time>
      </trkpt>
      <trkpt lat="62.640552763153" lon="17.89545792099">
        <ele>28.2</ele>
        <time>2018-01-06T11:25:39Z</time>
      </trkpt>
      <trkpt lat="62.64055133823" lon="17.895443168846">
        <ele>28.2</ele>
        <time>2018-01-06T11:25:40Z</time>
      </trkpt>
      <trkpt lat="62.640548656022" lon="17.89536655828">
        <ele>28.2</ele>
        <time>2018-01-06T11:25:41Z</time>
      </trkpt>
      <trkpt lat="62.640541196131" lon="17.895341664037">
        <ele>28.4</ele>
        <time>2018-01-06T11:25:42Z</time>
      </trkpt>
      <trkpt lat="62.640536502267" lon="17.895272345724">
        <ele>28.4</ele>
        <time>2018-01-06T11:25:43Z</time>
      </trkpt>
      <trkpt lat="62.640530970213" lon="17.895217444279">
        <ele>28.6</ele>
        <time>2018-01-06T11:25:44Z</time>
      </trkpt>
      <trkpt lat="62.64052703072" lon="17.895157178418">
        <ele>28.6</ele>
        <time>2018-01-06T11:25:45Z</time>
      </trkpt>
      <trkpt lat="62.640525857254" lon="17.895114514547">
        <ele>28.8</ele>
        <time>2018-01-06T11:25:46Z</time>
      </trkpt>
      <trkpt lat="62.640518145906" lon="17.895056679437">
        <ele>28.8</ele>
        <time>2018-01-06T11:25:47Z</time>
      </trkpt>
      <trkpt lat="62.640516637164" lon="17.894983673088">
        <ele>28.8</ele>
        <time>2018-01-06T11:25:48Z</time>
      </trkpt>
      <trkpt lat="62.640509596368" lon="17.894924161598">
        <ele>28.8</ele>
        <time>2018-01-06T11:25:49Z</time>
      </trkpt>
      <trkpt lat="62.640505489237" lon="17.894866494126">
        <ele>28.8</ele>
        <time>2018-01-06T11:25:50Z</time>
      </trkpt>
      <trkpt lat="62.640501214468" lon="17.894814861622">
        <ele>28.8</ele>
        <time>2018-01-06T11:25:51Z</time>
      </trkpt>
      <trkpt lat="62.640499202812" lon="17.894779741461">
        <ele>28.6</ele>
        <time>2018-01-06T11:25:52Z</time>
      </trkpt>
      <trkpt lat="62.640504986323" lon="17.894721571075">
        <ele>28.8</ele>
        <time>2018-01-06T11:25:53Z</time>
      </trkpt>
      <trkpt lat="62.640498029346" lon="17.89468678619">
        <ele>28.8</ele>
        <time>2018-01-06T11:25:54Z</time>
      </trkpt>
      <trkpt lat="62.640498783717" lon="17.894621742646">
        <ele>28.8</ele>
        <time>2018-01-06T11:25:55Z</time>
      </trkpt>
      <trkpt lat="62.640492497292" lon="17.894564997183">
        <ele>28.8</ele>
        <time>2018-01-06T11:25:56Z</time>
      </trkpt>
      <trkpt lat="62.64048931217" lon="17.894541946958">
        <ele>28.8</ele>
        <time>2018-01-06T11:25:57Z</time>
      </trkpt>
      <trkpt lat="62.640485791772" lon="17.894493834852">
        <ele>28.6</ele>
        <time>2018-01-06T11:25:58Z</time>
      </trkpt>
      <trkpt lat="62.640484869763" lon="17.894446141841">
        <ele>28.6</ele>
        <time>2018-01-06T11:25:59Z</time>
      </trkpt>
      <trkpt lat="62.640478750976" lon="17.89439928702">
        <ele>28.8</ele>
        <time>2018-01-06T11:26:00Z</time>
      </trkpt>
      <trkpt lat="62.640472967465" lon="17.894351342552">
        <ele>28.8</ele>
        <time>2018-01-06T11:26:01Z</time>
      </trkpt>
      <trkpt lat="62.640464920841" lon="17.894321754445">
        <ele>29</ele>
        <time>2018-01-06T11:26:02Z</time>
      </trkpt>
      <trkpt lat="62.640461148986" lon="17.894286466646">
        <ele>29</ele>
        <time>2018-01-06T11:26:03Z</time>
      </trkpt>
      <trkpt lat="62.640458718235" lon="17.89423835454">
        <ele>29.2</ele>
        <time>2018-01-06T11:26:04Z</time>
      </trkpt>
      <trkpt lat="62.640451258344" lon="17.894196361221">
        <ele>29.2</ele>
        <time>2018-01-06T11:26:05Z</time>
      </trkpt>
      <trkpt lat="62.64044404991" lon="17.894162665983">
        <ele>29.2</ele>
        <time>2018-01-06T11:26:06Z</time>
      </trkpt>
      <trkpt lat="62.640435835648" lon="17.894107848357">
        <ele>29.2</ele>
        <time>2018-01-06T11:26:07Z</time>
      </trkpt>
      <trkpt lat="62.640426196463" lon="17.894068453427">
        <ele>29.2</ele>
        <time>2018-01-06T11:26:08Z</time>
      </trkpt>
      <trkpt lat="62.640413539794" lon="17.894041463709">
        <ele>29.2</ele>
        <time>2018-01-06T11:26:09Z</time>
      </trkpt>
      <trkpt lat="62.64039711127" lon="17.893985891712">
        <ele>29.4</ele>
        <time>2018-01-06T11:26:10Z</time>
      </trkpt>
      <trkpt lat="62.640383029678" lon="17.893949681904">
        <ele>29.4</ele>
        <time>2018-01-06T11:26:11Z</time>
      </trkpt>
      <trkpt lat="62.640372971398" lon="17.893922608367">
        <ele>29.4</ele>
        <time>2018-01-06T11:26:12Z</time>
      </trkpt>
      <trkpt lat="62.640362074928" lon="17.893880615048">
        <ele>29.6</ele>
        <time>2018-01-06T11:26:13Z</time>
      </trkpt>
      <trkpt lat="62.640346400775" lon="17.89382596506">
        <ele>29.8</ele>
        <time>2018-01-06T11:26:14Z</time>
      </trkpt>
      <trkpt lat="62.64033173245" lon="17.893787240682">
        <ele>30</ele>
        <time>2018-01-06T11:26:15Z</time>
      </trkpt>
      <trkpt lat="62.640318991962" lon="17.893752874892">
        <ele>30</ele>
        <time>2018-01-06T11:26:16Z</time>
      </trkpt>
      <trkpt lat="62.640307676397" lon="17.893714066695">
        <ele>30</ele>
        <time>2018-01-06T11:26:17Z</time>
      </trkpt>
      <trkpt lat="62.640299965049" lon="17.893685484416">
        <ele>30.2</ele>
        <time>2018-01-06T11:26:18Z</time>
      </trkpt>
      <trkpt lat="62.640293091891" lon="17.893654219929">
        <ele>30.4</ele>
        <time>2018-01-06T11:26:19Z</time>
      </trkpt>
      <trkpt lat="62.64028647019" lon="17.893619602682">
        <ele>30.6</ele>
        <time>2018-01-06T11:26:20Z</time>
      </trkpt>
      <trkpt lat="62.640280183765" lon="17.893586661815">
        <ele>30.8</ele>
        <time>2018-01-06T11:26:21Z</time>
      </trkpt>
      <trkpt lat="62.640279177937" lon="17.893565707065">
        <ele>31</ele>
        <time>2018-01-06T11:26:22Z</time>
      </trkpt>
      <trkpt lat="62.640275825177" lon="17.893535196949">
        <ele>31.2</ele>
        <time>2018-01-06T11:26:23Z</time>
      </trkpt>
      <trkpt lat="62.64027473553" lon="17.893497310761">
        <ele>31.4</ele>
        <time>2018-01-06T11:26:24Z</time>
      </trkpt>
      <trkpt lat="62.640276328091" lon="17.893463615523">
        <ele>31.6</ele>
        <time>2018-01-06T11:26:25Z</time>
      </trkpt>
      <trkpt lat="62.640276328091" lon="17.893436039072">
        <ele>31.8</ele>
        <time>2018-01-06T11:26:26Z</time>
      </trkpt>
      <trkpt lat="62.640282111602" lon="17.893400332178">
        <ele>32</ele>
        <time>2018-01-06T11:26:27Z</time>
      </trkpt>
      <trkpt lat="62.640283787982" lon="17.893362697447">
        <ele>32</ele>
        <time>2018-01-06T11:26:28Z</time>
      </trkpt>
      <trkpt lat="62.640284877629" lon="17.893311232581">
        <ele>32.2</ele>
        <time>2018-01-06T11:26:29Z</time>
      </trkpt>
      <trkpt lat="62.640275657539" lon="17.893278794628">
        <ele>32.4</ele>
        <time>2018-01-06T11:26:30Z</time>
      </trkpt>
      <trkpt lat="62.640279010299" lon="17.893236382214">
        <ele>32.4</ele>
        <time>2018-01-06T11:26:31Z</time>
      </trkpt>
      <trkpt lat="62.640282698335" lon="17.893199250397">
        <ele>32.6</ele>
        <time>2018-01-06T11:26:32Z</time>
      </trkpt>
      <trkpt lat="62.64028311743" lon="17.893161950942">
        <ele>32.6</ele>
        <time>2018-01-06T11:26:33Z</time>
      </trkpt>
      <trkpt lat="62.640278507385" lon="17.893124902944">
        <ele>32.8</ele>
        <time>2018-01-06T11:26:34Z</time>
      </trkpt>
      <trkpt lat="62.640275154625" lon="17.893092632629">
        <ele>33</ele>
        <time>2018-01-06T11:26:35Z</time>
      </trkpt>
      <trkpt lat="62.640275489901" lon="17.893060362314">
        <ele>33.2</ele>
        <time>2018-01-06T11:26:36Z</time>
      </trkpt>
      <trkpt lat="62.640276328091" lon="17.893042760324">
        <ele>33.6</ele>
        <time>2018-01-06T11:26:37Z</time>
      </trkpt>
      <trkpt lat="62.640279345575" lon="17.893003449213">
        <ele>34</ele>
        <time>2018-01-06T11:26:38Z</time>
      </trkpt>
      <trkpt lat="62.640280351403" lon="17.892971514174">
        <ele>34.2</ele>
        <time>2018-01-06T11:26:39Z</time>
      </trkpt>
      <trkpt lat="62.640280183765" lon="17.892951816709">
        <ele>34.4</ele>
        <time>2018-01-06T11:26:40Z</time>
      </trkpt>
      <trkpt lat="62.6402772501" lon="17.892901190033">
        <ele>34.8</ele>
        <time>2018-01-06T11:26:41Z</time>
      </trkpt>
      <trkpt lat="62.640276579548" lon="17.892873110668">
        <ele>35</ele>
        <time>2018-01-06T11:26:42Z</time>
      </trkpt>
      <trkpt lat="62.640276914824" lon="17.892837236136">
        <ele>35</ele>
        <time>2018-01-06T11:26:43Z</time>
      </trkpt>
      <trkpt lat="62.640276747186" lon="17.892792057695">
        <ele>35.2</ele>
        <time>2018-01-06T11:26:44Z</time>
      </trkpt>
      <trkpt lat="62.640274232616" lon="17.892755680249">
        <ele>35.2</ele>
        <time>2018-01-06T11:26:45Z</time>
      </trkpt>
      <trkpt lat="62.640270796037" lon="17.89274050901">
        <ele>35.4</ele>
        <time>2018-01-06T11:26:46Z</time>
      </trkpt>
      <trkpt lat="62.640263252327" lon="17.892678818226">
        <ele>35.6</ele>
        <time>2018-01-06T11:26:47Z</time>
      </trkpt>
      <trkpt lat="62.640256714445" lon="17.892639674753">
        <ele>35.8</ele>
        <time>2018-01-06T11:26:48Z</time>
      </trkpt>
      <trkpt lat="62.640254199875" lon="17.892614445234">
        <ele>35.8</ele>
        <time>2018-01-06T11:26:49Z</time>
      </trkpt>
      <trkpt lat="62.640251685305" lon="17.892558286504">
        <ele>36</ele>
        <time>2018-01-06T11:26:50Z</time>
      </trkpt>
      <trkpt lat="62.640247242898" lon="17.892512772787">
        <ele>36</ele>
        <time>2018-01-06T11:26:51Z</time>
      </trkpt>
      <trkpt lat="62.640244644509" lon="17.892473294038">
        <ele>36</ele>
        <time>2018-01-06T11:26:52Z</time>
      </trkpt>
      <trkpt lat="62.640240202102" lon="17.892432390366">
        <ele>36</ele>
        <time>2018-01-06T11:26:53Z</time>
      </trkpt>
      <trkpt lat="62.640236430247" lon="17.892390564685">
        <ele>36.2</ele>
        <time>2018-01-06T11:26:54Z</time>
      </trkpt>
      <trkpt lat="62.640233748039" lon="17.892349828651">
        <ele>36.2</ele>
        <time>2018-01-06T11:26:55Z</time>
      </trkpt>
      <trkpt lat="62.640226791062" lon="17.892318564164">
        <ele>36.4</ele>
        <time>2018-01-06T11:26:56Z</time>
      </trkpt>
      <trkpt lat="62.640221594284" lon="17.892289059876">
        <ele>36.6</ele>
        <time>2018-01-06T11:26:57Z</time>
      </trkpt>
      <trkpt lat="62.640222432474" lon="17.8922468151">
        <ele>36.8</ele>
        <time>2018-01-06T11:26:58Z</time>
      </trkpt>
      <trkpt lat="62.640221678103" lon="17.892198451537">
        <ele>37</ele>
        <time>2018-01-06T11:26:59Z</time>
      </trkpt>
      <trkpt lat="62.640221426646" lon="17.892154530381">
        <ele>37.2</ele>
        <time>2018-01-06T11:27:00Z</time>
      </trkpt>
      <trkpt lat="62.640226539605" lon="17.892101305316">
        <ele>37.2</ele>
        <time>2018-01-06T11:27:01Z</time>
      </trkpt>
      <trkpt lat="62.640228802718" lon="17.892052857934">
        <ele>37</ele>
        <time>2018-01-06T11:27:02Z</time>
      </trkpt>
      <trkpt lat="62.640233496582" lon="17.89202553294">
        <ele>37</ele>
        <time>2018-01-06T11:27:03Z</time>
      </trkpt>
      <trkpt lat="62.640244812147" lon="17.891969038934">
        <ele>37</ele>
        <time>2018-01-06T11:27:04Z</time>
      </trkpt>
      <trkpt lat="62.640263671422" lon="17.891911120005">
        <ele>37</ele>
        <time>2018-01-06T11:27:05Z</time>
      </trkpt>
      <trkpt lat="62.64029317571" lon="17.891868120858">
        <ele>37</ele>
        <time>2018-01-06T11:27:06Z</time>
      </trkpt>
      <trkpt lat="62.640322428541" lon="17.891821182218">
        <ele>37</ele>
        <time>2018-01-06T11:27:07Z</time>
      </trkpt>
      <trkpt lat="62.640349921173" lon="17.891796623251">
        <ele>37</ele>
        <time>2018-01-06T11:27:08Z</time>
      </trkpt>
      <trkpt lat="62.640383197316" lon="17.891778099252">
        <ele>37</ele>
        <time>2018-01-06T11:27:09Z</time>
      </trkpt>
      <trkpt lat="62.640407253369" lon="17.891766616049">
        <ele>36.8</ele>
        <time>2018-01-06T11:27:10Z</time>
      </trkpt>
      <trkpt lat="62.640429633042" lon="17.891752199181">
        <ele>36.8</ele>
        <time>2018-01-06T11:27:11Z</time>
      </trkpt>
      <trkpt lat="62.640455952208" lon="17.891748846421">
        <ele>36.8</ele>
        <time>2018-01-06T11:27:12Z</time>
      </trkpt>
      <trkpt lat="62.640489060713" lon="17.891743482005">
        <ele>36.6</ele>
        <time>2018-01-06T11:27:13Z</time>
      </trkpt>
      <trkpt lat="62.640539184475" lon="17.891742559996">
        <ele>36.4</ele>
        <time>2018-01-06T11:27:14Z</time>
      </trkpt>
      <trkpt lat="62.64060917334" lon="17.891743984919">
        <ele>36.2</ele>
        <time>2018-01-06T11:27:15Z</time>
      </trkpt>
      <trkpt lat="62.640661727853" lon="17.891746080394">
        <ele>36</ele>
        <time>2018-01-06T11:27:16Z</time>
      </trkpt>
      <trkpt lat="62.640722915723" lon="17.891758904701">
        <ele>35.2</ele>
        <time>2018-01-06T11:27:17Z</time>
      </trkpt>
      <trkpt lat="62.640772871847" lon="17.891797461441">
        <ele>34.4</ele>
        <time>2018-01-06T11:27:18Z</time>
      </trkpt>
      <trkpt lat="62.640822576514" lon="17.891858062578">
        <ele>33.6</ele>
        <time>2018-01-06T11:27:19Z</time>
      </trkpt>
      <trkpt lat="62.640872197362" lon="17.891938025904">
        <ele>32.8</ele>
        <time>2018-01-06T11:27:20Z</time>
      </trkpt>
      <trkpt lat="62.640913855405" lon="17.892016983402">
        <ele>32.2</ele>
        <time>2018-01-06T11:27:21Z</time>
      </trkpt>
      <trkpt lat="62.640956770733" lon="17.892106250637">
        <ele>31.8</ele>
        <time>2018-01-06T11:27:22Z</time>
      </trkpt>
      <trkpt lat="62.641008822332" lon="17.892162074091">
        <ele>31.2</ele>
        <time>2018-01-06T11:27:23Z</time>
      </trkpt>
      <trkpt lat="62.64105089947" lon="17.892186381601">
        <ele>31.2</ele>
        <time>2018-01-06T11:27:24Z</time>
      </trkpt>
      <trkpt lat="62.641097670472" lon="17.892231224766">
        <ele>31</ele>
        <time>2018-01-06T11:27:25Z</time>
      </trkpt>
      <trkpt lat="62.641141926904" lon="17.892225189798">
        <ele>31</ele>
        <time>2018-01-06T11:27:26Z</time>
      </trkpt>
      <trkpt lat="62.641168665165" lon="17.892223764875">
        <ele>30.8</ele>
        <time>2018-01-06T11:27:27Z</time>
      </trkpt>
      <trkpt lat="62.641198756186" lon="17.89221747845">
        <ele>31</ele>
        <time>2018-01-06T11:27:28Z</time>
      </trkpt>
      <trkpt lat="62.64121937566" lon="17.892180095176">
        <ele>31</ele>
        <time>2018-01-06T11:27:29Z</time>
      </trkpt>
      <trkpt lat="62.641245694826" lon="17.892170875086">
        <ele>31</ele>
        <time>2018-01-06T11:27:30Z</time>
      </trkpt>
      <trkpt lat="62.641271427259" lon="17.892148830689">
        <ele>31</ele>
        <time>2018-01-06T11:27:31Z</time>
      </trkpt>
      <trkpt lat="62.641295567131" lon="17.89212527755">
        <ele>31.2</ele>
        <time>2018-01-06T11:27:32Z</time>
      </trkpt>
      <trkpt lat="62.641327585989" lon="17.892098287832">
        <ele>31.2</ele>
        <time>2018-01-06T11:27:33Z</time>
      </trkpt>
      <trkpt lat="62.64136773529" lon="17.892072890675">
        <ele>31.2</ele>
        <time>2018-01-06T11:27:34Z</time>
      </trkpt>
      <trkpt lat="62.641406627306" lon="17.892049253717">
        <ele>31.2</ele>
        <time>2018-01-06T11:27:35Z</time>
      </trkpt>
      <trkpt lat="62.641435125766" lon="17.8920288857">
        <ele>31.2</ele>
        <time>2018-01-06T11:27:36Z</time>
      </trkpt>
      <trkpt lat="62.641452224842" lon="17.892020839076">
        <ele>31</ele>
        <time>2018-01-06T11:27:37Z</time>
      </trkpt>
      <trkpt lat="62.641476364714" lon="17.892015977574">
        <ele>30.8</ele>
        <time>2018-01-06T11:27:38Z</time>
      </trkpt>
      <trkpt lat="62.641505869002" lon="17.89200374">
        <ele>30.6</ele>
        <time>2018-01-06T11:27:39Z</time>
      </trkpt>
      <trkpt lat="62.641542330267" lon="17.891967362554">
        <ele>30.2</ele>
        <time>2018-01-06T11:27:40Z</time>
      </trkpt>
      <trkpt lat="62.64158650288" lon="17.891949676745">
        <ele>30</ele>
        <time>2018-01-06T11:27:41Z</time>
      </trkpt>
      <trkpt lat="62.64163092695" lon="17.891937187714">
        <ele>29.6</ele>
        <time>2018-01-06T11:27:42Z</time>
      </trkpt>
      <trkpt lat="62.64167618921" lon="17.891928638176">
        <ele>28.8</ele>
        <time>2018-01-06T11:27:43Z</time>
      </trkpt>
      <trkpt lat="62.641719523633" lon="17.891921429742">
        <ele>28.2</ele>
        <time>2018-01-06T11:27:44Z</time>
      </trkpt>
      <trkpt lat="62.641759672934" lon="17.891913131661">
        <ele>27.6</ele>
        <time>2018-01-06T11:27:45Z</time>
      </trkpt>
      <trkpt lat="62.641795715104" lon="17.891897457508">
        <ele>26.8</ele>
        <time>2018-01-06T11:27:46Z</time>
      </trkpt>
      <trkpt lat="62.641840977364" lon="17.891871808894">
        <ele>26.2</ele>
        <time>2018-01-06T11:27:47Z</time>
      </trkpt>
      <trkpt lat="62.64188489852" lon="17.891840963502">
        <ele>25.8</ele>
        <time>2018-01-06T11:27:48Z</time>
      </trkpt>
      <trkpt lat="62.641947595132" lon="17.891809866653">
        <ele>25.2</ele>
        <time>2018-01-06T11:27:49Z</time>
      </trkpt>
      <trkpt lat="62.642002999491" lon="17.89177994327">
        <ele>25</ele>
        <time>2018-01-06T11:27:50Z</time>
      </trkpt>
      <trkpt lat="62.642059493497" lon="17.891751360991">
        <ele>24.2</ele>
        <time>2018-01-06T11:27:51Z</time>
      </trkpt>
      <trkpt lat="62.642117999159" lon="17.891722359617">
        <ele>23.2</ele>
        <time>2018-01-06T11:27:52Z</time>
      </trkpt>
      <trkpt lat="62.64218748511" lon="17.891672068217">
        <ele>22</ele>
        <time>2018-01-06T11:27:53Z</time>
      </trkpt>
      <trkpt lat="62.6422553785" lon="17.891614400745">
        <ele>20.8</ele>
        <time>2018-01-06T11:27:54Z</time>
      </trkpt>
      <trkpt lat="62.642324193899" lon="17.891542400224">
        <ele>18.8</ele>
        <time>2018-01-06T11:27:55Z</time>
      </trkpt>
      <trkpt lat="62.642384040665" lon="17.891463694183">
        <ele>17.6</ele>
        <time>2018-01-06T11:27:56Z</time>
      </trkpt>
      <trkpt lat="62.642436259902" lon="17.891382473572">
        <ele>16.8</ele>
        <time>2018-01-06T11:27:57Z</time>
      </trkpt>
      <trkpt lat="62.642467021475" lon="17.891312903802">
        <ele>16</ele>
        <time>2018-01-06T11:27:58Z</time>
      </trkpt>
      <trkpt lat="62.642486132207" lon="17.891249536638">
        <ele>15</ele>
        <time>2018-01-06T11:27:59Z</time>
      </trkpt>
      <trkpt lat="62.642497447772" lon="17.891198909962">
        <ele>14.4</ele>
        <time>2018-01-06T11:28:00Z</time>
      </trkpt>
      <trkpt lat="62.642503818016" lon="17.891145349621">
        <ele>14.4</ele>
        <time>2018-01-06T11:28:01Z</time>
      </trkpt>
      <trkpt lat="62.642509852984" lon="17.89108759833">
        <ele>14.8</ele>
        <time>2018-01-06T11:28:02Z</time>
      </trkpt>
      <trkpt lat="62.642503650378" lon="17.89104736521">
        <ele>15.4</ele>
        <time>2018-01-06T11:28:03Z</time>
      </trkpt>
      <trkpt lat="62.642497783048" lon="17.891021800415">
        <ele>16.2</ele>
        <time>2018-01-06T11:28:04Z</time>
      </trkpt>
      <trkpt lat="62.642483952913" lon="17.890956589233">
        <ele>17.4</ele>
        <time>2018-01-06T11:28:05Z</time>
      </trkpt>
      <trkpt lat="62.642468949312" lon="17.890917864855">
        <ele>17.8</ele>
        <time>2018-01-06T11:28:06Z</time>
      </trkpt>
      <trkpt lat="62.64245319134" lon="17.890885929816">
        <ele>17.8</ele>
        <time>2018-01-06T11:28:07Z</time>
      </trkpt>
      <trkpt lat="62.642408851089" lon="17.890843014488">
        <ele>17.8</ele>
        <time>2018-01-06T11:28:08Z</time>
      </trkpt>
      <trkpt lat="62.642371635453" lon="17.890810744173">
        <ele>18</ele>
        <time>2018-01-06T11:28:09Z</time>
      </trkpt>
      <trkpt lat="62.642327714297" lon="17.890782580989">
        <ele>17.8</ele>
        <time>2018-01-06T11:28:10Z</time>
      </trkpt>
      <trkpt lat="62.642280775657" lon="17.890750394493">
        <ele>17.6</ele>
        <time>2018-01-06T11:28:11Z</time>
      </trkpt>
      <trkpt lat="62.642235094302" lon="17.890717537445">
        <ele>17.4</ele>
        <time>2018-01-06T11:28:12Z</time>
      </trkpt>
      <trkpt lat="62.642203913634" lon="17.890706640975">
        <ele>17.2</ele>
        <time>2018-01-06T11:28:13Z</time>
      </trkpt>
      <trkpt lat="62.642174576984" lon="17.890691888831">
        <ele>16.8</ele>
        <time>2018-01-06T11:28:14Z</time>
      </trkpt>
      <trkpt lat="62.642143815411" lon="17.890676130859">
        <ele>16.8</ele>
        <time>2018-01-06T11:28:15Z</time>
      </trkpt>
      <trkpt lat="62.642128476534" lon="17.890667497502">
        <ele>16.6</ele>
        <time>2018-01-06T11:28:16Z</time>
      </trkpt>
      <trkpt lat="62.642110958363" lon="17.890662049267">
        <ele>16.6</ele>
        <time>2018-01-06T11:28:17Z</time>
      </trkpt>
      <trkpt lat="62.642093859287" lon="17.890655595204">
        <ele>16.6</ele>
        <time>2018-01-06T11:28:18Z</time>
      </trkpt>
      <trkpt lat="62.642073407451" lon="17.890632544979">
        <ele>16.6</ele>
        <time>2018-01-06T11:28:19Z</time>
      </trkpt>
      <trkpt lat="62.642057314203" lon="17.890619720672">
        <ele>16.6</ele>
        <time>2018-01-06T11:28:20Z</time>
      </trkpt>
      <trkpt lat="62.642041472412" lon="17.890609997668">
        <ele>16.6</ele>
        <time>2018-01-06T11:28:21Z</time>
      </trkpt>
      <trkpt lat="62.642028312829" lon="17.890603292148">
        <ele>16.8</ele>
        <time>2018-01-06T11:28:22Z</time>
      </trkpt>
      <trkpt lat="62.64201397978" lon="17.890599268836">
        <ele>17.2</ele>
        <time>2018-01-06T11:28:23Z</time>
      </trkpt>
      <trkpt lat="62.642002412758" lon="17.890594826429">
        <ele>17.4</ele>
        <time>2018-01-06T11:28:24Z</time>
      </trkpt>
      <trkpt lat="62.641991181012" lon="17.890591808945">
        <ele>17.8</ele>
        <time>2018-01-06T11:28:25Z</time>
      </trkpt>
      <trkpt lat="62.641977350877" lon="17.890587617995">
        <ele>18</ele>
        <time>2018-01-06T11:28:26Z</time>
      </trkpt>
      <trkpt lat="62.641961676724" lon="17.89058133157">
        <ele>18.2</ele>
        <time>2018-01-06T11:28:27Z</time>
      </trkpt>
      <trkpt lat="62.641959245973" lon="17.89057378786">
        <ele>18.2</ele>
        <time>2018-01-06T11:28:28Z</time>
      </trkpt>
      <trkpt lat="62.64193602811" lon="17.890554006576">
        <ele>18.4</ele>
        <time>2018-01-06T11:28:29Z</time>
      </trkpt>
      <trkpt lat="62.641925299278" lon="17.890544870305">
        <ele>18.6</ele>
        <time>2018-01-06T11:28:30Z</time>
      </trkpt>
      <trkpt lat="62.641914318989" lon="17.890530537256">
        <ele>18.8</ele>
        <time>2018-01-06T11:28:31Z</time>
      </trkpt>
      <trkpt lat="62.641903673976" lon="17.890513689637">
        <ele>19</ele>
        <time>2018-01-06T11:28:32Z</time>
      </trkpt>
      <trkpt lat="62.641896381723" lon="17.890501116787">
        <ele>19.2</ele>
        <time>2018-01-06T11:28:33Z</time>
      </trkpt>
      <trkpt lat="62.641888754194" lon="17.890489465946">
        <ele>19.6</ele>
        <time>2018-01-06T11:28:34Z</time>
      </trkpt>
      <trkpt lat="62.64187148748" lon="17.890476976915">
        <ele>20.2</ele>
        <time>2018-01-06T11:28:35Z</time>
      </trkpt>
      <trkpt lat="62.641858160259" lon="17.89046398497">
        <ele>20.6</ele>
        <time>2018-01-06T11:28:36Z</time>
      </trkpt>
      <trkpt lat="62.64184550359" lon="17.890449568102">
        <ele>20.8</ele>
        <time>2018-01-06T11:28:37Z</time>
      </trkpt>
      <trkpt lat="62.641833014559" lon="17.890437665804">
        <ele>21</ele>
        <time>2018-01-06T11:28:38Z</time>
      </trkpt>
      <trkpt lat="62.641818513872" lon="17.890423332755">
        <ele>21.2</ele>
        <time>2018-01-06T11:28:39Z</time>
      </trkpt>
      <trkpt lat="62.64180694685" lon="17.890406820412">
        <ele>21.4</ele>
        <time>2018-01-06T11:28:40Z</time>
      </trkpt>
      <trkpt lat="62.641790099231" lon="17.89038938606">
        <ele>21.6</ele>
        <time>2018-01-06T11:28:41Z</time>
      </trkpt>
      <trkpt lat="62.641775011811" lon="17.890371364975">
        <ele>21.8</ele>
        <time>2018-01-06T11:28:42Z</time>
      </trkpt>
      <trkpt lat="62.641764953531" lon="17.890353846804">
        <ele>22</ele>
        <time>2018-01-06T11:28:43Z</time>
      </trkpt>
      <trkpt lat="62.641751291034" lon="17.89033658009">
        <ele>22.4</ele>
        <time>2018-01-06T11:28:44Z</time>
      </trkpt>
      <trkpt lat="62.641740394564" lon="17.890320319204">
        <ele>22.8</ele>
        <time>2018-01-06T11:28:45Z</time>
      </trkpt>
      <trkpt lat="62.641726564429" lon="17.890302884852">
        <ele>23.2</ele>
        <time>2018-01-06T11:28:46Z</time>
      </trkpt>
      <trkpt lat="62.641712482837" lon="17.890281511007">
        <ele>23.6</ele>
        <time>2018-01-06T11:28:47Z</time>
      </trkpt>
      <trkpt lat="62.641699993806" lon="17.890256784402">
        <ele>24</ele>
        <time>2018-01-06T11:28:48Z</time>
      </trkpt>
      <trkpt lat="62.641684235834" lon="17.890231890159">
        <ele>24</ele>
        <time>2018-01-06T11:28:49Z</time>
      </trkpt>
      <trkpt lat="62.641671579165" lon="17.890207834106">
        <ele>24</ele>
        <time>2018-01-06T11:28:50Z</time>
      </trkpt>
      <trkpt lat="62.641660012143" lon="17.890182436949">
        <ele>24</ele>
        <time>2018-01-06T11:28:51Z</time>
      </trkpt>
      <trkpt lat="62.641654312451" lon="17.89015217829">
        <ele>24</ele>
        <time>2018-01-06T11:28:52Z</time>
      </trkpt>
      <trkpt lat="62.641651546424" lon="17.890116303758">
        <ele>24</ele>
        <time>2018-01-06T11:28:53Z</time>
      </trkpt>
      <trkpt lat="62.641647187836" lon="17.890087470022">
        <ele>24.2</ele>
        <time>2018-01-06T11:28:54Z</time>
      </trkpt>
      <trkpt lat="62.64164433799" lon="17.890071041498">
        <ele>24.4</ele>
        <time>2018-01-06T11:28:55Z</time>
      </trkpt>
      <trkpt lat="62.641642493972" lon="17.890062324322">
        <ele>24.4</ele>
        <time>2018-01-06T11:28:56Z</time>
      </trkpt>
      <trkpt lat="62.641641404325" lon="17.890053439508">
        <ele>24.6</ele>
        <time>2018-01-06T11:28:57Z</time>
      </trkpt>
      <trkpt lat="62.641638638298" lon="17.890047069264">
        <ele>24.6</ele>
        <time>2018-01-06T11:28:58Z</time>
      </trkpt>
      <trkpt lat="62.641574265306" lon="17.889656221267">
        <ele>24</ele>
        <time>2018-01-06T11:29:11Z</time>
      </trkpt>
      <trkpt lat="62.641569990537" lon="17.889590004257">
        <ele>23.6</ele>
        <time>2018-01-06T11:29:12Z</time>
      </trkpt>
      <trkpt lat="62.641568817071" lon="17.889508699827">
        <ele>23</ele>
        <time>2018-01-06T11:29:13Z</time>
      </trkpt>
      <trkpt lat="62.641569068528" lon="17.889425299922">
        <ele>22.2</ele>
        <time>2018-01-06T11:29:14Z</time>
      </trkpt>
      <trkpt lat="62.641570661089" lon="17.889339720723">
        <ele>21.6</ele>
        <time>2018-01-06T11:29:15Z</time>
      </trkpt>
      <trkpt lat="62.641579294446" lon="17.889230756023">
        <ele>21</ele>
        <time>2018-01-06T11:29:16Z</time>
      </trkpt>
      <trkpt lat="62.641588765993" lon="17.889125311721">
        <ele>20.6</ele>
        <time>2018-01-06T11:29:17Z</time>
      </trkpt>
      <trkpt lat="62.641604859241" lon="17.888996901013">
        <ele>20</ele>
        <time>2018-01-06T11:29:18Z</time>
      </trkpt>
      <trkpt lat="62.641631848959" lon="17.888818366543">
        <ele>19.4</ele>
        <time>2018-01-06T11:29:19Z</time>
      </trkpt>
      <trkpt lat="62.641656491745" lon="17.888666486515">
        <ele>18.8</ele>
        <time>2018-01-06T11:29:20Z</time>
      </trkpt>
      <trkpt lat="62.641688259146" lon="17.888519551808">
        <ele>18</ele>
        <time>2018-01-06T11:29:21Z</time>
      </trkpt>
      <trkpt lat="62.641727151162" lon="17.888373455291">
        <ele>17.2</ele>
        <time>2018-01-06T11:29:22Z</time>
      </trkpt>
      <trkpt lat="62.641764282979" lon="17.888274129776">
        <ele>15</ele>
        <time>2018-01-06T11:29:23Z</time>
      </trkpt>
      <trkpt lat="62.641795128371" lon="17.888181006867">
        <ele>13.2</ele>
        <time>2018-01-06T11:29:24Z</time>
      </trkpt>
      <trkpt lat="62.641824129745" lon="17.888103139016">
        <ele>12</ele>
        <time>2018-01-06T11:29:25Z</time>
      </trkpt>
      <trkpt lat="62.64185053273" lon="17.888037676377">
        <ele>11.2</ele>
        <time>2018-01-06T11:29:26Z</time>
      </trkpt>
      <trkpt lat="62.641875175516" lon="17.887979003077">
        <ele>10.8</ele>
        <time>2018-01-06T11:29:27Z</time>
      </trkpt>
      <trkpt lat="62.641893615696" lon="17.887937931767">
        <ele>10.6</ele>
        <time>2018-01-06T11:29:28Z</time>
      </trkpt>
      <trkpt lat="62.641916917378" lon="17.887888981471">
        <ele>10.8</ele>
        <time>2018-01-06T11:29:29Z</time>
      </trkpt>
      <trkpt lat="62.641935944291" lon="17.887852604025">
        <ele>11.2</ele>
        <time>2018-01-06T11:29:30Z</time>
      </trkpt>
      <trkpt lat="62.641954384471" lon="17.887814801656">
        <ele>11.6</ele>
        <time>2018-01-06T11:29:31Z</time>
      </trkpt>
      <trkpt lat="62.641973243746" lon="17.88777339507">
        <ele>11.8</ele>
        <time>2018-01-06T11:29:32Z</time>
      </trkpt>
      <trkpt lat="62.641991432469" lon="17.887744309877">
        <ele>11.6</ele>
        <time>2018-01-06T11:29:33Z</time>
      </trkpt>
      <trkpt lat="62.642006268432" lon="17.887701226911">
        <ele>11.6</ele>
        <time>2018-01-06T11:29:34Z</time>
      </trkpt>
      <trkpt lat="62.642025043888" lon="17.887668202225">
        <ele>11.6</ele>
        <time>2018-01-06T11:29:35Z</time>
      </trkpt>
      <trkpt lat="62.642041891507" lon="17.887636183367">
        <ele>11.4</ele>
        <time>2018-01-06T11:29:36Z</time>
      </trkpt>
      <trkpt lat="62.642062427162" lon="17.887605002699">
        <ele>11.6</ele>
        <time>2018-01-06T11:29:37Z</time>
      </trkpt>
      <trkpt lat="62.64208690231" lon="17.887568625253">
        <ele>11.8</ele>
        <time>2018-01-06T11:29:38Z</time>
      </trkpt>
      <trkpt lat="62.64211204801" lon="17.887536690214">
        <ele>11.8</ele>
        <time>2018-01-06T11:29:39Z</time>
      </trkpt>
      <trkpt lat="62.642130572009" lon="17.887508862306">
        <ele>11.8</ele>
        <time>2018-01-06T11:29:40Z</time>
      </trkpt>
      <trkpt lat="62.642146832895" lon="17.887470137928">
        <ele>11.8</ele>
        <time>2018-01-06T11:29:41Z</time>
      </trkpt>
      <trkpt lat="62.642161668858" lon="17.887448261169">
        <ele>11.8</ele>
        <time>2018-01-06T11:29:42Z</time>
      </trkpt>
      <trkpt lat="62.642178432658" lon="17.887418756881">
        <ele>12</ele>
        <time>2018-01-06T11:29:43Z</time>
      </trkpt>
      <trkpt lat="62.642193100983" lon="17.887402244538">
        <ele>12</ele>
        <time>2018-01-06T11:29:44Z</time>
      </trkpt>
      <trkpt lat="62.642204500367" lon="17.887374751906">
        <ele>12</ele>
        <time>2018-01-06T11:29:45Z</time>
      </trkpt>
      <trkpt lat="62.642213133724" lon="17.8873434036">
        <ele>12.2</ele>
        <time>2018-01-06T11:29:46Z</time>
      </trkpt>
      <trkpt lat="62.642222186176" lon="17.887317252072">
        <ele>12.4</ele>
        <time>2018-01-06T11:29:47Z</time>
      </trkpt>
      <trkpt lat="62.642229729886" lon="17.887287580146">
        <ele>12.4</ele>
        <time>2018-01-06T11:29:48Z</time>
      </trkpt>
      <trkpt lat="62.642239033795" lon="17.887258914048">
        <ele>12.6</ele>
        <time>2018-01-06T11:29:49Z</time>
      </trkpt>
      <trkpt lat="62.642244901125" lon="17.887231505235">
        <ele>12.8</ele>
        <time>2018-01-06T11:29:50Z</time>
      </trkpt>
      <trkpt lat="62.642246493686" lon="17.887201330395">
        <ele>12.8</ele>
        <time>2018-01-06T11:29:51Z</time>
      </trkpt>
      <trkpt lat="62.642248421523" lon="17.887169227718">
        <ele>12.6</ele>
        <time>2018-01-06T11:29:52Z</time>
      </trkpt>
      <trkpt lat="62.642245906953" lon="17.887142321819">
        <ele>13</ele>
        <time>2018-01-06T11:29:53Z</time>
      </trkpt>
      <trkpt lat="62.642245823134" lon="17.887105944373">
        <ele>13.2</ele>
        <time>2018-01-06T11:29:54Z</time>
      </trkpt>
      <trkpt lat="62.642246661324" lon="17.887065711253">
        <ele>13.2</ele>
        <time>2018-01-06T11:29:55Z</time>
      </trkpt>
      <trkpt lat="62.642246326048" lon="17.887023801753">
        <ele>13.4</ele>
        <time>2018-01-06T11:29:56Z</time>
      </trkpt>
      <trkpt lat="62.642245655496" lon="17.886982562805">
        <ele>13.6</ele>
        <time>2018-01-06T11:29:57Z</time>
      </trkpt>
      <trkpt lat="62.642243895297" lon="17.886948951386">
        <ele>13.6</ele>
        <time>2018-01-06T11:29:58Z</time>
      </trkpt>
      <trkpt lat="62.642241045451" lon="17.886911232836">
        <ele>13.8</ele>
        <time>2018-01-06T11:29:59Z</time>
      </trkpt>
      <trkpt lat="62.642237441234" lon="17.886873514286">
        <ele>14</ele>
        <time>2018-01-06T11:30:00Z</time>
      </trkpt>
      <trkpt lat="62.642232915008" lon="17.886839902867">
        <ele>14.2</ele>
        <time>2018-01-06T11:30:01Z</time>
      </trkpt>
      <trkpt lat="62.642228472601" lon="17.886808386923">
        <ele>14.4</ele>
        <time>2018-01-06T11:30:02Z</time>
      </trkpt>
      <trkpt lat="62.642222269995" lon="17.886766142147">
        <ele>14.6</ele>
        <time>2018-01-06T11:30:03Z</time>
      </trkpt>
      <trkpt lat="62.642213049905" lon="17.886722388629">
        <ele>14.8</ele>
        <time>2018-01-06T11:30:04Z</time>
      </trkpt>
      <trkpt lat="62.642206260566" lon="17.886683580432">
        <ele>15</ele>
        <time>2018-01-06T11:30:05Z</time>
      </trkpt>
      <trkpt lat="62.64220005796" lon="17.886648041176">
        <ele>15</ele>
        <time>2018-01-06T11:30:06Z</time>
      </trkpt>
      <trkpt lat="62.64219419063" lon="17.886613088653">
        <ele>15</ele>
        <time>2018-01-06T11:30:07Z</time>
      </trkpt>
      <trkpt lat="62.642187233653" lon="17.886579728691">
        <ele>15</ele>
        <time>2018-01-06T11:30:08Z</time>
      </trkpt>
      <trkpt lat="62.6421799414" lon="17.88654628491">
        <ele>15.4</ele>
        <time>2018-01-06T11:30:09Z</time>
      </trkpt>
      <trkpt lat="62.642172313871" lon="17.886513679319">
        <ele>15.6</ele>
        <time>2018-01-06T11:30:10Z</time>
      </trkpt>
      <trkpt lat="62.642164434885" lon="17.886482414832">
        <ele>15.8</ele>
        <time>2018-01-06T11:30:11Z</time>
      </trkpt>
      <trkpt lat="62.642157058813" lon="17.886452072354">
        <ele>16</ele>
        <time>2018-01-06T11:30:12Z</time>
      </trkpt>
      <trkpt lat="62.642148676913" lon="17.886432542527">
        <ele>16.4</ele>
        <time>2018-01-06T11:30:13Z</time>
      </trkpt>
      <trkpt lat="62.64214222285" lon="17.886412677424">
        <ele>16.6</ele>
        <time>2018-01-06T11:30:14Z</time>
      </trkpt>
      <trkpt lat="62.642134427683" lon="17.886390465389">
        <ele>17</ele>
        <time>2018-01-06T11:30:15Z</time>
      </trkpt>
      <trkpt lat="62.642125961964" lon="17.886365319689">
        <ele>17.2</ele>
        <time>2018-01-06T11:30:16Z</time>
      </trkpt>
      <trkpt lat="62.642117496245" lon="17.886344951672">
        <ele>17.4</ele>
        <time>2018-01-06T11:30:17Z</time>
      </trkpt>
      <trkpt lat="62.642109868716" lon="17.886323242551">
        <ele>17.6</ele>
        <time>2018-01-06T11:30:18Z</time>
      </trkpt>
      <trkpt lat="62.642101570635" lon="17.886302036344">
        <ele>17.8</ele>
        <time>2018-01-06T11:30:19Z</time>
      </trkpt>
      <trkpt lat="62.642093272554" lon="17.886280411042">
        <ele>17.8</ele>
        <time>2018-01-06T11:30:20Z</time>
      </trkpt>
      <trkpt lat="62.642085477387" lon="17.886257779912">
        <ele>18</ele>
        <time>2018-01-06T11:30:21Z</time>
      </trkpt>
      <trkpt lat="62.642077849858" lon="17.886231879841">
        <ele>18.2</ele>
        <time>2018-01-06T11:30:22Z</time>
      </trkpt>
      <trkpt lat="62.642064103542" lon="17.8862034652">
        <ele>18.4</ele>
        <time>2018-01-06T11:30:23Z</time>
      </trkpt>
      <trkpt lat="62.642050357226" lon="17.886173206541">
        <ele>18.6</ele>
        <time>2018-01-06T11:30:24Z</time>
      </trkpt>
      <trkpt lat="62.642035940358" lon="17.886144037529">
        <ele>18.8</ele>
        <time>2018-01-06T11:30:25Z</time>
      </trkpt>
      <trkpt lat="62.642022613137" lon="17.886117886001">
        <ele>19</ele>
        <time>2018-01-06T11:30:26Z</time>
      </trkpt>
      <trkpt lat="62.642010291744" lon="17.886093075577">
        <ele>19.2</ele>
        <time>2018-01-06T11:30:27Z</time>
      </trkpt>
      <trkpt lat="62.641996545428" lon="17.886068768067">
        <ele>19.4</ele>
        <time>2018-01-06T11:30:28Z</time>
      </trkpt>
      <trkpt lat="62.641982044741" lon="17.886037335942">
        <ele>19.6</ele>
        <time>2018-01-06T11:30:29Z</time>
      </trkpt>
      <trkpt lat="62.641969136615" lon="17.886017135563">
        <ele>19.6</ele>
        <time>2018-01-06T11:30:30Z</time>
      </trkpt>
      <trkpt lat="62.641954300652" lon="17.88599140313">
        <ele>19.8</ele>
        <time>2018-01-06T11:30:31Z</time>
      </trkpt>
      <trkpt lat="62.641937955947" lon="17.885957288797">
        <ele>19.8</ele>
        <time>2018-01-06T11:30:32Z</time>
      </trkpt>
      <trkpt lat="62.641926137468" lon="17.885931640183">
        <ele>20</ele>
        <time>2018-01-06T11:30:33Z</time>
      </trkpt>
      <trkpt lat="62.641910128039" lon="17.885907919406">
        <ele>20</ele>
        <time>2018-01-06T11:30:34Z</time>
      </trkpt>
      <trkpt lat="62.641893448058" lon="17.885876152005">
        <ele>20.2</ele>
        <time>2018-01-06T11:30:35Z</time>
      </trkpt>
      <trkpt lat="62.641878612095" lon="17.885845641889">
        <ele>20.2</ele>
        <time>2018-01-06T11:30:36Z</time>
      </trkpt>
      <trkpt lat="62.641864111408" lon="17.885809180624">
        <ele>20.2</ele>
        <time>2018-01-06T11:30:37Z</time>
      </trkpt>
      <trkpt lat="62.64184885635" lon="17.885785795123">
        <ele>20.4</ele>
        <time>2018-01-06T11:30:38Z</time>
      </trkpt>
      <trkpt lat="62.641832008731" lon="17.885751261695">
        <ele>20.6</ele>
        <time>2018-01-06T11:30:39Z</time>
      </trkpt>
      <trkpt lat="62.641812143628" lon="17.885715303344">
        <ele>20.6</ele>
        <time>2018-01-06T11:30:40Z</time>
      </trkpt>
      <trkpt lat="62.641789680136" lon="17.885675740776">
        <ele>20.6</ele>
        <time>2018-01-06T11:30:41Z</time>
      </trkpt>
      <trkpt lat="62.641768306291" lon="17.885642296995">
        <ele>20.4</ele>
        <time>2018-01-06T11:30:42Z</time>
      </trkpt>
      <trkpt lat="62.641749866111" lon="17.885604326988">
        <ele>20.4</ele>
        <time>2018-01-06T11:30:43Z</time>
      </trkpt>
      <trkpt lat="62.641731006836" lon="17.885571721397">
        <ele>20.2</ele>
        <time>2018-01-06T11:30:44Z</time>
      </trkpt>
      <trkpt lat="62.641714075398" lon="17.885543558213">
        <ele>20.2</ele>
        <time>2018-01-06T11:30:45Z</time>
      </trkpt>
      <trkpt lat="62.641699993806" lon="17.885519166884">
        <ele>20.2</ele>
        <time>2018-01-06T11:30:46Z</time>
      </trkpt>
      <trkpt lat="62.6416854093" lon="17.885493350632">
        <ele>20.2</ele>
        <time>2018-01-06T11:30:47Z</time>
      </trkpt>
      <trkpt lat="62.641669818966" lon="17.885465690362">
        <ele>20.2</ele>
        <time>2018-01-06T11:30:48Z</time>
      </trkpt>
      <trkpt lat="62.641657413754" lon="17.885444651793">
        <ele>20.4</ele>
        <time>2018-01-06T11:30:49Z</time>
      </trkpt>
      <trkpt lat="62.641644170352" lon="17.885417745894">
        <ele>20.6</ele>
        <time>2018-01-06T11:30:50Z</time>
      </trkpt>
      <trkpt lat="62.641630759312" lon="17.885386900502">
        <ele>20.8</ele>
        <time>2018-01-06T11:30:51Z</time>
      </trkpt>
      <trkpt lat="62.641617683548" lon="17.885355133101">
        <ele>21</ele>
        <time>2018-01-06T11:30:52Z</time>
      </trkpt>
      <trkpt lat="62.641602679947" lon="17.885330490315">
        <ele>21.4</ele>
        <time>2018-01-06T11:30:53Z</time>
      </trkpt>
      <trkpt lat="62.641589520364" lon="17.885304254968">
        <ele>21.6</ele>
        <time>2018-01-06T11:30:54Z</time>
      </trkpt>
      <trkpt lat="62.6415764446" lon="17.885279947458">
        <ele>21.6</ele>
        <time>2018-01-06T11:30:55Z</time>
      </trkpt>
      <trkpt lat="62.641564207026" lon="17.885255807586">
        <ele>21.8</ele>
        <time>2018-01-06T11:30:56Z</time>
      </trkpt>
      <trkpt lat="62.641553059099" lon="17.885229739877">
        <ele>22</ele>
        <time>2018-01-06T11:30:57Z</time>
      </trkpt>
      <trkpt lat="62.641540318611" lon="17.885213059896">
        <ele>22.2</ele>
        <time>2018-01-06T11:30:58Z</time>
      </trkpt>
      <trkpt lat="62.64152866777" lon="17.885191099318">
        <ele>22.4</ele>
        <time>2018-01-06T11:30:59Z</time>
      </trkpt>
      <trkpt lat="62.64151693311" lon="17.885170144568">
        <ele>22.6</ele>
        <time>2018-01-06T11:31:00Z</time>
      </trkpt>
      <trkpt lat="62.64150436026" lon="17.885147429619">
        <ele>22.8</ele>
        <time>2018-01-06T11:31:01Z</time>
      </trkpt>
      <trkpt lat="62.64149178741" lon="17.885122954471">
        <ele>23</ele>
        <time>2018-01-06T11:31:02Z</time>
      </trkpt>
      <trkpt lat="62.641480974759" lon="17.885100490979">
        <ele>23.4</ele>
        <time>2018-01-06T11:31:03Z</time>
      </trkpt>
      <trkpt lat="62.641466976986" lon="17.885071154329">
        <ele>23.6</ele>
        <time>2018-01-06T11:31:04Z</time>
      </trkpt>
      <trkpt lat="62.641454236498" lon="17.885043494059">
        <ele>23.8</ele>
        <time>2018-01-06T11:31:05Z</time>
      </trkpt>
      <trkpt lat="62.641441412191" lon="17.885017677807">
        <ele>24</ele>
        <time>2018-01-06T11:31:06Z</time>
      </trkpt>
      <trkpt lat="62.641428336427" lon="17.884990520451">
        <ele>24.2</ele>
        <time>2018-01-06T11:31:07Z</time>
      </trkpt>
      <trkpt lat="62.641417272319" lon="17.884973086099">
        <ele>24.4</ele>
        <time>2018-01-06T11:31:08Z</time>
      </trkpt>
      <trkpt lat="62.641406124392" lon="17.884951712254">
        <ele>24.2</ele>
        <time>2018-01-06T11:31:09Z</time>
      </trkpt>
      <trkpt lat="62.6413920428" lon="17.884924638717">
        <ele>24.4</ele>
        <time>2018-01-06T11:31:10Z</time>
      </trkpt>
      <trkpt lat="62.641375027543" lon="17.884897648999">
        <ele>24.4</ele>
        <time>2018-01-06T11:31:11Z</time>
      </trkpt>
      <trkpt lat="62.641358766657" lon="17.884872168023">
        <ele>24.4</ele>
        <time>2018-01-06T11:31:12Z</time>
      </trkpt>
      <trkpt lat="62.641343679237" lon="17.884849201617">
        <ele>24.4</ele>
        <time>2018-01-06T11:31:13Z</time>
      </trkpt>
      <trkpt lat="62.641325993428" lon="17.884818440044">
        <ele>24.4</ele>
        <time>2018-01-06T11:31:14Z</time>
      </trkpt>
      <trkpt lat="62.641311492741" lon="17.884795473638">
        <ele>24.4</ele>
        <time>2018-01-06T11:31:15Z</time>
      </trkpt>
      <trkpt lat="62.641295986226" lon="17.884767058997">
        <ele>24.4</ele>
        <time>2018-01-06T11:31:16Z</time>
      </trkpt>
      <trkpt lat="62.641279054788" lon="17.884729759542">
        <ele>24.6</ele>
        <time>2018-01-06T11:31:17Z</time>
      </trkpt>
      <trkpt lat="62.641265057015" lon="17.884708637154">
        <ele>24.6</ele>
        <time>2018-01-06T11:31:18Z</time>
      </trkpt>
      <trkpt lat="62.64125206507" lon="17.884685084015">
        <ele>24.8</ele>
        <time>2018-01-06T11:31:19Z</time>
      </trkpt>
      <trkpt lat="62.641238234935" lon="17.884663626351">
        <ele>25</ele>
        <time>2018-01-06T11:31:20Z</time>
      </trkpt>
      <trkpt lat="62.641225913542" lon="17.884644683257">
        <ele>25.2</ele>
        <time>2018-01-06T11:31:21Z</time>
      </trkpt>
      <trkpt lat="62.641214178882" lon="17.884624482878">
        <ele>25.4</ele>
        <time>2018-01-06T11:31:22Z</time>
      </trkpt>
      <trkpt lat="62.641197834177" lon="17.88460000773">
        <ele>25.6</ele>
        <time>2018-01-06T11:31:23Z</time>
      </trkpt>
      <trkpt lat="62.641183584947" lon="17.884576622229">
        <ele>26</ele>
        <time>2018-01-06T11:31:24Z</time>
      </trkpt>
      <trkpt lat="62.641169670993" lon="17.884548626683">
        <ele>26.2</ele>
        <time>2018-01-06T11:31:25Z</time>
      </trkpt>
      <trkpt lat="62.64115483503" lon="17.884517529834">
        <ele>26.4</ele>
        <time>2018-01-06T11:31:26Z</time>
      </trkpt>
      <trkpt lat="62.641140669619" lon="17.884485259519">
        <ele>26.6</ele>
        <time>2018-01-06T11:31:27Z</time>
      </trkpt>
      <trkpt lat="62.641127426217" lon="17.88446086819">
        <ele>26.6</ele>
        <time>2018-01-06T11:31:28Z</time>
      </trkpt>
      <trkpt lat="62.64111292553" lon="17.884436895956">
        <ele>26.8</ele>
        <time>2018-01-06T11:31:29Z</time>
      </trkpt>
      <trkpt lat="62.64109783811" lon="17.884406302021">
        <ele>26.8</ele>
        <time>2018-01-06T11:31:30Z</time>
      </trkpt>
      <trkpt lat="62.641081828681" lon="17.884371265679">
        <ele>27</ele>
        <time>2018-01-06T11:31:31Z</time>
      </trkpt>
      <trkpt lat="62.64106682508" lon="17.884334217681">
        <ele>27</ele>
        <time>2018-01-06T11:31:32Z</time>
      </trkpt>
      <trkpt lat="62.641057940266" lon="17.884321980107">
        <ele>27</ele>
        <time>2018-01-06T11:31:33Z</time>
      </trkpt>
      <trkpt lat="62.64104503214" lon="17.884277388399">
        <ele>27.4</ele>
        <time>2018-01-06T11:31:34Z</time>
      </trkpt>
      <trkpt lat="62.641033548937" lon="17.884244028437">
        <ele>27.2</ele>
        <time>2018-01-06T11:31:35Z</time>
      </trkpt>
      <trkpt lat="62.641021981915" lon="17.884214188873">
        <ele>27.4</ele>
        <time>2018-01-06T11:31:36Z</time>
      </trkpt>
      <trkpt lat="62.641010163436" lon="17.884179823083">
        <ele>27.4</ele>
        <time>2018-01-06T11:31:37Z</time>
      </trkpt>
      <trkpt lat="62.640995495111" lon="17.88414403237">
        <ele>27.4</ele>
        <time>2018-01-06T11:31:38Z</time>
      </trkpt>
      <trkpt lat="62.64098635884" lon="17.884119138127">
        <ele>27.2</ele>
        <time>2018-01-06T11:31:39Z</time>
      </trkpt>
      <trkpt lat="62.640976971112" lon="17.884093238056">
        <ele>27.4</ele>
        <time>2018-01-06T11:31:40Z</time>
      </trkpt>
      <trkpt lat="62.640963811529" lon="17.884042946656">
        <ele>27.6</ele>
        <time>2018-01-06T11:31:41Z</time>
      </trkpt>
      <trkpt lat="62.640950484308" lon="17.884000869518">
        <ele>27.6</ele>
        <time>2018-01-06T11:31:42Z</time>
      </trkpt>
      <trkpt lat="62.640943024417" lon="17.88396968885">
        <ele>27.8</ele>
        <time>2018-01-06T11:31:43Z</time>
      </trkpt>
      <trkpt lat="62.640929278101" lon="17.883926605884">
        <ele>28</ele>
        <time>2018-01-06T11:31:44Z</time>
      </trkpt>
      <trkpt lat="62.640913603948" lon="17.883880924529">
        <ele>28.2</ele>
        <time>2018-01-06T11:31:45Z</time>
      </trkpt>
      <trkpt lat="62.640905808781" lon="17.883857706666">
        <ele>28.2</ele>
        <time>2018-01-06T11:31:46Z</time>
      </trkpt>
      <trkpt lat="62.640894325578" lon="17.883827531826">
        <ele>28.2</ele>
        <time>2018-01-06T11:31:47Z</time>
      </trkpt>
      <trkpt lat="62.640886195135" lon="17.883789645638">
        <ele>28.2</ele>
        <time>2018-01-06T11:31:48Z</time>
      </trkpt>
      <trkpt lat="62.640879573434" lon="17.883753687287">
        <ele>28.2</ele>
        <time>2018-01-06T11:31:49Z</time>
      </trkpt>
      <trkpt lat="62.640876472131" lon="17.883718986221">
        <ele>28.2</ele>
        <time>2018-01-06T11:31:50Z</time>
      </trkpt>
      <trkpt lat="62.640874460475" lon="17.883685961535">
        <ele>28.4</ele>
        <time>2018-01-06T11:31:51Z</time>
      </trkpt>
      <trkpt lat="62.640871694448" lon="17.883650422279">
        <ele>28.6</ele>
        <time>2018-01-06T11:31:52Z</time>
      </trkpt>
      <trkpt lat="62.640872197362" lon="17.883612703729">
        <ele>28.8</ele>
        <time>2018-01-06T11:31:53Z</time>
      </trkpt>
      <trkpt lat="62.640868425507" lon="17.883584708183">
        <ele>29</ele>
        <time>2018-01-06T11:31:54Z</time>
      </trkpt>
      <trkpt lat="62.64086230672" lon="17.883559730121">
        <ele>29.2</ele>
        <time>2018-01-06T11:31:55Z</time>
      </trkpt>
      <trkpt lat="62.640861719987" lon="17.883530225833">
        <ele>29.4</ele>
        <time>2018-01-06T11:31:56Z</time>
      </trkpt>
      <trkpt lat="62.640860881797" lon="17.883497284966">
        <ele>29.4</ele>
        <time>2018-01-06T11:31:57Z</time>
      </trkpt>
      <trkpt lat="62.640857780494" lon="17.883468702687">
        <ele>29.6</ele>
        <time>2018-01-06T11:31:58Z</time>
      </trkpt>
      <trkpt lat="62.640856858485" lon="17.88343576182">
        <ele>29.8</ele>
        <time>2018-01-06T11:31:59Z</time>
      </trkpt>
      <trkpt lat="62.640859373055" lon="17.88340139603">
        <ele>30</ele>
        <time>2018-01-06T11:32:00Z</time>
      </trkpt>
      <trkpt lat="62.640860127426" lon="17.88336703024">
        <ele>30.2</ele>
        <time>2018-01-06T11:32:01Z</time>
      </trkpt>
      <trkpt lat="62.640858618684" lon="17.88333266445">
        <ele>30.4</ele>
        <time>2018-01-06T11:32:02Z</time>
      </trkpt>
      <trkpt lat="62.640855433562" lon="17.883306932017">
        <ele>30.6</ele>
        <time>2018-01-06T11:32:03Z</time>
      </trkpt>
      <trkpt lat="62.640852583716" lon="17.88327399115">
        <ele>30.8</ele>
        <time>2018-01-06T11:32:04Z</time>
      </trkpt>
      <trkpt lat="62.640848308947" lon="17.883238619532">
        <ele>31.2</ele>
        <time>2018-01-06T11:32:05Z</time>
      </trkpt>
      <trkpt lat="62.640846548748" lon="17.883206684493">
        <ele>31.4</ele>
        <time>2018-01-06T11:32:06Z</time>
      </trkpt>
      <trkpt lat="62.640846548748" lon="17.883177850757">
        <ele>31.4</ele>
        <time>2018-01-06T11:32:07Z</time>
      </trkpt>
      <trkpt lat="62.640843531264" lon="17.883148346469">
        <ele>31.8</ele>
        <time>2018-01-06T11:32:08Z</time>
      </trkpt>
      <trkpt lat="62.640838502124" lon="17.883117920172">
        <ele>31.8</ele>
        <time>2018-01-06T11:32:09Z</time>
      </trkpt>
      <trkpt lat="62.64083213188" lon="17.883087661513">
        <ele>31.8</ele>
        <time>2018-01-06T11:32:10Z</time>
      </trkpt>
      <trkpt lat="62.640832383337" lon="17.883044578547">
        <ele>32</ele>
        <time>2018-01-06T11:32:11Z</time>
      </trkpt>
      <trkpt lat="62.640830874595" lon="17.882997556088">
        <ele>32.2</ele>
        <time>2018-01-06T11:32:12Z</time>
      </trkpt>
      <trkpt lat="62.640833472984" lon="17.882958580253">
        <ele>32.2</ele>
        <time>2018-01-06T11:32:13Z</time>
      </trkpt>
      <trkpt lat="62.640838166848" lon="17.882916335477">
        <ele>32.2</ele>
        <time>2018-01-06T11:32:14Z</time>
      </trkpt>
      <trkpt lat="62.640842273979" lon="17.882881969687">
        <ele>32.4</ele>
        <time>2018-01-06T11:32:15Z</time>
      </trkpt>
      <trkpt lat="62.640845123825" lon="17.882833606124">
        <ele>32.6</ele>
        <time>2018-01-06T11:32:16Z</time>
      </trkpt>
      <trkpt lat="62.640848308947" lon="17.8828004138">
        <ele>32.8</ele>
        <time>2018-01-06T11:32:17Z</time>
      </trkpt>
      <trkpt lat="62.640854008639" lon="17.882762527612">
        <ele>32.8</ele>
        <time>2018-01-06T11:32:18Z</time>
      </trkpt>
      <trkpt lat="62.640860881797" lon="17.882726485442">
        <ele>33</ele>
        <time>2018-01-06T11:32:19Z</time>
      </trkpt>
      <trkpt lat="62.640870101887" lon="17.882683318657">
        <ele>33.2</ele>
        <time>2018-01-06T11:32:20Z</time>
      </trkpt>
      <trkpt lat="62.640880076348" lon="17.882639397501">
        <ele>33.4</ele>
        <time>2018-01-06T11:32:21Z</time>
      </trkpt>
      <trkpt lat="62.640888793524" lon="17.882600421666">
        <ele>33.4</ele>
        <time>2018-01-06T11:32:22Z</time>
      </trkpt>
      <trkpt lat="62.640902288383" lon="17.882518195227">
        <ele>33.6</ele>
        <time>2018-01-06T11:32:23Z</time>
      </trkpt>
      <trkpt lat="62.640911005559" lon="17.882464970162">
        <ele>33.6</ele>
        <time>2018-01-06T11:32:24Z</time>
      </trkpt>
      <trkpt lat="62.640917375803" lon="17.882418282979">
        <ele>33.4</ele>
        <time>2018-01-06T11:32:25Z</time>
      </trkpt>
      <trkpt lat="62.640919471278" lon="17.88236539319">
        <ele>33.2</ele>
        <time>2018-01-06T11:32:26Z</time>
      </trkpt>
      <trkpt lat="62.640919052183" lon="17.882317197265">
        <ele>33.4</ele>
        <time>2018-01-06T11:32:27Z</time>
      </trkpt>
      <trkpt lat="62.640916453794" lon="17.882284843131">
        <ele>33.2</ele>
        <time>2018-01-06T11:32:28Z</time>
      </trkpt>
      <trkpt lat="62.640915447966" lon="17.882242765993">
        <ele>33.4</ele>
        <time>2018-01-06T11:32:29Z</time>
      </trkpt>
      <trkpt lat="62.640912933396" lon="17.882202449054">
        <ele>33.4</ele>
        <time>2018-01-06T11:32:30Z</time>
      </trkpt>
      <trkpt lat="62.64090840717" lon="17.882164311409">
        <ele>33.4</ele>
        <time>2018-01-06T11:32:31Z</time>
      </trkpt>
      <trkpt lat="62.640901785469" lon="17.882126425221">
        <ele>33.4</ele>
        <time>2018-01-06T11:32:32Z</time>
      </trkpt>
      <trkpt lat="62.640892816836" lon="17.882092729983">
        <ele>33.6</ele>
        <time>2018-01-06T11:32:33Z</time>
      </trkpt>
      <trkpt lat="62.640883932022" lon="17.882061716953">
        <ele>33.8</ele>
        <time>2018-01-06T11:32:34Z</time>
      </trkpt>
      <trkpt lat="62.640879154339" lon="17.88202844081">
        <ele>33.8</ele>
        <time>2018-01-06T11:32:35Z</time>
      </trkpt>
      <trkpt lat="62.640872700276" lon="17.881995080848">
        <ele>34.2</ele>
        <time>2018-01-06T11:32:36Z</time>
      </trkpt>
      <trkpt lat="62.6408639831" lon="17.88196054742">
        <ele>34.2</ele>
        <time>2018-01-06T11:32:37Z</time>
      </trkpt>
      <trkpt lat="62.640859289236" lon="17.881935150263">
        <ele>34.4</ele>
        <time>2018-01-06T11:32:38Z</time>
      </trkpt>
      <trkpt lat="62.640853421906" lon="17.881901622663">
        <ele>34.4</ele>
        <time>2018-01-06T11:32:39Z</time>
      </trkpt>
      <trkpt lat="62.640847638395" lon="17.881865329036">
        <ele>34.6</ele>
        <time>2018-01-06T11:32:40Z</time>
      </trkpt>
      <trkpt lat="62.640836741925" lon="17.881846721218">
        <ele>34.6</ele>
        <time>2018-01-06T11:32:41Z</time>
      </trkpt>
      <trkpt lat="62.640831209871" lon="17.88182224607">
        <ele>34.8</ele>
        <time>2018-01-06T11:32:42Z</time>
      </trkpt>
      <trkpt lat="62.640820900134" lon="17.881790981583">
        <ele>35</ele>
        <time>2018-01-06T11:32:43Z</time>
      </trkpt>
      <trkpt lat="62.640819139935" lon="17.881759968553">
        <ele>35.2</ele>
        <time>2018-01-06T11:32:44Z</time>
      </trkpt>
      <trkpt lat="62.640810758035" lon="17.881727027686">
        <ele>35.4</ele>
        <time>2018-01-06T11:32:45Z</time>
      </trkpt>
      <trkpt lat="62.64080279523" lon="17.881703558366">
        <ele>35.6</ele>
        <time>2018-01-06T11:32:46Z</time>
      </trkpt>
      <trkpt lat="62.640797263176" lon="17.881671455689">
        <ele>35.6</ele>
        <time>2018-01-06T11:32:47Z</time>
      </trkpt>
      <trkpt lat="62.640783265403" lon="17.881635497338">
        <ele>35.8</ele>
        <time>2018-01-06T11:32:48Z</time>
      </trkpt>
      <trkpt lat="62.640773374761" lon="17.881601550643">
        <ele>36</ele>
        <time>2018-01-06T11:32:49Z</time>
      </trkpt>
      <trkpt lat="62.64076423849" lon="17.881568693595">
        <ele>36.2</ele>
        <time>2018-01-06T11:32:50Z</time>
      </trkpt>
      <trkpt lat="62.640754264029" lon="17.881537177651">
        <ele>36.4</ele>
        <time>2018-01-06T11:32:51Z</time>
      </trkpt>
      <trkpt lat="62.640744373387" lon="17.881499626739">
        <ele>36.4</ele>
        <time>2018-01-06T11:32:52Z</time>
      </trkpt>
      <trkpt lat="62.640731800537" lon="17.881461489094">
        <ele>36.4</ele>
        <time>2018-01-06T11:32:53Z</time>
      </trkpt>
      <trkpt lat="62.640722412809" lon="17.881431146616">
        <ele>36.6</ele>
        <time>2018-01-06T11:32:54Z</time>
      </trkpt>
      <trkpt lat="62.640713360357" lon="17.881400552681">
        <ele>36.6</ele>
        <time>2018-01-06T11:32:55Z</time>
      </trkpt>
      <trkpt lat="62.640701122783" lon="17.881343974856">
        <ele>36.8</ele>
        <time>2018-01-06T11:32:56Z</time>
      </trkpt>
      <trkpt lat="62.640690645408" lon="17.881295946569">
        <ele>36.8</ele>
        <time>2018-01-06T11:32:57Z</time>
      </trkpt>
      <trkpt lat="62.640683604612" lon="17.881265604091">
        <ele>36.8</ele>
        <time>2018-01-06T11:32:58Z</time>
      </trkpt>
      <trkpt lat="62.640673965427" lon="17.881227466446">
        <ele>37</ele>
        <time>2018-01-06T11:32:59Z</time>
      </trkpt>
      <trkpt lat="62.640664745337" lon="17.88118773624">
        <ele>37</ele>
        <time>2018-01-06T11:33:00Z</time>
      </trkpt>
      <trkpt lat="62.640657201627" lon="17.88114582674">
        <ele>37</ele>
        <time>2018-01-06T11:33:01Z</time>
      </trkpt>
      <trkpt lat="62.640651166659" lon="17.881101151213">
        <ele>37.2</ele>
        <time>2018-01-06T11:33:02Z</time>
      </trkpt>
      <trkpt lat="62.640650831383" lon="17.881054296392">
        <ele>37.4</ele>
        <time>2018-01-06T11:33:03Z</time>
      </trkpt>
      <trkpt lat="62.640649574098" lon="17.881008698856">
        <ele>37.6</ele>
        <time>2018-01-06T11:33:04Z</time>
      </trkpt>
      <trkpt lat="62.640649071184" lon="17.880966286442">
        <ele>37.8</ele>
        <time>2018-01-06T11:33:05Z</time>
      </trkpt>
      <trkpt lat="62.640649657917" lon="17.88092454458">
        <ele>37.8</ele>
        <time>2018-01-06T11:33:06Z</time>
      </trkpt>
      <trkpt lat="62.640651250478" lon="17.880880288148">
        <ele>38</ele>
        <time>2018-01-06T11:33:07Z</time>
      </trkpt>
      <trkpt lat="62.64065527379" lon="17.880828907101">
        <ele>38</ele>
        <time>2018-01-06T11:33:08Z</time>
      </trkpt>
      <trkpt lat="62.640656698713" lon="17.880780543538">
        <ele>38.2</ele>
        <time>2018-01-06T11:33:09Z</time>
      </trkpt>
      <trkpt lat="62.640657453084" lon="17.8807384664">
        <ele>38.2</ele>
        <time>2018-01-06T11:33:10Z</time>
      </trkpt>
      <trkpt lat="62.640666673174" lon="17.880697143633">
        <ele>38.4</ele>
        <time>2018-01-06T11:33:11Z</time>
      </trkpt>
      <trkpt lat="62.640676815273" lon="17.880652803382">
        <ele>38.6</ele>
        <time>2018-01-06T11:33:12Z</time>
      </trkpt>
      <trkpt lat="62.640686370639" lon="17.880615420108">
        <ele>38.8</ele>
        <time>2018-01-06T11:33:13Z</time>
      </trkpt>
      <trkpt lat="62.640697350928" lon="17.880576611911">
        <ele>39</ele>
        <time>2018-01-06T11:33:14Z</time>
      </trkpt>
      <trkpt lat="62.640709169407" lon="17.880538306628">
        <ele>39</ele>
        <time>2018-01-06T11:33:15Z</time>
      </trkpt>
      <trkpt lat="62.640721658438" lon="17.880504946666">
        <ele>39.2</ele>
        <time>2018-01-06T11:33:16Z</time>
      </trkpt>
      <trkpt lat="62.640732554908" lon="17.880470916152">
        <ele>39.2</ele>
        <time>2018-01-06T11:33:17Z</time>
      </trkpt>
      <trkpt lat="62.640743619016" lon="17.880454571447">
        <ele>39.2</ele>
        <time>2018-01-06T11:33:18Z</time>
      </trkpt>
      <trkpt lat="62.640754599305" lon="17.880417607268">
        <ele>39.4</ele>
        <time>2018-01-06T11:33:19Z</time>
      </trkpt>
      <trkpt lat="62.640767926526" lon="17.880383409116">
        <ele>39.4</ele>
        <time>2018-01-06T11:33:20Z</time>
      </trkpt>
      <trkpt lat="62.640782511032" lon="17.880345774385">
        <ele>39.4</ele>
        <time>2018-01-06T11:33:21Z</time>
      </trkpt>
      <trkpt lat="62.640794078054" lon="17.880307720559">
        <ele>39.6</ele>
        <time>2018-01-06T11:33:22Z</time>
      </trkpt>
      <trkpt lat="62.640803968696" lon="17.880278719185">
        <ele>39.8</ele>
        <time>2018-01-06T11:33:23Z</time>
      </trkpt>
      <trkpt lat="62.640815787175" lon="17.880239240436">
        <ele>40</ele>
        <time>2018-01-06T11:33:24Z</time>
      </trkpt>
      <trkpt lat="62.640830120224" lon="17.880195570737">
        <ele>40.2</ele>
        <time>2018-01-06T11:33:25Z</time>
      </trkpt>
      <trkpt lat="62.640838669762" lon="17.880166150268">
        <ele>40.4</ele>
        <time>2018-01-06T11:33:26Z</time>
      </trkpt>
      <trkpt lat="62.640847135481" lon="17.880134885781">
        <ele>40.4</ele>
        <time>2018-01-06T11:33:27Z</time>
      </trkpt>
      <trkpt lat="62.640863899281" lon="17.880085851666">
        <ele>40.6</ele>
        <time>2018-01-06T11:33:28Z</time>
      </trkpt>
      <trkpt lat="62.640873622285" lon="17.880050396229">
        <ele>40.8</ele>
        <time>2018-01-06T11:33:29Z</time>
      </trkpt>
      <trkpt lat="62.640886027497" lon="17.880007397082">
        <ele>40.8</ele>
        <time>2018-01-06T11:33:30Z</time>
      </trkpt>
      <trkpt lat="62.640897929795" lon="17.8799673316">
        <ele>40.6</ele>
        <time>2018-01-06T11:33:31Z</time>
      </trkpt>
      <trkpt lat="62.640908323351" lon="17.879931624706">
        <ele>40.6</ele>
        <time>2018-01-06T11:33:32Z</time>
      </trkpt>
      <trkpt lat="62.640916872889" lon="17.87989860002">
        <ele>40.4</ele>
        <time>2018-01-06T11:33:33Z</time>
      </trkpt>
      <trkpt lat="62.640931708852" lon="17.879843363299">
        <ele>40.2</ele>
        <time>2018-01-06T11:33:34Z</time>
      </trkpt>
      <trkpt lat="62.640940845123" lon="17.879815535391">
        <ele>40</ele>
        <time>2018-01-06T11:33:35Z</time>
      </trkpt>
      <trkpt lat="62.640951657774" lon="17.879778319755">
        <ele>40.2</ele>
        <time>2018-01-06T11:33:36Z</time>
      </trkpt>
      <trkpt lat="62.640964230624" lon="17.879734733875">
        <ele>40</ele>
        <time>2018-01-06T11:33:37Z</time>
      </trkpt>
      <trkpt lat="62.640972696343" lon="17.879700619542">
        <ele>40.2</ele>
        <time>2018-01-06T11:33:38Z</time>
      </trkpt>
      <trkpt lat="62.640979485682" lon="17.8796655832">
        <ele>40.2</ele>
        <time>2018-01-06T11:33:39Z</time>
      </trkpt>
      <trkpt lat="62.64099054979" lon="17.879628283745">
        <ele>40.4</ele>
        <time>2018-01-06T11:33:40Z</time>
      </trkpt>
      <trkpt lat="62.641003290278" lon="17.879586458064">
        <ele>40.4</ele>
        <time>2018-01-06T11:33:41Z</time>
      </trkpt>
      <trkpt lat="62.641012426549" lon="17.879554271568">
        <ele>40.6</ele>
        <time>2018-01-06T11:33:42Z</time>
      </trkpt>
      <trkpt lat="62.641021311363" lon="17.879516133923">
        <ele>40.6</ele>
        <time>2018-01-06T11:33:43Z</time>
      </trkpt>
      <trkpt lat="62.641032040195" lon="17.879475733165">
        <ele>40.6</ele>
        <time>2018-01-06T11:33:44Z</time>
      </trkpt>
      <trkpt lat="62.641042098475" lon="17.879434494217">
        <ele>40.8</ele>
        <time>2018-01-06T11:33:45Z</time>
      </trkpt>
      <trkpt lat="62.641050564194" lon="17.879398116771">
        <ele>41</ele>
        <time>2018-01-06T11:33:46Z</time>
      </trkpt>
      <trkpt lat="62.641054336049" lon="17.879374312175">
        <ele>41</ele>
        <time>2018-01-06T11:33:47Z</time>
      </trkpt>
      <trkpt lat="62.641065483976" lon="17.87933365996">
        <ele>41.2</ele>
        <time>2018-01-06T11:33:48Z</time>
      </trkpt>
      <trkpt lat="62.641073782057" lon="17.879297282514">
        <ele>41.4</ele>
        <time>2018-01-06T11:33:49Z</time>
      </trkpt>
      <trkpt lat="62.641081493405" lon="17.879261407982">
        <ele>41.6</ele>
        <time>2018-01-06T11:33:50Z</time>
      </trkpt>
      <trkpt lat="62.641089540029" lon="17.879227461287">
        <ele>41.6</ele>
        <time>2018-01-06T11:33:51Z</time>
      </trkpt>
      <trkpt lat="62.641095407359" lon="17.879208182917">
        <ele>41.8</ele>
        <time>2018-01-06T11:33:52Z</time>
      </trkpt>
      <trkpt lat="62.641105130363" lon="17.87917608024">
        <ele>42</ele>
        <time>2018-01-06T11:33:53Z</time>
      </trkpt>
      <trkpt lat="62.641112841711" lon="17.879147162685">
        <ele>42.2</ele>
        <time>2018-01-06T11:33:54Z</time>
      </trkpt>
      <trkpt lat="62.641120888335" lon="17.879117909854">
        <ele>42</ele>
        <time>2018-01-06T11:33:55Z</time>
      </trkpt>
      <trkpt lat="62.641132036262" lon="17.879088740842">
        <ele>42.4</ele>
        <time>2018-01-06T11:33:56Z</time>
      </trkpt>
      <trkpt lat="62.641143687103" lon="17.879053536862">
        <ele>42.6</ele>
        <time>2018-01-06T11:33:57Z</time>
      </trkpt>
      <trkpt lat="62.641152236641" lon="17.879026295687">
        <ele>42.4</ele>
        <time>2018-01-06T11:33:58Z</time>
      </trkpt>
      <trkpt lat="62.64116070236" lon="17.878992432811">
        <ele>42.6</ele>
        <time>2018-01-06T11:33:59Z</time>
      </trkpt>
      <trkpt lat="62.641173191391" lon="17.878954462804">
        <ele>43</ele>
        <time>2018-01-06T11:34:00Z</time>
      </trkpt>
      <trkpt lat="62.641185680422" lon="17.878919426462">
        <ele>42.8</ele>
        <time>2018-01-06T11:34:01Z</time>
      </trkpt>
      <trkpt lat="62.641198756186" lon="17.878887910518">
        <ele>43</ele>
        <time>2018-01-06T11:34:02Z</time>
      </trkpt>
      <trkpt lat="62.641202108946" lon="17.878864692655">
        <ele>43.2</ele>
        <time>2018-01-06T11:34:03Z</time>
      </trkpt>
      <trkpt lat="62.641216944909" lon="17.878823286069">
        <ele>43.2</ele>
        <time>2018-01-06T11:34:04Z</time>
      </trkpt>
      <trkpt lat="62.641229098664" lon="17.878780203103">
        <ele>43.2</ele>
        <time>2018-01-06T11:34:05Z</time>
      </trkpt>
      <trkpt lat="62.641237732021" lon="17.878754889765">
        <ele>43.6</ele>
        <time>2018-01-06T11:34:06Z</time>
      </trkpt>
      <trkpt lat="62.641245946283" lon="17.87872597221">
        <ele>43.4</ele>
        <time>2018-01-06T11:34:07Z</time>
      </trkpt>
      <trkpt lat="62.641256675115" lon="17.878695881189">
        <ele>43.2</ele>
        <time>2018-01-06T11:34:08Z</time>
      </trkpt>
      <trkpt lat="62.641265057015" lon="17.878665873987">
        <ele>43.4</ele>
        <time>2018-01-06T11:34:09Z</time>
      </trkpt>
      <trkpt lat="62.641274863838" lon="17.878638716631">
        <ele>43.6</ele>
        <time>2018-01-06T11:34:10Z</time>
      </trkpt>
      <trkpt lat="62.641285341213" lon="17.878609128524">
        <ele>43.6</ele>
        <time>2018-01-06T11:34:11Z</time>
      </trkpt>
      <trkpt lat="62.641294393665" lon="17.87858347991">
        <ele>43.8</ele>
        <time>2018-01-06T11:34:12Z</time>
      </trkpt>
      <trkpt lat="62.64130151828" lon="17.878559340038">
        <ele>44</ele>
        <time>2018-01-06T11:34:13Z</time>
      </trkpt>
      <trkpt lat="62.641312833845" lon="17.878529416655">
        <ele>44.2</ele>
        <time>2018-01-06T11:34:14Z</time>
      </trkpt>
      <trkpt lat="62.641327083075" lon="17.878496140512">
        <ele>44.6</ele>
        <time>2018-01-06T11:34:15Z</time>
      </trkpt>
      <trkpt lat="62.641334459147" lon="17.878472671192">
        <ele>44.6</ele>
        <time>2018-01-06T11:34:16Z</time>
      </trkpt>
      <trkpt lat="62.641337811907" lon="17.878452638451">
        <ele>44.6</ele>
        <time>2018-01-06T11:34:17Z</time>
      </trkpt>
      <trkpt lat="62.641358850476" lon="17.878403017603">
        <ele>44.8</ele>
        <time>2018-01-06T11:34:18Z</time>
      </trkpt>
      <trkpt lat="62.641368657299" lon="17.87837309422">
        <ele>44.8</ele>
        <time>2018-01-06T11:34:19Z</time>
      </trkpt>
      <trkpt lat="62.641380559597" lon="17.878339315163">
        <ele>44.8</ele>
        <time>2018-01-06T11:34:20Z</time>
      </trkpt>
      <trkpt lat="62.641395730836" lon="17.878299668776">
        <ele>44.8</ele>
        <time>2018-01-06T11:34:21Z</time>
      </trkpt>
      <trkpt lat="62.641407214039" lon="17.878270667402">
        <ele>44.4</ele>
        <time>2018-01-06T11:34:22Z</time>
      </trkpt>
      <trkpt lat="62.641418110509" lon="17.87823479287">
        <ele>44</ele>
        <time>2018-01-06T11:34:23Z</time>
      </trkpt>
      <trkpt lat="62.641432862653" lon="17.878202438736">
        <ele>43.8</ele>
        <time>2018-01-06T11:34:24Z</time>
      </trkpt>
      <trkpt lat="62.641446944245" lon="17.878173353543">
        <ele>44.2</ele>
        <time>2018-01-06T11:34:25Z</time>
      </trkpt>
      <trkpt lat="62.641457924534" lon="17.878136808459">
        <ele>44</ele>
        <time>2018-01-06T11:34:26Z</time>
      </trkpt>
      <trkpt lat="62.641473431049" lon="17.878094060769">
        <ele>44.4</ele>
        <time>2018-01-06T11:34:27Z</time>
      </trkpt>
      <trkpt lat="62.641481812949" lon="17.878070423811">
        <ele>44.8</ele>
        <time>2018-01-06T11:34:28Z</time>
      </trkpt>
      <trkpt lat="62.641494637256" lon="17.878035471288">
        <ele>45</ele>
        <time>2018-01-06T11:34:29Z</time>
      </trkpt>
      <trkpt lat="62.641505952821" lon="17.877995405806">
        <ele>45</ele>
        <time>2018-01-06T11:34:30Z</time>
      </trkpt>
      <trkpt lat="62.641516346377" lon="17.877959615093">
        <ele>45</ele>
        <time>2018-01-06T11:34:31Z</time>
      </trkpt>
      <trkpt lat="62.641529422141" lon="17.877926255131">
        <ele>45.2</ele>
        <time>2018-01-06T11:34:32Z</time>
      </trkpt>
      <trkpt lat="62.641535121833" lon="17.877910580978">
        <ele>45.2</ele>
        <time>2018-01-06T11:34:33Z</time>
      </trkpt>
      <trkpt lat="62.641545180113" lon="17.877876382826">
        <ele>45.6</ele>
        <time>2018-01-06T11:34:34Z</time>
      </trkpt>
      <trkpt lat="62.641558591153" lon="17.877832545489">
        <ele>45.8</ele>
        <time>2018-01-06T11:34:35Z</time>
      </trkpt>
      <trkpt lat="62.641570409632" lon="17.877799604622">
        <ele>46</ele>
        <time>2018-01-06T11:34:36Z</time>
      </trkpt>
      <trkpt lat="62.641581389921" lon="17.877768843049">
        <ele>46.2</ele>
        <time>2018-01-06T11:34:37Z</time>
      </trkpt>
      <trkpt lat="62.641591867296" lon="17.87774193715">
        <ele>46.4</ele>
        <time>2018-01-06T11:34:38Z</time>
      </trkpt>
      <trkpt lat="62.641602596128" lon="17.87771092412">
        <ele>46.4</ele>
        <time>2018-01-06T11:34:39Z</time>
      </trkpt>
      <trkpt lat="62.641616258625" lon="17.877680665461">
        <ele>46.6</ele>
        <time>2018-01-06T11:34:40Z</time>
      </trkpt>
      <trkpt lat="62.641631094588" lon="17.87764470711">
        <ele>46.6</ele>
        <time>2018-01-06T11:34:41Z</time>
      </trkpt>
      <trkpt lat="62.641644002714" lon="17.877611263329">
        <ele>46.4</ele>
        <time>2018-01-06T11:34:42Z</time>
      </trkpt>
      <trkpt lat="62.641654480089" lon="17.877578154824">
        <ele>46.4</ele>
        <time>2018-01-06T11:34:43Z</time>
      </trkpt>
      <trkpt lat="62.641664622188" lon="17.877552757667">
        <ele>46.4</ele>
        <time>2018-01-06T11:34:44Z</time>
      </trkpt>
      <trkpt lat="62.641674345192" lon="17.877527779605">
        <ele>46.6</ele>
        <time>2018-01-06T11:34:45Z</time>
      </trkpt>
      <trkpt lat="62.64168121835" lon="17.877500370792">
        <ele>46.8</ele>
        <time>2018-01-06T11:34:46Z</time>
      </trkpt>
      <trkpt lat="62.641694964666" lon="17.877461059681">
        <ele>47</ele>
        <time>2018-01-06T11:34:47Z</time>
      </trkpt>
      <trkpt lat="62.641704017118" lon="17.877426442434">
        <ele>47.4</ele>
        <time>2018-01-06T11:34:48Z</time>
      </trkpt>
      <trkpt lat="62.641714410674" lon="17.877393920662">
        <ele>47.6</ele>
        <time>2018-01-06T11:34:49Z</time>
      </trkpt>
      <trkpt lat="62.641723546945" lon="17.877366260392">
        <ele>47.6</ele>
        <time>2018-01-06T11:34:50Z</time>
      </trkpt>
      <trkpt lat="62.641731677388" lon="17.877338013389">
        <ele>47.6</ele>
        <time>2018-01-06T11:34:51Z</time>
      </trkpt>
      <trkpt lat="62.641742070944" lon="17.877304066694">
        <ele>47.6</ele>
        <time>2018-01-06T11:34:52Z</time>
      </trkpt>
      <trkpt lat="62.641754224699" lon="17.877265761411">
        <ele>47.6</ele>
        <time>2018-01-06T11:34:53Z</time>
      </trkpt>
      <trkpt lat="62.641766965187" lon="17.877222007893">
        <ele>47.6</ele>
        <time>2018-01-06T11:34:54Z</time>
      </trkpt>
      <trkpt lat="62.641776101458" lon="17.877192838881">
        <ele>47.4</ele>
        <time>2018-01-06T11:34:55Z</time>
      </trkpt>
      <trkpt lat="62.641785740643" lon="17.877162915498">
        <ele>47.8</ele>
        <time>2018-01-06T11:34:56Z</time>
      </trkpt>
      <trkpt lat="62.641798732588" lon="17.877127124785">
        <ele>48</ele>
        <time>2018-01-06T11:34:57Z</time>
      </trkpt>
      <trkpt lat="62.641812395085" lon="17.877086724027">
        <ele>48.2</ele>
        <time>2018-01-06T11:34:58Z</time>
      </trkpt>
      <trkpt lat="62.641823459193" lon="17.877055543359">
        <ele>48.4</ele>
        <time>2018-01-06T11:34:59Z</time>
      </trkpt>
      <trkpt lat="62.641840139174" lon="17.877019501189">
        <ele>48.6</ele>
        <time>2018-01-06T11:35:00Z</time>
      </trkpt>
      <trkpt lat="62.641853214938" lon="17.876986560322">
        <ele>48.8</ele>
        <time>2018-01-06T11:35:01Z</time>
      </trkpt>
      <trkpt lat="62.641863524675" lon="17.8769582295">
        <ele>48.8</ele>
        <time>2018-01-06T11:35:02Z</time>
      </trkpt>
      <trkpt lat="62.641875091697" lon="17.876923696072">
        <ele>49</ele>
        <time>2018-01-06T11:35:03Z</time>
      </trkpt>
      <trkpt lat="62.641891268764" lon="17.876886731893">
        <ele>49.2</ele>
        <time>2018-01-06T11:35:04Z</time>
      </trkpt>
      <trkpt lat="62.641910379496" lon="17.876852701379">
        <ele>49.8</ele>
        <time>2018-01-06T11:35:05Z</time>
      </trkpt>
      <trkpt lat="62.641927227115" lon="17.876826298394">
        <ele>50.2</ele>
        <time>2018-01-06T11:35:06Z</time>
      </trkpt>
      <trkpt lat="62.641943823277" lon="17.876795117726">
        <ele>50.2</ele>
        <time>2018-01-06T11:35:07Z</time>
      </trkpt>
      <trkpt lat="62.641960000344" lon="17.876760668117">
        <ele>50.4</ele>
        <time>2018-01-06T11:35:08Z</time>
      </trkpt>
      <trkpt lat="62.641972154099" lon="17.876734265132">
        <ele>50.4</ele>
        <time>2018-01-06T11:35:09Z</time>
      </trkpt>
      <trkpt lat="62.64198967227" lon="17.876704341749">
        <ele>50.4</ele>
        <time>2018-01-06T11:35:10Z</time>
      </trkpt>
      <trkpt lat="62.642005346423" lon="17.876668048122">
        <ele>50.4</ele>
        <time>2018-01-06T11:35:11Z</time>
      </trkpt>
      <trkpt lat="62.642015069427" lon="17.876641226042">
        <ele>50.4</ele>
        <time>2018-01-06T11:35:12Z</time>
      </trkpt>
      <trkpt lat="62.642031833227" lon="17.876609793917">
        <ele>50.4</ele>
        <time>2018-01-06T11:35:13Z</time>
      </trkpt>
      <trkpt lat="62.642045328086" lon="17.876571488634">
        <ele>50.6</ele>
        <time>2018-01-06T11:35:14Z</time>
      </trkpt>
      <trkpt lat="62.642052620339" lon="17.87654332545">
        <ele>50.6</ele>
        <time>2018-01-06T11:35:15Z</time>
      </trkpt>
      <trkpt lat="62.642066534293" lon="17.876506193633">
        <ele>50.8</ele>
        <time>2018-01-06T11:35:16Z</time>
      </trkpt>
      <trkpt lat="62.642077933677" lon="17.876469145635">
        <ele>50.8</ele>
        <time>2018-01-06T11:35:17Z</time>
      </trkpt>
      <trkpt lat="62.642088243414" lon="17.87643436075">
        <ele>50.8</ele>
        <time>2018-01-06T11:35:18Z</time>
      </trkpt>
      <trkpt lat="62.642097714961" lon="17.876398821494">
        <ele>51</ele>
        <time>2018-01-06T11:35:19Z</time>
      </trkpt>
      <trkpt lat="62.642105929223" lon="17.876361186763">
        <ele>51</ele>
        <time>2018-01-06T11:35:20Z</time>
      </trkpt>
      <trkpt lat="62.642116825693" lon="17.876325312231">
        <ele>51</ele>
        <time>2018-01-06T11:35:21Z</time>
      </trkpt>
      <trkpt lat="62.642126045783" lon="17.876287174586">
        <ele>51.2</ele>
        <time>2018-01-06T11:35:22Z</time>
      </trkpt>
      <trkpt lat="62.6421380319" lon="17.876248198751">
        <ele>51</ele>
        <time>2018-01-06T11:35:23Z</time>
      </trkpt>
      <trkpt lat="62.642150437112" lon="17.876217772454">
        <ele>51.2</ele>
        <time>2018-01-06T11:35:24Z</time>
      </trkpt>
      <trkpt lat="62.642161249763" lon="17.876190196003">
        <ele>51.2</ele>
        <time>2018-01-06T11:35:25Z</time>
      </trkpt>
      <trkpt lat="62.642173990251" lon="17.876166475226">
        <ele>51.4</ele>
        <time>2018-01-06T11:35:26Z</time>
      </trkpt>
      <trkpt lat="62.64218580873" lon="17.876138982594">
        <ele>51.6</ele>
        <time>2018-01-06T11:35:27Z</time>
      </trkpt>
      <trkpt lat="62.642202237254" lon="17.876105957908">
        <ele>51.6</ele>
        <time>2018-01-06T11:35:28Z</time>
      </trkpt>
      <trkpt lat="62.642218162864" lon="17.876076034525">
        <ele>51.6</ele>
        <time>2018-01-06T11:35:29Z</time>
      </trkpt>
      <trkpt lat="62.642233166465" lon="17.876048374255">
        <ele>51.8</ele>
        <time>2018-01-06T11:35:30Z</time>
      </trkpt>
      <trkpt lat="62.642251271369" lon="17.876011577714">
        <ele>51.8</ele>
        <time>2018-01-06T11:35:31Z</time>
      </trkpt>
      <trkpt lat="62.642263089848" lon="17.875986012919">
        <ele>52</ele>
        <time>2018-01-06T11:35:32Z</time>
      </trkpt>
      <trkpt lat="62.642275997974" lon="17.875961286314">
        <ele>51.8</ele>
        <time>2018-01-06T11:35:33Z</time>
      </trkpt>
      <trkpt lat="62.642296617448" lon="17.875927507257">
        <ele>52</ele>
        <time>2018-01-06T11:35:34Z</time>
      </trkpt>
      <trkpt lat="62.64231069904" lon="17.875901523367">
        <ele>52</ele>
        <time>2018-01-06T11:35:35Z</time>
      </trkpt>
      <trkpt lat="62.642327546659" lon="17.875872521993">
        <ele>52</ele>
        <time>2018-01-06T11:35:36Z</time>
      </trkpt>
      <trkpt lat="62.642344729554" lon="17.875848298302">
        <ele>52.2</ele>
        <time>2018-01-06T11:35:37Z</time>
      </trkpt>
      <trkpt lat="62.642357805318" lon="17.875828097923">
        <ele>52.2</ele>
        <time>2018-01-06T11:35:38Z</time>
      </trkpt>
      <trkpt lat="62.642375072032" lon="17.875801946395">
        <ele>52.4</ele>
        <time>2018-01-06T11:35:39Z</time>
      </trkpt>
      <trkpt lat="62.642391752013" lon="17.875779147627">
        <ele>52.6</ele>
        <time>2018-01-06T11:35:40Z</time>
      </trkpt>
      <trkpt lat="62.642405079234" lon="17.875757354687">
        <ele>53</ele>
        <time>2018-01-06T11:35:41Z</time>
      </trkpt>
      <trkpt lat="62.642423267957" lon="17.875731538435">
        <ele>53</ele>
        <time>2018-01-06T11:35:42Z</time>
      </trkpt>
      <trkpt lat="62.642441540499" lon="17.875703961984">
        <ele>53</ele>
        <time>2018-01-06T11:35:43Z</time>
      </trkpt>
      <trkpt lat="62.642462159973" lon="17.875671272574">
        <ele>53</ele>
        <time>2018-01-06T11:35:44Z</time>
      </trkpt>
      <trkpt lat="62.642479007592" lon="17.875644450494">
        <ele>52.8</ele>
        <time>2018-01-06T11:35:45Z</time>
      </trkpt>
      <trkpt lat="62.642496190487" lon="17.875622741373">
        <ele>53</ele>
        <time>2018-01-06T11:35:46Z</time>
      </trkpt>
      <trkpt lat="62.642525024223" lon="17.875583094986">
        <ele>52.6</ele>
        <time>2018-01-06T11:35:47Z</time>
      </trkpt>
      <trkpt lat="62.642560228203" lon="17.875538168002">
        <ele>52.6</ele>
        <time>2018-01-06T11:35:48Z</time>
      </trkpt>
      <trkpt lat="62.642592917613" lon="17.875493576294">
        <ele>52.4</ele>
        <time>2018-01-06T11:35:49Z</time>
      </trkpt>
      <trkpt lat="62.642622924815" lon="17.875450912423">
        <ele>52.2</ele>
        <time>2018-01-06T11:35:50Z</time>
      </trkpt>
      <trkpt lat="62.642651507094" lon="17.875408080914">
        <ele>51.8</ele>
        <time>2018-01-06T11:35:51Z</time>
      </trkpt>
      <trkpt lat="62.642679837916" lon="17.875370362364">
        <ele>51.6</ele>
        <time>2018-01-06T11:35:52Z</time>
      </trkpt>
      <trkpt lat="62.642708084919" lon="17.875316466747">
        <ele>51.6</ele>
        <time>2018-01-06T11:35:53Z</time>
      </trkpt>
      <trkpt lat="62.642736834836" lon="17.875275814532">
        <ele>51.6</ele>
        <time>2018-01-06T11:35:54Z</time>
      </trkpt>
      <trkpt lat="62.642762567269" lon="17.875227283331">
        <ele>51.8</ele>
        <time>2018-01-06T11:35:55Z</time>
      </trkpt>
      <trkpt lat="62.642783102924" lon="17.87518629584">
        <ele>51.4</ele>
        <time>2018-01-06T11:35:56Z</time>
      </trkpt>
      <trkpt lat="62.64281026028" lon="17.875149583118">
        <ele>51.2</ele>
        <time>2018-01-06T11:35:57Z</time>
      </trkpt>
      <trkpt lat="62.642836914722" lon="17.875099291718">
        <ele>51</ele>
        <time>2018-01-06T11:35:58Z</time>
      </trkpt>
      <trkpt lat="62.642865497001" lon="17.875057633675">
        <ele>50.8</ele>
        <time>2018-01-06T11:35:59Z</time>
      </trkpt>
      <trkpt lat="62.642895588022" lon="17.875006504085">
        <ele>50.6</ele>
        <time>2018-01-06T11:36:00Z</time>
      </trkpt>
      <trkpt lat="62.642921823369" lon="17.874957889065">
        <ele>50.6</ele>
        <time>2018-01-06T11:36:01Z</time>
      </trkpt>
      <trkpt lat="62.642953423132" lon="17.874913716452">
        <ele>50.6</ele>
        <time>2018-01-06T11:36:02Z</time>
      </trkpt>
      <trkpt lat="62.64299717665" lon="17.874850265469">
        <ele>50.4</ele>
        <time>2018-01-06T11:36:03Z</time>
      </trkpt>
      <trkpt lat="62.643036320123" lon="17.874792430359">
        <ele>50.4</ele>
        <time>2018-01-06T11:36:04Z</time>
      </trkpt>
      <trkpt lat="62.643079906003" lon="17.874730404299">
        <ele>49.8</ele>
        <time>2018-01-06T11:36:05Z</time>
      </trkpt>
      <trkpt lat="62.643124665349" lon="17.874666366583">
        <ele>49.2</ele>
        <time>2018-01-06T11:36:06Z</time>
      </trkpt>
      <trkpt lat="62.643166323392" lon="17.874605346351">
        <ele>48.8</ele>
        <time>2018-01-06T11:36:07Z</time>
      </trkpt>
      <trkpt lat="62.643213010575" lon="17.874538291151">
        <ele>48</ele>
        <time>2018-01-06T11:36:08Z</time>
      </trkpt>
      <trkpt lat="62.64325450098" lon="17.874475929815">
        <ele>47</ele>
        <time>2018-01-06T11:36:09Z</time>
      </trkpt>
      <trkpt lat="62.643293476815" lon="17.874416083049">
        <ele>46.2</ele>
        <time>2018-01-06T11:36:10Z</time>
      </trkpt>
      <trkpt lat="62.643320801809" lon="17.874359253767">
        <ele>45.8</ele>
        <time>2018-01-06T11:36:11Z</time>
      </trkpt>
      <trkpt lat="62.643352485391" lon="17.874307705082">
        <ele>45.8</ele>
        <time>2018-01-06T11:36:12Z</time>
      </trkpt>
      <trkpt lat="62.643386851181" lon="17.874238638226">
        <ele>46.2</ele>
        <time>2018-01-06T11:36:13Z</time>
      </trkpt>
      <trkpt lat="62.643410571958" lon="17.874195219984">
        <ele>46.4</ele>
        <time>2018-01-06T11:36:14Z</time>
      </trkpt>
      <trkpt lat="62.64343974097" lon="17.874152053199">
        <ele>46.6</ele>
        <time>2018-01-06T11:36:15Z</time>
      </trkpt>
      <trkpt lat="62.643465221946" lon="17.874111400984">
        <ele>46.8</ele>
        <time>2018-01-06T11:36:16Z</time>
      </trkpt>
      <trkpt lat="62.643485087049" lon="17.874082231972">
        <ele>46.8</ele>
        <time>2018-01-06T11:36:17Z</time>
      </trkpt>
      <trkpt lat="62.643509478378" lon="17.874037304988">
        <ele>46.6</ele>
        <time>2018-01-06T11:36:18Z</time>
      </trkpt>
      <trkpt lat="62.643523727608" lon="17.873994892574">
        <ele>46.6</ele>
        <time>2018-01-06T11:36:19Z</time>
      </trkpt>
      <trkpt lat="62.643544682358" lon="17.873959437137">
        <ele>46.8</ele>
        <time>2018-01-06T11:36:20Z</time>
      </trkpt>
      <trkpt lat="62.643566475298" lon="17.873925909537">
        <ele>46.8</ele>
        <time>2018-01-06T11:36:21Z</time>
      </trkpt>
      <trkpt lat="62.643583322917" lon="17.87389967419">
        <ele>46.8</ele>
        <time>2018-01-06T11:36:22Z</time>
      </trkpt>
      <trkpt lat="62.643605367314" lon="17.873870086083">
        <ele>46.6</ele>
        <time>2018-01-06T11:36:23Z</time>
      </trkpt>
      <trkpt lat="62.643626741159" lon="17.873838151044">
        <ele>46.8</ele>
        <time>2018-01-06T11:36:24Z</time>
      </trkpt>
      <trkpt lat="62.643646270986" lon="17.87381082605">
        <ele>46.8</ele>
        <time>2018-01-06T11:36:25Z</time>
      </trkpt>
      <trkpt lat="62.64366186132" lon="17.873784171608">
        <ele>46.8</ele>
        <time>2018-01-06T11:36:26Z</time>
      </trkpt>
      <trkpt lat="62.643680804414" lon="17.873754332044">
        <ele>46.8</ele>
        <time>2018-01-06T11:36:27Z</time>
      </trkpt>
      <trkpt lat="62.64370209444" lon="17.873716026761">
        <ele>46.8</ele>
        <time>2018-01-06T11:36:28Z</time>
      </trkpt>
      <trkpt lat="62.643718103869" lon="17.8736892885">
        <ele>46.8</ele>
        <time>2018-01-06T11:36:29Z</time>
      </trkpt>
      <trkpt lat="62.643733610384" lon="17.873659029841">
        <ele>47</ele>
        <time>2018-01-06T11:36:30Z</time>
      </trkpt>
      <trkpt lat="62.643754313677" lon="17.873619215816">
        <ele>47</ele>
        <time>2018-01-06T11:36:31Z</time>
      </trkpt>
      <trkpt lat="62.643770071649" lon="17.873587280777">
        <ele>47</ele>
        <time>2018-01-06T11:36:32Z</time>
      </trkpt>
      <trkpt lat="62.643784991431" lon="17.873552328254">
        <ele>47.2</ele>
        <time>2018-01-06T11:36:33Z</time>
      </trkpt>
      <trkpt lat="62.643801168498" lon="17.873517711007">
        <ele>47.4</ele>
        <time>2018-01-06T11:36:34Z</time>
      </trkpt>
      <trkpt lat="62.643815669185" lon="17.87347722643">
        <ele>47.4</ele>
        <time>2018-01-06T11:36:35Z</time>
      </trkpt>
      <trkpt lat="62.643825895103" lon="17.873447722142">
        <ele>47.4</ele>
        <time>2018-01-06T11:36:36Z</time>
      </trkpt>
      <trkpt lat="62.64383871941" lon="17.873412266705">
        <ele>47.8</ele>
        <time>2018-01-06T11:36:37Z</time>
      </trkpt>
      <trkpt lat="62.643854225925" lon="17.873369267558">
        <ele>47.8</ele>
        <time>2018-01-06T11:36:38Z</time>
      </trkpt>
      <trkpt lat="62.643867385508" lon="17.873332806293">
        <ele>47.8</ele>
        <time>2018-01-06T11:36:39Z</time>
      </trkpt>
      <trkpt lat="62.643879874539" lon="17.873299697788">
        <ele>48</ele>
        <time>2018-01-06T11:36:40Z</time>
      </trkpt>
      <trkpt lat="62.64389739271" lon="17.873252675329">
        <ele>48.2</ele>
        <time>2018-01-06T11:36:41Z</time>
      </trkpt>
      <trkpt lat="62.643910133198" lon="17.873214537684">
        <ele>48.2</ele>
        <time>2018-01-06T11:36:42Z</time>
      </trkpt>
      <trkpt lat="62.643920778211" lon="17.873176232401">
        <ele>48.2</ele>
        <time>2018-01-06T11:36:43Z</time>
      </trkpt>
      <trkpt lat="62.643934356889" lon="17.873134825815">
        <ele>48.4</ele>
        <time>2018-01-06T11:36:44Z</time>
      </trkpt>
      <trkpt lat="62.643949109033" lon="17.873091323754">
        <ele>48.6</ele>
        <time>2018-01-06T11:36:45Z</time>
      </trkpt>
      <trkpt lat="62.643960173141" lon="17.87305310229">
        <ele>48.6</ele>
        <time>2018-01-06T11:36:46Z</time>
      </trkpt>
      <trkpt lat="62.643968722679" lon="17.873020245242">
        <ele>48.8</ele>
        <time>2018-01-06T11:36:47Z</time>
      </trkpt>
      <trkpt lat="62.643980960253" lon="17.872973977154">
        <ele>48.6</ele>
        <time>2018-01-06T11:36:48Z</time>
      </trkpt>
      <trkpt lat="62.643992359637" lon="17.872937683527">
        <ele>48.8</ele>
        <time>2018-01-06T11:36:49Z</time>
      </trkpt>
      <trkpt lat="62.644003088469" lon="17.872894516742">
        <ele>48.8</ele>
        <time>2018-01-06T11:36:50Z</time>
      </trkpt>
      <trkpt lat="62.644011805645" lon="17.872850679405">
        <ele>48.8</ele>
        <time>2018-01-06T11:36:51Z</time>
      </trkpt>
      <trkpt lat="62.644020019907" lon="17.872811200656">
        <ele>48.8</ele>
        <time>2018-01-06T11:36:52Z</time>
      </trkpt>
      <trkpt lat="62.64402731216" lon="17.872763004731">
        <ele>49</ele>
        <time>2018-01-06T11:36:53Z</time>
      </trkpt>
      <trkpt lat="62.644033598585" lon="17.872722101059">
        <ele>49.2</ele>
        <time>2018-01-06T11:36:54Z</time>
      </trkpt>
      <trkpt lat="62.644038460087" lon="17.872687064717">
        <ele>49.4</ele>
        <time>2018-01-06T11:36:55Z</time>
      </trkpt>
      <trkpt lat="62.644042651037" lon="17.872648424158">
        <ele>49.6</ele>
        <time>2018-01-06T11:36:56Z</time>
      </trkpt>
      <trkpt lat="62.644045919978" lon="17.872609867418">
        <ele>49.4</ele>
        <time>2018-01-06T11:36:57Z</time>
      </trkpt>
      <trkpt lat="62.644050613842" lon="17.872563850787">
        <ele>49.4</ele>
        <time>2018-01-06T11:36:58Z</time>
      </trkpt>
      <trkpt lat="62.644054720973" lon="17.872519426717">
        <ele>49.6</ele>
        <time>2018-01-06T11:36:59Z</time>
      </trkpt>
      <trkpt lat="62.64405832519" lon="17.872474080638">
        <ele>49.6</ele>
        <time>2018-01-06T11:37:00Z</time>
      </trkpt>
      <trkpt lat="62.644060504484" lon="17.872431668224">
        <ele>49.8</ele>
        <time>2018-01-06T11:37:01Z</time>
      </trkpt>
      <trkpt lat="62.644062851416" lon="17.872394704045">
        <ele>50</ele>
        <time>2018-01-06T11:37:02Z</time>
      </trkpt>
      <trkpt lat="62.644064024882" lon="17.872356231124">
        <ele>50.6</ele>
        <time>2018-01-06T11:37:03Z</time>
      </trkpt>
      <trkpt lat="62.644066958547" lon="17.872300323851">
        <ele>50.8</ele>
        <time>2018-01-06T11:37:04Z</time>
      </trkpt>
      <trkpt lat="62.644068718746" lon="17.872252714659">
        <ele>51</ele>
        <time>2018-01-06T11:37:05Z</time>
      </trkpt>
      <trkpt lat="62.644070395126" lon="17.872209212598">
        <ele>51.2</ele>
        <time>2018-01-06T11:37:06Z</time>
      </trkpt>
      <trkpt lat="62.644068970203" lon="17.872159424112">
        <ele>51.2</ele>
        <time>2018-01-06T11:37:07Z</time>
      </trkpt>
      <trkpt lat="62.644065282167" lon="17.872112317834">
        <ele>51.2</ele>
        <time>2018-01-06T11:37:08Z</time>
      </trkpt>
      <trkpt lat="62.644061342674" lon="17.872072084714">
        <ele>51.2</ele>
        <time>2018-01-06T11:37:09Z</time>
      </trkpt>
      <trkpt lat="62.644057067905" lon="17.872027409187">
        <ele>51</ele>
        <time>2018-01-06T11:37:10Z</time>
      </trkpt>
      <trkpt lat="62.644052709317" lon="17.871987678981">
        <ele>51</ele>
        <time>2018-01-06T11:37:11Z</time>
      </trkpt>
      <trkpt lat="62.644049524195" lon="17.87192992769">
        <ele>50.8</ele>
        <time>2018-01-06T11:37:12Z</time>
      </trkpt>
      <trkpt lat="62.644042734856" lon="17.871876786444">
        <ele>50.8</ele>
        <time>2018-01-06T11:37:13Z</time>
      </trkpt>
      <trkpt lat="62.644037873354" lon="17.871806797579">
        <ele>50.8</ele>
        <time>2018-01-06T11:37:14Z</time>
      </trkpt>
      <trkpt lat="62.644029994368" lon="17.871749465383">
        <ele>51</ele>
        <time>2018-01-06T11:37:15Z</time>
      </trkpt>
      <trkpt lat="62.644020690459" lon="17.871694899214">
        <ele>51</ele>
        <time>2018-01-06T11:37:16Z</time>
      </trkpt>
      <trkpt lat="62.644012308559" lon="17.87164242852">
        <ele>51</ele>
        <time>2018-01-06T11:37:17Z</time>
      </trkpt>
      <trkpt lat="62.644002334098" lon="17.871585012505">
        <ele>51</ele>
        <time>2018-01-06T11:37:18Z</time>
      </trkpt>
      <trkpt lat="62.643987581954" lon="17.871536481304">
        <ele>50.8</ele>
        <time>2018-01-06T11:37:19Z</time>
      </trkpt>
      <trkpt lat="62.643977104579" lon="17.871493314519">
        <ele>50.6</ele>
        <time>2018-01-06T11:37:20Z</time>
      </trkpt>
      <trkpt lat="62.643964364091" lon="17.871443861309">
        <ele>50.6</ele>
        <time>2018-01-06T11:37:21Z</time>
      </trkpt>
      <trkpt lat="62.643954138173" lon="17.871398012316">
        <ele>50.6</ele>
        <time>2018-01-06T11:37:22Z</time>
      </trkpt>
      <trkpt lat="62.643942319694" lon="17.871346631269">
        <ele>50.6</ele>
        <time>2018-01-06T11:37:23Z</time>
      </trkpt>
      <trkpt lat="62.643933351061" lon="17.871310337642">
        <ele>50.4</ele>
        <time>2018-01-06T11:37:24Z</time>
      </trkpt>
      <trkpt lat="62.643923963333" lon="17.871268176685">
        <ele>50.4</ele>
        <time>2018-01-06T11:37:25Z</time>
      </trkpt>
      <trkpt lat="62.64391583289" lon="17.871227440651">
        <ele>50.4</ele>
        <time>2018-01-06T11:37:26Z</time>
      </trkpt>
      <trkpt lat="62.643906109886" lon="17.871189638282">
        <ele>50.4</ele>
        <time>2018-01-06T11:37:27Z</time>
      </trkpt>
      <trkpt lat="62.643894961959" lon="17.871143286375">
        <ele>50.4</ele>
        <time>2018-01-06T11:37:28Z</time>
      </trkpt>
      <trkpt lat="62.643885993326" lon="17.87110682511">
        <ele>50.2</ele>
        <time>2018-01-06T11:37:29Z</time>
      </trkpt>
      <trkpt lat="62.643876605598" lon="17.871062149583">
        <ele>50.4</ele>
        <time>2018-01-06T11:37:30Z</time>
      </trkpt>
      <trkpt lat="62.643866714956" lon="17.871021413549">
        <ele>50.4</ele>
        <time>2018-01-06T11:37:31Z</time>
      </trkpt>
      <trkpt lat="62.643858752151" lon="17.870986796302">
        <ele>50.4</ele>
        <time>2018-01-06T11:37:32Z</time>
      </trkpt>
      <trkpt lat="62.643849783518" lon="17.870936588721">
        <ele>50.4</ele>
        <time>2018-01-06T11:37:33Z</time>
      </trkpt>
      <trkpt lat="62.643842407446" lon="17.870897529067">
        <ele>50.4</ele>
        <time>2018-01-06T11:37:34Z</time>
      </trkpt>
      <trkpt lat="62.643835785745" lon="17.870862492725">
        <ele>50.4</ele>
        <time>2018-01-06T11:37:35Z</time>
      </trkpt>
      <trkpt lat="62.643818016117" lon="17.870805411986">
        <ele>50.4</ele>
        <time>2018-01-06T11:37:36Z</time>
      </trkpt>
      <trkpt lat="62.643808293113" lon="17.870758389527">
        <ele>50.2</ele>
        <time>2018-01-06T11:37:37Z</time>
      </trkpt>
      <trkpt lat="62.643796977548" lon="17.870707511394">
        <ele>50.2</ele>
        <time>2018-01-06T11:37:38Z</time>
      </trkpt>
      <trkpt lat="62.643790272028" lon="17.870667781188">
        <ele>50</ele>
        <time>2018-01-06T11:37:39Z</time>
      </trkpt>
      <trkpt lat="62.643782057766" lon="17.870624614403">
        <ele>49.8</ele>
        <time>2018-01-06T11:37:40Z</time>
      </trkpt>
      <trkpt lat="62.643774933151" lon="17.870582788722">
        <ele>49.8</ele>
        <time>2018-01-06T11:37:41Z</time>
      </trkpt>
      <trkpt lat="62.643765042509" lon="17.870533335512">
        <ele>50</ele>
        <time>2018-01-06T11:37:42Z</time>
      </trkpt>
      <trkpt lat="62.643754481315" lon="17.870483127931">
        <ele>50.2</ele>
        <time>2018-01-06T11:37:43Z</time>
      </trkpt>
      <trkpt lat="62.643748027252" lon="17.87043124397">
        <ele>50.2</ele>
        <time>2018-01-06T11:37:44Z</time>
      </trkpt>
      <trkpt lat="62.643742076103" lon="17.870374414688">
        <ele>50</ele>
        <time>2018-01-06T11:37:45Z</time>
      </trkpt>
      <trkpt lat="62.643737717515" lon="17.870329739161">
        <ele>50</ele>
        <time>2018-01-06T11:37:46Z</time>
      </trkpt>
      <trkpt lat="62.643735538221" lon="17.870282129969">
        <ele>49.8</ele>
        <time>2018-01-06T11:37:47Z</time>
      </trkpt>
      <trkpt lat="62.643731766366" lon="17.870224127221">
        <ele>49.8</ele>
        <time>2018-01-06T11:37:48Z</time>
      </trkpt>
      <trkpt lat="62.64372975471" lon="17.870163190808">
        <ele>49.6</ele>
        <time>2018-01-06T11:37:49Z</time>
      </trkpt>
      <trkpt lat="62.64372304919" lon="17.870100745653">
        <ele>49.6</ele>
        <time>2018-01-06T11:37:50Z</time>
      </trkpt>
      <trkpt lat="62.643723803561" lon="17.870050118977">
        <ele>49.6</ele>
        <time>2018-01-06T11:37:51Z</time>
      </trkpt>
      <trkpt lat="62.643721037534" lon="17.869997480645">
        <ele>49.8</ele>
        <time>2018-01-06T11:37:52Z</time>
      </trkpt>
      <trkpt lat="62.643716930403" lon="17.8699425792">
        <ele>49.8</ele>
        <time>2018-01-06T11:37:53Z</time>
      </trkpt>
      <trkpt lat="62.643717936231" lon="17.869884911728">
        <ele>49.8</ele>
        <time>2018-01-06T11:37:54Z</time>
      </trkpt>
      <trkpt lat="62.643718103869" lon="17.869835207061">
        <ele>49.8</ele>
        <time>2018-01-06T11:37:55Z</time>
      </trkpt>
      <trkpt lat="62.64372053462" lon="17.869788771335">
        <ele>50</ele>
        <time>2018-01-06T11:37:56Z</time>
      </trkpt>
      <trkpt lat="62.643721205172" lon="17.869734540442">
        <ele>50</ele>
        <time>2018-01-06T11:37:57Z</time>
      </trkpt>
      <trkpt lat="62.64372304919" lon="17.869675028952">
        <ele>50.2</ele>
        <time>2018-01-06T11:37:58Z</time>
      </trkpt>
      <trkpt lat="62.643727659235" lon="17.869610404503">
        <ele>50.2</ele>
        <time>2018-01-06T11:37:59Z</time>
      </trkpt>
      <trkpt lat="62.643727659235" lon="17.86955449723">
        <ele>50.2</ele>
        <time>2018-01-06T11:38:00Z</time>
      </trkpt>
      <trkpt lat="62.643730676719" lon="17.869490291876">
        <ele>50.2</ele>
        <time>2018-01-06T11:38:01Z</time>
      </trkpt>
      <trkpt lat="62.64373394566" lon="17.869443772331">
        <ele>50</ele>
        <time>2018-01-06T11:38:02Z</time>
      </trkpt>
      <trkpt lat="62.643738471886" lon="17.869385937221">
        <ele>50</ele>
        <time>2018-01-06T11:38:03Z</time>
      </trkpt>
      <trkpt lat="62.643740064447" lon="17.869328437387">
        <ele>50</ele>
        <time>2018-01-06T11:38:04Z</time>
      </trkpt>
      <trkpt lat="62.643741070275" lon="17.869278062168">
        <ele>50</ele>
        <time>2018-01-06T11:38:05Z</time>
      </trkpt>
      <trkpt lat="62.643744506854" lon="17.869219975601">
        <ele>50</ele>
        <time>2018-01-06T11:38:06Z</time>
      </trkpt>
      <trkpt lat="62.643746853786" lon="17.869163565414">
        <ele>49.8</ele>
        <time>2018-01-06T11:38:07Z</time>
      </trkpt>
      <trkpt lat="62.643751380012" lon="17.869108328693">
        <ele>50</ele>
        <time>2018-01-06T11:38:08Z</time>
      </trkpt>
      <trkpt lat="62.643755403324" lon="17.869057869655">
        <ele>50</ele>
        <time>2018-01-06T11:38:09Z</time>
      </trkpt>
      <trkpt lat="62.643759510455" lon="17.869002381477">
        <ele>50</ele>
        <time>2018-01-06T11:38:10Z</time>
      </trkpt>
      <trkpt lat="62.643761186835" lon="17.868941277426">
        <ele>50</ele>
        <time>2018-01-06T11:38:11Z</time>
      </trkpt>
      <trkpt lat="62.643757750256" lon="17.868894757881">
        <ele>50.4</ele>
        <time>2018-01-06T11:38:12Z</time>
      </trkpt>
      <trkpt lat="62.64374987127" lon="17.868836838952">
        <ele>50.4</ele>
        <time>2018-01-06T11:38:13Z</time>
      </trkpt>
      <trkpt lat="62.643742914293" lon="17.868788978303">
        <ele>50.6</ele>
        <time>2018-01-06T11:38:14Z</time>
      </trkpt>
      <trkpt lat="62.643737717515" lon="17.868732065202">
        <ele>50.6</ele>
        <time>2018-01-06T11:38:15Z</time>
      </trkpt>
      <trkpt lat="62.643730089986" lon="17.868661238147">
        <ele>50.8</ele>
        <time>2018-01-06T11:38:16Z</time>
      </trkpt>
      <trkpt lat="62.643722797733" lon="17.868590075816">
        <ele>51</ele>
        <time>2018-01-06T11:38:17Z</time>
      </trkpt>
      <trkpt lat="62.643710979254" lon="17.868514471078">
        <ele>50.8</ele>
        <time>2018-01-06T11:38:18Z</time>
      </trkpt>
      <trkpt lat="62.643701842983" lon="17.868433250467">
        <ele>50.8</ele>
        <time>2018-01-06T11:38:19Z</time>
      </trkpt>
      <trkpt lat="62.643696478567" lon="17.868354963521">
        <ele>50.6</ele>
        <time>2018-01-06T11:38:20Z</time>
      </trkpt>
      <trkpt lat="62.643687342296" lon="17.868286902493">
        <ele>50.4</ele>
        <time>2018-01-06T11:38:21Z</time>
      </trkpt>
      <trkpt lat="62.64367778693" lon="17.868224624976">
        <ele>50.2</ele>
        <time>2018-01-06T11:38:22Z</time>
      </trkpt>
      <trkpt lat="62.643671165229" lon="17.86814466165">
        <ele>50</ele>
        <time>2018-01-06T11:38:23Z</time>
      </trkpt>
      <trkpt lat="62.643668902116" lon="17.868088335282">
        <ele>49.8</ele>
        <time>2018-01-06T11:38:24Z</time>
      </trkpt>
      <trkpt lat="62.643661693682" lon="17.868013317277">
        <ele>49.6</ele>
        <time>2018-01-06T11:38:25Z</time>
      </trkpt>
      <trkpt lat="62.643653563239" lon="17.867940059471">
        <ele>49.6</ele>
        <time>2018-01-06T11:38:26Z</time>
      </trkpt>
      <trkpt lat="62.643649037013" lon="17.867884487474">
        <ele>49.4</ele>
        <time>2018-01-06T11:38:27Z</time>
      </trkpt>
      <trkpt lat="62.643642750588" lon="17.867814498609">
        <ele>49.4</ele>
        <time>2018-01-06T11:38:28Z</time>
      </trkpt>
      <trkpt lat="62.643637050896" lon="17.867750125617">
        <ele>49.4</ele>
        <time>2018-01-06T11:38:29Z</time>
      </trkpt>
      <trkpt lat="62.64362749553" lon="17.867682148408">
        <ele>49.4</ele>
        <time>2018-01-06T11:38:30Z</time>
      </trkpt>
      <trkpt lat="62.643610144997" lon="17.86761576376">
        <ele>49.4</ele>
        <time>2018-01-06T11:38:31Z</time>
      </trkpt>
      <trkpt lat="62.643594219387" lon="17.867564717989">
        <ele>49.2</ele>
        <time>2018-01-06T11:38:32Z</time>
      </trkpt>
      <trkpt lat="62.643575695388" lon="17.867508559259">
        <ele>49.2</ele>
        <time>2018-01-06T11:38:33Z</time>
      </trkpt>
      <trkpt lat="62.643559769778" lon="17.867460447153">
        <ele>49.2</ele>
        <time>2018-01-06T11:38:34Z</time>
      </trkpt>
      <trkpt lat="62.643546023462" lon="17.867413424694">
        <ele>49.2</ele>
        <time>2018-01-06T11:38:35Z</time>
      </trkpt>
      <trkpt lat="62.643544011806" lon="17.867357685059">
        <ele>49.2</ele>
        <time>2018-01-06T11:38:36Z</time>
      </trkpt>
      <trkpt lat="62.643545855824" lon="17.867301945424">
        <ele>49.2</ele>
        <time>2018-01-06T11:38:37Z</time>
      </trkpt>
      <trkpt lat="62.64355122024" lon="17.867235812233">
        <ele>49.2</ele>
        <time>2018-01-06T11:38:38Z</time>
      </trkpt>
      <trkpt lat="62.643562871081" lon="17.867166577739">
        <ele>49</ele>
        <time>2018-01-06T11:38:39Z</time>
      </trkpt>
      <trkpt lat="62.643583825831" lon="17.867087955517">
        <ele>48.8</ele>
        <time>2018-01-06T11:38:40Z</time>
      </trkpt>
      <trkpt lat="62.64361492268" lon="17.867007908372">
        <ele>48.4</ele>
        <time>2018-01-06T11:38:41Z</time>
      </trkpt>
      <trkpt lat="62.643649456108" lon="17.866940685534">
        <ele>48</ele>
        <time>2018-01-06T11:38:42Z</time>
      </trkpt>
      <trkpt lat="62.643689270133" lon="17.866864494063">
        <ele>47.6</ele>
        <time>2018-01-06T11:38:43Z</time>
      </trkpt>
      <trkpt lat="62.643721540448" lon="17.866792409723">
        <ele>47.2</ele>
        <time>2018-01-06T11:38:44Z</time>
      </trkpt>
      <trkpt lat="62.643752134383" lon="17.866742285961">
        <ele>46.8</ele>
        <time>2018-01-06T11:38:45Z</time>
      </trkpt>
      <trkpt lat="62.643780632843" lon="17.866689647629">
        <ele>46.4</ele>
        <time>2018-01-06T11:38:46Z</time>
      </trkpt>
      <trkpt lat="62.643794965892" lon="17.866655868572">
        <ele>46.2</ele>
        <time>2018-01-06T11:38:47Z</time>
      </trkpt>
      <trkpt lat="62.643812567882" lon="17.866613875253">
        <ele>46</ele>
        <time>2018-01-06T11:38:48Z</time>
      </trkpt>
      <trkpt lat="62.643826900931" lon="17.866590238295">
        <ele>45.8</ele>
        <time>2018-01-06T11:38:49Z</time>
      </trkpt>
      <trkpt lat="62.643834779917" lon="17.866564841138">
        <ele>46</ele>
        <time>2018-01-06T11:38:50Z</time>
      </trkpt>
      <trkpt lat="62.643841401618" lon="17.866545059854">
        <ele>46.2</ele>
        <time>2018-01-06T11:38:51Z</time>
      </trkpt>
      <trkpt lat="62.643855650848" lon="17.866526787312">
        <ele>46.4</ele>
        <time>2018-01-06T11:38:52Z</time>
      </trkpt>
      <trkpt lat="62.643871241182" lon="17.866507592761">
        <ele>46.6</ele>
        <time>2018-01-06T11:38:53Z</time>
      </trkpt>
      <trkpt lat="62.643880042177" lon="17.866491164237">
        <ele>46.8</ele>
        <time>2018-01-06T11:38:54Z</time>
      </trkpt>
      <trkpt lat="62.643888340258" lon="17.866471299134">
        <ele>47.4</ele>
        <time>2018-01-06T11:38:55Z</time>
      </trkpt>
      <trkpt lat="62.643897811805" lon="17.866450931117">
        <ele>47.6</ele>
        <time>2018-01-06T11:38:56Z</time>
      </trkpt>
      <trkpt lat="62.643908624456" lon="17.866424947227">
        <ele>48</ele>
        <time>2018-01-06T11:38:57Z</time>
      </trkpt>
      <trkpt lat="62.643915665252" lon="17.866400220622">
        <ele>48.4</ele>
        <time>2018-01-06T11:38:58Z</time>
      </trkpt>
      <trkpt lat="62.643926226446" lon="17.866380774614">
        <ele>48.8</ele>
        <time>2018-01-06T11:38:59Z</time>
      </trkpt>
      <trkpt lat="62.643934943622" lon="17.866361328606">
        <ele>49.2</ele>
        <time>2018-01-06T11:39:00Z</time>
      </trkpt>
      <trkpt lat="62.643941732961" lon="17.866340960589">
        <ele>49.2</ele>
        <time>2018-01-06T11:39:01Z</time>
      </trkpt>
      <trkpt lat="62.643950450137" lon="17.866317239812">
        <ele>49.4</ele>
        <time>2018-01-06T11:39:02Z</time>
      </trkpt>
      <trkpt lat="62.643960424598" lon="17.866295111596">
        <ele>49.6</ele>
        <time>2018-01-06T11:39:03Z</time>
      </trkpt>
      <trkpt lat="62.64397282981" lon="17.866272564285">
        <ele>49.8</ele>
        <time>2018-01-06T11:39:04Z</time>
      </trkpt>
      <trkpt lat="62.643982804271" lon="17.866247250947">
        <ele>50</ele>
        <time>2018-01-06T11:39:05Z</time>
      </trkpt>
      <trkpt lat="62.643990850895" lon="17.866221350876">
        <ele>50.2</ele>
        <time>2018-01-06T11:39:06Z</time>
      </trkpt>
      <trkpt lat="62.64399797551" lon="17.866193187692">
        <ele>50.2</ele>
        <time>2018-01-06T11:39:07Z</time>
      </trkpt>
      <trkpt lat="62.644007279419" lon="17.866165275965">
        <ele>50.4</ele>
        <time>2018-01-06T11:39:08Z</time>
      </trkpt>
      <trkpt lat="62.644015996595" lon="17.866137280419">
        <ele>50.6</ele>
        <time>2018-01-06T11:39:09Z</time>
      </trkpt>
      <trkpt lat="62.644026138694" lon="17.866104758647">
        <ele>50.8</ele>
        <time>2018-01-06T11:39:10Z</time>
      </trkpt>
      <trkpt lat="62.644036699888" lon="17.866068716477">
        <ele>51.2</ele>
        <time>2018-01-06T11:39:11Z</time>
      </trkpt>
      <trkpt lat="62.644043153951" lon="17.866039547465">
        <ele>51.4</ele>
        <time>2018-01-06T11:39:12Z</time>
      </trkpt>
      <trkpt lat="62.644052541679" lon="17.866004175847">
        <ele>51.6</ele>
        <time>2018-01-06T11:39:13Z</time>
      </trkpt>
      <trkpt lat="62.644060169208" lon="17.865965619107">
        <ele>51.8</ele>
        <time>2018-01-06T11:39:14Z</time>
      </trkpt>
      <trkpt lat="62.644066371814" lon="17.86592932548">
        <ele>52</ele>
        <time>2018-01-06T11:39:15Z</time>
      </trkpt>
      <trkpt lat="62.644073831705" lon="17.865890098188">
        <ele>52.2</ele>
        <time>2018-01-06T11:39:16Z</time>
      </trkpt>
      <trkpt lat="62.644083722347" lon="17.865853804561">
        <ele>52.2</ele>
        <time>2018-01-06T11:39:17Z</time>
      </trkpt>
      <trkpt lat="62.644095540826" lon="17.865810386319">
        <ele>52.4</ele>
        <time>2018-01-06T11:39:18Z</time>
      </trkpt>
      <trkpt lat="62.644106185839" lon="17.865769734104">
        <ele>52.4</ele>
        <time>2018-01-06T11:39:19Z</time>
      </trkpt>
      <trkpt lat="62.644117166128" lon="17.865735284495">
        <ele>52.6</ele>
        <time>2018-01-06T11:39:20Z</time>
      </trkpt>
      <trkpt lat="62.644133510833" lon="17.865697901221">
        <ele>52.6</ele>
        <time>2018-01-06T11:39:21Z</time>
      </trkpt>
      <trkpt lat="62.644146083683" lon="17.865666385277">
        <ele>52.8</ele>
        <time>2018-01-06T11:39:22Z</time>
      </trkpt>
      <trkpt lat="62.644158321257" lon="17.865631181297">
        <ele>52.8</ele>
        <time>2018-01-06T11:39:23Z</time>
      </trkpt>
      <trkpt lat="62.644172905763" lon="17.865599665353">
        <ele>52.8</ele>
        <time>2018-01-06T11:39:24Z</time>
      </trkpt>
      <trkpt lat="62.644193189961" lon="17.865561695346">
        <ele>53</ele>
        <time>2018-01-06T11:39:25Z</time>
      </trkpt>
      <trkpt lat="62.644202912965" lon="17.865530011764">
        <ele>53</ele>
        <time>2018-01-06T11:39:26Z</time>
      </trkpt>
      <trkpt lat="62.64421590491" lon="17.8655085541">
        <ele>53.2</ele>
        <time>2018-01-06T11:39:27Z</time>
      </trkpt>
      <trkpt lat="62.644238033126" lon="17.865473433939">
        <ele>53.2</ele>
        <time>2018-01-06T11:39:28Z</time>
      </trkpt>
      <trkpt lat="62.64425278527" lon="17.865446108945">
        <ele>53.4</ele>
        <time>2018-01-06T11:39:29Z</time>
      </trkpt>
      <trkpt lat="62.644270471079" lon="17.865414257725">
        <ele>53.2</ele>
        <time>2018-01-06T11:39:30Z</time>
      </trkpt>
      <trkpt lat="62.644282289558" lon="17.865378299374">
        <ele>53.4</ele>
        <time>2018-01-06T11:39:31Z</time>
      </trkpt>
      <trkpt lat="62.644293353666" lon="17.86534594524">
        <ele>53.4</ele>
        <time>2018-01-06T11:39:32Z</time>
      </trkpt>
      <trkpt lat="62.644313302588" lon="17.865311244174">
        <ele>53.6</ele>
        <time>2018-01-06T11:39:33Z</time>
      </trkpt>
      <trkpt lat="62.644335179347" lon="17.865273525624">
        <ele>53.6</ele>
        <time>2018-01-06T11:39:34Z</time>
      </trkpt>
      <trkpt lat="62.644350182948" lon="17.865236645264">
        <ele>53.8</ele>
        <time>2018-01-06T11:39:35Z</time>
      </trkpt>
      <trkpt lat="62.644363929264" lon="17.865207224795">
        <ele>53.8</ele>
        <time>2018-01-06T11:39:36Z</time>
      </trkpt>
      <trkpt lat="62.644373316992" lon="17.865168751874">
        <ele>53.8</ele>
        <time>2018-01-06T11:39:37Z</time>
      </trkpt>
      <trkpt lat="62.644383291453" lon="17.865114353343">
        <ele>54</ele>
        <time>2018-01-06T11:39:38Z</time>
      </trkpt>
      <trkpt lat="62.644386560394" lon="17.865070599825">
        <ele>54</ele>
        <time>2018-01-06T11:39:39Z</time>
      </trkpt>
      <trkpt lat="62.644388907326" lon="17.865017626217">
        <ele>54</ele>
        <time>2018-01-06T11:39:40Z</time>
      </trkpt>
      <trkpt lat="62.644388069136" lon="17.864964652609">
        <ele>54</ele>
        <time>2018-01-06T11:39:41Z</time>
      </trkpt>
      <trkpt lat="62.644383039996" lon="17.864923748937">
        <ele>54.2</ele>
        <time>2018-01-06T11:39:42Z</time>
      </trkpt>
      <trkpt lat="62.644379854874" lon="17.864868009302">
        <ele>54.2</ele>
        <time>2018-01-06T11:39:43Z</time>
      </trkpt>
      <trkpt lat="62.644370634784" lon="17.864827692363">
        <ele>54.2</ele>
        <time>2018-01-06T11:39:44Z</time>
      </trkpt>
      <trkpt lat="62.644362085246" lon="17.864777820058">
        <ele>54.4</ele>
        <time>2018-01-06T11:39:45Z</time>
      </trkpt>
      <trkpt lat="62.644354541536" lon="17.864729624133">
        <ele>54.4</ele>
        <time>2018-01-06T11:39:46Z</time>
      </trkpt>
      <trkpt lat="62.644344650894" lon="17.864678913638">
        <ele>54.2</ele>
        <time>2018-01-06T11:39:47Z</time>
      </trkpt>
      <trkpt lat="62.644335430804" lon="17.86463432193">
        <ele>54.4</ele>
        <time>2018-01-06T11:39:48Z</time>
      </trkpt>
      <trkpt lat="62.644330234026" lon="17.864587131833">
        <ele>54.2</ele>
        <time>2018-01-06T11:39:49Z</time>
      </trkpt>
      <trkpt lat="62.64432738418" lon="17.864538265356">
        <ele>54</ele>
        <time>2018-01-06T11:39:50Z</time>
      </trkpt>
      <trkpt lat="62.644327635637" lon="17.864494511838">
        <ele>54</ele>
        <time>2018-01-06T11:39:51Z</time>
      </trkpt>
      <trkpt lat="62.644328390008" lon="17.864459391677">
        <ele>54</ele>
        <time>2018-01-06T11:39:52Z</time>
      </trkpt>
      <trkpt lat="62.644336688089" lon="17.864419074738">
        <ele>54</ele>
        <time>2018-01-06T11:39:53Z</time>
      </trkpt>
      <trkpt lat="62.644343980342" lon="17.864396862703">
        <ele>54.2</ele>
        <time>2018-01-06T11:39:54Z</time>
      </trkpt>
      <trkpt lat="62.644354122441" lon="17.864361239628">
        <ele>54.4</ele>
        <time>2018-01-06T11:39:55Z</time>
      </trkpt>
      <trkpt lat="62.644367114386" lon="17.864330142779">
        <ele>54.6</ele>
        <time>2018-01-06T11:39:56Z</time>
      </trkpt>
      <trkpt lat="62.644378765227" lon="17.864305164717">
        <ele>54.8</ele>
        <time>2018-01-06T11:39:57Z</time>
      </trkpt>
      <trkpt lat="62.644393685009" lon="17.864278174999">
        <ele>54.8</ele>
        <time>2018-01-06T11:39:58Z</time>
      </trkpt>
      <trkpt lat="62.644408604791" lon="17.864255208593">
        <ele>55</ele>
        <time>2018-01-06T11:39:59Z</time>
      </trkpt>
      <trkpt lat="62.644423608392" lon="17.864234924395">
        <ele>55</ele>
        <time>2018-01-06T11:40:00Z</time>
      </trkpt>
      <trkpt lat="62.644438611993" lon="17.864210113971">
        <ele>55.2</ele>
        <time>2018-01-06T11:40:01Z</time>
      </trkpt>
      <trkpt lat="62.64445227449" lon="17.864191170877">
        <ele>55.2</ele>
        <time>2018-01-06T11:40:02Z</time>
      </trkpt>
      <trkpt lat="62.644465014978" lon="17.864181196416">
        <ele>55.4</ele>
        <time>2018-01-06T11:40:03Z</time>
      </trkpt>
      <trkpt lat="62.644474737982" lon="17.864172227783">
        <ele>55.4</ele>
        <time>2018-01-06T11:40:04Z</time>
      </trkpt>
      <trkpt lat="62.644484293348" lon="17.864160660761">
        <ele>55.4</ele>
        <time>2018-01-06T11:40:05Z</time>
      </trkpt>
      <trkpt lat="62.644495105999" lon="17.864149680472">
        <ele>55.6</ele>
        <time>2018-01-06T11:40:06Z</time>
      </trkpt>
      <trkpt lat="62.644508768496" lon="17.864137945812">
        <ele>55.8</ele>
        <time>2018-01-06T11:40:07Z</time>
      </trkpt>
      <trkpt lat="62.64451932969" lon="17.864126797885">
        <ele>56</ele>
        <time>2018-01-06T11:40:08Z</time>
      </trkpt>
      <trkpt lat="62.644527879228" lon="17.864117829252">
        <ele>56.2</ele>
        <time>2018-01-06T11:40:09Z</time>
      </trkpt>
      <trkpt lat="62.644537434594" lon="17.8641087768">
        <ele>56.4</ele>
        <time>2018-01-06T11:40:10Z</time>
      </trkpt>
      <trkpt lat="62.644550091263" lon="17.864099808167">
        <ele>56.8</ele>
        <time>2018-01-06T11:40:11Z</time>
      </trkpt>
      <trkpt lat="62.644559981905" lon="17.864089582249">
        <ele>57</ele>
        <time>2018-01-06T11:40:12Z</time>
      </trkpt>
      <trkpt lat="62.644569956366" lon="17.864082457634">
        <ele>57.2</ele>
        <time>2018-01-06T11:40:13Z</time>
      </trkpt>
      <trkpt lat="62.64457967937" lon="17.86407357282">
        <ele>57.6</ele>
        <time>2018-01-06T11:40:14Z</time>
      </trkpt>
      <trkpt lat="62.644589234736" lon="17.864063430721">
        <ele>57.8</ele>
        <time>2018-01-06T11:40:15Z</time>
      </trkpt>
      <trkpt lat="62.644597951912" lon="17.864056306106">
        <ele>58.2</ele>
        <time>2018-01-06T11:40:16Z</time>
      </trkpt>
      <trkpt lat="62.644606752907" lon="17.864044068532">
        <ele>58.4</ele>
        <time>2018-01-06T11:40:17Z</time>
      </trkpt>
      <trkpt lat="62.644615553902" lon="17.864037363012">
        <ele>58.8</ele>
        <time>2018-01-06T11:40:18Z</time>
      </trkpt>
      <trkpt lat="62.644624354897" lon="17.864030154578">
        <ele>59.2</ele>
        <time>2018-01-06T11:40:19Z</time>
      </trkpt>
      <trkpt lat="62.644636843928" lon="17.864020599212">
        <ele>59.4</ele>
        <time>2018-01-06T11:40:20Z</time>
      </trkpt>
      <trkpt lat="62.644646818389" lon="17.864011965855">
        <ele>59.8</ele>
        <time>2018-01-06T11:40:21Z</time>
      </trkpt>
      <trkpt lat="62.644657128126" lon="17.864002997222">
        <ele>60</ele>
        <time>2018-01-06T11:40:22Z</time>
      </trkpt>
      <trkpt lat="62.644670371528" lon="17.863991681657">
        <ele>60.4</ele>
        <time>2018-01-06T11:40:23Z</time>
      </trkpt>
      <trkpt lat="62.644683279654" lon="17.863983635033">
        <ele>60.6</ele>
        <time>2018-01-06T11:40:24Z</time>
      </trkpt>
      <trkpt lat="62.644695517228" lon="17.863973073839">
        <ele>60.8</ele>
        <time>2018-01-06T11:40:25Z</time>
      </trkpt>
      <trkpt lat="62.644704485861" lon="17.863967206509">
        <ele>61</ele>
        <time>2018-01-06T11:40:26Z</time>
      </trkpt>
      <trkpt lat="62.644713203037" lon="17.863961758274">
        <ele>61</ele>
        <time>2018-01-06T11:40:27Z</time>
      </trkpt>
      <trkpt lat="62.644725692068" lon="17.863954214564">
        <ele>61.2</ele>
        <time>2018-01-06T11:40:28Z</time>
      </trkpt>
      <trkpt lat="62.644741701497" lon="17.863948514872">
        <ele>61.4</ele>
        <time>2018-01-06T11:40:29Z</time>
      </trkpt>
      <trkpt lat="62.644757459469" lon="17.863941390257">
        <ele>61.6</ele>
        <time>2018-01-06T11:40:30Z</time>
      </trkpt>
      <trkpt lat="62.644770367595" lon="17.863935606746">
        <ele>61.8</ele>
        <time>2018-01-06T11:40:31Z</time>
      </trkpt>
      <trkpt lat="62.644779084771" lon="17.863929320321">
        <ele>61.8</ele>
        <time>2018-01-06T11:40:32Z</time>
      </trkpt>
      <trkpt lat="62.644788723956" lon="17.863924291181">
        <ele>62</ele>
        <time>2018-01-06T11:40:33Z</time>
      </trkpt>
      <trkpt lat="62.644798782236" lon="17.863922950077">
        <ele>62.2</ele>
        <time>2018-01-06T11:40:34Z</time>
      </trkpt>
      <trkpt lat="62.644808337602" lon="17.863920435507">
        <ele>62.4</ele>
        <time>2018-01-06T11:40:35Z</time>
      </trkpt>
      <trkpt lat="62.644819904624" lon="17.863916160738">
        <ele>62.6</ele>
        <time>2018-01-06T11:40:36Z</time>
      </trkpt>
      <trkpt lat="62.644830214361" lon="17.863909119942">
        <ele>62.6</ele>
        <time>2018-01-06T11:40:37Z</time>
      </trkpt>
      <trkpt lat="62.644842703392" lon="17.863898139653">
        <ele>62.8</ele>
        <time>2018-01-06T11:40:38Z</time>
      </trkpt>
      <trkpt lat="62.644850582378" lon="17.863891182676">
        <ele>63</ele>
        <time>2018-01-06T11:40:39Z</time>
      </trkpt>
      <trkpt lat="62.644860724477" lon="17.863882297862">
        <ele>63.2</ele>
        <time>2018-01-06T11:40:40Z</time>
      </trkpt>
      <trkpt lat="62.644871872404" lon="17.863876933446">
        <ele>63.2</ele>
        <time>2018-01-06T11:40:41Z</time>
      </trkpt>
      <trkpt lat="62.644882768874" lon="17.86387240722">
        <ele>63.4</ele>
        <time>2018-01-06T11:40:42Z</time>
      </trkpt>
      <trkpt lat="62.644893330068" lon="17.863864947329">
        <ele>63.4</ele>
        <time>2018-01-06T11:40:43Z</time>
      </trkpt>
      <trkpt lat="62.644906238194" lon="17.863858493266">
        <ele>63.6</ele>
        <time>2018-01-06T11:40:44Z</time>
      </trkpt>
      <trkpt lat="62.644920235967" lon="17.863849524633">
        <ele>63.8</ele>
        <time>2018-01-06T11:40:45Z</time>
      </trkpt>
      <trkpt lat="62.644932305903" lon="17.863845752778">
        <ele>64</ele>
        <time>2018-01-06T11:40:46Z</time>
      </trkpt>
      <trkpt lat="62.644941358355" lon="17.863835443041">
        <ele>64.2</ele>
        <time>2018-01-06T11:40:47Z</time>
      </trkpt>
      <trkpt lat="62.644948566789" lon="17.86382965953">
        <ele>64.6</ele>
        <time>2018-01-06T11:40:48Z</time>
      </trkpt>
      <trkpt lat="62.644959295621" lon="17.86381121935">
        <ele>64.6</ele>
        <time>2018-01-06T11:40:49Z</time>
      </trkpt>
      <trkpt lat="62.644968767168" lon="17.863797137758">
        <ele>64.8</ele>
        <time>2018-01-06T11:40:50Z</time>
      </trkpt>
      <trkpt lat="62.644979496" lon="17.86378607365">
        <ele>65</ele>
        <time>2018-01-06T11:40:51Z</time>
      </trkpt>
      <trkpt lat="62.644991482117" lon="17.863772494972">
        <ele>65.2</ele>
        <time>2018-01-06T11:40:52Z</time>
      </trkpt>
      <trkpt lat="62.64500380351" lon="17.863755312077">
        <ele>65.4</ele>
        <time>2018-01-06T11:40:53Z</time>
      </trkpt>
      <trkpt lat="62.645013777971" lon="17.863748187462">
        <ele>65.6</ele>
        <time>2018-01-06T11:40:54Z</time>
      </trkpt>
      <trkpt lat="62.645024255346" lon="17.863742655408">
        <ele>66</ele>
        <time>2018-01-06T11:40:55Z</time>
      </trkpt>
      <trkpt lat="62.645036325282" lon="17.86372153302">
        <ele>66.2</ele>
        <time>2018-01-06T11:40:56Z</time>
      </trkpt>
      <trkpt lat="62.645045880648" lon="17.863711558559">
        <ele>66.2</ele>
        <time>2018-01-06T11:40:57Z</time>
      </trkpt>
      <trkpt lat="62.645056106566" lon="17.863701500279">
        <ele>66.6</ele>
        <time>2018-01-06T11:40:58Z</time>
      </trkpt>
      <trkpt lat="62.645068763235" lon="17.86369135818">
        <ele>66.8</ele>
        <time>2018-01-06T11:40:59Z</time>
      </trkpt>
      <trkpt lat="62.645082006637" lon="17.863683143918">
        <ele>67.2</ele>
        <time>2018-01-06T11:41:00Z</time>
      </trkpt>
      <trkpt lat="62.645092484012" lon="17.863673840009">
        <ele>67.4</ele>
        <time>2018-01-06T11:41:01Z</time>
      </trkpt>
      <trkpt lat="62.645103380482" lon="17.863664284643">
        <ele>67.6</ele>
        <time>2018-01-06T11:41:02Z</time>
      </trkpt>
      <trkpt lat="62.645117042979" lon="17.863655818924">
        <ele>68</ele>
        <time>2018-01-06T11:41:03Z</time>
      </trkpt>
      <trkpt lat="62.645131124571" lon="17.863650705965">
        <ele>68.2</ele>
        <time>2018-01-06T11:41:04Z</time>
      </trkpt>
      <trkpt lat="62.645146798724" lon="17.863649281042">
        <ele>68.6</ele>
        <time>2018-01-06T11:41:05Z</time>
      </trkpt>
      <trkpt lat="62.645162053782" lon="17.863647604662">
        <ele>68.8</ele>
        <time>2018-01-06T11:41:06Z</time>
      </trkpt>
      <trkpt lat="62.645175213365" lon="17.863645844463">
        <ele>69</ele>
        <time>2018-01-06T11:41:07Z</time>
      </trkpt>
      <trkpt lat="62.645191977165" lon="17.863637965477">
        <ele>69.2</ele>
        <time>2018-01-06T11:41:08Z</time>
      </trkpt>
      <trkpt lat="62.645206561671" lon="17.863626649912">
        <ele>69.6</ele>
        <time>2018-01-06T11:41:09Z</time>
      </trkpt>
      <trkpt lat="62.645224918032" lon="17.86361256832">
        <ele>69.6</ele>
        <time>2018-01-06T11:41:10Z</time>
      </trkpt>
      <trkpt lat="62.645243609669" lon="17.863605946619">
        <ele>69.8</ele>
        <time>2018-01-06T11:41:11Z</time>
      </trkpt>
      <trkpt lat="62.645257942718" lon="17.863597816176">
        <ele>69.8</ele>
        <time>2018-01-06T11:41:12Z</time>
      </trkpt>
      <trkpt lat="62.645274874156" lon="17.863591362113">
        <ele>70</ele>
        <time>2018-01-06T11:41:13Z</time>
      </trkpt>
      <trkpt lat="62.645290045395" lon="17.863584572774">
        <ele>70</ele>
        <time>2018-01-06T11:41:14Z</time>
      </trkpt>
      <trkpt lat="62.645304126987" lon="17.863573676304">
        <ele>70.2</ele>
        <time>2018-01-06T11:41:15Z</time>
      </trkpt>
      <trkpt lat="62.645317538027" lon="17.863565964956">
        <ele>70.2</ele>
        <time>2018-01-06T11:41:16Z</time>
      </trkpt>
      <trkpt lat="62.64532985942" lon="17.863552386278">
        <ele>70.2</ele>
        <time>2018-01-06T11:41:17Z</time>
      </trkpt>
      <trkpt lat="62.645345617392" lon="17.863533107908">
        <ele>70.4</ele>
        <time>2018-01-06T11:41:18Z</time>
      </trkpt>
      <trkpt lat="62.645359112251" lon="17.863517433755">
        <ele>70.4</ele>
        <time>2018-01-06T11:41:19Z</time>
      </trkpt>
      <trkpt lat="62.645373864395" lon="17.863495305539">
        <ele>70.6</ele>
        <time>2018-01-06T11:41:20Z</time>
      </trkpt>
      <trkpt lat="62.645385515236" lon="17.863470662753">
        <ele>70.6</ele>
        <time>2018-01-06T11:41:21Z</time>
      </trkpt>
      <trkpt lat="62.645392639851" lon="17.863442080474">
        <ele>70.8</ele>
        <time>2018-01-06T11:41:22Z</time>
      </trkpt>
      <trkpt lat="62.645400854113" lon="17.863408385236">
        <ele>71</ele>
        <time>2018-01-06T11:41:23Z</time>
      </trkpt>
      <trkpt lat="62.645409319832" lon="17.863378545672">
        <ele>71.2</ele>
        <time>2018-01-06T11:41:24Z</time>
      </trkpt>
      <trkpt lat="62.64542792765" lon="17.863291122455">
        <ele>71.4</ele>
        <time>2018-01-06T11:41:26Z</time>
      </trkpt>
      <trkpt lat="62.645434297894" lon="17.86324376472">
        <ele>71.4</ele>
        <time>2018-01-06T11:41:27Z</time>
      </trkpt>
      <trkpt lat="62.645439243215" lon="17.863202106677">
        <ele>71.6</ele>
        <time>2018-01-06T11:41:28Z</time>
      </trkpt>
      <trkpt lat="62.64544636783" lon="17.863143098101">
        <ele>71.8</ele>
        <time>2018-01-06T11:41:29Z</time>
      </trkpt>
      <trkpt lat="62.645452402798" lon="17.863088364294">
        <ele>71.8</ele>
        <time>2018-01-06T11:41:30Z</time>
      </trkpt>
      <trkpt lat="62.645459527413" lon="17.863038994903">
        <ele>71.8</ele>
        <time>2018-01-06T11:41:31Z</time>
      </trkpt>
      <trkpt lat="62.645468244589" lon="17.862991804806">
        <ele>71.8</ele>
        <time>2018-01-06T11:41:32Z</time>
      </trkpt>
      <trkpt lat="62.645480146887" lon="17.862936651904">
        <ele>72</ele>
        <time>2018-01-06T11:41:33Z</time>
      </trkpt>
      <trkpt lat="62.64549246828" lon="17.862890383816">
        <ele>72</ele>
        <time>2018-01-06T11:41:34Z</time>
      </trkpt>
      <trkpt lat="62.645505376406" lon="17.862845456832">
        <ele>72</ele>
        <time>2018-01-06T11:41:35Z</time>
      </trkpt>
      <trkpt lat="62.645518284532" lon="17.862813354155">
        <ele>72</ele>
        <time>2018-01-06T11:41:36Z</time>
      </trkpt>
      <trkpt lat="62.645531779391" lon="17.862786615894">
        <ele>72</ele>
        <time>2018-01-06T11:41:37Z</time>
      </trkpt>
      <trkpt lat="62.645550722485" lon="17.862758620348">
        <ele>72</ele>
        <time>2018-01-06T11:41:38Z</time>
      </trkpt>
      <trkpt lat="62.645563546792" lon="17.862733390829">
        <ele>72.2</ele>
        <time>2018-01-06T11:41:39Z</time>
      </trkpt>
      <trkpt lat="62.645577712203" lon="17.862704137998">
        <ele>72.4</ele>
        <time>2018-01-06T11:41:40Z</time>
      </trkpt>
      <trkpt lat="62.645592464347" lon="17.862673963158">
        <ele>72.6</ele>
        <time>2018-01-06T11:41:41Z</time>
      </trkpt>
      <trkpt lat="62.645609731061" lon="17.862648733639">
        <ele>72.8</ele>
        <time>2018-01-06T11:41:42Z</time>
      </trkpt>
      <trkpt lat="62.645625405214" lon="17.86260925489">
        <ele>73</ele>
        <time>2018-01-06T11:41:43Z</time>
      </trkpt>
      <trkpt lat="62.645638145702" lon="17.862573883272">
        <ele>73.2</ele>
        <time>2018-01-06T11:41:44Z</time>
      </trkpt>
      <trkpt lat="62.645649042172" lon="17.862538260197">
        <ele>73.4</ele>
        <time>2018-01-06T11:41:45Z</time>
      </trkpt>
      <trkpt lat="62.645658094624" lon="17.862503726769">
        <ele>73.4</ele>
        <time>2018-01-06T11:41:46Z</time>
      </trkpt>
      <trkpt lat="62.645666644162" lon="17.862471121178">
        <ele>73.6</ele>
        <time>2018-01-06T11:41:47Z</time>
      </trkpt>
      <trkpt lat="62.645677372994" lon="17.862427702936">
        <ele>73.8</ele>
        <time>2018-01-06T11:41:48Z</time>
      </trkpt>
      <trkpt lat="62.645681647763" lon="17.862389816748">
        <ele>73.8</ele>
        <time>2018-01-06T11:41:49Z</time>
      </trkpt>
      <trkpt lat="62.645684832885" lon="17.862351260008">
        <ele>74</ele>
        <time>2018-01-06T11:41:50Z</time>
      </trkpt>
      <trkpt lat="62.645689191473" lon="17.862298118762">
        <ele>74</ele>
        <time>2018-01-06T11:41:51Z</time>
      </trkpt>
      <trkpt lat="62.645690867853" lon="17.862253107959">
        <ele>74.2</ele>
        <time>2018-01-06T11:41:52Z</time>
      </trkpt>
      <trkpt lat="62.64569531026" lon="17.862208851527">
        <ele>74.4</ele>
        <time>2018-01-06T11:41:53Z</time>
      </trkpt>
      <trkpt lat="62.645699836486" lon="17.862172138805">
        <ele>74.4</ele>
        <time>2018-01-06T11:41:54Z</time>
      </trkpt>
      <trkpt lat="62.645706877282" lon="17.862138108291">
        <ele>74.6</ele>
        <time>2018-01-06T11:41:55Z</time>
      </trkpt>
      <trkpt lat="62.645715678277" lon="17.86210466451">
        <ele>74.8</ele>
        <time>2018-01-06T11:41:56Z</time>
      </trkpt>
      <trkpt lat="62.645727412937" lon="17.86207532786">
        <ele>74.8</ele>
        <time>2018-01-06T11:41:57Z</time>
      </trkpt>
      <trkpt lat="62.645747864773" lon="17.862049260151">
        <ele>75</ele>
        <time>2018-01-06T11:41:58Z</time>
      </trkpt>
      <trkpt lat="62.645768819523" lon="17.862037944586">
        <ele>75</ele>
        <time>2018-01-06T11:41:59Z</time>
      </trkpt>
      <trkpt lat="62.645791366834" lon="17.862033753636">
        <ele>75.2</ele>
        <time>2018-01-06T11:42:00Z</time>
      </trkpt>
      <trkpt lat="62.645808298272" lon="17.862037525491">
        <ele>75.2</ele>
        <time>2018-01-06T11:42:01Z</time>
      </trkpt>
      <trkpt lat="62.645826738452" lon="17.862036938758">
        <ele>75.2</ele>
        <time>2018-01-06T11:42:02Z</time>
      </trkpt>
      <trkpt lat="62.645844927175" lon="17.862029897962">
        <ele>75.4</ele>
        <time>2018-01-06T11:42:03Z</time>
      </trkpt>
      <trkpt lat="62.645860266052" lon="17.862017911845">
        <ele>75.6</ele>
        <time>2018-01-06T11:42:04Z</time>
      </trkpt>
      <trkpt lat="62.645881723716" lon="17.862002572968">
        <ele>75.8</ele>
        <time>2018-01-06T11:42:05Z</time>
      </trkpt>
      <trkpt lat="62.645900163896" lon="17.861987066453">
        <ele>76</ele>
        <time>2018-01-06T11:42:06Z</time>
      </trkpt>
      <trkpt lat="62.645919609904" lon="17.861977175811">
        <ele>76.2</ele>
        <time>2018-01-06T11:42:07Z</time>
      </trkpt>
      <trkpt lat="62.645943833595" lon="17.861960998744">
        <ele>76.2</ele>
        <time>2018-01-06T11:42:08Z</time>
      </trkpt>
      <trkpt lat="62.6459601783" lon="17.861940211632">
        <ele>76.2</ele>
        <time>2018-01-06T11:42:09Z</time>
      </trkpt>
      <trkpt lat="62.645973002607" lon="17.861915652665">
        <ele>76</ele>
        <time>2018-01-06T11:42:10Z</time>
      </trkpt>
      <trkpt lat="62.645985659276" lon="17.861885477825">
        <ele>76</ele>
        <time>2018-01-06T11:42:11Z</time>
      </trkpt>
      <trkpt lat="62.645995633737" lon="17.861861924686">
        <ele>76</ele>
        <time>2018-01-06T11:42:12Z</time>
      </trkpt>
      <trkpt lat="62.646005943474" lon="17.861837533357">
        <ele>76</ele>
        <time>2018-01-06T11:42:13Z</time>
      </trkpt>
      <trkpt lat="62.646012565175" lon="17.861814986046">
        <ele>76</ele>
        <time>2018-01-06T11:42:14Z</time>
      </trkpt>
      <trkpt lat="62.646025640939" lon="17.861779949704">
        <ele>76.2</ele>
        <time>2018-01-06T11:42:15Z</time>
      </trkpt>
      <trkpt lat="62.646039051979" lon="17.861734687444">
        <ele>76.4</ele>
        <time>2018-01-06T11:42:16Z</time>
      </trkpt>
      <trkpt lat="62.646052211562" lon="17.861690850107">
        <ele>76.4</ele>
        <time>2018-01-06T11:42:17Z</time>
      </trkpt>
      <trkpt lat="62.646067801896" lon="17.861645923123">
        <ele>76.6</ele>
        <time>2018-01-06T11:42:18Z</time>
      </trkpt>
      <trkpt lat="62.646084062782" lon="17.861604516537">
        <ele>76.4</ele>
        <time>2018-01-06T11:42:19Z</time>
      </trkpt>
      <trkpt lat="62.64609680327" lon="17.861567719996">
        <ele>76.4</ele>
        <time>2018-01-06T11:42:20Z</time>
      </trkpt>
      <trkpt lat="62.646109292301" lon="17.861532013102">
        <ele>76.2</ele>
        <time>2018-01-06T11:42:21Z</time>
      </trkpt>
      <trkpt lat="62.646122619522" lon="17.86149949133">
        <ele>76.2</ele>
        <time>2018-01-06T11:42:22Z</time>
      </trkpt>
      <trkpt lat="62.646138209856" lon="17.861461940418">
        <ele>76.4</ele>
        <time>2018-01-06T11:42:23Z</time>
      </trkpt>
      <trkpt lat="62.646151537077" lon="17.861427323171">
        <ele>76.4</ele>
        <time>2018-01-06T11:42:24Z</time>
      </trkpt>
      <trkpt lat="62.646165451031" lon="17.861393627933">
        <ele>76.6</ele>
        <time>2018-01-06T11:42:25Z</time>
      </trkpt>
      <trkpt lat="62.646176934234" lon="17.861366302939">
        <ele>77</ele>
        <time>2018-01-06T11:42:26Z</time>
      </trkpt>
      <trkpt lat="62.64618900417" lon="17.861345180551">
        <ele>77.2</ele>
        <time>2018-01-06T11:42:27Z</time>
      </trkpt>
      <trkpt lat="62.64620576797" lon="17.861308803105">
        <ele>77.4</ele>
        <time>2018-01-06T11:42:28Z</time>
      </trkpt>
      <trkpt lat="62.646221190666" lon="17.861278292989">
        <ele>77.4</ele>
        <time>2018-01-06T11:42:29Z</time>
      </trkpt>
      <trkpt lat="62.646244240891" lon="17.861239317154">
        <ele>77.6</ele>
        <time>2018-01-06T11:42:30Z</time>
      </trkpt>
      <trkpt lat="62.646273326084" lon="17.86120361026">
        <ele>77.6</ele>
        <time>2018-01-06T11:42:31Z</time>
      </trkpt>
      <trkpt lat="62.646308697702" lon="17.861162874226">
        <ele>77.6</ele>
        <time>2018-01-06T11:42:32Z</time>
      </trkpt>
      <trkpt lat="62.646347505899" lon="17.861113504835">
        <ele>77.6</ele>
        <time>2018-01-06T11:42:33Z</time>
      </trkpt>
      <trkpt lat="62.646383883345" lon="17.861068494032">
        <ele>77.6</ele>
        <time>2018-01-06T11:42:34Z</time>
      </trkpt>
      <trkpt lat="62.646417578583" lon="17.861032954776">
        <ele>77.2</ele>
        <time>2018-01-06T11:42:35Z</time>
      </trkpt>
      <trkpt lat="62.646453620753" lon="17.860999259538">
        <ele>76.6</ele>
        <time>2018-01-06T11:42:36Z</time>
      </trkpt>
      <trkpt lat="62.646483795593" lon="17.860977215141">
        <ele>76</ele>
        <time>2018-01-06T11:42:37Z</time>
      </trkpt>
      <trkpt lat="62.646515562994" lon="17.860947375577">
        <ele>75.4</ele>
        <time>2018-01-06T11:42:38Z</time>
      </trkpt>
      <trkpt lat="62.646545905472" lon="17.860904795525">
        <ele>75.2</ele>
        <time>2018-01-06T11:42:39Z</time>
      </trkpt>
      <trkpt lat="62.646567279317" lon="17.860861377283">
        <ele>74.8</ele>
        <time>2018-01-06T11:42:40Z</time>
      </trkpt>
      <trkpt lat="62.646594771949" lon="17.860822988181">
        <ele>75</ele>
        <time>2018-01-06T11:42:41Z</time>
      </trkpt>
      <trkpt lat="62.6466139665" lon="17.860786024002">
        <ele>75.4</ele>
        <time>2018-01-06T11:42:42Z</time>
      </trkpt>
      <trkpt lat="62.646645482444" lon="17.860741683751">
        <ele>75.8</ele>
        <time>2018-01-06T11:42:43Z</time>
      </trkpt>
      <trkpt lat="62.646669622316" lon="17.860699438975">
        <ele>75.6</ele>
        <time>2018-01-06T11:42:44Z</time>
      </trkpt>
      <trkpt lat="62.646689990333" lon="17.860670772877">
        <ele>75.4</ele>
        <time>2018-01-06T11:42:45Z</time>
      </trkpt>
      <trkpt lat="62.646714633119" lon="17.860641939141">
        <ele>75.4</ele>
        <time>2018-01-06T11:42:46Z</time>
      </trkpt>
      <trkpt lat="62.646737515706" lon="17.8606135245">
        <ele>75.4</ele>
        <time>2018-01-06T11:42:47Z</time>
      </trkpt>
      <trkpt lat="62.646763248139" lon="17.860587205334">
        <ele>75.2</ele>
        <time>2018-01-06T11:42:48Z</time>
      </trkpt>
      <trkpt lat="62.646790321676" lon="17.8605632331">
        <ele>75.2</ele>
        <time>2018-01-06T11:42:49Z</time>
      </trkpt>
      <trkpt lat="62.64681680848" lon="17.860534818459">
        <ele>75</ele>
        <time>2018-01-06T11:42:50Z</time>
      </trkpt>
      <trkpt lat="62.646841451266" lon="17.860509421302">
        <ele>75</ele>
        <time>2018-01-06T11:42:51Z</time>
      </trkpt>
      <trkpt lat="62.646867435156" lon="17.860485784344">
        <ele>75</ele>
        <time>2018-01-06T11:42:52Z</time>
      </trkpt>
      <trkpt lat="62.646887719354" lon="17.860456196237">
        <ele>74.8</ele>
        <time>2018-01-06T11:42:53Z</time>
      </trkpt>
      <trkpt lat="62.646904483154" lon="17.860434319478">
        <ele>74.8</ele>
        <time>2018-01-06T11:42:54Z</time>
      </trkpt>
      <trkpt lat="62.64692661137" lon="17.860417052764">
        <ele>74.8</ele>
        <time>2018-01-06T11:42:55Z</time>
      </trkpt>
      <trkpt lat="62.646950415966" lon="17.860395008367">
        <ele>74.8</ele>
        <time>2018-01-06T11:42:56Z</time>
      </trkpt>
      <trkpt lat="62.646969107603" lon="17.860377322558">
        <ele>75</ele>
        <time>2018-01-06T11:42:57Z</time>
      </trkpt>
      <trkpt lat="62.646995091493" lon="17.860352176858">
        <ele>75</ele>
        <time>2018-01-06T11:42:58Z</time>
      </trkpt>
      <trkpt lat="62.647019734279" lon="17.860317559611">
        <ele>75.2</ele>
        <time>2018-01-06T11:42:59Z</time>
      </trkpt>
      <trkpt lat="62.647048819472" lon="17.860279589604">
        <ele>75.2</ele>
        <time>2018-01-06T11:43:00Z</time>
      </trkpt>
      <trkpt lat="62.647075473914" lon="17.860231393679">
        <ele>75.2</ele>
        <time>2018-01-06T11:43:01Z</time>
      </trkpt>
      <trkpt lat="62.647095506655" lon="17.860184035944">
        <ele>75.2</ele>
        <time>2018-01-06T11:43:02Z</time>
      </trkpt>
      <trkpt lat="62.647121155269" lon="17.860130810879">
        <ele>75.2</ele>
        <time>2018-01-06T11:43:03Z</time>
      </trkpt>
      <trkpt lat="62.647144708408" lon="17.860085967714">
        <ele>75</ele>
        <time>2018-01-06T11:43:04Z</time>
      </trkpt>
      <trkpt lat="62.64716381914" lon="17.860047075698">
        <ele>75.2</ele>
        <time>2018-01-06T11:43:05Z</time>
      </trkpt>
      <trkpt lat="62.647181672587" lon="17.860013883374">
        <ele>75</ele>
        <time>2018-01-06T11:43:06Z</time>
      </trkpt>
      <trkpt lat="62.647196089455" lon="17.859986055466">
        <ele>75.2</ele>
        <time>2018-01-06T11:43:07Z</time>
      </trkpt>
      <trkpt lat="62.647215619282" lon="17.859939452102">
        <ele>75.4</ele>
        <time>2018-01-06T11:43:08Z</time>
      </trkpt>
      <trkpt lat="62.64722835977" lon="17.859896536774">
        <ele>75.2</ele>
        <time>2018-01-06T11:43:09Z</time>
      </trkpt>
      <trkpt lat="62.647245458846" lon="17.859853789084">
        <ele>75.4</ele>
        <time>2018-01-06T11:43:10Z</time>
      </trkpt>
      <trkpt lat="62.647263144655" lon="17.859801569847">
        <ele>75.4</ele>
        <time>2018-01-06T11:43:11Z</time>
      </trkpt>
      <trkpt lat="62.647277058609" lon="17.859754128293">
        <ele>75.4</ele>
        <time>2018-01-06T11:43:12Z</time>
      </trkpt>
      <trkpt lat="62.647291056382" lon="17.859702663427">
        <ele>75.4</ele>
        <time>2018-01-06T11:43:13Z</time>
      </trkpt>
      <trkpt lat="62.647302623404" lon="17.859659748099">
        <ele>75.4</ele>
        <time>2018-01-06T11:43:14Z</time>
      </trkpt>
      <trkpt lat="62.647320309213" lon="17.85961272564">
        <ele>75.2</ele>
        <time>2018-01-06T11:43:15Z</time>
      </trkpt>
      <trkpt lat="62.647336821556" lon="17.859558578566">
        <ele>75</ele>
        <time>2018-01-06T11:43:16Z</time>
      </trkpt>
      <trkpt lat="62.647350148777" lon="17.859507868071">
        <ele>75</ele>
        <time>2018-01-06T11:43:17Z</time>
      </trkpt>
      <trkpt lat="62.647365487654" lon="17.859447266934">
        <ele>75</ele>
        <time>2018-01-06T11:43:18Z</time>
      </trkpt>
      <trkpt lat="62.647377389952" lon="17.85938222339">
        <ele>74.6</ele>
        <time>2018-01-06T11:43:19Z</time>
      </trkpt>
      <trkpt lat="62.647389795164" lon="17.859311480154">
        <ele>74.6</ele>
        <time>2018-01-06T11:43:20Z</time>
      </trkpt>
      <trkpt lat="62.647400021082" lon="17.859232438837">
        <ele>74.6</ele>
        <time>2018-01-06T11:43:21Z</time>
      </trkpt>
      <trkpt lat="62.64740940881" lon="17.859170077501">
        <ele>74.6</ele>
        <time>2018-01-06T11:43:22Z</time>
      </trkpt>
      <trkpt lat="62.647419970004" lon="17.859091706736">
        <ele>74.4</ele>
        <time>2018-01-06T11:43:23Z</time>
      </trkpt>
      <trkpt lat="62.6474270108" lon="17.859025322088">
        <ele>74.4</ele>
        <time>2018-01-06T11:43:24Z</time>
      </trkpt>
      <trkpt lat="62.647435895614" lon="17.858953992119">
        <ele>74.4</ele>
        <time>2018-01-06T11:43:25Z</time>
      </trkpt>
      <trkpt lat="62.647443942238" lon="17.858887104557">
        <ele>74.2</ele>
        <time>2018-01-06T11:43:26Z</time>
      </trkpt>
      <trkpt lat="62.647447714093" lon="17.8588365617">
        <ele>74</ele>
        <time>2018-01-06T11:43:27Z</time>
      </trkpt>
      <trkpt lat="62.647455844536" lon="17.85876699193">
        <ele>73.8</ele>
        <time>2018-01-06T11:43:28Z</time>
      </trkpt>
      <trkpt lat="62.647459197296" lon="17.858708067173">
        <ele>73.8</ele>
        <time>2018-01-06T11:43:29Z</time>
      </trkpt>
      <trkpt lat="62.6474605384" lon="17.858648639502">
        <ele>73.6</ele>
        <time>2018-01-06T11:43:30Z</time>
      </trkpt>
      <trkpt lat="62.647460370762" lon="17.858591391125">
        <ele>73.6</ele>
        <time>2018-01-06T11:43:31Z</time>
      </trkpt>
      <trkpt lat="62.647458191468" lon="17.858535986766">
        <ele>73.8</ele>
        <time>2018-01-06T11:43:32Z</time>
      </trkpt>
      <trkpt lat="62.647457940011" lon="17.858469853575">
        <ele>73.6</ele>
        <time>2018-01-06T11:43:33Z</time>
      </trkpt>
      <trkpt lat="62.647459616391" lon="17.85840657023">
        <ele>73.6</ele>
        <time>2018-01-06T11:43:34Z</time>
      </trkpt>
      <trkpt lat="62.647462801513" lon="17.858342783971">
        <ele>73.6</ele>
        <time>2018-01-06T11:43:35Z</time>
      </trkpt>
      <trkpt lat="62.647466154273" lon="17.858286038508">
        <ele>73.8</ele>
        <time>2018-01-06T11:43:36Z</time>
      </trkpt>
      <trkpt lat="62.647471686327" lon="17.858234573642">
        <ele>73.8</ele>
        <time>2018-01-06T11:43:37Z</time>
      </trkpt>
      <trkpt lat="62.647479313856" lon="17.858168105175">
        <ele>73.8</ele>
        <time>2018-01-06T11:43:38Z</time>
      </trkpt>
      <trkpt lat="62.647482415159" lon="17.85810817459">
        <ele>73.8</ele>
        <time>2018-01-06T11:43:39Z</time>
      </trkpt>
      <trkpt lat="62.647487444299" lon="17.858041035571">
        <ele>74</ele>
        <time>2018-01-06T11:43:40Z</time>
      </trkpt>
      <trkpt lat="62.647492557258" lon="17.857977249312">
        <ele>74</ele>
        <time>2018-01-06T11:43:41Z</time>
      </trkpt>
      <trkpt lat="62.647499430416" lon="17.857918827469">
        <ele>74</ele>
        <time>2018-01-06T11:43:42Z</time>
      </trkpt>
      <trkpt lat="62.647505716841" lon="17.857850179708">
        <ele>73.8</ele>
        <time>2018-01-06T11:43:43Z</time>
      </trkpt>
      <trkpt lat="62.647510326886" lon="17.857786141992">
        <ele>73.8</ele>
        <time>2018-01-06T11:43:44Z</time>
      </trkpt>
      <trkpt lat="62.647519798433" lon="17.857716823679">
        <ele>73.6</ele>
        <time>2018-01-06T11:43:45Z</time>
      </trkpt>
      <trkpt lat="62.647526503953" lon="17.857654462343">
        <ele>73.4</ele>
        <time>2018-01-06T11:43:46Z</time>
      </trkpt>
      <trkpt lat="62.647531952188" lon="17.857599225622">
        <ele>73.2</ele>
        <time>2018-01-06T11:43:47Z</time>
      </trkpt>
      <trkpt lat="62.647538992984" lon="17.857541055236">
        <ele>73.2</ele>
        <time>2018-01-06T11:43:48Z</time>
      </trkpt>
      <trkpt lat="62.647545027952" lon="17.85749126675">
        <ele>73.2</ele>
        <time>2018-01-06T11:43:49Z</time>
      </trkpt>
      <trkpt lat="62.647555086232" lon="17.857436030029">
        <ele>73.2</ele>
        <time>2018-01-06T11:43:50Z</time>
      </trkpt>
      <trkpt lat="62.647563887227" lon="17.857374171607">
        <ele>73.2</ele>
        <time>2018-01-06T11:43:51Z</time>
      </trkpt>
      <trkpt lat="62.647571263299" lon="17.857320108352">
        <ele>73</ele>
        <time>2018-01-06T11:43:52Z</time>
      </trkpt>
      <trkpt lat="62.647577465905" lon="17.857269900771">
        <ele>73</ele>
        <time>2018-01-06T11:43:53Z</time>
      </trkpt>
      <trkpt lat="62.647583668511" lon="17.857225225244">
        <ele>73</ele>
        <time>2018-01-06T11:43:54Z</time>
      </trkpt>
      <trkpt lat="62.647593391515" lon="17.857169066514">
        <ele>73</ele>
        <time>2018-01-06T11:43:55Z</time>
      </trkpt>
      <trkpt lat="62.647603198338" lon="17.857119361847">
        <ele>73</ele>
        <time>2018-01-06T11:43:56Z</time>
      </trkpt>
      <trkpt lat="62.647611580238" lon="17.857075859786">
        <ele>73.2</ele>
        <time>2018-01-06T11:43:57Z</time>
      </trkpt>
      <trkpt lat="62.647621303242" lon="17.857023137635">
        <ele>73.2</ele>
        <time>2018-01-06T11:43:58Z</time>
      </trkpt>
      <trkpt lat="62.647629768961" lon="17.856969409656">
        <ele>73.2</ele>
        <time>2018-01-06T11:43:59Z</time>
      </trkpt>
      <trkpt lat="62.647636390662" lon="17.856920962274">
        <ele>73.4</ele>
        <time>2018-01-06T11:44:00Z</time>
      </trkpt>
      <trkpt lat="62.647640078698" lon="17.856879723326">
        <ele>73.6</ele>
        <time>2018-01-06T11:44:01Z</time>
      </trkpt>
      <trkpt lat="62.647644604924" lon="17.856833036143">
        <ele>73.6</ele>
        <time>2018-01-06T11:44:02Z</time>
      </trkpt>
      <trkpt lat="62.647647119494" lon="17.856775033395">
        <ele>73.8</ele>
        <time>2018-01-06T11:44:03Z</time>
      </trkpt>
      <trkpt lat="62.647646868037" lon="17.856722897977">
        <ele>74</ele>
        <time>2018-01-06T11:44:04Z</time>
      </trkpt>
      <trkpt lat="62.647644353467" lon="17.856663889401">
        <ele>74.2</ele>
        <time>2018-01-06T11:44:05Z</time>
      </trkpt>
      <trkpt lat="62.6476449402" lon="17.856608736499">
        <ele>74.4</ele>
        <time>2018-01-06T11:44:06Z</time>
      </trkpt>
      <trkpt lat="62.647648544417" lon="17.856551069027">
        <ele>74.6</ele>
        <time>2018-01-06T11:44:07Z</time>
      </trkpt>
      <trkpt lat="62.647653741195" lon="17.856494491202">
        <ele>74.6</ele>
        <time>2018-01-06T11:44:08Z</time>
      </trkpt>
      <trkpt lat="62.647660195258" lon="17.856438164834">
        <ele>74.8</ele>
        <time>2018-01-06T11:44:09Z</time>
      </trkpt>
      <trkpt lat="62.647669918262" lon="17.856373205109">
        <ele>74.8</ele>
        <time>2018-01-06T11:44:10Z</time>
      </trkpt>
      <trkpt lat="62.647683413121" lon="17.856299612027">
        <ele>75</ele>
        <time>2018-01-06T11:44:11Z</time>
      </trkpt>
      <trkpt lat="62.647697327075" lon="17.856231048085">
        <ele>74.6</ele>
        <time>2018-01-06T11:44:12Z</time>
      </trkpt>
      <trkpt lat="62.647714174694" lon="17.856158712288">
        <ele>74.2</ele>
        <time>2018-01-06T11:44:13Z</time>
      </trkpt>
      <trkpt lat="62.647732028141" lon="17.856083023731">
        <ele>73.6</ele>
        <time>2018-01-06T11:44:14Z</time>
      </trkpt>
      <trkpt lat="62.64775139033" lon="17.856010771753">
        <ele>73</ele>
        <time>2018-01-06T11:44:15Z</time>
      </trkpt>
      <trkpt lat="62.647771255433" lon="17.855948913331">
        <ele>72.6</ele>
        <time>2018-01-06T11:44:16Z</time>
      </trkpt>
      <trkpt lat="62.647797323142" lon="17.855879930294">
        <ele>72.2</ele>
        <time>2018-01-06T11:44:17Z</time>
      </trkpt>
      <trkpt lat="62.647824731955" lon="17.855801727167">
        <ele>71.8</ele>
        <time>2018-01-06T11:44:18Z</time>
      </trkpt>
      <trkpt lat="62.647854236243" lon="17.855727212076">
        <ele>71.6</ele>
        <time>2018-01-06T11:44:19Z</time>
      </trkpt>
      <trkpt lat="62.647887512386" lon="17.855664347826">
        <ele>71.4</ele>
        <time>2018-01-06T11:44:20Z</time>
      </trkpt>
      <trkpt lat="62.64792741023" lon="17.855598885187">
        <ele>71</ele>
        <time>2018-01-06T11:44:21Z</time>
      </trkpt>
      <trkpt lat="62.647969906463" lon="17.855545995398">
        <ele>70.6</ele>
        <time>2018-01-06T11:44:22Z</time>
      </trkpt>
      <trkpt lat="62.648018856759" lon="17.855510539961">
        <ele>69.8</ele>
        <time>2018-01-06T11:44:23Z</time>
      </trkpt>
      <trkpt lat="62.648069567254" lon="17.855496290731">
        <ele>68.8</ele>
        <time>2018-01-06T11:44:24Z</time>
      </trkpt>
      <trkpt lat="62.64811516479" lon="17.855493440885">
        <ele>67.8</ele>
        <time>2018-01-06T11:44:25Z</time>
      </trkpt>
      <trkpt lat="62.64815958886" lon="17.855488244107">
        <ele>67.2</ele>
        <time>2018-01-06T11:44:26Z</time>
      </trkpt>
      <trkpt lat="62.648200743989" lon="17.855474497791">
        <ele>66.8</ele>
        <time>2018-01-06T11:44:27Z</time>
      </trkpt>
      <trkpt lat="62.648246928258" lon="17.855460919113">
        <ele>66.8</ele>
        <time>2018-01-06T11:44:28Z</time>
      </trkpt>
      <trkpt lat="62.648283389523" lon="17.855447088978">
        <ele>67.2</ele>
        <time>2018-01-06T11:44:29Z</time>
      </trkpt>
      <trkpt lat="62.648309708689" lon="17.855434851404">
        <ele>67.4</ele>
        <time>2018-01-06T11:44:30Z</time>
      </trkpt>
      <trkpt lat="62.648344493574" lon="17.855423787296">
        <ele>67.8</ele>
        <time>2018-01-06T11:44:31Z</time>
      </trkpt>
      <trkpt lat="62.648372656758" lon="17.855411549722">
        <ele>68</ele>
        <time>2018-01-06T11:44:32Z</time>
      </trkpt>
      <trkpt lat="62.648395623164" lon="17.855397049035">
        <ele>67.8</ele>
        <time>2018-01-06T11:44:33Z</time>
      </trkpt>
      <trkpt lat="62.648420685045" lon="17.855373914991">
        <ele>67.8</ele>
        <time>2018-01-06T11:44:34Z</time>
      </trkpt>
      <trkpt lat="62.648447171849" lon="17.855343069599">
        <ele>68.2</ele>
        <time>2018-01-06T11:44:35Z</time>
      </trkpt>
      <trkpt lat="62.648471814635" lon="17.855316498976">
        <ele>68</ele>
        <time>2018-01-06T11:44:36Z</time>
      </trkpt>
      <trkpt lat="62.648503498217" lon="17.855291185638">
        <ele>68</ele>
        <time>2018-01-06T11:44:37Z</time>
      </trkpt>
      <trkpt lat="62.648532080496" lon="17.855266961947">
        <ele>68</ele>
        <time>2018-01-06T11:44:38Z</time>
      </trkpt>
      <trkpt lat="62.648558064386" lon="17.855245169007">
        <ele>68</ele>
        <time>2018-01-06T11:44:39Z</time>
      </trkpt>
      <trkpt lat="62.648584048276" lon="17.855220442402">
        <ele>67.8</ele>
        <time>2018-01-06T11:44:40Z</time>
      </trkpt>
      <trkpt lat="62.648609361614" lon="17.855200242023">
        <ele>67.8</ele>
        <time>2018-01-06T11:44:41Z</time>
      </trkpt>
      <trkpt lat="62.648629645812" lon="17.85517450959">
        <ele>67.8</ele>
        <time>2018-01-06T11:44:42Z</time>
      </trkpt>
      <trkpt lat="62.64865160639" lon="17.855154225392">
        <ele>68</ele>
        <time>2018-01-06T11:44:43Z</time>
      </trkpt>
      <trkpt lat="62.648672225864" lon="17.855138551239">
        <ele>68</ele>
        <time>2018-01-06T11:44:44Z</time>
      </trkpt>
      <trkpt lat="62.648690498406" lon="17.855121787439">
        <ele>68.2</ele>
        <time>2018-01-06T11:44:45Z</time>
      </trkpt>
      <trkpt lat="62.648706507835" lon="17.85510326344">
        <ele>68.4</ele>
        <time>2018-01-06T11:44:46Z</time>
      </trkpt>
      <trkpt lat="62.648721930531" lon="17.855082643966">
        <ele>68.4</ele>
        <time>2018-01-06T11:44:47Z</time>
      </trkpt>
      <trkpt lat="62.648729390422" lon="17.855047272348">
        <ele>68.4</ele>
        <time>2018-01-06T11:44:48Z</time>
      </trkpt>
      <trkpt lat="62.648740119254" lon="17.855006703952">
        <ele>68.4</ele>
        <time>2018-01-06T11:44:49Z</time>
      </trkpt>
      <trkpt lat="62.648752021552" lon="17.854952473059">
        <ele>68.6</ele>
        <time>2018-01-06T11:44:50Z</time>
      </trkpt>
      <trkpt lat="62.648763001841" lon="17.854884244393">
        <ele>68.6</ele>
        <time>2018-01-06T11:44:51Z</time>
      </trkpt>
      <trkpt lat="62.648769874999" lon="17.85480319142">
        <ele>68.6</ele>
        <time>2018-01-06T11:44:52Z</time>
      </trkpt>
      <trkpt lat="62.648772724845" lon="17.854703865905">
        <ele>68.6</ele>
        <time>2018-01-06T11:44:53Z</time>
      </trkpt>
      <trkpt lat="62.648772892483" lon="17.854584004735">
        <ele>68.4</ele>
        <time>2018-01-06T11:44:54Z</time>
      </trkpt>
      <trkpt lat="62.648776245243" lon="17.854467161049">
        <ele>68</ele>
        <time>2018-01-06T11:44:55Z</time>
      </trkpt>
      <trkpt lat="62.648790662111" lon="17.854363476946">
        <ele>67.6</ele>
        <time>2018-01-06T11:44:56Z</time>
      </trkpt>
      <trkpt lat="62.648815304897" lon="17.854294074814">
        <ele>66.8</ele>
        <time>2018-01-06T11:44:57Z</time>
      </trkpt>
      <trkpt lat="62.648851514705" lon="17.854248142002">
        <ele>66.2</ele>
        <time>2018-01-06T11:44:58Z</time>
      </trkpt>
      <trkpt lat="62.648888646522" lon="17.854240263016">
        <ele>65.6</ele>
        <time>2018-01-06T11:44:59Z</time>
      </trkpt>
      <trkpt lat="62.648923766683" lon="17.854262977965">
        <ele>65.2</ele>
        <time>2018-01-06T11:45:00Z</time>
      </trkpt>
      <trkpt lat="62.648954612075" lon="17.85430279199">
        <ele>64.8</ele>
        <time>2018-01-06T11:45:01Z</time>
      </trkpt>
      <trkpt lat="62.648979673956" lon="17.85435392158">
        <ele>64.6</ele>
        <time>2018-01-06T11:45:02Z</time>
      </trkpt>
      <trkpt lat="62.649006831312" lon="17.854419635676">
        <ele>64.8</ele>
        <time>2018-01-06T11:45:03Z</time>
      </trkpt>
      <trkpt lat="62.649031222641" lon="17.854490462731">
        <ele>64.6</ele>
        <time>2018-01-06T11:45:04Z</time>
      </trkpt>
      <trkpt lat="62.649054356685" lon="17.854567995306">
        <ele>64.4</ele>
        <time>2018-01-06T11:45:05Z</time>
      </trkpt>
      <trkpt lat="62.649079753842" lon="17.854629769909">
        <ele>64.2</ele>
        <time>2018-01-06T11:45:06Z</time>
      </trkpt>
      <trkpt lat="62.649104061352" lon="17.854697076566">
        <ele>63.8</ele>
        <time>2018-01-06T11:45:07Z</time>
      </trkpt>
      <trkpt lat="62.649128285043" lon="17.854767065431">
        <ele>63.6</ele>
        <time>2018-01-06T11:45:08Z</time>
      </trkpt>
      <trkpt lat="62.649154017476" lon="17.854833869174">
        <ele>63.2</ele>
        <time>2018-01-06T11:45:09Z</time>
      </trkpt>
      <trkpt lat="62.649180001366" lon="17.854897487795">
        <ele>63</ele>
        <time>2018-01-06T11:45:10Z</time>
      </trkpt>
      <trkpt lat="62.649204225057" lon="17.854944761711">
        <ele>63</ele>
        <time>2018-01-06T11:45:11Z</time>
      </trkpt>
      <trkpt lat="62.64923666301" lon="17.854994047283">
        <ele>63</ele>
        <time>2018-01-06T11:45:12Z</time>
      </trkpt>
      <trkpt lat="62.649273208094" lon="17.85504459014">
        <ele>63</ele>
        <time>2018-01-06T11:45:13Z</time>
      </trkpt>
      <trkpt lat="62.649308412074" lon="17.85507476498">
        <ele>62.8</ele>
        <time>2018-01-06T11:45:14Z</time>
      </trkpt>
      <trkpt lat="62.649347136452" lon="17.855088846572">
        <ele>62.6</ele>
        <time>2018-01-06T11:45:15Z</time>
      </trkpt>
      <trkpt lat="62.649387621029" lon="17.855084571803">
        <ele>62.4</ele>
        <time>2018-01-06T11:45:16Z</time>
      </trkpt>
      <trkpt lat="62.649428105606" lon="17.85506554489">
        <ele>62</ele>
        <time>2018-01-06T11:45:17Z</time>
      </trkpt>
      <trkpt lat="62.649467332898" lon="17.855037633163">
        <ele>61.8</ele>
        <time>2018-01-06T11:45:18Z</time>
      </trkpt>
      <trkpt lat="62.649506476371" lon="17.855000082251">
        <ele>61.6</ele>
        <time>2018-01-06T11:45:19Z</time>
      </trkpt>
      <trkpt lat="62.649551906269" lon="17.854963788624">
        <ele>61.4</ele>
        <time>2018-01-06T11:45:20Z</time>
      </trkpt>
      <trkpt lat="62.649603035859" lon="17.85492640535">
        <ele>61</ele>
        <time>2018-01-06T11:45:21Z</time>
      </trkpt>
      <trkpt lat="62.649654333087" lon="17.854895224682">
        <ele>60.6</ele>
        <time>2018-01-06T11:45:22Z</time>
      </trkpt>
      <trkpt lat="62.649717029699" lon="17.854872006819">
        <ele>60.2</ele>
        <time>2018-01-06T11:45:23Z</time>
      </trkpt>
      <trkpt lat="62.649791041876" lon="17.854856584123">
        <ele>59.2</ele>
        <time>2018-01-06T11:45:24Z</time>
      </trkpt>
      <trkpt lat="62.64985859999" lon="17.854845520015">
        <ele>58</ele>
        <time>2018-01-06T11:45:25Z</time>
      </trkpt>
      <trkpt lat="62.649923894991" lon="17.854836970477">
        <ele>57.2</ele>
        <time>2018-01-06T11:45:26Z</time>
      </trkpt>
      <trkpt lat="62.649980221359" lon="17.854826241645">
        <ele>56.4</ele>
        <time>2018-01-06T11:45:27Z</time>
      </trkpt>
      <trkpt lat="62.650045683998" lon="17.85479397133">
        <ele>55.4</ele>
        <time>2018-01-06T11:45:28Z</time>
      </trkpt>
      <trkpt lat="62.650102178004" lon="17.854730604166">
        <ele>55</ele>
        <time>2018-01-06T11:45:29Z</time>
      </trkpt>
      <trkpt lat="62.650142159667" lon="17.854643432406">
        <ele>54.6</ele>
        <time>2018-01-06T11:45:30Z</time>
      </trkpt>
      <trkpt lat="62.650170909584" lon="17.854549303669">
        <ele>54.4</ele>
        <time>2018-01-06T11:45:31Z</time>
      </trkpt>
      <trkpt lat="62.650190355592" lon="17.854450061973">
        <ele>54.2</ele>
        <time>2018-01-06T11:45:32Z</time>
      </trkpt>
      <trkpt lat="62.650209633962" lon="17.854341684006">
        <ele>53.8</ele>
        <time>2018-01-06T11:45:33Z</time>
      </trkpt>
      <trkpt lat="62.650206867935" lon="17.854332463916">
        <ele>53.6</ele>
        <time>2018-01-06T11:45:34Z</time>
      </trkpt>
      <trkpt lat="62.650234276748" lon="17.854183014639">
        <ele>53.4</ele>
        <time>2018-01-06T11:45:35Z</time>
      </trkpt>
      <trkpt lat="62.650243161562" lon="17.854126855909">
        <ele>53.2</ele>
        <time>2018-01-06T11:45:36Z</time>
      </trkpt>
      <trkpt lat="62.650253890394" lon="17.854088299169">
        <ele>53.2</ele>
        <time>2018-01-06T11:45:37Z</time>
      </trkpt>
      <trkpt lat="62.65026428395" lon="17.854056950863">
        <ele>53.2</ele>
        <time>2018-01-06T11:45:38Z</time>
      </trkpt>
      <trkpt lat="62.650274006954" lon="17.854028871498">
        <ele>53.4</ele>
        <time>2018-01-06T11:45:39Z</time>
      </trkpt>
      <trkpt lat="62.650281550664" lon="17.854001378866">
        <ele>53.8</ele>
        <time>2018-01-06T11:45:40Z</time>
      </trkpt>
      <trkpt lat="62.650288423822" lon="17.853976819899">
        <ele>54</ele>
        <time>2018-01-06T11:45:41Z</time>
      </trkpt>
      <trkpt lat="62.650296721903" lon="17.853953182941">
        <ele>54.2</ele>
        <time>2018-01-06T11:45:42Z</time>
      </trkpt>
      <trkpt lat="62.650305187622" lon="17.853924684481">
        <ele>54.6</ele>
        <time>2018-01-06T11:45:43Z</time>
      </trkpt>
      <trkpt lat="62.65031625173" lon="17.853895850745">
        <ele>54.6</ele>
        <time>2018-01-06T11:45:44Z</time>
      </trkpt>
      <trkpt lat="62.650329914227" lon="17.853855952901">
        <ele>54.6</ele>
        <time>2018-01-06T11:45:45Z</time>
      </trkpt>
      <trkpt lat="62.65034223562" lon="17.853814211039">
        <ele>54.8</ele>
        <time>2018-01-06T11:45:46Z</time>
      </trkpt>
      <trkpt lat="62.650359167058" lon="17.853765093105">
        <ele>55</ele>
        <time>2018-01-06T11:45:47Z</time>
      </trkpt>
      <trkpt lat="62.650377188143" lon="17.853718657379">
        <ele>54.8</ele>
        <time>2018-01-06T11:45:48Z</time>
      </trkpt>
      <trkpt lat="62.650393868124" lon="17.85368504596">
        <ele>55</ele>
        <time>2018-01-06T11:45:49Z</time>
      </trkpt>
      <trkpt lat="62.650411973028" lon="17.853654619663">
        <ele>55</ele>
        <time>2018-01-06T11:45:50Z</time>
      </trkpt>
      <trkpt lat="62.650429910294" lon="17.853623774271">
        <ele>54.8</ele>
        <time>2018-01-06T11:45:51Z</time>
      </trkpt>
      <trkpt lat="62.650447344646" lon="17.853597203648">
        <ele>54.8</ele>
        <time>2018-01-06T11:45:52Z</time>
      </trkpt>
      <trkpt lat="62.65046461136" lon="17.853571303577">
        <ele>54.8</ele>
        <time>2018-01-06T11:45:53Z</time>
      </trkpt>
      <trkpt lat="62.650487829223" lon="17.853547666619">
        <ele>54.8</ele>
        <time>2018-01-06T11:45:54Z</time>
      </trkpt>
      <trkpt lat="62.650509789801" lon="17.853518581426">
        <ele>55</ele>
        <time>2018-01-06T11:45:55Z</time>
      </trkpt>
      <trkpt lat="62.650530325456" lon="17.853492765174">
        <ele>55.2</ele>
        <time>2018-01-06T11:45:56Z</time>
      </trkpt>
      <trkpt lat="62.650546418704" lon="17.853471475148">
        <ele>55.4</ele>
        <time>2018-01-06T11:45:57Z</time>
      </trkpt>
      <trkpt lat="62.650566199988" lon="17.853444317792">
        <ele>55.4</ele>
        <time>2018-01-06T11:45:58Z</time>
      </trkpt>
      <trkpt lat="62.650585729815" lon="17.8534134724">
        <ele>55.8</ele>
        <time>2018-01-06T11:45:59Z</time>
      </trkpt>
      <trkpt lat="62.65060123633" lon="17.853381872637">
        <ele>55.8</ele>
        <time>2018-01-06T11:46:00Z</time>
      </trkpt>
      <trkpt lat="62.650614312094" lon="17.853354966738">
        <ele>55.8</ele>
        <time>2018-01-06T11:46:01Z</time>
      </trkpt>
      <trkpt lat="62.650626884944" lon="17.853331078323">
        <ele>56</ele>
        <time>2018-01-06T11:46:02Z</time>
      </trkpt>
      <trkpt lat="62.650640295984" lon="17.853304675338">
        <ele>56.2</ele>
        <time>2018-01-06T11:46:03Z</time>
      </trkpt>
      <trkpt lat="62.650652282101" lon="17.853279864914">
        <ele>56.2</ele>
        <time>2018-01-06T11:46:04Z</time>
      </trkpt>
      <trkpt lat="62.650663178571" lon="17.853254886852">
        <ele>56.6</ele>
        <time>2018-01-06T11:46:05Z</time>
      </trkpt>
      <trkpt lat="62.650673739765" lon="17.85322739422">
        <ele>56.8</ele>
        <time>2018-01-06T11:46:06Z</time>
      </trkpt>
      <trkpt lat="62.650687318443" lon="17.853197303199">
        <ele>56.8</ele>
        <time>2018-01-06T11:46:07Z</time>
      </trkpt>
      <trkpt lat="62.650703914605" lon="17.853163105047">
        <ele>57</ele>
        <time>2018-01-06T11:46:08Z</time>
      </trkpt>
      <trkpt lat="62.650719504939" lon="17.853129577447">
        <ele>57.2</ele>
        <time>2018-01-06T11:46:09Z</time>
      </trkpt>
      <trkpt lat="62.65073031759" lon="17.853101078987">
        <ele>57.2</ele>
        <time>2018-01-06T11:46:10Z</time>
      </trkpt>
      <trkpt lat="62.650744231544" lon="17.853065791188">
        <ele>57.4</ele>
        <time>2018-01-06T11:46:11Z</time>
      </trkpt>
      <trkpt lat="62.650758564593" lon="17.853033437054">
        <ele>57.6</ele>
        <time>2018-01-06T11:46:12Z</time>
      </trkpt>
      <trkpt lat="62.650770885986" lon="17.853002172567">
        <ele>57.6</ele>
        <time>2018-01-06T11:46:13Z</time>
      </trkpt>
      <trkpt lat="62.650786727777" lon="17.852966800949">
        <ele>57.6</ele>
        <time>2018-01-06T11:46:14Z</time>
      </trkpt>
      <trkpt lat="62.650803575396" lon="17.852935033548">
        <ele>57.8</ele>
        <time>2018-01-06T11:46:15Z</time>
      </trkpt>
      <trkpt lat="62.650817992264" lon="17.852907540916">
        <ele>57.8</ele>
        <time>2018-01-06T11:46:16Z</time>
      </trkpt>
      <trkpt lat="62.650830313657" lon="17.85288457451">
        <ele>57.8</ele>
        <time>2018-01-06T11:46:17Z</time>
      </trkpt>
      <trkpt lat="62.650849843484" lon="17.852853729118">
        <ele>58.2</ele>
        <time>2018-01-06T11:46:18Z</time>
      </trkpt>
      <trkpt lat="62.650866272008" lon="17.852827326133">
        <ele>58.2</ele>
        <time>2018-01-06T11:46:19Z</time>
      </trkpt>
      <trkpt lat="62.650890663337" lon="17.85279991732">
        <ele>58.2</ele>
        <time>2018-01-06T11:46:20Z</time>
      </trkpt>
      <trkpt lat="62.650911450449" lon="17.852769658661">
        <ele>58.4</ele>
        <time>2018-01-06T11:46:21Z</time>
      </trkpt>
      <trkpt lat="62.650938775443" lon="17.852739986735">
        <ele>58.4</ele>
        <time>2018-01-06T11:46:22Z</time>
      </trkpt>
      <trkpt lat="62.650971381034" lon="17.852713919026">
        <ele>58.4</ele>
        <time>2018-01-06T11:46:23Z</time>
      </trkpt>
      <trkpt lat="62.651000885322" lon="17.852697825778">
        <ele>58.6</ele>
        <time>2018-01-06T11:46:24Z</time>
      </trkpt>
      <trkpt lat="62.651030808705" lon="17.8526842471">
        <ele>58.2</ele>
        <time>2018-01-06T11:46:25Z</time>
      </trkpt>
      <trkpt lat="62.651055619129" lon="17.852680559064">
        <ele>58</ele>
        <time>2018-01-06T11:46:26Z</time>
      </trkpt>
      <trkpt lat="62.651077244431" lon="17.852682989815">
        <ele>58</ele>
        <time>2018-01-06T11:46:27Z</time>
      </trkpt>
      <trkpt lat="62.651102138674" lon="17.852688102774">
        <ele>58</ele>
        <time>2018-01-06T11:46:28Z</time>
      </trkpt>
      <trkpt lat="62.651123009605" lon="17.852689443878">
        <ele>58</ele>
        <time>2018-01-06T11:46:29Z</time>
      </trkpt>
      <trkpt lat="62.651146311287" lon="17.852693886285">
        <ele>58</ele>
        <time>2018-01-06T11:46:30Z</time>
      </trkpt>
      <trkpt lat="62.651175228842" lon="17.852698999244">
        <ele>57.8</ele>
        <time>2018-01-06T11:46:31Z</time>
      </trkpt>
      <trkpt lat="62.65119467485" lon="17.852701429995">
        <ele>58</ele>
        <time>2018-01-06T11:46:32Z</time>
      </trkpt>
      <trkpt lat="62.651220072007" lon="17.852701346176">
        <ele>58</ele>
        <time>2018-01-06T11:46:33Z</time>
      </trkpt>
      <trkpt lat="62.651244295698" lon="17.852698747787">
        <ele>58</ele>
        <time>2018-01-06T11:46:34Z</time>
      </trkpt>
      <trkpt lat="62.65126340643" lon="17.852695227389">
        <ele>58</ele>
        <time>2018-01-06T11:46:35Z</time>
      </trkpt>
      <trkpt lat="62.651283858266" lon="17.852691539353">
        <ele>58.2</ele>
        <time>2018-01-06T11:46:36Z</time>
      </trkpt>
      <trkpt lat="62.651307076129" lon="17.852685755842">
        <ele>58.2</ele>
        <time>2018-01-06T11:46:37Z</time>
      </trkpt>
      <trkpt lat="62.651328282336" lon="17.852668824404">
        <ele>58.2</ele>
        <time>2018-01-06T11:46:38Z</time>
      </trkpt>
      <trkpt lat="62.651343621213" lon="17.852651306233">
        <ele>58.2</ele>
        <time>2018-01-06T11:46:39Z</time>
      </trkpt>
      <trkpt lat="62.651367090533" lon="17.852634626252">
        <ele>58.2</ele>
        <time>2018-01-06T11:46:40Z</time>
      </trkpt>
      <trkpt lat="62.651390224577" lon="17.852613252407">
        <ele>58.4</ele>
        <time>2018-01-06T11:46:41Z</time>
      </trkpt>
      <trkpt lat="62.651408329481" lon="17.852595650417">
        <ele>58.4</ele>
        <time>2018-01-06T11:46:42Z</time>
      </trkpt>
      <trkpt lat="62.651433307543" lon="17.852572348735">
        <ele>58.4</ele>
        <time>2018-01-06T11:46:43Z</time>
      </trkpt>
      <trkpt lat="62.65145451375" lon="17.852552315994">
        <ele>58.4</ele>
        <time>2018-01-06T11:46:44Z</time>
      </trkpt>
      <trkpt lat="62.651471696645" lon="17.85253672566">
        <ele>58.4</ele>
        <time>2018-01-06T11:46:45Z</time>
      </trkpt>
      <trkpt lat="62.651494160137" lon="17.852516860557">
        <ele>58.4</ele>
        <time>2018-01-06T11:46:46Z</time>
      </trkpt>
      <trkpt lat="62.651512432679" lon="17.852498588015">
        <ele>58.4</ele>
        <time>2018-01-06T11:46:47Z</time>
      </trkpt>
      <trkpt lat="62.651530956678" lon="17.852479812559">
        <ele>58.4</ele>
        <time>2018-01-06T11:46:48Z</time>
      </trkpt>
      <trkpt lat="62.651553923084" lon="17.852460869465">
        <ele>58.4</ele>
        <time>2018-01-06T11:46:49Z</time>
      </trkpt>
      <trkpt lat="62.651575799843" lon="17.852442764561">
        <ele>58.6</ele>
        <time>2018-01-06T11:46:50Z</time>
      </trkpt>
      <trkpt lat="62.651593820928" lon="17.852426336037">
        <ele>58.6</ele>
        <time>2018-01-06T11:46:51Z</time>
      </trkpt>
      <trkpt lat="62.651610249452" lon="17.852411164798">
        <ele>58.6</ele>
        <time>2018-01-06T11:46:52Z</time>
      </trkpt>
      <trkpt lat="62.651629863098" lon="17.852399513957">
        <ele>58.8</ele>
        <time>2018-01-06T11:46:53Z</time>
      </trkpt>
      <trkpt lat="62.651651739857" lon="17.85238920422">
        <ele>58.8</ele>
        <time>2018-01-06T11:46:54Z</time>
      </trkpt>
      <trkpt lat="62.651672862245" lon="17.852374284438">
        <ele>59</ele>
        <time>2018-01-06T11:46:55Z</time>
      </trkpt>
      <trkpt lat="62.651691218606" lon="17.852358945561">
        <ele>59.2</ele>
        <time>2018-01-06T11:46:56Z</time>
      </trkpt>
      <trkpt lat="62.651708736777" lon="17.852348216729">
        <ele>59.4</ele>
        <time>2018-01-06T11:46:57Z</time>
      </trkpt>
      <trkpt lat="62.651732038459" lon="17.852336649707">
        <ele>59.6</ele>
        <time>2018-01-06T11:46:58Z</time>
      </trkpt>
      <trkpt lat="62.651749891906" lon="17.852329105997">
        <ele>59.8</ele>
        <time>2018-01-06T11:46:59Z</time>
      </trkpt>
      <trkpt lat="62.651773445045" lon="17.8523238254">
        <ele>59.8</ele>
        <time>2018-01-06T11:47:00Z</time>
      </trkpt>
      <trkpt lat="62.651796579089" lon="17.852315527319">
        <ele>60</ele>
        <time>2018-01-06T11:47:01Z</time>
      </trkpt>
      <trkpt lat="62.651819377857" lon="17.852309659989">
        <ele>60</ele>
        <time>2018-01-06T11:47:02Z</time>
      </trkpt>
      <trkpt lat="62.651845697023" lon="17.852302535374">
        <ele>60</ele>
        <time>2018-01-06T11:47:03Z</time>
      </trkpt>
      <trkpt lat="62.651867573782" lon="17.852294237293">
        <ele>60</ele>
        <time>2018-01-06T11:47:04Z</time>
      </trkpt>
      <trkpt lat="62.651886433057" lon="17.852288286144">
        <ele>60.2</ele>
        <time>2018-01-06T11:47:05Z</time>
      </trkpt>
      <trkpt lat="62.651903280676" lon="17.852280993891">
        <ele>60.2</ele>
        <time>2018-01-06T11:47:06Z</time>
      </trkpt>
      <trkpt lat="62.65192054739" lon="17.852271606163">
        <ele>60.4</ele>
        <time>2018-01-06T11:47:07Z</time>
      </trkpt>
      <trkpt lat="62.651939322846" lon="17.852259368589">
        <ele>60.6</ele>
        <time>2018-01-06T11:47:08Z</time>
      </trkpt>
      <trkpt lat="62.651954996999" lon="17.852245370816">
        <ele>60.8</ele>
        <time>2018-01-06T11:47:09Z</time>
      </trkpt>
      <trkpt lat="62.651974610645" lon="17.852231959776">
        <ele>61</ele>
        <time>2018-01-06T11:47:10Z</time>
      </trkpt>
      <trkpt lat="62.651993553739" lon="17.852217710546">
        <ele>61</ele>
        <time>2018-01-06T11:47:11Z</time>
      </trkpt>
      <trkpt lat="62.652010485177" lon="17.852203796592">
        <ele>61.2</ele>
        <time>2018-01-06T11:47:12Z</time>
      </trkpt>
      <trkpt lat="62.652027500434" lon="17.852189044448">
        <ele>61.2</ele>
        <time>2018-01-06T11:47:13Z</time>
      </trkpt>
      <trkpt lat="62.652042168759" lon="17.852177393607">
        <ele>61.4</ele>
        <time>2018-01-06T11:47:14Z</time>
      </trkpt>
      <trkpt lat="62.652055831256" lon="17.852167335327">
        <ele>61.6</ele>
        <time>2018-01-06T11:47:15Z</time>
      </trkpt>
      <trkpt lat="62.65207309797" lon="17.852155516848">
        <ele>61.6</ele>
        <time>2018-01-06T11:47:16Z</time>
      </trkpt>
      <trkpt lat="62.65209153815" lon="17.852137914858">
        <ele>62</ele>
        <time>2018-01-06T11:47:17Z</time>
      </trkpt>
      <trkpt lat="62.652111319434" lon="17.852114696995">
        <ele>62</ele>
        <time>2018-01-06T11:47:18Z</time>
      </trkpt>
      <trkpt lat="62.652126406854" lon="17.852091898227">
        <ele>62.2</ele>
        <time>2018-01-06T11:47:19Z</time>
      </trkpt>
      <trkpt lat="62.652141494274" lon="17.852057951532">
        <ele>62.4</ele>
        <time>2018-01-06T11:47:20Z</time>
      </trkpt>
      <trkpt lat="62.652154067124" lon="17.85202710614">
        <ele>62.4</ele>
        <time>2018-01-06T11:47:21Z</time>
      </trkpt>
      <trkpt lat="62.652167561983" lon="17.852000451698">
        <ele>62.4</ele>
        <time>2018-01-06T11:47:22Z</time>
      </trkpt>
      <trkpt lat="62.652188265276" lon="17.851967343193">
        <ele>62.6</ele>
        <time>2018-01-06T11:47:23Z</time>
      </trkpt>
      <trkpt lat="62.6522046938" lon="17.85194077257">
        <ele>62.8</ele>
        <time>2018-01-06T11:47:24Z</time>
      </trkpt>
      <trkpt lat="62.65222061941" lon="17.851908334617">
        <ele>63</ele>
        <time>2018-01-06T11:47:25Z</time>
      </trkpt>
      <trkpt lat="62.652237969943" lon="17.851877489225">
        <ele>63</ele>
        <time>2018-01-06T11:47:26Z</time>
      </trkpt>
      <trkpt lat="62.652251548621" lon="17.851848739308">
        <ele>63.2</ele>
        <time>2018-01-06T11:47:27Z</time>
      </trkpt>
      <trkpt lat="62.652264959661" lon="17.851822168685">
        <ele>63.2</ele>
        <time>2018-01-06T11:47:28Z</time>
      </trkpt>
      <trkpt lat="62.652278203063" lon="17.851800878659">
        <ele>63.4</ele>
        <time>2018-01-06T11:47:29Z</time>
      </trkpt>
      <trkpt lat="62.652289686266" lon="17.851786294153">
        <ele>63.4</ele>
        <time>2018-01-06T11:47:30Z</time>
      </trkpt>
      <trkpt lat="62.652303348763" lon="17.851768273068">
        <ele>63.6</ele>
        <time>2018-01-06T11:47:31Z</time>
      </trkpt>
      <trkpt lat="62.652315167242" lon="17.851751844544">
        <ele>63.8</ele>
        <time>2018-01-06T11:47:32Z</time>
      </trkpt>
      <trkpt lat="62.652325057884" lon="17.851734326373">
        <ele>63.8</ele>
        <time>2018-01-06T11:47:33Z</time>
      </trkpt>
      <trkpt lat="62.652335367621" lon="17.851719993324">
        <ele>63.8</ele>
        <time>2018-01-06T11:47:34Z</time>
      </trkpt>
      <trkpt lat="62.65234634791" lon="17.85170440299">
        <ele>64.2</ele>
        <time>2018-01-06T11:47:35Z</time>
      </trkpt>
      <trkpt lat="62.65235892076" lon="17.851681352765">
        <ele>64.4</ele>
        <time>2018-01-06T11:47:36Z</time>
      </trkpt>
      <trkpt lat="62.652369901049" lon="17.851659727463">
        <ele>64.8</ele>
        <time>2018-01-06T11:47:37Z</time>
      </trkpt>
      <trkpt lat="62.65238239008" lon="17.851636844876">
        <ele>64.8</ele>
        <time>2018-01-06T11:47:38Z</time>
      </trkpt>
      <trkpt lat="62.652395633482" lon="17.85161555485">
        <ele>65.2</ele>
        <time>2018-01-06T11:47:39Z</time>
      </trkpt>
      <trkpt lat="62.65240921216" lon="17.851592253168">
        <ele>65.4</ele>
        <time>2018-01-06T11:47:40Z</time>
      </trkpt>
      <trkpt lat="62.652423126114" lon="17.851568867667">
        <ele>65.8</ele>
        <time>2018-01-06T11:47:41Z</time>
      </trkpt>
      <trkpt lat="62.652434776955" lon="17.851545063071">
        <ele>66</ele>
        <time>2018-01-06T11:47:42Z</time>
      </trkpt>
      <trkpt lat="62.652448858547" lon="17.851517067525">
        <ele>66.2</ele>
        <time>2018-01-06T11:47:43Z</time>
      </trkpt>
      <trkpt lat="62.652461850492" lon="17.851493849662">
        <ele>66.4</ele>
        <time>2018-01-06T11:47:44Z</time>
      </trkpt>
      <trkpt lat="62.6524729146" lon="17.851471889084">
        <ele>66.6</ele>
        <time>2018-01-06T11:47:45Z</time>
      </trkpt>
      <trkpt lat="62.652487499106" lon="17.851441043692">
        <ele>66.6</ele>
        <time>2018-01-06T11:47:46Z</time>
      </trkpt>
      <trkpt lat="62.652500826327" lon="17.851415478897">
        <ele>66.8</ele>
        <time>2018-01-06T11:47:47Z</time>
      </trkpt>
      <trkpt lat="62.652516416661" lon="17.851389327369">
        <ele>67</ele>
        <time>2018-01-06T11:47:48Z</time>
      </trkpt>
      <trkpt lat="62.652532761366" lon="17.851365438954">
        <ele>67.2</ele>
        <time>2018-01-06T11:47:49Z</time>
      </trkpt>
      <trkpt lat="62.652548435519" lon="17.851335515571">
        <ele>67.2</ele>
        <time>2018-01-06T11:47:50Z</time>
      </trkpt>
      <trkpt lat="62.652556817419" lon="17.851305340731">
        <ele>67.4</ele>
        <time>2018-01-06T11:47:51Z</time>
      </trkpt>
      <trkpt lat="62.652572910667" lon="17.851270555846">
        <ele>67.6</ele>
        <time>2018-01-06T11:47:52Z</time>
      </trkpt>
      <trkpt lat="62.652589758286" lon="17.85123585478">
        <ele>67.8</ele>
        <time>2018-01-06T11:47:53Z</time>
      </trkpt>
      <trkpt lat="62.652602331136" lon="17.851206769587">
        <ele>68</ele>
        <time>2018-01-06T11:47:54Z</time>
      </trkpt>
      <trkpt lat="62.652622196239" lon="17.851183803181">
        <ele>68</ele>
        <time>2018-01-06T11:47:55Z</time>
      </trkpt>
      <trkpt lat="62.652644408274" lon="17.851167039381">
        <ele>68.2</ele>
        <time>2018-01-06T11:47:56Z</time>
      </trkpt>
      <trkpt lat="62.65266066916" lon="17.851144156794">
        <ele>68.4</ele>
        <time>2018-01-06T11:47:57Z</time>
      </trkpt>
      <trkpt lat="62.65267910934" lon="17.851117167076">
        <ele>68.4</ele>
        <time>2018-01-06T11:47:58Z</time>
      </trkpt>
      <trkpt lat="62.65270006409" lon="17.851093697756">
        <ele>68.4</ele>
        <time>2018-01-06T11:47:59Z</time>
      </trkpt>
      <trkpt lat="62.652719845374" lon="17.851072575368">
        <ele>68.6</ele>
        <time>2018-01-06T11:48:00Z</time>
      </trkpt>
      <trkpt lat="62.652738117916" lon="17.851047094392">
        <ele>68.8</ele>
        <time>2018-01-06T11:48:01Z</time>
      </trkpt>
      <trkpt lat="62.652760581408" lon="17.851014237344">
        <ele>69</ele>
        <time>2018-01-06T11:48:02Z</time>
      </trkpt>
      <trkpt lat="62.652786816755" lon="17.850977608441">
        <ele>69.2</ele>
        <time>2018-01-06T11:48:03Z</time>
      </trkpt>
      <trkpt lat="62.652807100953" lon="17.850940141348">
        <ele>69.2</ele>
        <time>2018-01-06T11:48:04Z</time>
      </trkpt>
      <trkpt lat="62.652822942744" lon="17.850900830237">
        <ele>69.2</ele>
        <time>2018-01-06T11:48:05Z</time>
      </trkpt>
      <trkpt lat="62.652837946345" lon="17.850846683163">
        <ele>69</ele>
        <time>2018-01-06T11:48:06Z</time>
      </trkpt>
      <trkpt lat="62.6528501001" lon="17.850799325428">
        <ele>69</ele>
        <time>2018-01-06T11:48:07Z</time>
      </trkpt>
      <trkpt lat="62.652861499484" lon="17.850748531114">
        <ele>69</ele>
        <time>2018-01-06T11:48:08Z</time>
      </trkpt>
      <trkpt lat="62.652870551936" lon="17.850695725144">
        <ele>69.4</ele>
        <time>2018-01-06T11:48:09Z</time>
      </trkpt>
      <trkpt lat="62.6528752458" lon="17.850645349925">
        <ele>69.6</ele>
        <time>2018-01-06T11:48:10Z</time>
      </trkpt>
      <trkpt lat="62.652882957148" lon="17.850583994417">
        <ele>69.8</ele>
        <time>2018-01-06T11:48:11Z</time>
      </trkpt>
      <trkpt lat="62.652886477546" lon="17.850534541207">
        <ele>69.8</ele>
        <time>2018-01-06T11:48:12Z</time>
      </trkpt>
      <trkpt lat="62.652891674324" lon="17.850468994749">
        <ele>69.8</ele>
        <time>2018-01-06T11:48:13Z</time>
      </trkpt>
      <trkpt lat="62.652894607989" lon="17.850406717232">
        <ele>69.8</ele>
        <time>2018-01-06T11:48:14Z</time>
      </trkpt>
      <trkpt lat="62.652896954921" lon="17.850356006737">
        <ele>69.8</ele>
        <time>2018-01-06T11:48:15Z</time>
      </trkpt>
      <trkpt lat="62.652903660441" lon="17.850289286813">
        <ele>69.8</ele>
        <time>2018-01-06T11:48:16Z</time>
      </trkpt>
      <trkpt lat="62.652905672097" lon="17.850229775323">
        <ele>69.8</ele>
        <time>2018-01-06T11:48:17Z</time>
      </trkpt>
      <trkpt lat="62.652913634902" lon="17.850159535001">
        <ele>69.8</ele>
        <time>2018-01-06T11:48:18Z</time>
      </trkpt>
      <trkpt lat="62.652925201924" lon="17.850096670751">
        <ele>69.8</ele>
        <time>2018-01-06T11:48:19Z</time>
      </trkpt>
      <trkpt lat="62.652931069254" lon="17.850040679659">
        <ele>69.8</ele>
        <time>2018-01-06T11:48:20Z</time>
      </trkpt>
      <trkpt lat="62.652940708439" lon="17.849974546468">
        <ele>69.6</ele>
        <time>2018-01-06T11:48:21Z</time>
      </trkpt>
      <trkpt lat="62.652948252149" lon="17.849923081602">
        <ele>69.4</ele>
        <time>2018-01-06T11:48:22Z</time>
      </trkpt>
      <trkpt lat="62.652957304601" lon="17.849866503777">
        <ele>69.4</ele>
        <time>2018-01-06T11:48:23Z</time>
      </trkpt>
      <trkpt lat="62.652969793632" lon="17.849806154097">
        <ele>69.4</ele>
        <time>2018-01-06T11:48:24Z</time>
      </trkpt>
      <trkpt lat="62.652980438645" lon="17.849745301503">
        <ele>69.4</ele>
        <time>2018-01-06T11:48:25Z</time>
      </trkpt>
      <trkpt lat="62.652986641251" lon="17.849688891316">
        <ele>69.4</ele>
        <time>2018-01-06T11:48:26Z</time>
      </trkpt>
      <trkpt lat="62.652998040635" lon="17.849630134197">
        <ele>69.4</ele>
        <time>2018-01-06T11:48:27Z</time>
      </trkpt>
      <trkpt lat="62.653010864942" lon="17.849564084825">
        <ele>69.2</ele>
        <time>2018-01-06T11:48:28Z</time>
      </trkpt>
      <trkpt lat="62.653020336489" lon="17.849504657154">
        <ele>69.2</ele>
        <time>2018-01-06T11:48:29Z</time>
      </trkpt>
      <trkpt lat="62.653031400597" lon="17.849439865067">
        <ele>69.2</ele>
        <time>2018-01-06T11:48:30Z</time>
      </trkpt>
      <trkpt lat="62.653042716162" lon="17.849370630573">
        <ele>69.2</ele>
        <time>2018-01-06T11:48:31Z</time>
      </trkpt>
      <trkpt lat="62.653051433338" lon="17.849319249526">
        <ele>69.2</ele>
        <time>2018-01-06T11:48:32Z</time>
      </trkpt>
      <trkpt lat="62.653058725591" lon="17.849266192099">
        <ele>69.2</ele>
        <time>2018-01-06T11:48:33Z</time>
      </trkpt>
      <trkpt lat="62.653070124975" lon="17.849201651469">
        <ele>69</ele>
        <time>2018-01-06T11:48:34Z</time>
      </trkpt>
      <trkpt lat="62.653075405572" lon="17.849153623182">
        <ele>69.2</ele>
        <time>2018-01-06T11:48:35Z</time>
      </trkpt>
      <trkpt lat="62.653079931798" lon="17.849105259619">
        <ele>69.2</ele>
        <time>2018-01-06T11:48:36Z</time>
      </trkpt>
      <trkpt lat="62.653084458024" lon="17.849046753957">
        <ele>69.2</ele>
        <time>2018-01-06T11:48:37Z</time>
      </trkpt>
      <trkpt lat="62.653086804956" lon="17.848980453128">
        <ele>69.2</ele>
        <time>2018-01-06T11:48:38Z</time>
      </trkpt>
      <trkpt lat="62.653088648974" lon="17.848914319937">
        <ele>69.4</ele>
        <time>2018-01-06T11:48:39Z</time>
      </trkpt>
      <trkpt lat="62.653088565155" lon="17.848846678004">
        <ele>69.4</ele>
        <time>2018-01-06T11:48:40Z</time>
      </trkpt>
      <trkpt lat="62.653089151888" lon="17.848777275872">
        <ele>69.6</ele>
        <time>2018-01-06T11:48:41Z</time>
      </trkpt>
      <trkpt lat="62.653086888775" lon="17.84871625564">
        <ele>69.6</ele>
        <time>2018-01-06T11:48:42Z</time>
      </trkpt>
      <trkpt lat="62.653085380033" lon="17.848648865164">
        <ele>69.6</ele>
        <time>2018-01-06T11:48:43Z</time>
      </trkpt>
      <trkpt lat="62.653081943454" lon="17.848569153295">
        <ele>69.6</ele>
        <time>2018-01-06T11:48:44Z</time>
      </trkpt>
      <trkpt lat="62.653077165771" lon="17.848503942113">
        <ele>69.6</ele>
        <time>2018-01-06T11:48:45Z</time>
      </trkpt>
      <trkpt lat="62.65307305864" lon="17.848415596887">
        <ele>69.6</ele>
        <time>2018-01-06T11:48:46Z</time>
      </trkpt>
      <trkpt lat="62.653068364776" lon="17.848342674357">
        <ele>69.6</ele>
        <time>2018-01-06T11:48:47Z</time>
      </trkpt>
      <trkpt lat="62.653063587093" lon="17.848260196461">
        <ele>69.4</ele>
        <time>2018-01-06T11:48:48Z</time>
      </trkpt>
      <trkpt lat="62.653059563781" lon="17.848178472936">
        <ele>69.2</ele>
        <time>2018-01-06T11:48:49Z</time>
      </trkpt>
      <trkpt lat="62.653054367003" lon="17.848093899565">
        <ele>68.8</ele>
        <time>2018-01-06T11:48:50Z</time>
      </trkpt>
      <trkpt lat="62.65304791294" lon="17.848002872131">
        <ele>68.4</ele>
        <time>2018-01-06T11:48:51Z</time>
      </trkpt>
      <trkpt lat="62.653042464705" lon="17.84791578419">
        <ele>68</ele>
        <time>2018-01-06T11:48:52Z</time>
      </trkpt>
      <trkpt lat="62.653036681194" lon="17.847814027924">
        <ele>67.4</ele>
        <time>2018-01-06T11:48:53Z</time>
      </trkpt>
      <trkpt lat="62.653027209647" lon="17.847713109848">
        <ele>66.8</ele>
        <time>2018-01-06T11:48:54Z</time>
      </trkpt>
      <trkpt lat="62.653017570462" lon="17.847610180116">
        <ele>66.4</ele>
        <time>2018-01-06T11:48:55Z</time>
      </trkpt>
      <trkpt lat="62.653007596001" lon="17.847519823234">
        <ele>65.6</ele>
        <time>2018-01-06T11:48:56Z</time>
      </trkpt>
      <trkpt lat="62.652998795006" lon="17.847423850479">
        <ele>65.4</ele>
        <time>2018-01-06T11:48:57Z</time>
      </trkpt>
      <trkpt lat="62.652993011495" lon="17.84731061101">
        <ele>65.4</ele>
        <time>2018-01-06T11:48:58Z</time>
      </trkpt>
      <trkpt lat="62.652984294319" lon="17.847221259956">
        <ele>65.4</ele>
        <time>2018-01-06T11:48:59Z</time>
      </trkpt>
      <trkpt lat="62.652980773921" lon="17.847146074313">
        <ele>65.4</ele>
        <time>2018-01-06T11:49:00Z</time>
      </trkpt>
      <trkpt lat="62.652980606283" lon="17.847053621956">
        <ele>65.4</ele>
        <time>2018-01-06T11:49:01Z</time>
      </trkpt>
      <trkpt lat="62.652983707586" lon="17.846974413001">
        <ele>65.4</ele>
        <time>2018-01-06T11:49:02Z</time>
      </trkpt>
      <trkpt lat="62.652990161649" lon="17.84689486877">
        <ele>65.6</ele>
        <time>2018-01-06T11:49:03Z</time>
      </trkpt>
      <trkpt lat="62.652999465558" lon="17.846820353679">
        <ele>65.6</ele>
        <time>2018-01-06T11:49:04Z</time>
      </trkpt>
      <trkpt lat="62.653006338716" lon="17.846761428922">
        <ele>65.4</ele>
        <time>2018-01-06T11:49:05Z</time>
      </trkpt>
      <trkpt lat="62.653018743928" lon="17.846702001251">
        <ele>65.6</ele>
        <time>2018-01-06T11:49:06Z</time>
      </trkpt>
      <trkpt lat="62.653033747529" lon="17.846646429254">
        <ele>65.8</ele>
        <time>2018-01-06T11:49:07Z</time>
      </trkpt>
      <trkpt lat="62.653047493845" lon="17.846594210017">
        <ele>65.8</ele>
        <time>2018-01-06T11:49:08Z</time>
      </trkpt>
      <trkpt lat="62.653061240161" lon="17.846533273604">
        <ele>65.8</ele>
        <time>2018-01-06T11:49:09Z</time>
      </trkpt>
      <trkpt lat="62.653076495219" lon="17.846474851761">
        <ele>65.8</ele>
        <time>2018-01-06T11:49:10Z</time>
      </trkpt>
      <trkpt lat="62.653096192684" lon="17.846405784905">
        <ele>66</ele>
        <time>2018-01-06T11:49:11Z</time>
      </trkpt>
      <trkpt lat="62.653117901805" lon="17.846349039442">
        <ele>65.8</ele>
        <time>2018-01-06T11:49:12Z</time>
      </trkpt>
      <trkpt lat="62.653137431632" lon="17.84628969559">
        <ele>66</ele>
        <time>2018-01-06T11:49:13Z</time>
      </trkpt>
      <trkpt lat="62.653157883468" lon="17.846237476353">
        <ele>65.8</ele>
        <time>2018-01-06T11:49:14Z</time>
      </trkpt>
      <trkpt lat="62.653172551793" lon="17.846195147758">
        <ele>65.8</ele>
        <time>2018-01-06T11:49:15Z</time>
      </trkpt>
      <trkpt lat="62.653196524027" lon="17.846140162494">
        <ele>65.6</ele>
        <time>2018-01-06T11:49:16Z</time>
      </trkpt>
      <trkpt lat="62.653210689438" lon="17.846095486967">
        <ele>65.6</ele>
        <time>2018-01-06T11:49:17Z</time>
      </trkpt>
      <trkpt lat="62.65323231474" lon="17.846040334065">
        <ele>65.6</ele>
        <time>2018-01-06T11:49:18Z</time>
      </trkpt>
      <trkpt lat="62.653251090196" lon="17.845984342973">
        <ele>65.6</ele>
        <time>2018-01-06T11:49:19Z</time>
      </trkpt>
      <trkpt lat="62.653269949471" lon="17.845927848967">
        <ele>65.6</ele>
        <time>2018-01-06T11:49:20Z</time>
      </trkpt>
      <trkpt lat="62.653299789035" lon="17.845867750744">
        <ele>65.6</ele>
        <time>2018-01-06T11:49:21Z</time>
      </trkpt>
      <trkpt lat="62.653326359658" lon="17.845817962258">
        <ele>65.4</ele>
        <time>2018-01-06T11:49:22Z</time>
      </trkpt>
      <trkpt lat="62.653352762643" lon="17.845767000306">
        <ele>65.2</ele>
        <time>2018-01-06T11:49:23Z</time>
      </trkpt>
      <trkpt lat="62.653380758189" lon="17.845720899856">
        <ele>65.2</ele>
        <time>2018-01-06T11:49:24Z</time>
      </trkpt>
      <trkpt lat="62.653413531418" lon="17.845674715587">
        <ele>64.8</ele>
        <time>2018-01-06T11:49:25Z</time>
      </trkpt>
      <trkpt lat="62.65345108233" lon="17.845621490522">
        <ele>64.6</ele>
        <time>2018-01-06T11:49:26Z</time>
      </trkpt>
      <trkpt lat="62.653487459776" lon="17.845567762543">
        <ele>64.6</ele>
        <time>2018-01-06T11:49:27Z</time>
      </trkpt>
      <trkpt lat="62.653535655701" lon="17.845519901894">
        <ele>64.4</ele>
        <time>2018-01-06T11:49:28Z</time>
      </trkpt>
      <trkpt lat="62.653577816658" lon="17.845468772304">
        <ele>64.2</ele>
        <time>2018-01-06T11:49:29Z</time>
      </trkpt>
      <trkpt lat="62.653615535208" lon="17.845406327149">
        <ele>64</ele>
        <time>2018-01-06T11:49:30Z</time>
      </trkpt>
      <trkpt lat="62.653652415568" lon="17.845316808457">
        <ele>63.6</ele>
        <time>2018-01-06T11:49:31Z</time>
      </trkpt>
      <trkpt lat="62.653681752218" lon="17.845225864842">
        <ele>63.2</ele>
        <time>2018-01-06T11:49:32Z</time>
      </trkpt>
      <trkpt lat="62.65371008304" lon="17.845120839635">
        <ele>62.6</ele>
        <time>2018-01-06T11:49:33Z</time>
      </trkpt>
      <trkpt lat="62.653736653663" lon="17.845017406989">
        <ele>61.8</ele>
        <time>2018-01-06T11:49:34Z</time>
      </trkpt>
      <trkpt lat="62.653764733028" lon="17.844921937148">
        <ele>61</ele>
        <time>2018-01-06T11:49:35Z</time>
      </trkpt>
      <trkpt lat="62.653792141841" lon="17.844833508103">
        <ele>60.6</ele>
        <time>2018-01-06T11:49:36Z</time>
      </trkpt>
      <trkpt lat="62.653816952265" lon="17.844755472614">
        <ele>60.2</ele>
        <time>2018-01-06T11:49:37Z</time>
      </trkpt>
      <trkpt lat="62.653839751033" lon="17.844687495405">
        <ele>59.8</ele>
        <time>2018-01-06T11:49:38Z</time>
      </trkpt>
      <trkpt lat="62.653861627792" lon="17.844626642811">
        <ele>59.6</ele>
        <time>2018-01-06T11:49:39Z</time>
      </trkpt>
      <trkpt lat="62.653884091284" lon="17.844569142977">
        <ele>59.6</ele>
        <time>2018-01-06T11:49:40Z</time>
      </trkpt>
      <trkpt lat="62.653906638595" lon="17.844517426654">
        <ele>59.6</ele>
        <time>2018-01-06T11:49:41Z</time>
      </trkpt>
      <trkpt lat="62.653928599173" lon="17.844467889625">
        <ele>59.4</ele>
        <time>2018-01-06T11:49:42Z</time>
      </trkpt>
      <trkpt lat="62.653954415425" lon="17.84441047361">
        <ele>59.2</ele>
        <time>2018-01-06T11:49:43Z</time>
      </trkpt>
      <trkpt lat="62.653979561125" lon="17.844358757287">
        <ele>59.2</ele>
        <time>2018-01-06T11:49:44Z</time>
      </trkpt>
      <trkpt lat="62.654003030445" lon="17.844313662665">
        <ele>59</ele>
        <time>2018-01-06T11:49:45Z</time>
      </trkpt>
      <trkpt lat="62.654032199457" lon="17.844264293274">
        <ele>58.8</ele>
        <time>2018-01-06T11:49:46Z</time>
      </trkpt>
      <trkpt lat="62.654060614098" lon="17.84422523362">
        <ele>58.6</ele>
        <time>2018-01-06T11:49:47Z</time>
      </trkpt>
      <trkpt lat="62.654093554965" lon="17.844186090147">
        <ele>58.4</ele>
        <time>2018-01-06T11:49:48Z</time>
      </trkpt>
      <trkpt lat="62.654127669298" lon="17.844153400737">
        <ele>57.8</ele>
        <time>2018-01-06T11:49:49Z</time>
      </trkpt>
      <trkpt lat="62.654162118907" lon="17.844130182874">
        <ele>57.2</ele>
        <time>2018-01-06T11:49:50Z</time>
      </trkpt>
      <trkpt lat="62.654195227412" lon="17.844109898676">
        <ele>56.4</ele>
        <time>2018-01-06T11:49:51Z</time>
      </trkpt>
      <trkpt lat="62.654229090288" lon="17.84409196141">
        <ele>55.6</ele>
        <time>2018-01-06T11:49:52Z</time>
      </trkpt>
      <trkpt lat="62.654261947336" lon="17.844080478207">
        <ele>54.8</ele>
        <time>2018-01-06T11:49:53Z</time>
      </trkpt>
      <trkpt lat="62.654295391117" lon="17.844069497918">
        <ele>54</ele>
        <time>2018-01-06T11:49:54Z</time>
      </trkpt>
      <trkpt lat="62.654331433287" lon="17.844056338335">
        <ele>53.2</ele>
        <time>2018-01-06T11:49:55Z</time>
      </trkpt>
      <trkpt lat="62.654364206516" lon="17.844044771313">
        <ele>52.4</ele>
        <time>2018-01-06T11:49:56Z</time>
      </trkpt>
      <trkpt lat="62.654392621157" lon="17.844036808508">
        <ele>51.8</ele>
        <time>2018-01-06T11:49:57Z</time>
      </trkpt>
      <trkpt lat="62.654428328051" lon="17.844028678065">
        <ele>51</ele>
        <time>2018-01-06T11:49:58Z</time>
      </trkpt>
      <trkpt lat="62.654473590311" lon="17.844022894554">
        <ele>50.4</ele>
        <time>2018-01-06T11:49:59Z</time>
      </trkpt>
      <trkpt lat="62.654519104028" lon="17.844016943405">
        <ele>49.8</ele>
        <time>2018-01-06T11:50:00Z</time>
      </trkpt>
      <trkpt lat="62.654572748188" lon="17.844007388039">
        <ele>49</ele>
        <time>2018-01-06T11:50:01Z</time>
      </trkpt>
      <trkpt lat="62.654621866122" lon="17.843999257596">
        <ele>48.6</ele>
        <time>2018-01-06T11:50:02Z</time>
      </trkpt>
      <trkpt lat="62.654672744255" lon="17.843986684746">
        <ele>48</ele>
        <time>2018-01-06T11:50:03Z</time>
      </trkpt>
      <trkpt lat="62.654723370931" lon="17.84397210024">
        <ele>47.6</ele>
        <time>2018-01-06T11:50:04Z</time>
      </trkpt>
      <trkpt lat="62.654770980123" lon="17.843955084983">
        <ele>47</ele>
        <time>2018-01-06T11:50:05Z</time>
      </trkpt>
      <trkpt lat="62.654814063089" lon="17.843942009219">
        <ele>46.4</ele>
        <time>2018-01-06T11:50:06Z</time>
      </trkpt>
      <trkpt lat="62.65485840334" lon="17.843926502704">
        <ele>46</ele>
        <time>2018-01-06T11:50:07Z</time>
      </trkpt>
      <trkpt lat="62.654905006704" lon="17.843908900714">
        <ele>45.6</ele>
        <time>2018-01-06T11:50:08Z</time>
      </trkpt>
      <trkpt lat="62.65494892786" lon="17.843889035611">
        <ele>45.2</ele>
        <time>2018-01-06T11:50:09Z</time>
      </trkpt>
      <trkpt lat="62.654998632527" lon="17.843869086689">
        <ele>44.4</ele>
        <time>2018-01-06T11:50:10Z</time>
      </trkpt>
      <trkpt lat="62.655047331366" lon="17.843847964301">
        <ele>43.6</ele>
        <time>2018-01-06T11:50:11Z</time>
      </trkpt>
      <trkpt lat="62.655091671617" lon="17.843824914076">
        <ele>43</ele>
        <time>2018-01-06T11:50:12Z</time>
      </trkpt>
      <trkpt lat="62.655140621913" lon="17.843802282946">
        <ele>42.2</ele>
        <time>2018-01-06T11:50:13Z</time>
      </trkpt>
      <trkpt lat="62.655187392915" lon="17.843784848594">
        <ele>41.4</ele>
        <time>2018-01-06T11:50:14Z</time>
      </trkpt>
      <trkpt lat="62.655229134777" lon="17.843770850821">
        <ele>40.8</ele>
        <time>2018-01-06T11:50:15Z</time>
      </trkpt>
      <trkpt lat="62.655275654322" lon="17.843764899672">
        <ele>40.2</ele>
        <time>2018-01-06T11:50:16Z</time>
      </trkpt>
      <trkpt lat="62.655318150555" lon="17.843771940468">
        <ele>39.8</ele>
        <time>2018-01-06T11:50:17Z</time>
      </trkpt>
      <trkpt lat="62.655363748091" lon="17.843791218838">
        <ele>39.2</ele>
        <time>2018-01-06T11:50:18Z</time>
      </trkpt>
      <trkpt lat="62.655406831057" lon="17.843806054801">
        <ele>38.8</ele>
        <time>2018-01-06T11:50:19Z</time>
      </trkpt>
      <trkpt lat="62.655453015326" lon="17.84382960794">
        <ele>38.4</ele>
        <time>2018-01-06T11:50:20Z</time>
      </trkpt>
      <trkpt lat="62.655501881803" lon="17.843859112228">
        <ele>38.4</ele>
        <time>2018-01-06T11:50:21Z</time>
      </trkpt>
      <trkpt lat="62.655549574814" lon="17.843886101946">
        <ele>38.2</ele>
        <time>2018-01-06T11:50:22Z</time>
      </trkpt>
      <trkpt lat="62.655602213146" lon="17.843930693654">
        <ele>37.6</ele>
        <time>2018-01-06T11:50:23Z</time>
      </trkpt>
      <trkpt lat="62.655655857306" lon="17.843987355298">
        <ele>37.6</ele>
        <time>2018-01-06T11:50:24Z</time>
      </trkpt>
      <trkpt lat="62.655711932217" lon="17.844052315023">
        <ele>37.4</ele>
        <time>2018-01-06T11:50:25Z</time>
      </trkpt>
      <trkpt lat="62.655766330748" lon="17.844124147906">
        <ele>36.8</ele>
        <time>2018-01-06T11:50:26Z</time>
      </trkpt>
      <trkpt lat="62.655816286872" lon="17.844195980789">
        <ele>36.2</ele>
        <time>2018-01-06T11:50:27Z</time>
      </trkpt>
      <trkpt lat="62.655869009023" lon="17.844276447029">
        <ele>34.8</ele>
        <time>2018-01-06T11:50:28Z</time>
      </trkpt>
      <trkpt lat="62.655918294595" lon="17.844355404527">
        <ele>34.2</ele>
        <time>2018-01-06T11:50:29Z</time>
      </trkpt>
      <trkpt lat="62.655960120276" lon="17.844421789175">
        <ele>33.2</ele>
        <time>2018-01-06T11:50:30Z</time>
      </trkpt>
      <trkpt lat="62.656005214898" lon="17.84449177804">
        <ele>32.4</ele>
        <time>2018-01-06T11:50:31Z</time>
      </trkpt>
      <trkpt lat="62.656046705303" lon="17.844564197656">
        <ele>31</ele>
        <time>2018-01-06T11:50:32Z</time>
      </trkpt>
      <trkpt lat="62.656089536812" lon="17.844638545109">
        <ele>30.8</ele>
        <time>2018-01-06T11:50:33Z</time>
      </trkpt>
      <trkpt lat="62.656130524303" lon="17.844698391875">
        <ele>30.8</ele>
        <time>2018-01-06T11:50:34Z</time>
      </trkpt>
      <trkpt lat="62.656169751595" lon="17.844751449302">
        <ele>31</ele>
        <time>2018-01-06T11:50:35Z</time>
      </trkpt>
      <trkpt lat="62.656205290851" lon="17.844800315779">
        <ele>31.2</ele>
        <time>2018-01-06T11:50:36Z</time>
      </trkpt>
      <trkpt lat="62.656236974433" lon="17.84484465603">
        <ele>31.4</ele>
        <time>2018-01-06T11:50:37Z</time>
      </trkpt>
      <trkpt lat="62.656280308856" lon="17.844905173348">
        <ele>31.6</ele>
        <time>2018-01-06T11:50:38Z</time>
      </trkpt>
      <trkpt lat="62.656311992438" lon="17.844949597418">
        <ele>31.4</ele>
        <time>2018-01-06T11:50:39Z</time>
      </trkpt>
      <trkpt lat="62.656350968273" lon="17.845003744492">
        <ele>31.2</ele>
        <time>2018-01-06T11:50:40Z</time>
      </trkpt>
      <trkpt lat="62.6563872619" lon="17.845055293177">
        <ele>30.8</ele>
        <time>2018-01-06T11:50:41Z</time>
      </trkpt>
      <trkpt lat="62.656416347093" lon="17.845096364487">
        <ele>30.6</ele>
        <time>2018-01-06T11:50:42Z</time>
      </trkpt>
      <trkpt lat="62.65645347891" lon="17.845143219308">
        <ele>30</ele>
        <time>2018-01-06T11:50:43Z</time>
      </trkpt>
      <trkpt lat="62.656488431433" lon="17.845191415233">
        <ele>29.8</ele>
        <time>2018-01-06T11:50:44Z</time>
      </trkpt>
      <trkpt lat="62.65651801954" lon="17.845235839303">
        <ele>29.6</ele>
        <time>2018-01-06T11:50:45Z</time>
      </trkpt>
      <trkpt lat="62.656549954579" lon="17.845287555626">
        <ele>29.6</ele>
        <time>2018-01-06T11:50:46Z</time>
      </trkpt>
      <trkpt lat="62.656576106107" lon="17.845327788746">
        <ele>29.6</ele>
        <time>2018-01-06T11:50:47Z</time>
      </trkpt>
      <trkpt lat="62.656610388078" lon="17.845372296635">
        <ele>29.4</ele>
        <time>2018-01-06T11:50:48Z</time>
      </trkpt>
      <trkpt lat="62.656644502411" lon="17.845414038497">
        <ele>29.4</ele>
        <time>2018-01-06T11:50:49Z</time>
      </trkpt>
      <trkpt lat="62.656674593432" lon="17.845451337952">
        <ele>29.6</ele>
        <time>2018-01-06T11:50:50Z</time>
      </trkpt>
      <trkpt lat="62.656706277014" lon="17.845492157805">
        <ele>29.4</ele>
        <time>2018-01-06T11:50:51Z</time>
      </trkpt>
      <trkpt lat="62.656736368035" lon="17.845533564391">
        <ele>29.4</ele>
        <time>2018-01-06T11:50:52Z</time>
      </trkpt>
      <trkpt lat="62.656769225083" lon="17.845580922126">
        <ele>29.2</ele>
        <time>2018-01-06T11:50:53Z</time>
      </trkpt>
      <trkpt lat="62.656798729371" lon="17.845629369508">
        <ele>29.2</ele>
        <time>2018-01-06T11:50:54Z</time>
      </trkpt>
      <trkpt lat="62.656828736573" lon="17.845668093886">
        <ele>29</ele>
        <time>2018-01-06T11:50:55Z</time>
      </trkpt>
      <trkpt lat="62.656856815938" lon="17.845699190735">
        <ele>28.8</ele>
        <time>2018-01-06T11:50:56Z</time>
      </trkpt>
      <trkpt lat="62.656886571683" lon="17.845727856833">
        <ele>28.8</ele>
        <time>2018-01-06T11:50:57Z</time>
      </trkpt>
      <trkpt lat="62.656925044604" lon="17.845755265646">
        <ele>28.8</ele>
        <time>2018-01-06T11:50:58Z</time>
      </trkpt>
      <trkpt lat="62.656958656023" lon="17.845770101609">
        <ele>28.6</ele>
        <time>2018-01-06T11:50:59Z</time>
      </trkpt>
      <trkpt lat="62.656996961306" lon="17.845781584812">
        <ele>28.6</ele>
        <time>2018-01-06T11:51:00Z</time>
      </trkpt>
      <trkpt lat="62.657029985992" lon="17.845784769934">
        <ele>28.6</ele>
        <time>2018-01-06T11:51:01Z</time>
      </trkpt>
      <trkpt lat="62.657062340126" lon="17.845786530133">
        <ele>28.6</ele>
        <time>2018-01-06T11:51:02Z</time>
      </trkpt>
      <trkpt lat="62.657097376468" lon="17.845793235653">
        <ele>28.4</ele>
        <time>2018-01-06T11:51:03Z</time>
      </trkpt>
      <trkpt lat="62.657129562964" lon="17.845803796847">
        <ele>28.4</ele>
        <time>2018-01-06T11:51:04Z</time>
      </trkpt>
      <trkpt lat="62.657160659813" lon="17.845819638638">
        <ele>28.4</ele>
        <time>2018-01-06T11:51:05Z</time>
      </trkpt>
      <trkpt lat="62.657187314255" lon="17.845833217316">
        <ele>28.4</ele>
        <time>2018-01-06T11:51:06Z</time>
      </trkpt>
      <trkpt lat="62.657205754435" lon="17.845843946148">
        <ele>28.4</ele>
        <time>2018-01-06T11:51:07Z</time>
      </trkpt>
      <trkpt lat="62.657232660334" lon="17.845871354961">
        <ele>28.4</ele>
        <time>2018-01-06T11:51:08Z</time>
      </trkpt>
      <trkpt lat="62.657253698903" lon="17.845897841765">
        <ele>28.4</ele>
        <time>2018-01-06T11:51:09Z</time>
      </trkpt>
      <trkpt lat="62.657271300893" lon="17.845920808171">
        <ele>28.2</ele>
        <time>2018-01-06T11:51:10Z</time>
      </trkpt>
      <trkpt lat="62.657290327806" lon="17.845957269436">
        <ele>28.2</ele>
        <time>2018-01-06T11:51:11Z</time>
      </trkpt>
      <trkpt lat="62.657311031099" lon="17.845992724873">
        <ele>28.4</ele>
        <time>2018-01-06T11:51:12Z</time>
      </trkpt>
      <trkpt lat="62.657330980021" lon="17.846030778699">
        <ele>28.4</ele>
        <time>2018-01-06T11:51:13Z</time>
      </trkpt>
      <trkpt lat="62.657349336382" lon="17.846066904688">
        <ele>28.4</ele>
        <time>2018-01-06T11:51:14Z</time>
      </trkpt>
      <trkpt lat="62.657367189829" lon="17.846111496396">
        <ele>28.4</ele>
        <time>2018-01-06T11:51:15Z</time>
      </trkpt>
      <trkpt lat="62.657382528706" lon="17.846153154439">
        <ele>28.6</ele>
        <time>2018-01-06T11:51:16Z</time>
      </trkpt>
      <trkpt lat="62.657398202859" lon="17.84620839116">
        <ele>28.8</ele>
        <time>2018-01-06T11:51:17Z</time>
      </trkpt>
      <trkpt lat="62.657412284451" lon="17.846256670904">
        <ele>29</ele>
        <time>2018-01-06T11:51:18Z</time>
      </trkpt>
      <trkpt lat="62.657424605844" lon="17.846312075263">
        <ele>29</ele>
        <time>2018-01-06T11:51:19Z</time>
      </trkpt>
      <trkpt lat="62.657440531454" lon="17.846378879006">
        <ele>29.2</ele>
        <time>2018-01-06T11:51:20Z</time>
      </trkpt>
      <trkpt lat="62.657453858675" lon="17.846445850387">
        <ele>29.2</ele>
        <time>2018-01-06T11:51:21Z</time>
      </trkpt>
      <trkpt lat="62.657468359362" lon="17.84651349232">
        <ele>29.2</ele>
        <time>2018-01-06T11:51:22Z</time>
      </trkpt>
      <trkpt lat="62.657489817026" lon="17.846588677963">
        <ele>29.2</ele>
        <time>2018-01-06T11:51:23Z</time>
      </trkpt>
      <trkpt lat="62.657506748464" lon="17.846662354864">
        <ele>29</ele>
        <time>2018-01-06T11:51:24Z</time>
      </trkpt>
      <trkpt lat="62.657524937187" lon="17.846724045648">
        <ele>29</ele>
        <time>2018-01-06T11:51:25Z</time>
      </trkpt>
      <trkpt lat="62.657539689331" lon="17.846787831907">
        <ele>28.8</ele>
        <time>2018-01-06T11:51:26Z</time>
      </trkpt>
      <trkpt lat="62.657554525294" lon="17.846852037261">
        <ele>28.8</ele>
        <time>2018-01-06T11:51:27Z</time>
      </trkpt>
      <trkpt lat="62.657571875827" lon="17.846935269528">
        <ele>28.4</ele>
        <time>2018-01-06T11:51:28Z</time>
      </trkpt>
      <trkpt lat="62.657587382342" lon="17.84701724451">
        <ele>28.2</ele>
        <time>2018-01-06T11:51:29Z</time>
      </trkpt>
      <trkpt lat="62.657601044839" lon="17.847083796796">
        <ele>28</ele>
        <time>2018-01-06T11:51:30Z</time>
      </trkpt>
      <trkpt lat="62.657620490847" lon="17.847165017407">
        <ele>27.8</ele>
        <time>2018-01-06T11:51:31Z</time>
      </trkpt>
      <trkpt lat="62.657636835552" lon="17.847240622145">
        <ele>27.6</ele>
        <time>2018-01-06T11:51:32Z</time>
      </trkpt>
      <trkpt lat="62.657654688999" lon="17.847302815843">
        <ele>27.4</ele>
        <time>2018-01-06T11:51:33Z</time>
      </trkpt>
      <trkpt lat="62.657673632093" lon="17.84737766621">
        <ele>27.2</ele>
        <time>2018-01-06T11:51:34Z</time>
      </trkpt>
      <trkpt lat="62.657693664834" lon="17.847445391962">
        <ele>27.2</ele>
        <time>2018-01-06T11:51:35Z</time>
      </trkpt>
      <trkpt lat="62.657711015367" lon="17.847509429678">
        <ele>27.2</ele>
        <time>2018-01-06T11:51:36Z</time>
      </trkpt>
      <trkpt lat="62.657723839674" lon="17.847567851521">
        <ele>27.2</ele>
        <time>2018-01-06T11:51:37Z</time>
      </trkpt>
      <trkpt lat="62.657740603474" lon="17.847627949744">
        <ele>27.2</ele>
        <time>2018-01-06T11:51:38Z</time>
      </trkpt>
      <trkpt lat="62.657756445265" lon="17.847689640528">
        <ele>27.2</ele>
        <time>2018-01-06T11:51:39Z</time>
      </trkpt>
      <trkpt lat="62.657779746947" lon="17.847750325484">
        <ele>27</ele>
        <time>2018-01-06T11:51:40Z</time>
      </trkpt>
      <trkpt lat="62.657796091652" lon="17.847810507526">
        <ele>27</ele>
        <time>2018-01-06T11:51:41Z</time>
      </trkpt>
      <trkpt lat="62.657811933443" lon="17.847868510274">
        <ele>27</ele>
        <time>2018-01-06T11:51:42Z</time>
      </trkpt>
      <trkpt lat="62.657833894021" lon="17.847922992624">
        <ele>27</ele>
        <time>2018-01-06T11:51:43Z</time>
      </trkpt>
      <trkpt lat="62.657853507667" lon="17.847983174666">
        <ele>26.8</ele>
        <time>2018-01-06T11:51:44Z</time>
      </trkpt>
      <trkpt lat="62.657872618399" lon="17.848040339224">
        <ele>27</ele>
        <time>2018-01-06T11:51:45Z</time>
      </trkpt>
      <trkpt lat="62.657890639484" lon="17.848097336144">
        <ele>27</ele>
        <time>2018-01-06T11:51:46Z</time>
      </trkpt>
      <trkpt lat="62.657910420768" lon="17.84815215377">
        <ele>26.8</ele>
        <time>2018-01-06T11:51:47Z</time>
      </trkpt>
      <trkpt lat="62.657930118233" lon="17.848211078527">
        <ele>26.6</ele>
        <time>2018-01-06T11:51:48Z</time>
      </trkpt>
      <trkpt lat="62.657950821526" lon="17.848271092931">
        <ele>26.4</ele>
        <time>2018-01-06T11:51:49Z</time>
      </trkpt>
      <trkpt lat="62.657972698285" lon="17.848314511173">
        <ele>26.4</ele>
        <time>2018-01-06T11:51:50Z</time>
      </trkpt>
      <trkpt lat="62.657994491225" lon="17.848365808401">
        <ele>26.2</ele>
        <time>2018-01-06T11:51:51Z</time>
      </trkpt>
      <trkpt lat="62.658012177034" lon="17.848410903023">
        <ele>26.2</ele>
        <time>2018-01-06T11:51:52Z</time>
      </trkpt>
      <trkpt lat="62.658035813992" lon="17.848472426169">
        <ele>26.2</ele>
        <time>2018-01-06T11:51:53Z</time>
      </trkpt>
      <trkpt lat="62.658055092362" lon="17.848516431144">
        <ele>26.2</ele>
        <time>2018-01-06T11:51:54Z</time>
      </trkpt>
      <trkpt lat="62.658078645501" lon="17.848565968173">
        <ele>26.4</ele>
        <time>2018-01-06T11:51:55Z</time>
      </trkpt>
      <trkpt lat="62.658106221952" lon="17.848632771916">
        <ele>26.4</ele>
        <time>2018-01-06T11:51:56Z</time>
      </trkpt>
      <trkpt lat="62.658128350168" lon="17.84869027175">
        <ele>26.4</ele>
        <time>2018-01-06T11:51:57Z</time>
      </trkpt>
      <trkpt lat="62.658158273551" lon="17.84875481238">
        <ele>26.4</ele>
        <time>2018-01-06T11:51:58Z</time>
      </trkpt>
      <trkpt lat="62.658188783667" lon="17.848805858151">
        <ele>26.2</ele>
        <time>2018-01-06T11:51:59Z</time>
      </trkpt>
      <trkpt lat="62.658220886344" lon="17.848872410437">
        <ele>25.8</ele>
        <time>2018-01-06T11:52:00Z</time>
      </trkpt>
      <trkpt lat="62.658245780587" lon="17.848927814796">
        <ele>25.6</ele>
        <time>2018-01-06T11:52:01Z</time>
      </trkpt>
      <trkpt lat="62.658267908803" lon="17.848972909418">
        <ele>25.4</ele>
        <time>2018-01-06T11:52:02Z</time>
      </trkpt>
      <trkpt lat="62.658290372295" lon="17.849027391768">
        <ele>25.2</ele>
        <time>2018-01-06T11:52:03Z</time>
      </trkpt>
      <trkpt lat="62.658311997597" lon="17.84908254467">
        <ele>25.2</ele>
        <time>2018-01-06T11:52:04Z</time>
      </trkpt>
      <trkpt lat="62.658329515768" lon="17.849134093355">
        <ele>25</ele>
        <time>2018-01-06T11:52:05Z</time>
      </trkpt>
      <trkpt lat="62.658346028111" lon="17.849183798022">
        <ele>25</ele>
        <time>2018-01-06T11:52:06Z</time>
      </trkpt>
      <trkpt lat="62.658361283169" lon="17.849224701694">
        <ele>25</ele>
        <time>2018-01-06T11:52:07Z</time>
      </trkpt>
      <trkpt lat="62.658380393901" lon="17.849273316714">
        <ele>24.8</ele>
        <time>2018-01-06T11:52:08Z</time>
      </trkpt>
      <trkpt lat="62.658395648959" lon="17.849314304205">
        <ele>24.8</ele>
        <time>2018-01-06T11:52:09Z</time>
      </trkpt>
      <trkpt lat="62.658419956469" lon="17.849364344148">
        <ele>24.6</ele>
        <time>2018-01-06T11:52:10Z</time>
      </trkpt>
      <trkpt lat="62.658443090513" lon="17.849411785702">
        <ele>24.8</ele>
        <time>2018-01-06T11:52:11Z</time>
      </trkpt>
      <trkpt lat="62.65846094396" lon="17.849462496197">
        <ele>24.8</ele>
        <time>2018-01-06T11:52:12Z</time>
      </trkpt>
      <trkpt lat="62.658476785751" lon="17.849531227777">
        <ele>24.8</ele>
        <time>2018-01-06T11:52:13Z</time>
      </trkpt>
      <trkpt lat="62.658485167651" lon="17.849604066488">
        <ele>24.8</ele>
        <time>2018-01-06T11:52:14Z</time>
      </trkpt>
      <trkpt lat="62.658485670565" lon="17.849682521072">
        <ele>24.8</ele>
        <time>2018-01-06T11:52:15Z</time>
      </trkpt>
      <trkpt lat="62.658474355" lon="17.849751923204">
        <ele>24.6</ele>
        <time>2018-01-06T11:52:16Z</time>
      </trkpt>
      <trkpt lat="62.658457004467" lon="17.849796850188">
        <ele>24.4</ele>
        <time>2018-01-06T11:52:17Z</time>
      </trkpt>
      <trkpt lat="62.658434708613" lon="17.849819732775">
        <ele>24</ele>
        <time>2018-01-06T11:52:18Z</time>
      </trkpt>
      <trkpt lat="62.658417441899" lon="17.849828869046">
        <ele>23.8</ele>
        <time>2018-01-06T11:52:19Z</time>
      </trkpt>
      <trkpt lat="62.658400845737" lon="17.849837334765">
        <ele>23.6</ele>
        <time>2018-01-06T11:52:20Z</time>
      </trkpt>
      <trkpt lat="62.658381651186" lon="17.849844291742">
        <ele>23.6</ele>
        <time>2018-01-06T11:52:21Z</time>
      </trkpt>
      <trkpt lat="62.658363630101" lon="17.849847309226">
        <ele>23.8</ele>
        <time>2018-01-06T11:52:22Z</time>
      </trkpt>
      <trkpt lat="62.658340747514" lon="17.849849069425">
        <ele>24</ele>
        <time>2018-01-06T11:52:23Z</time>
      </trkpt>
      <trkpt lat="62.65831928985" lon="17.849848398873">
        <ele>24.2</ele>
        <time>2018-01-06T11:52:24Z</time>
      </trkpt>
      <trkpt lat="62.658296742539" lon="17.849848985606">
        <ele>24.4</ele>
        <time>2018-01-06T11:52:25Z</time>
      </trkpt>
      <trkpt lat="62.658275284875" lon="17.849852925099">
        <ele>24.6</ele>
        <time>2018-01-06T11:52:26Z</time>
      </trkpt>
      <trkpt lat="62.6582564256" lon="17.849851248719">
        <ele>24.6</ele>
        <time>2018-01-06T11:52:27Z</time>
      </trkpt>
      <trkpt lat="62.658237901601" lon="17.849859127705">
        <ele>25</ele>
        <time>2018-01-06T11:52:28Z</time>
      </trkpt>
      <trkpt lat="62.658216443937" lon="17.849859798257">
        <ele>25</ele>
        <time>2018-01-06T11:52:29Z</time>
      </trkpt>
      <trkpt lat="62.658197249386" lon="17.84986373775">
        <ele>25</ele>
        <time>2018-01-06T11:52:30Z</time>
      </trkpt>
      <trkpt lat="62.658178222473" lon="17.849867174329">
        <ele>25.2</ele>
        <time>2018-01-06T11:52:31Z</time>
      </trkpt>
      <trkpt lat="62.658157016266" lon="17.849870694727">
        <ele>25.2</ele>
        <time>2018-01-06T11:52:32Z</time>
      </trkpt>
      <trkpt lat="62.658137737896" lon="17.849875891505">
        <ele>25.2</ele>
        <time>2018-01-06T11:52:33Z</time>
      </trkpt>
      <trkpt lat="62.658117956612" lon="17.849881088283">
        <ele>25.2</ele>
        <time>2018-01-06T11:52:34Z</time>
      </trkpt>
      <trkpt lat="62.658096079853" lon="17.849880082455">
        <ele>25.2</ele>
        <time>2018-01-06T11:52:35Z</time>
      </trkpt>
      <trkpt lat="62.658073616361" lon="17.849882932301">
        <ele>25.2</ele>
        <time>2018-01-06T11:52:36Z</time>
      </trkpt>
      <trkpt lat="62.658050901412" lon="17.849889805459">
        <ele>25.4</ele>
        <time>2018-01-06T11:52:37Z</time>
      </trkpt>
      <trkpt lat="62.658024330789" lon="17.849895924246">
        <ele>25.4</ele>
        <time>2018-01-06T11:52:38Z</time>
      </trkpt>
      <trkpt lat="62.657997760166" lon="17.849899696101">
        <ele>25.4</ele>
        <time>2018-01-06T11:52:39Z</time>
      </trkpt>
      <trkpt lat="62.657975045217" lon="17.849903635594">
        <ele>25.6</ele>
        <time>2018-01-06T11:52:40Z</time>
      </trkpt>
      <trkpt lat="62.657953503734" lon="17.849906569259">
        <ele>25.6</ele>
        <time>2018-01-06T11:52:41Z</time>
      </trkpt>
      <trkpt lat="62.657929280043" lon="17.849906569259">
        <ele>25.6</ele>
        <time>2018-01-06T11:52:42Z</time>
      </trkpt>
      <trkpt lat="62.657907654741" lon="17.849903635594">
        <ele>25.6</ele>
        <time>2018-01-06T11:52:43Z</time>
      </trkpt>
      <trkpt lat="62.657890723303" lon="17.849898522635">
        <ele>25.6</ele>
        <time>2018-01-06T11:52:44Z</time>
      </trkpt>
      <trkpt lat="62.657876054978" lon="17.849895169875">
        <ele>25.6</ele>
        <time>2018-01-06T11:52:45Z</time>
      </trkpt>
      <trkpt lat="62.657861805748" lon="17.84989055983">
        <ele>25.8</ele>
        <time>2018-01-06T11:52:46Z</time>
      </trkpt>
      <trkpt lat="62.657847724156" lon="17.849887123251">
        <ele>26</ele>
        <time>2018-01-06T11:52:47Z</time>
      </trkpt>
      <trkpt lat="62.657830708899" lon="17.849884776319">
        <ele>26.2</ele>
        <time>2018-01-06T11:52:48Z</time>
      </trkpt>
      <trkpt lat="62.657815621479" lon="17.849881507378">
        <ele>26.4</ele>
        <time>2018-01-06T11:52:49Z</time>
      </trkpt>
      <trkpt lat="62.657801456068" lon="17.849875053315">
        <ele>26.6</ele>
        <time>2018-01-06T11:52:50Z</time>
      </trkpt>
      <trkpt lat="62.657786284829" lon="17.849867844881">
        <ele>26.8</ele>
        <time>2018-01-06T11:52:51Z</time>
      </trkpt>
      <trkpt lat="62.657771281228" lon="17.849860971723">
        <ele>27</ele>
        <time>2018-01-06T11:52:52Z</time>
      </trkpt>
      <trkpt lat="62.657750494116" lon="17.849857451325">
        <ele>27.4</ele>
        <time>2018-01-06T11:52:53Z</time>
      </trkpt>
      <trkpt lat="62.65772920409" lon="17.849854685298">
        <ele>27.4</ele>
        <time>2018-01-06T11:52:54Z</time>
      </trkpt>
      <trkpt lat="62.657709003711" lon="17.849853092737">
        <ele>27.6</ele>
        <time>2018-01-06T11:52:55Z</time>
      </trkpt>
      <trkpt lat="62.657685953486" lon="17.849848398873">
        <ele>27.6</ele>
        <time>2018-01-06T11:52:56Z</time>
      </trkpt>
      <trkpt lat="62.657664579641" lon="17.849846890131">
        <ele>27.8</ele>
        <time>2018-01-06T11:52:57Z</time>
      </trkpt>
      <trkpt lat="62.657643038158" lon="17.849845968122">
        <ele>27.8</ele>
        <time>2018-01-06T11:52:58Z</time>
      </trkpt>
      <trkpt lat="62.657623675969" lon="17.849851751633">
        <ele>27.8</ele>
        <time>2018-01-06T11:52:59Z</time>
      </trkpt>
      <trkpt lat="62.657602469762" lon="17.849860301171">
        <ele>28</ele>
        <time>2018-01-06T11:53:00Z</time>
      </trkpt>
      <trkpt lat="62.657579335718" lon="17.849867006691">
        <ele>28</ele>
        <time>2018-01-06T11:53:01Z</time>
      </trkpt>
      <trkpt lat="62.657559302977" lon="17.849871449098">
        <ele>28.2</ele>
        <time>2018-01-06T11:53:02Z</time>
      </trkpt>
      <trkpt lat="62.657541784806" lon="17.849874466582">
        <ele>28.4</ele>
        <time>2018-01-06T11:53:03Z</time>
      </trkpt>
      <trkpt lat="62.657525607739" lon="17.849877651704">
        <ele>28.6</ele>
        <time>2018-01-06T11:53:04Z</time>
      </trkpt>
      <trkpt lat="62.657508927758" lon="17.849883770491">
        <ele>28.8</ele>
        <time>2018-01-06T11:53:05Z</time>
      </trkpt>
      <trkpt lat="62.657491828682" lon="17.849890727468">
        <ele>28.8</ele>
        <time>2018-01-06T11:53:06Z</time>
      </trkpt>
      <trkpt lat="62.657479339651" lon="17.849895002237">
        <ele>29</ele>
        <time>2018-01-06T11:53:07Z</time>
      </trkpt>
      <trkpt lat="62.657465760973" lon="17.849908664734">
        <ele>29.2</ele>
        <time>2018-01-06T11:53:08Z</time>
      </trkpt>
      <trkpt lat="62.657458636358" lon="17.849921237584">
        <ele>29.4</ele>
        <time>2018-01-06T11:53:09Z</time>
      </trkpt>
      <trkpt lat="62.657449500087" lon="17.849934397167">
        <ele>29.6</ele>
        <time>2018-01-06T11:53:10Z</time>
      </trkpt>
      <trkpt lat="62.657438771255" lon="17.849946886198">
        <ele>30</ele>
        <time>2018-01-06T11:53:11Z</time>
      </trkpt>
      <trkpt lat="62.657422845645" lon="17.849954932822">
        <ele>30.2</ele>
        <time>2018-01-06T11:53:12Z</time>
      </trkpt>
      <trkpt lat="62.657405243655" lon="17.849958201763">
        <ele>30.4</ele>
        <time>2018-01-06T11:53:13Z</time>
      </trkpt>
      <trkpt lat="62.657392084072" lon="17.849959542867">
        <ele>30.8</ele>
        <time>2018-01-06T11:53:14Z</time>
      </trkpt>
      <trkpt lat="62.657379175946" lon="17.84996096779">
        <ele>30.8</ele>
        <time>2018-01-06T11:53:15Z</time>
      </trkpt>
      <trkpt lat="62.657366938372" lon="17.849962895627">
        <ele>31</ele>
        <time>2018-01-06T11:53:16Z</time>
      </trkpt>
      <trkpt lat="62.657355790445" lon="17.849971948079">
        <ele>31.2</ele>
        <time>2018-01-06T11:53:17Z</time>
      </trkpt>
      <trkpt lat="62.657342295586" lon="17.849978821237">
        <ele>31.4</ele>
        <time>2018-01-06T11:53:18Z</time>
      </trkpt>
      <trkpt lat="62.657328968365" lon="17.849983682739">
        <ele>31.8</ele>
        <time>2018-01-06T11:53:19Z</time>
      </trkpt>
      <trkpt lat="62.657314802954" lon="17.849991729363">
        <ele>32</ele>
        <time>2018-01-06T11:53:20Z</time>
      </trkpt>
      <trkpt lat="62.657301643371" lon="17.849999273073">
        <ele>32.4</ele>
        <time>2018-01-06T11:53:21Z</time>
      </trkpt>
      <trkpt lat="62.657290411625" lon="17.85000623005">
        <ele>32.6</ele>
        <time>2018-01-06T11:53:22Z</time>
      </trkpt>
      <trkpt lat="62.65727741968" lon="17.850017797072">
        <ele>32.8</ele>
        <time>2018-01-06T11:53:23Z</time>
      </trkpt>
      <trkpt lat="62.657266439391" lon="17.850026011334">
        <ele>33.2</ele>
        <time>2018-01-06T11:53:24Z</time>
      </trkpt>
      <trkpt lat="62.657256548749" lon="17.850033555044">
        <ele>33.2</ele>
        <time>2018-01-06T11:53:25Z</time>
      </trkpt>
      <trkpt lat="62.657247580116" lon="17.850041266392">
        <ele>33.4</ele>
        <time>2018-01-06T11:53:26Z</time>
      </trkpt>
      <trkpt lat="62.657239030578" lon="17.850048810102">
        <ele>33.6</ele>
        <time>2018-01-06T11:53:27Z</time>
      </trkpt>
      <trkpt lat="62.657227798832" lon="17.850057611097">
        <ele>33.8</ele>
        <time>2018-01-06T11:53:28Z</time>
      </trkpt>
      <trkpt lat="62.657216399448" lon="17.850066663549">
        <ele>34</ele>
        <time>2018-01-06T11:53:29Z</time>
      </trkpt>
      <trkpt lat="62.65720449715" lon="17.850077057105">
        <ele>34.2</ele>
        <time>2018-01-06T11:53:30Z</time>
      </trkpt>
      <trkpt lat="62.657192175757" lon="17.850087450661">
        <ele>34.6</ele>
        <time>2018-01-06T11:53:31Z</time>
      </trkpt>
      <trkpt lat="62.657179519088" lon="17.850095748742">
        <ele>34.6</ele>
        <time>2018-01-06T11:53:32Z</time>
      </trkpt>
      <trkpt lat="62.657165521315" lon="17.850106309936">
        <ele>34.8</ele>
        <time>2018-01-06T11:53:33Z</time>
      </trkpt>
      <trkpt lat="62.657151523542" lon="17.850115613845">
        <ele>35</ele>
        <time>2018-01-06T11:53:34Z</time>
      </trkpt>
      <trkpt lat="62.657139537425" lon="17.850123995745">
        <ele>35.2</ele>
        <time>2018-01-06T11:53:35Z</time>
      </trkpt>
      <trkpt lat="62.657128808593" lon="17.850133970206">
        <ele>35.4</ele>
        <time>2018-01-06T11:53:36Z</time>
      </trkpt>
      <trkpt lat="62.657119923779" lon="17.850142268287">
        <ele>35.6</ele>
        <time>2018-01-06T11:53:37Z</time>
      </trkpt>
      <trkpt lat="62.6571081053" lon="17.850152745662">
        <ele>35.6</ele>
        <time>2018-01-06T11:53:38Z</time>
      </trkpt>
      <trkpt lat="62.657097711744" lon="17.850162301028">
        <ele>35.8</ele>
        <time>2018-01-06T11:53:39Z</time>
      </trkpt>
      <trkpt lat="62.657088575473" lon="17.85017135348">
        <ele>36.2</ele>
        <time>2018-01-06T11:53:40Z</time>
      </trkpt>
      <trkpt lat="62.657079774478" lon="17.850179986837">
        <ele>36.4</ele>
        <time>2018-01-06T11:53:41Z</time>
      </trkpt>
      <trkpt lat="62.657070638207" lon="17.850189458384">
        <ele>36.6</ele>
        <time>2018-01-06T11:53:42Z</time>
      </trkpt>
      <trkpt lat="62.657057897719" lon="17.850199181388">
        <ele>36.8</ele>
        <time>2018-01-06T11:53:43Z</time>
      </trkpt>
      <trkpt lat="62.657044989593" lon="17.850203456157">
        <ele>37.2</ele>
        <time>2018-01-06T11:53:44Z</time>
      </trkpt>
      <trkpt lat="62.65703099182" lon="17.850206725098">
        <ele>37.4</ele>
        <time>2018-01-06T11:53:45Z</time>
      </trkpt>
      <trkpt lat="62.657015317667" lon="17.850207060374">
        <ele>37.8</ele>
        <time>2018-01-06T11:53:46Z</time>
      </trkpt>
      <trkpt lat="62.656998470048" lon="17.850204629623">
        <ele>38</ele>
        <time>2018-01-06T11:53:47Z</time>
      </trkpt>
      <trkpt lat="62.656983131171" lon="17.850204629623">
        <ele>38.2</ele>
        <time>2018-01-06T11:53:48Z</time>
      </trkpt>
      <trkpt lat="62.656966032095" lon="17.850205970727">
        <ele>38.4</ele>
        <time>2018-01-06T11:53:49Z</time>
      </trkpt>
      <trkpt lat="62.656948346286" lon="17.850208317659">
        <ele>38.6</ele>
        <time>2018-01-06T11:53:50Z</time>
      </trkpt>
      <trkpt lat="62.65693124721" lon="17.85021074841">
        <ele>38.8</ele>
        <time>2018-01-06T11:53:51Z</time>
      </trkpt>
      <trkpt lat="62.65691196884" lon="17.850208485297">
        <ele>38.8</ele>
        <time>2018-01-06T11:53:52Z</time>
      </trkpt>
      <trkpt lat="62.656892271375" lon="17.850204545804">
        <ele>39</ele>
        <time>2018-01-06T11:53:53Z</time>
      </trkpt>
      <trkpt lat="62.656875172299" lon="17.850201276863">
        <ele>39</ele>
        <time>2018-01-06T11:53:54Z</time>
      </trkpt>
      <trkpt lat="62.656857151214" lon="17.850195996266">
        <ele>39</ele>
        <time>2018-01-06T11:53:55Z</time>
      </trkpt>
      <trkpt lat="62.656837202292" lon="17.850190464212">
        <ele>39.2</ele>
        <time>2018-01-06T11:53:56Z</time>
      </trkpt>
      <trkpt lat="62.656818259198" lon="17.850184848339">
        <ele>39.2</ele>
        <time>2018-01-06T11:53:57Z</time>
      </trkpt>
      <trkpt lat="62.656797304448" lon="17.850177807543">
        <ele>39.4</ele>
        <time>2018-01-06T11:53:58Z</time>
      </trkpt>
      <trkpt lat="62.656779283363" lon="17.850171604937">
        <ele>39.4</ele>
        <time>2018-01-06T11:53:59Z</time>
      </trkpt>
      <trkpt lat="62.656759921174" lon="17.850164480322">
        <ele>39.6</ele>
        <time>2018-01-06T11:54:00Z</time>
      </trkpt>
      <trkpt lat="62.656742570641" lon="17.850161211381">
        <ele>39.8</ele>
        <time>2018-01-06T11:54:01Z</time>
      </trkpt>
      <trkpt lat="62.656721532072" lon="17.850159451182">
        <ele>40</ele>
        <time>2018-01-06T11:54:02Z</time>
      </trkpt>
      <trkpt lat="62.656698984761" lon="17.850158948268">
        <ele>40.2</ele>
        <time>2018-01-06T11:54:03Z</time>
      </trkpt>
      <trkpt lat="62.656681382771" lon="17.850160289372">
        <ele>40.6</ele>
        <time>2018-01-06T11:54:04Z</time>
      </trkpt>
      <trkpt lat="62.656662858772" lon="17.850159451182">
        <ele>40.6</ele>
        <time>2018-01-06T11:54:05Z</time>
      </trkpt>
      <trkpt lat="62.65663955709" lon="17.850159702639">
        <ele>40.8</ele>
        <time>2018-01-06T11:54:06Z</time>
      </trkpt>
      <trkpt lat="62.656619189073" lon="17.850158445354">
        <ele>40.8</ele>
        <time>2018-01-06T11:54:07Z</time>
      </trkpt>
      <trkpt lat="62.656598150504" lon="17.850158529173">
        <ele>41</ele>
        <time>2018-01-06T11:54:08Z</time>
      </trkpt>
      <trkpt lat="62.656578788315" lon="17.850158361535">
        <ele>41</ele>
        <time>2018-01-06T11:54:09Z</time>
      </trkpt>
      <trkpt lat="62.656562024515" lon="17.850160205553">
        <ele>41</ele>
        <time>2018-01-06T11:54:10Z</time>
      </trkpt>
      <trkpt lat="62.656537214091" lon="17.850165737607">
        <ele>41.2</ele>
        <time>2018-01-06T11:54:11Z</time>
      </trkpt>
      <trkpt lat="62.656511649296" lon="17.850175795887">
        <ele>41.2</ele>
        <time>2018-01-06T11:54:12Z</time>
      </trkpt>
      <trkpt lat="62.656483486112" lon="17.850188284918">
        <ele>41.4</ele>
        <time>2018-01-06T11:54:13Z</time>
      </trkpt>
      <trkpt lat="62.656454149462" lon="17.850209826401">
        <ele>41.6</ele>
        <time>2018-01-06T11:54:14Z</time>
      </trkpt>
      <trkpt lat="62.656428668486" lon="17.850226171106">
        <ele>41.6</ele>
        <time>2018-01-06T11:54:15Z</time>
      </trkpt>
      <trkpt lat="62.656401427311" lon="17.850245030381">
        <ele>41.6</ele>
        <time>2018-01-06T11:54:16Z</time>
      </trkpt>
      <trkpt lat="62.656377119801" lon="17.850260704534">
        <ele>41.6</ele>
        <time>2018-01-06T11:54:17Z</time>
      </trkpt>
      <trkpt lat="62.65635038154" lon="17.850278306524">
        <ele>41.6</ele>
        <time>2018-01-06T11:54:18Z</time>
      </trkpt>
      <trkpt lat="62.656329762066" lon="17.850295489419">
        <ele>41.6</ele>
        <time>2018-01-06T11:54:19Z</time>
      </trkpt>
      <trkpt lat="62.656311908619" lon="17.850313175228">
        <ele>41.6</ele>
        <time>2018-01-06T11:54:20Z</time>
      </trkpt>
      <trkpt lat="62.656297072656" lon="17.850326586268">
        <ele>42</ele>
        <time>2018-01-06T11:54:21Z</time>
      </trkpt>
      <trkpt lat="62.656281398503" lon="17.850340835498">
        <ele>42.2</ele>
        <time>2018-01-06T11:54:22Z</time>
      </trkpt>
      <trkpt lat="62.656266311083" lon="17.850354497995">
        <ele>42.6</ele>
        <time>2018-01-06T11:54:23Z</time>
      </trkpt>
      <trkpt lat="62.656253402957" lon="17.850369585415">
        <ele>42.8</ele>
        <time>2018-01-06T11:54:24Z</time>
      </trkpt>
      <trkpt lat="62.656241249202" lon="17.850383918464">
        <ele>43</ele>
        <time>2018-01-06T11:54:25Z</time>
      </trkpt>
      <trkpt lat="62.656228424895" lon="17.850398586789">
        <ele>43.4</ele>
        <time>2018-01-06T11:54:26Z</time>
      </trkpt>
      <trkpt lat="62.656217360787" lon="17.850412333105">
        <ele>43.6</ele>
        <time>2018-01-06T11:54:27Z</time>
      </trkpt>
      <trkpt lat="62.656204285023" lon="17.850427504344">
        <ele>44</ele>
        <time>2018-01-06T11:54:28Z</time>
      </trkpt>
      <trkpt lat="62.656192298906" lon="17.850440663927">
        <ele>44</ele>
        <time>2018-01-06T11:54:29Z</time>
      </trkpt>
      <trkpt lat="62.656178049676" lon="17.850457930641">
        <ele>44.4</ele>
        <time>2018-01-06T11:54:30Z</time>
      </trkpt>
      <trkpt lat="62.656164219541" lon="17.850473437156">
        <ele>45</ele>
        <time>2018-01-06T11:54:31Z</time>
      </trkpt>
      <trkpt lat="62.656150473225" lon="17.850486010006">
        <ele>45.2</ele>
        <time>2018-01-06T11:54:32Z</time>
      </trkpt>
      <trkpt lat="62.6561358049" lon="17.850498918132">
        <ele>45.4</ele>
        <time>2018-01-06T11:54:33Z</time>
      </trkpt>
      <trkpt lat="62.656122226222" lon="17.850510736611">
        <ele>45.8</ele>
        <time>2018-01-06T11:54:34Z</time>
      </trkpt>
      <trkpt lat="62.656107390259" lon="17.850527500411">
        <ele>46</ele>
        <time>2018-01-06T11:54:35Z</time>
      </trkpt>
      <trkpt lat="62.656093392486" lon="17.85054267165">
        <ele>46.2</ele>
        <time>2018-01-06T11:54:36Z</time>
      </trkpt>
      <trkpt lat="62.656079227075" lon="17.850555495957">
        <ele>46.4</ele>
        <time>2018-01-06T11:54:37Z</time>
      </trkpt>
      <trkpt lat="62.656061708904" lon="17.8505720083">
        <ele>46.8</ele>
        <time>2018-01-06T11:54:38Z</time>
      </trkpt>
      <trkpt lat="62.656046537665" lon="17.850588101548">
        <ele>47</ele>
        <time>2018-01-06T11:54:39Z</time>
      </trkpt>
      <trkpt lat="62.656031617883" lon="17.850605954995">
        <ele>47.2</ele>
        <time>2018-01-06T11:54:40Z</time>
      </trkpt>
      <trkpt lat="62.656015524635" lon="17.850629172858">
        <ele>47.4</ele>
        <time>2018-01-06T11:54:41Z</time>
      </trkpt>
      <trkpt lat="62.65600337088" lon="17.850644847011">
        <ele>47.6</ele>
        <time>2018-01-06T11:54:42Z</time>
      </trkpt>
      <trkpt lat="62.655988199641" lon="17.850664041562">
        <ele>47.8</ele>
        <time>2018-01-06T11:54:43Z</time>
      </trkpt>
      <trkpt lat="62.65597487242" lon="17.850685080131">
        <ele>48</ele>
        <time>2018-01-06T11:54:44Z</time>
      </trkpt>
      <trkpt lat="62.655960204095" lon="17.850710225831">
        <ele>48.2</ele>
        <time>2018-01-06T11:54:45Z</time>
      </trkpt>
      <trkpt lat="62.655946457779" lon="17.850732018771">
        <ele>48.4</ele>
        <time>2018-01-06T11:54:46Z</time>
      </trkpt>
      <trkpt lat="62.655934304024" lon="17.850750794227">
        <ele>48.6</ele>
        <time>2018-01-06T11:54:47Z</time>
      </trkpt>
      <trkpt lat="62.655920054794" lon="17.850771832796">
        <ele>48.8</ele>
        <time>2018-01-06T11:54:48Z</time>
      </trkpt>
      <trkpt lat="62.655906057021" lon="17.850790440614">
        <ele>49</ele>
        <time>2018-01-06T11:54:49Z</time>
      </trkpt>
      <trkpt lat="62.655892897438" lon="17.850810305717">
        <ele>49.2</ele>
        <time>2018-01-06T11:54:50Z</time>
      </trkpt>
      <trkpt lat="62.655879737855" lon="17.850830087001">
        <ele>49.4</ele>
        <time>2018-01-06T11:54:51Z</time>
      </trkpt>
      <trkpt lat="62.655864650435" lon="17.850848946276">
        <ele>49.6</ele>
        <time>2018-01-06T11:54:52Z</time>
      </trkpt>
      <trkpt lat="62.655847886635" lon="17.850870320121">
        <ele>50</ele>
        <time>2018-01-06T11:54:53Z</time>
      </trkpt>
      <trkpt lat="62.655834559414" lon="17.850890101405">
        <ele>50.4</ele>
        <time>2018-01-06T11:54:54Z</time>
      </trkpt>
      <trkpt lat="62.655823662944" lon="17.850910720879">
        <ele>50.6</ele>
        <time>2018-01-06T11:54:55Z</time>
      </trkpt>
      <trkpt lat="62.655810922456" lon="17.850931675629">
        <ele>50.8</ele>
        <time>2018-01-06T11:54:56Z</time>
      </trkpt>
      <trkpt lat="62.655800780357" lon="17.850951205456">
        <ele>51</ele>
        <time>2018-01-06T11:54:57Z</time>
      </trkpt>
      <trkpt lat="62.655790302982" lon="17.85096847217">
        <ele>51.2</ele>
        <time>2018-01-06T11:54:58Z</time>
      </trkpt>
      <trkpt lat="62.65577957415" lon="17.850987247626">
        <ele>51.4</ele>
        <time>2018-01-06T11:54:59Z</time>
      </trkpt>
      <trkpt lat="62.655767085119" lon="17.851009124385">
        <ele>51.6</ele>
        <time>2018-01-06T11:55:00Z</time>
      </trkpt>
      <trkpt lat="62.655757948848" lon="17.851025552909">
        <ele>52</ele>
        <time>2018-01-06T11:55:01Z</time>
      </trkpt>
      <trkpt lat="62.655750321319" lon="17.851041059424">
        <ele>52.2</ele>
        <time>2018-01-06T11:55:02Z</time>
      </trkpt>
      <trkpt lat="62.655741101229" lon="17.851056146844">
        <ele>52.6</ele>
        <time>2018-01-06T11:55:03Z</time>
      </trkpt>
      <trkpt lat="62.655729031293" lon="17.851072240092">
        <ele>52.8</ele>
        <time>2018-01-06T11:55:04Z</time>
      </trkpt>
      <trkpt lat="62.655713692416" lon="17.851093530118">
        <ele>52.8</ele>
        <time>2018-01-06T11:55:05Z</time>
      </trkpt>
      <trkpt lat="62.65569743153" lon="17.851120855112">
        <ele>53</ele>
        <time>2018-01-06T11:55:06Z</time>
      </trkpt>
      <trkpt lat="62.655683685214" lon="17.851141390767">
        <ele>53.2</ele>
        <time>2018-01-06T11:55:07Z</time>
      </trkpt>
      <trkpt lat="62.655669603622" lon="17.85116544682">
        <ele>53.2</ele>
        <time>2018-01-06T11:55:08Z</time>
      </trkpt>
      <trkpt lat="62.655649822338" lon="17.851193861461">
        <ele>53.4</ele>
        <time>2018-01-06T11:55:09Z</time>
      </trkpt>
      <trkpt lat="62.65563121452" lon="17.85121992917">
        <ele>53.6</ele>
        <time>2018-01-06T11:55:10Z</time>
      </trkpt>
      <trkpt lat="62.655609086304" lon="17.851244571956">
        <ele>53.6</ele>
        <time>2018-01-06T11:55:11Z</time>
      </trkpt>
      <trkpt lat="62.655593747427" lon="17.851264772335">
        <ele>53.6</ele>
        <time>2018-01-06T11:55:12Z</time>
      </trkpt>
      <trkpt lat="62.655571954487" lon="17.851292600243">
        <ele>53.8</ele>
        <time>2018-01-06T11:55:13Z</time>
      </trkpt>
      <trkpt lat="62.65555158647" lon="17.851319254685">
        <ele>53.8</ele>
        <time>2018-01-06T11:55:14Z</time>
      </trkpt>
      <trkpt lat="62.655531386091" lon="17.85134817224">
        <ele>53.6</ele>
        <time>2018-01-06T11:55:15Z</time>
      </trkpt>
      <trkpt lat="62.655512778273" lon="17.851371473922">
        <ele>53.8</ele>
        <time>2018-01-06T11:55:16Z</time>
      </trkpt>
      <trkpt lat="62.655499451052" lon="17.851393518319">
        <ele>53.8</ele>
        <time>2018-01-06T11:55:17Z</time>
      </trkpt>
      <trkpt lat="62.655486710564" lon="17.851417071458">
        <ele>53.8</ele>
        <time>2018-01-06T11:55:18Z</time>
      </trkpt>
      <trkpt lat="62.655469024755" lon="17.851442720072">
        <ele>54</ele>
        <time>2018-01-06T11:55:19Z</time>
      </trkpt>
      <trkpt lat="62.655453602059" lon="17.851462836632">
        <ele>54.2</ele>
        <time>2018-01-06T11:55:20Z</time>
      </trkpt>
      <trkpt lat="62.655436670621" lon="17.851484881029">
        <ele>54.4</ele>
        <time>2018-01-06T11:55:21Z</time>
      </trkpt>
      <trkpt lat="62.655419487726" lon="17.851506506331">
        <ele>54.6</ele>
        <time>2018-01-06T11:55:22Z</time>
      </trkpt>
      <trkpt lat="62.655401718098" lon="17.851537686999">
        <ele>54.8</ele>
        <time>2018-01-06T11:55:23Z</time>
      </trkpt>
      <trkpt lat="62.655382858823" lon="17.851564760536">
        <ele>55</ele>
        <time>2018-01-06T11:55:24Z</time>
      </trkpt>
      <trkpt lat="62.655364502462" lon="17.851591582616">
        <ele>55</ele>
        <time>2018-01-06T11:55:25Z</time>
      </trkpt>
      <trkpt lat="62.655349666499" lon="17.851611196262">
        <ele>55.4</ele>
        <time>2018-01-06T11:55:26Z</time>
      </trkpt>
      <trkpt lat="62.655330388129" lon="17.851636593419">
        <ele>55.6</ele>
        <time>2018-01-06T11:55:27Z</time>
      </trkpt>
      <trkpt lat="62.655307505542" lon="17.851676155987">
        <ele>56</ele>
        <time>2018-01-06T11:55:28Z</time>
      </trkpt>
      <trkpt lat="62.655284120041" lon="17.851718484582">
        <ele>56.2</ele>
        <time>2018-01-06T11:55:29Z</time>
      </trkpt>
      <trkpt lat="62.655265009309" lon="17.851754442933">
        <ele>56.4</ele>
        <time>2018-01-06T11:55:30Z</time>
      </trkpt>
      <trkpt lat="62.655245395663" lon="17.85178989837">
        <ele>56.6</ele>
        <time>2018-01-06T11:55:31Z</time>
      </trkpt>
      <trkpt lat="62.655224608551" lon="17.851832143146">
        <ele>56.6</ele>
        <time>2018-01-06T11:55:32Z</time>
      </trkpt>
      <trkpt lat="62.655206336009" lon="17.851875896664">
        <ele>56.6</ele>
        <time>2018-01-06T11:55:33Z</time>
      </trkpt>
      <trkpt lat="62.655185045983" lon="17.851915543051">
        <ele>56.4</ele>
        <time>2018-01-06T11:55:34Z</time>
      </trkpt>
      <trkpt lat="62.655164677966" lon="17.851953010144">
        <ele>56.4</ele>
        <time>2018-01-06T11:55:35Z</time>
      </trkpt>
      <trkpt lat="62.655148081804" lon="17.851994668187">
        <ele>56.4</ele>
        <time>2018-01-06T11:55:36Z</time>
      </trkpt>
      <trkpt lat="62.655135508954" lon="17.852026184131">
        <ele>56.4</ele>
        <time>2018-01-06T11:55:37Z</time>
      </trkpt>
      <trkpt lat="62.655118326059" lon="17.852066249613">
        <ele>56.4</ele>
        <time>2018-01-06T11:55:38Z</time>
      </trkpt>
      <trkpt lat="62.655105920847" lon="17.852113355891">
        <ele>56.4</ele>
        <time>2018-01-06T11:55:39Z</time>
      </trkpt>
      <trkpt lat="62.655094940558" lon="17.852159121065">
        <ele>56.6</ele>
        <time>2018-01-06T11:55:40Z</time>
      </trkpt>
      <trkpt lat="62.655082702984" lon="17.852205137696">
        <ele>56.6</ele>
        <time>2018-01-06T11:55:41Z</time>
      </trkpt>
      <trkpt lat="62.655071555057" lon="17.852259452408">
        <ele>56.6</ele>
        <time>2018-01-06T11:55:42Z</time>
      </trkpt>
      <trkpt lat="62.655062167329" lon="17.852313180387">
        <ele>56.6</ele>
        <time>2018-01-06T11:55:43Z</time>
      </trkpt>
      <trkpt lat="62.655053282515" lon="17.852367998013">
        <ele>56.6</ele>
        <time>2018-01-06T11:55:44Z</time>
      </trkpt>
      <trkpt lat="62.655045654986" lon="17.852427341865">
        <ele>56.6</ele>
        <time>2018-01-06T11:55:45Z</time>
      </trkpt>
      <trkpt lat="62.655039033285" lon="17.852500348214">
        <ele>56.8</ele>
        <time>2018-01-06T11:55:46Z</time>
      </trkpt>
      <trkpt lat="62.65503442324" lon="17.852560697894">
        <ele>56.8</ele>
        <time>2018-01-06T11:55:47Z</time>
      </trkpt>
      <trkpt lat="62.655029729376" lon="17.852641331772">
        <ele>56.8</ele>
        <time>2018-01-06T11:55:48Z</time>
      </trkpt>
      <trkpt lat="62.655027130987" lon="17.85271358375">
        <ele>57</ele>
        <time>2018-01-06T11:55:49Z</time>
      </trkpt>
      <trkpt lat="62.655023778227" lon="17.852792708886">
        <ele>57</ele>
        <time>2018-01-06T11:55:50Z</time>
      </trkpt>
      <trkpt lat="62.655022604761" lon="17.852852974747">
        <ele>56.8</ele>
        <time>2018-01-06T11:55:51Z</time>
      </trkpt>
      <trkpt lat="62.655019503458" lon="17.852916844825">
        <ele>56.6</ele>
        <time>2018-01-06T11:55:52Z</time>
      </trkpt>
      <trkpt lat="62.655010534825" lon="17.852990689364">
        <ele>56.4</ele>
        <time>2018-01-06T11:55:53Z</time>
      </trkpt>
      <trkpt lat="62.655002991115" lon="17.853048105379">
        <ele>56.2</ele>
        <time>2018-01-06T11:55:54Z</time>
      </trkpt>
      <trkpt lat="62.654989244799" lon="17.853112143095">
        <ele>56.2</ele>
        <time>2018-01-06T11:55:55Z</time>
      </trkpt>
      <trkpt lat="62.654978180691" lon="17.853157992088">
        <ele>56.2</ele>
        <time>2018-01-06T11:55:56Z</time>
      </trkpt>
      <trkpt lat="62.654968960601" lon="17.853194620991">
        <ele>56.2</ele>
        <time>2018-01-06T11:55:57Z</time>
      </trkpt>
      <trkpt lat="62.654960494882" lon="17.853235524663">
        <ele>56.2</ele>
        <time>2018-01-06T11:55:58Z</time>
      </trkpt>
      <trkpt lat="62.654950017507" lon="17.853269387539">
        <ele>56.2</ele>
        <time>2018-01-06T11:55:59Z</time>
      </trkpt>
      <trkpt lat="62.654939623951" lon="17.853301825492">
        <ele>56.4</ele>
        <time>2018-01-06T11:56:00Z</time>
      </trkpt>
      <trkpt lat="62.654930152404" lon="17.853332503246">
        <ele>56.6</ele>
        <time>2018-01-06T11:56:01Z</time>
      </trkpt>
      <trkpt lat="62.654919255934" lon="17.853362678086">
        <ele>56.8</ele>
        <time>2018-01-06T11:56:02Z</time>
      </trkpt>
      <trkpt lat="62.654906599265" lon="17.8533967086">
        <ele>57</ele>
        <time>2018-01-06T11:56:03Z</time>
      </trkpt>
      <trkpt lat="62.65489360732" lon="17.853436187349">
        <ele>57.2</ele>
        <time>2018-01-06T11:56:04Z</time>
      </trkpt>
      <trkpt lat="62.654882040298" lon="17.853476923383">
        <ele>57.4</ele>
        <time>2018-01-06T11:56:05Z</time>
      </trkpt>
      <trkpt lat="62.654871311466" lon="17.853515144847">
        <ele>57.4</ele>
        <time>2018-01-06T11:56:06Z</time>
      </trkpt>
      <trkpt lat="62.654855972589" lon="17.853559233641">
        <ele>57.4</ele>
        <time>2018-01-06T11:56:07Z</time>
      </trkpt>
      <trkpt lat="62.654841304264" lon="17.853608603032">
        <ele>57.4</ele>
        <time>2018-01-06T11:56:08Z</time>
      </trkpt>
      <trkpt lat="62.654829737242" lon="17.853651685998">
        <ele>57.4</ele>
        <time>2018-01-06T11:56:09Z</time>
      </trkpt>
      <trkpt lat="62.654814901279" lon="17.853700636294">
        <ele>57.4</ele>
        <time>2018-01-06T11:56:10Z</time>
      </trkpt>
      <trkpt lat="62.654798724212" lon="17.853757214119">
        <ele>57.6</ele>
        <time>2018-01-06T11:56:11Z</time>
      </trkpt>
      <trkpt lat="62.654787073371" lon="17.853797614877">
        <ele>57.8</ele>
        <time>2018-01-06T11:56:12Z</time>
      </trkpt>
      <trkpt lat="62.654768800829" lon="17.853865172991">
        <ele>57.8</ele>
        <time>2018-01-06T11:56:13Z</time>
      </trkpt>
      <trkpt lat="62.654758155816" lon="17.853910854346">
        <ele>58</ele>
        <time>2018-01-06T11:56:14Z</time>
      </trkpt>
      <trkpt lat="62.654747510803" lon="17.853962067755">
        <ele>58.2</ele>
        <time>2018-01-06T11:56:15Z</time>
      </trkpt>
      <trkpt lat="62.654737033428" lon="17.85400523454">
        <ele>58.2</ele>
        <time>2018-01-06T11:56:16Z</time>
      </trkpt>
      <trkpt lat="62.654724879673" lon="17.85404798223">
        <ele>58</ele>
        <time>2018-01-06T11:56:17Z</time>
      </trkpt>
      <trkpt lat="62.654709373158" lon="17.854107074625">
        <ele>58.2</ele>
        <time>2018-01-06T11:56:18Z</time>
      </trkpt>
      <trkpt lat="62.654693531367" lon="17.854160467328">
        <ele>58.2</ele>
        <time>2018-01-06T11:56:19Z</time>
      </trkpt>
      <trkpt lat="62.654677689576" lon="17.854201957733">
        <ele>58.2</ele>
        <time>2018-01-06T11:56:20Z</time>
      </trkpt>
      <trkpt lat="62.654663691803" lon="17.854232803125">
        <ele>58.4</ele>
        <time>2018-01-06T11:56:21Z</time>
      </trkpt>
      <trkpt lat="62.654642737053" lon="17.854265743992">
        <ele>58.4</ele>
        <time>2018-01-06T11:56:22Z</time>
      </trkpt>
      <trkpt lat="62.654618178086" lon="17.854298517221">
        <ele>58.6</ele>
        <time>2018-01-06T11:56:23Z</time>
      </trkpt>
      <trkpt lat="62.654602587752" lon="17.854319471971">
        <ele>58.6</ele>
        <time>2018-01-06T11:56:24Z</time>
      </trkpt>
      <trkpt lat="62.654583309382" lon="17.854348389526">
        <ele>58.8</ele>
        <time>2018-01-06T11:56:25Z</time>
      </trkpt>
      <trkpt lat="62.654564953021" lon="17.854373116131">
        <ele>58.8</ele>
        <time>2018-01-06T11:56:26Z</time>
      </trkpt>
      <trkpt lat="62.654545171737" lon="17.85440086022">
        <ele>58.8</ele>
        <time>2018-01-06T11:56:27Z</time>
      </trkpt>
      <trkpt lat="62.654519523123" lon="17.8544360642">
        <ele>58.8</ele>
        <time>2018-01-06T11:56:28Z</time>
      </trkpt>
      <trkpt lat="62.654496472898" lon="17.854469340343">
        <ele>58.8</ele>
        <time>2018-01-06T11:56:29Z</time>
      </trkpt>
      <trkpt lat="62.654466298058" lon="17.854511836576">
        <ele>58.8</ele>
        <time>2018-01-06T11:56:30Z</time>
      </trkpt>
      <trkpt lat="62.654446432955" lon="17.854545364176">
        <ele>58.8</ele>
        <time>2018-01-06T11:56:31Z</time>
      </trkpt>
      <trkpt lat="62.654422879816" lon="17.854582328355">
        <ele>58.8</ele>
        <time>2018-01-06T11:56:32Z</time>
      </trkpt>
      <trkpt lat="62.654399578134" lon="17.854614766308">
        <ele>58.8</ele>
        <time>2018-01-06T11:56:33Z</time>
      </trkpt>
      <trkpt lat="62.654381724687" lon="17.854644019139">
        <ele>58.8</ele>
        <time>2018-01-06T11:56:34Z</time>
      </trkpt>
      <trkpt lat="62.654357668634" lon="17.854683665526">
        <ele>58.6</ele>
        <time>2018-01-06T11:56:35Z</time>
      </trkpt>
      <trkpt lat="62.654336043332" lon="17.854722892818">
        <ele>58.6</ele>
        <time>2018-01-06T11:56:36Z</time>
      </trkpt>
      <trkpt lat="62.654311568184" lon="17.854764383223">
        <ele>58.6</ele>
        <time>2018-01-06T11:56:37Z</time>
      </trkpt>
      <trkpt lat="62.654283824095" lon="17.854817859745">
        <ele>58.6</ele>
        <time>2018-01-06T11:56:38Z</time>
      </trkpt>
      <trkpt lat="62.654263539897" lon="17.854849543327">
        <ele>58.6</ele>
        <time>2018-01-06T11:56:39Z</time>
      </trkpt>
      <trkpt lat="62.654239567663" lon="17.854885753135">
        <ele>58.6</ele>
        <time>2018-01-06T11:56:40Z</time>
      </trkpt>
      <trkpt lat="62.654219954017" lon="17.854920202744">
        <ele>58.4</ele>
        <time>2018-01-06T11:56:41Z</time>
      </trkpt>
      <trkpt lat="62.654199166905" lon="17.854951970145">
        <ele>58.4</ele>
        <time>2018-01-06T11:56:42Z</time>
      </trkpt>
      <trkpt lat="62.65417611668" lon="17.854989101962">
        <ele>58.4</ele>
        <time>2018-01-06T11:56:43Z</time>
      </trkpt>
      <trkpt lat="62.654152731179" lon="17.85502028263">
        <ele>58.4</ele>
        <time>2018-01-06T11:56:44Z</time>
      </trkpt>
      <trkpt lat="62.65412666347" lon="17.8550563248">
        <ele>58.4</ele>
        <time>2018-01-06T11:56:45Z</time>
      </trkpt>
      <trkpt lat="62.654103780883" lon="17.855092869884">
        <ele>58.4</ele>
        <time>2018-01-06T11:56:46Z</time>
      </trkpt>
      <trkpt lat="62.654079808649" lon="17.855128660597">
        <ele>58.4</ele>
        <time>2018-01-06T11:56:47Z</time>
      </trkpt>
      <trkpt lat="62.654056758424" lon="17.855161852921">
        <ele>58.4</ele>
        <time>2018-01-06T11:56:48Z</time>
      </trkpt>
      <trkpt lat="62.654039324072" lon="17.855187836811">
        <ele>58.4</ele>
        <time>2018-01-06T11:56:49Z</time>
      </trkpt>
      <trkpt lat="62.654015435657" lon="17.855213988339">
        <ele>58.4</ele>
        <time>2018-01-06T11:56:50Z</time>
      </trkpt>
      <trkpt lat="62.653990541414" lon="17.855240139867">
        <ele>58.4</ele>
        <time>2018-01-06T11:56:51Z</time>
      </trkpt>
      <trkpt lat="62.653971765958" lon="17.855259334418">
        <ele>58.6</ele>
        <time>2018-01-06T11:56:52Z</time>
      </trkpt>
      <trkpt lat="62.653952487588" lon="17.855281043539">
        <ele>58.6</ele>
        <time>2018-01-06T11:56:53Z</time>
      </trkpt>
      <trkpt lat="62.653927928621" lon="17.855304009945">
        <ele>58.6</ele>
        <time>2018-01-06T11:56:54Z</time>
      </trkpt>
      <trkpt lat="62.65390789588" lon="17.855335274432">
        <ele>58.8</ele>
        <time>2018-01-06T11:56:55Z</time>
      </trkpt>
      <trkpt lat="62.65388694113" lon="17.855360503951">
        <ele>58.8</ele>
        <time>2018-01-06T11:56:56Z</time>
      </trkpt>
      <trkpt lat="62.653868920045" lon="17.855384476185">
        <ele>58.8</ele>
        <time>2018-01-06T11:56:57Z</time>
      </trkpt>
      <trkpt lat="62.653850563684" lon="17.855405933849">
        <ele>59</ele>
        <time>2018-01-06T11:56:58Z</time>
      </trkpt>
      <trkpt lat="62.653840505404" lon="17.855425547495">
        <ele>59.2</ele>
        <time>2018-01-06T11:56:59Z</time>
      </trkpt>
      <trkpt lat="62.653826172355" lon="17.855452118118">
        <ele>59.4</ele>
        <time>2018-01-06T11:57:00Z</time>
      </trkpt>
      <trkpt lat="62.653808570365" lon="17.855483550243">
        <ele>59.6</ele>
        <time>2018-01-06T11:57:01Z</time>
      </trkpt>
      <trkpt lat="62.653791974203" lon="17.855517496938">
        <ele>60</ele>
        <time>2018-01-06T11:57:02Z</time>
      </trkpt>
      <trkpt lat="62.65377797643" lon="17.855547336502">
        <ele>60.2</ele>
        <time>2018-01-06T11:57:03Z</time>
      </trkpt>
      <trkpt lat="62.653761631725" lon="17.855578098075">
        <ele>60.4</ele>
        <time>2018-01-06T11:57:04Z</time>
      </trkpt>
      <trkpt lat="62.653743275364" lon="17.855609027286">
        <ele>60.6</ele>
        <time>2018-01-06T11:57:05Z</time>
      </trkpt>
      <trkpt lat="62.653726763021" lon="17.855640207954">
        <ele>60.8</ele>
        <time>2018-01-06T11:57:06Z</time>
      </trkpt>
      <trkpt lat="62.653709663945" lon="17.855670382794">
        <ele>61</ele>
        <time>2018-01-06T11:57:07Z</time>
      </trkpt>
      <trkpt lat="62.65369164286" lon="17.855696282865">
        <ele>61.2</ele>
        <time>2018-01-06T11:57:08Z</time>
      </trkpt>
      <trkpt lat="62.653676890716" lon="17.855714806864">
        <ele>61.2</ele>
        <time>2018-01-06T11:57:09Z</time>
      </trkpt>
      <trkpt lat="62.653662390029" lon="17.855732157397">
        <ele>61.4</ele>
        <time>2018-01-06T11:57:10Z</time>
      </trkpt>
      <trkpt lat="62.653648559894" lon="17.855750597577">
        <ele>61.6</ele>
        <time>2018-01-06T11:57:11Z</time>
      </trkpt>
      <trkpt lat="62.653633137198" lon="17.855766104092">
        <ele>61.8</ele>
        <time>2018-01-06T11:57:12Z</time>
      </trkpt>
      <trkpt lat="62.653617546864" lon="17.855782784073">
        <ele>61.8</ele>
        <time>2018-01-06T11:57:13Z</time>
      </trkpt>
      <trkpt lat="62.653601537435" lon="17.855796111294">
        <ele>61.8</ele>
        <time>2018-01-06T11:57:14Z</time>
      </trkpt>
      <trkpt lat="62.653588461671" lon="17.855804074099">
        <ele>62</ele>
        <time>2018-01-06T11:57:15Z</time>
      </trkpt>
      <trkpt lat="62.653573960984" lon="17.855811450171">
        <ele>62.2</ele>
        <time>2018-01-06T11:57:16Z</time>
      </trkpt>
      <trkpt lat="62.653558454469" lon="17.855819748252">
        <ele>62.2</ele>
        <time>2018-01-06T11:57:17Z</time>
      </trkpt>
      <trkpt lat="62.65354160685" lon="17.855825615582">
        <ele>62.6</ele>
        <time>2018-01-06T11:57:18Z</time>
      </trkpt>
      <trkpt lat="62.653522160842" lon="17.855830979998">
        <ele>63</ele>
        <time>2018-01-06T11:57:19Z</time>
      </trkpt>
      <trkpt lat="62.653501541368" lon="17.855836260595">
        <ele>63.2</ele>
        <time>2018-01-06T11:57:20Z</time>
      </trkpt>
      <trkpt lat="62.653484693749" lon="17.855839613355">
        <ele>63.4</ele>
        <time>2018-01-06T11:57:21Z</time>
      </trkpt>
      <trkpt lat="62.653464996284" lon="17.855840200088">
        <ele>63.6</ele>
        <time>2018-01-06T11:57:22Z</time>
      </trkpt>
      <trkpt lat="62.65344605319" lon="17.855837685518">
        <ele>63.8</ele>
        <time>2018-01-06T11:57:23Z</time>
      </trkpt>
      <trkpt lat="62.653429540847" lon="17.855832069645">
        <ele>63.8</ele>
        <time>2018-01-06T11:57:24Z</time>
      </trkpt>
      <trkpt lat="62.653414118151" lon="17.85582494503">
        <ele>63.8</ele>
        <time>2018-01-06T11:57:25Z</time>
      </trkpt>
      <trkpt lat="62.65339911455" lon="17.855815641121">
        <ele>64</ele>
        <time>2018-01-06T11:57:26Z</time>
      </trkpt>
      <trkpt lat="62.653384194768" lon="17.855808265049">
        <ele>64.2</ele>
        <time>2018-01-06T11:57:27Z</time>
      </trkpt>
      <trkpt lat="62.653367095692" lon="17.855801056615">
        <ele>64.2</ele>
        <time>2018-01-06T11:57:28Z</time>
      </trkpt>
      <trkpt lat="62.653347817322" lon="17.855789405774">
        <ele>64.4</ele>
        <time>2018-01-06T11:57:29Z</time>
      </trkpt>
      <trkpt lat="62.653327114029" lon="17.855772725793">
        <ele>64.6</ele>
        <time>2018-01-06T11:57:30Z</time>
      </trkpt>
      <trkpt lat="62.653309092944" lon="17.855753531242">
        <ele>64.8</ele>
        <time>2018-01-06T11:57:31Z</time>
      </trkpt>
      <trkpt lat="62.653291658592" lon="17.855738946736">
        <ele>65</ele>
        <time>2018-01-06T11:57:32Z</time>
      </trkpt>
      <trkpt lat="62.653274978611" lon="17.855719836004">
        <ele>65.2</ele>
        <time>2018-01-06T11:57:33Z</time>
      </trkpt>
      <trkpt lat="62.6532608132" lon="17.855693600657">
        <ele>65.2</ele>
        <time>2018-01-06T11:57:34Z</time>
      </trkpt>
      <trkpt lat="62.653246144875" lon="17.855669544604">
        <ele>65.6</ele>
        <time>2018-01-06T11:57:35Z</time>
      </trkpt>
      <trkpt lat="62.653231392731" lon="17.855652780804">
        <ele>65.8</ele>
        <time>2018-01-06T11:57:36Z</time>
      </trkpt>
      <trkpt lat="62.653215467121" lon="17.855640291773">
        <ele>65.8</ele>
        <time>2018-01-06T11:57:37Z</time>
      </trkpt>
      <trkpt lat="62.653204989746" lon="17.855623444154">
        <ele>66.2</ele>
        <time>2018-01-06T11:57:38Z</time>
      </trkpt>
      <trkpt lat="62.653195266742" lon="17.855604836336">
        <ele>66.2</ele>
        <time>2018-01-06T11:57:39Z</time>
      </trkpt>
      <trkpt lat="62.653182442435" lon="17.85558689907">
        <ele>66.4</ele>
        <time>2018-01-06T11:57:40Z</time>
      </trkpt>
      <trkpt lat="62.653169282852" lon="17.855571727831">
        <ele>66.8</ele>
        <time>2018-01-06T11:57:41Z</time>
      </trkpt>
      <trkpt lat="62.653156290907" lon="17.855567788338">
        <ele>67</ele>
        <time>2018-01-06T11:57:42Z</time>
      </trkpt>
      <trkpt lat="62.653140449116" lon="17.855564519397">
        <ele>67.4</ele>
        <time>2018-01-06T11:57:43Z</time>
      </trkpt>
      <trkpt lat="62.653127624809" lon="17.855559741714">
        <ele>67.8</ele>
        <time>2018-01-06T11:57:44Z</time>
      </trkpt>
      <trkpt lat="62.653116728339" lon="17.855551192176">
        <ele>68</ele>
        <time>2018-01-06T11:57:45Z</time>
      </trkpt>
      <trkpt lat="62.653106753878" lon="17.855543397009">
        <ele>68.2</ele>
        <time>2018-01-06T11:57:46Z</time>
      </trkpt>
      <trkpt lat="62.653097952883" lon="17.855535182747">
        <ele>68.4</ele>
        <time>2018-01-06T11:57:47Z</time>
      </trkpt>
      <trkpt lat="62.65308898425" lon="17.855526717028">
        <ele>68.6</ele>
        <time>2018-01-06T11:57:48Z</time>
      </trkpt>
      <trkpt lat="62.653081524359" lon="17.855521436431">
        <ele>68.6</ele>
        <time>2018-01-06T11:57:49Z</time>
      </trkpt>
      <trkpt lat="62.653071717536" lon="17.85551313835">
        <ele>68.8</ele>
        <time>2018-01-06T11:57:50Z</time>
      </trkpt>
      <trkpt lat="62.653060066695" lon="17.855504924088">
        <ele>69</ele>
        <time>2018-01-06T11:57:51Z</time>
      </trkpt>
      <trkpt lat="62.653047996759" lon="17.855496458369">
        <ele>69.2</ele>
        <time>2018-01-06T11:57:52Z</time>
      </trkpt>
      <trkpt lat="62.653033915167" lon="17.855485729537">
        <ele>69.6</ele>
        <time>2018-01-06T11:57:53Z</time>
      </trkpt>
      <trkpt lat="62.653022515783" lon="17.855473911058">
        <ele>69.8</ele>
        <time>2018-01-06T11:57:54Z</time>
      </trkpt>
      <trkpt lat="62.653012122227" lon="17.855465026244">
        <ele>70.2</ele>
        <time>2018-01-06T11:57:55Z</time>
      </trkpt>
      <trkpt lat="62.653002483042" lon="17.855457650172">
        <ele>70.4</ele>
        <time>2018-01-06T11:57:56Z</time>
      </trkpt>
      <trkpt lat="62.652992173305" lon="17.855449603548">
        <ele>70.6</ele>
        <time>2018-01-06T11:57:57Z</time>
      </trkpt>
      <trkpt lat="62.652978678446" lon="17.855436276327">
        <ele>70.8</ele>
        <time>2018-01-06T11:57:58Z</time>
      </trkpt>
      <trkpt lat="62.65296493213" lon="17.855421859459">
        <ele>71.2</ele>
        <time>2018-01-06T11:57:59Z</time>
      </trkpt>
      <trkpt lat="62.652952694556" lon="17.85541171736">
        <ele>71.4</ele>
        <time>2018-01-06T11:58:00Z</time>
      </trkpt>
      <trkpt lat="62.652940708439" lon="17.855398138682">
        <ele>71.6</ele>
        <time>2018-01-06T11:58:01Z</time>
      </trkpt>
      <trkpt lat="62.652926878304" lon="17.855387912764">
        <ele>71.8</ele>
        <time>2018-01-06T11:58:02Z</time>
      </trkpt>
      <trkpt lat="62.652910785056" lon="17.855381291063">
        <ele>72</ele>
        <time>2018-01-06T11:58:03Z</time>
      </trkpt>
      <trkpt lat="62.652891841962" lon="17.855375172276">
        <ele>72.2</ele>
        <time>2018-01-06T11:58:04Z</time>
      </trkpt>
      <trkpt lat="62.652876419266" lon="17.855366790376">
        <ele>72.4</ele>
        <time>2018-01-06T11:58:05Z</time>
      </trkpt>
      <trkpt lat="62.652862086217" lon="17.855363605254">
        <ele>72.4</ele>
        <time>2018-01-06T11:58:06Z</time>
      </trkpt>
      <trkpt lat="62.652846831159" lon="17.855359665761">
        <ele>72.6</ele>
        <time>2018-01-06T11:58:07Z</time>
      </trkpt>
      <trkpt lat="62.652827552789" lon="17.855357654105">
        <ele>72.6</ele>
        <time>2018-01-06T11:58:08Z</time>
      </trkpt>
      <trkpt lat="62.652806849496" lon="17.85536310234">
        <ele>72.6</ele>
        <time>2018-01-06T11:58:09Z</time>
      </trkpt>
      <trkpt lat="62.652785810927" lon="17.855365952186">
        <ele>72.6</ele>
        <time>2018-01-06T11:58:10Z</time>
      </trkpt>
      <trkpt lat="62.652762509245" lon="17.855366287462">
        <ele>72.8</ele>
        <time>2018-01-06T11:58:11Z</time>
      </trkpt>
      <trkpt lat="62.652747505644" lon="17.855368299118">
        <ele>72.8</ele>
        <time>2018-01-06T11:58:12Z</time>
      </trkpt>
      <trkpt lat="62.65272856255" lon="17.855362180331">
        <ele>73</ele>
        <time>2018-01-06T11:58:13Z</time>
      </trkpt>
      <trkpt lat="62.652706853429" lon="17.855362934702">
        <ele>73</ele>
        <time>2018-01-06T11:58:14Z</time>
      </trkpt>
      <trkpt lat="62.652687994154" lon="17.855365030177">
        <ele>73.2</ele>
        <time>2018-01-06T11:58:15Z</time>
      </trkpt>
      <trkpt lat="62.652669134879" lon="17.855363186159">
        <ele>73.2</ele>
        <time>2018-01-06T11:58:16Z</time>
      </trkpt>
      <trkpt lat="62.652646503749" lon="17.855361258322">
        <ele>73.2</ele>
        <time>2018-01-06T11:58:17Z</time>
      </trkpt>
      <trkpt lat="62.652622531515" lon="17.855359498123">
        <ele>73.2</ele>
        <time>2018-01-06T11:58:18Z</time>
      </trkpt>
      <trkpt lat="62.652603504602" lon="17.855357821743">
        <ele>73.4</ele>
        <time>2018-01-06T11:58:19Z</time>
      </trkpt>
      <trkpt lat="62.652583723318" lon="17.855355977725">
        <ele>73.6</ele>
        <time>2018-01-06T11:58:20Z</time>
      </trkpt>
      <trkpt lat="62.65256427731" lon="17.855352038232">
        <ele>73.6</ele>
        <time>2018-01-06T11:58:21Z</time>
      </trkpt>
      <trkpt lat="62.652547178234" lon="17.855354888078">
        <ele>73.6</ele>
        <time>2018-01-06T11:58:22Z</time>
      </trkpt>
      <trkpt lat="62.652519098869" lon="17.855367377109">
        <ele>73.8</ele>
        <time>2018-01-06T11:58:23Z</time>
      </trkpt>
      <trkpt lat="62.652489929857" lon="17.855384308547">
        <ele>73.8</ele>
        <time>2018-01-06T11:58:24Z</time>
      </trkpt>
      <trkpt lat="62.652467550184" lon="17.855401910537">
        <ele>74</ele>
        <time>2018-01-06T11:58:25Z</time>
      </trkpt>
      <trkpt lat="62.652448858547" lon="17.85542345202">
        <ele>74</ele>
        <time>2018-01-06T11:58:26Z</time>
      </trkpt>
      <trkpt lat="62.652432262385" lon="17.855452201937">
        <ele>74.2</ele>
        <time>2018-01-06T11:58:27Z</time>
      </trkpt>
      <trkpt lat="62.652410301807" lon="17.85549805093">
        <ele>74</ele>
        <time>2018-01-06T11:58:28Z</time>
      </trkpt>
      <trkpt lat="62.652394627654" lon="17.855535098928">
        <ele>74.2</ele>
        <time>2018-01-06T11:58:29Z</time>
      </trkpt>
      <trkpt lat="62.652377277121" lon="17.855579942093">
        <ele>74.2</ele>
        <time>2018-01-06T11:58:30Z</time>
      </trkpt>
      <trkpt lat="62.652365291004" lon="17.855630149674">
        <ele>74.4</ele>
        <time>2018-01-06T11:58:31Z</time>
      </trkpt>
      <trkpt lat="62.652356657647" lon="17.855671891536">
        <ele>74.4</ele>
        <time>2018-01-06T11:58:32Z</time>
      </trkpt>
      <trkpt lat="62.652341151132" lon="17.855730481017">
        <ele>74.6</ele>
        <time>2018-01-06T11:58:33Z</time>
      </trkpt>
      <trkpt lat="62.6523220404" lon="17.855788316127">
        <ele>74.6</ele>
        <time>2018-01-06T11:58:34Z</time>
      </trkpt>
      <trkpt lat="62.652307372075" lon="17.855839278079">
        <ele>74.8</ele>
        <time>2018-01-06T11:58:35Z</time>
      </trkpt>
      <trkpt lat="62.652290859732" lon="17.8558861329">
        <ele>74.8</ele>
        <time>2018-01-06T11:58:36Z</time>
      </trkpt>
      <trkpt lat="62.652271246086" lon="17.85594061525">
        <ele>74.8</ele>
        <time>2018-01-06T11:58:37Z</time>
      </trkpt>
      <trkpt lat="62.652255655752" lon="17.855991493383">
        <ele>74.8</ele>
        <time>2018-01-06T11:58:38Z</time>
      </trkpt>
      <trkpt lat="62.652243334359" lon="17.856031055951">
        <ele>74.8</ele>
        <time>2018-01-06T11:58:39Z</time>
      </trkpt>
      <trkpt lat="62.652230426233" lon="17.856067433397">
        <ele>75</ele>
        <time>2018-01-06T11:58:40Z</time>
      </trkpt>
      <trkpt lat="62.652215087356" lon="17.856107079784">
        <ele>75</ele>
        <time>2018-01-06T11:58:41Z</time>
      </trkpt>
      <trkpt lat="62.652198491194" lon="17.85614513361">
        <ele>75.2</ele>
        <time>2018-01-06T11:58:42Z</time>
      </trkpt>
      <trkpt lat="62.652178206996" lon="17.85618620492">
        <ele>75.2</ele>
        <time>2018-01-06T11:58:43Z</time>
      </trkpt>
      <trkpt lat="62.652159850635" lon="17.856217804683">
        <ele>75.4</ele>
        <time>2018-01-06T11:58:44Z</time>
      </trkpt>
      <trkpt lat="62.65214182955" lon="17.856249488265">
        <ele>75.4</ele>
        <time>2018-01-06T11:58:45Z</time>
      </trkpt>
      <trkpt lat="62.65212422756" lon="17.856279830743">
        <ele>75.6</ele>
        <time>2018-01-06T11:58:46Z</time>
      </trkpt>
      <trkpt lat="62.652109475416" lon="17.856313442162">
        <ele>75.8</ele>
        <time>2018-01-06T11:58:47Z</time>
      </trkpt>
      <trkpt lat="62.652085503182" lon="17.856344874287">
        <ele>75.8</ele>
        <time>2018-01-06T11:58:48Z</time>
      </trkpt>
      <trkpt lat="62.652053232867" lon="17.856359961707">
        <ele>76</ele>
        <time>2018-01-06T11:58:49Z</time>
      </trkpt>
      <trkpt lat="62.652019034715" lon="17.85637647405">
        <ele>76</ele>
        <time>2018-01-06T11:58:50Z</time>
      </trkpt>
      <trkpt lat="62.651986177667" lon="17.856399859551">
        <ele>76</ele>
        <time>2018-01-06T11:58:51Z</time>
      </trkpt>
      <trkpt lat="62.651950973687" lon="17.856427352183">
        <ele>75.8</ele>
        <time>2018-01-06T11:58:52Z</time>
      </trkpt>
      <trkpt lat="62.651921553218" lon="17.856454928634">
        <ele>75.4</ele>
        <time>2018-01-06T11:58:53Z</time>
      </trkpt>
      <trkpt lat="62.651895653147" lon="17.856490635528">
        <ele>75.2</ele>
        <time>2018-01-06T11:58:54Z</time>
      </trkpt>
      <trkpt lat="62.651861706452" lon="17.856562971325">
        <ele>74.8</ele>
        <time>2018-01-06T11:58:55Z</time>
      </trkpt>
      <trkpt lat="62.651825496644" lon="17.856654585492">
        <ele>74.2</ele>
        <time>2018-01-06T11:58:56Z</time>
      </trkpt>
      <trkpt lat="62.65179565708" lon="17.856741338157">
        <ele>73.6</ele>
        <time>2018-01-06T11:58:57Z</time>
      </trkpt>
      <trkpt lat="62.651767912991" lon="17.85684502226">
        <ele>72.8</ele>
        <time>2018-01-06T11:58:58Z</time>
      </trkpt>
      <trkpt lat="62.651746874422" lon="17.856926242871">
        <ele>72.2</ele>
        <time>2018-01-06T11:58:59Z</time>
      </trkpt>
      <trkpt lat="62.651727847509" lon="17.857000757962">
        <ele>71.6</ele>
        <time>2018-01-06T11:59:00Z</time>
      </trkpt>
      <trkpt lat="62.651709239691" lon="17.857063622212">
        <ele>71.2</ele>
        <time>2018-01-06T11:59:01Z</time>
      </trkpt>
      <trkpt lat="62.651690296597" lon="17.857121373503">
        <ele>71.2</ele>
        <time>2018-01-06T11:59:02Z</time>
      </trkpt>
      <trkpt lat="62.651670682951" lon="17.857177867509">
        <ele>71.6</ele>
        <time>2018-01-06T11:59:03Z</time>
      </trkpt>
      <trkpt lat="62.651646543079" lon="17.857241150854">
        <ele>71.8</ele>
        <time>2018-01-06T11:59:04Z</time>
      </trkpt>
      <trkpt lat="62.651619134266" lon="17.857309211882">
        <ele>72.2</ele>
        <time>2018-01-06T11:59:05Z</time>
      </trkpt>
      <trkpt lat="62.651590719625" lon="17.857355060875">
        <ele>72.2</ele>
        <time>2018-01-06T11:59:06Z</time>
      </trkpt>
      <trkpt lat="62.651557862577" lon="17.857408537397">
        <ele>72</ele>
        <time>2018-01-06T11:59:07Z</time>
      </trkpt>
      <trkpt lat="62.651532549239" lon="17.857470731095">
        <ele>72</ele>
        <time>2018-01-06T11:59:08Z</time>
      </trkpt>
      <trkpt lat="62.651504972788" lon="17.857538373028">
        <ele>71.8</ele>
        <time>2018-01-06T11:59:09Z</time>
      </trkpt>
      <trkpt lat="62.651473289206" lon="17.857613055757">
        <ele>71.6</ele>
        <time>2018-01-06T11:59:10Z</time>
      </trkpt>
      <trkpt lat="62.651443701099" lon="17.85768656502">
        <ele>71.4</ele>
        <time>2018-01-06T11:59:11Z</time>
      </trkpt>
      <trkpt lat="62.651418220123" lon="17.85775613479">
        <ele>71.2</ele>
        <time>2018-01-06T11:59:12Z</time>
      </trkpt>
      <trkpt lat="62.651386704179" lon="17.857831739528">
        <ele>71.2</ele>
        <time>2018-01-06T11:59:13Z</time>
      </trkpt>
      <trkpt lat="62.651358289538" lon="17.857897621262">
        <ele>70.8</ele>
        <time>2018-01-06T11:59:14Z</time>
      </trkpt>
      <trkpt lat="62.651336245141" lon="17.857947745024">
        <ele>70.6</ele>
        <time>2018-01-06T11:59:15Z</time>
      </trkpt>
      <trkpt lat="62.651308417233" lon="17.858013962034">
        <ele>70.6</ele>
        <time>2018-01-06T11:59:16Z</time>
      </trkpt>
      <trkpt lat="62.651282014248" lon="17.858078251207">
        <ele>70.6</ele>
        <time>2018-01-06T11:59:17Z</time>
      </trkpt>
      <trkpt lat="62.651252929055" lon="17.858133823204">
        <ele>70.4</ele>
        <time>2018-01-06T11:59:18Z</time>
      </trkpt>
      <trkpt lat="62.65121982055" lon="17.858189562839">
        <ele>70.4</ele>
        <time>2018-01-06T11:59:19Z</time>
      </trkpt>
      <trkpt lat="62.651192076461" lon="17.858248655234">
        <ele>70.2</ele>
        <time>2018-01-06T11:59:20Z</time>
      </trkpt>
      <trkpt lat="62.651166008752" lon="17.858303808136">
        <ele>70</ele>
        <time>2018-01-06T11:59:21Z</time>
      </trkpt>
      <trkpt lat="62.651137510292" lon="17.858354267174">
        <ele>70</ele>
        <time>2018-01-06T11:59:22Z</time>
      </trkpt>
      <trkpt lat="62.651113035144" lon="17.858405312945">
        <ele>69.8</ele>
        <time>2018-01-06T11:59:23Z</time>
      </trkpt>
      <trkpt lat="62.651082441209" lon="17.858451916309">
        <ele>69.6</ele>
        <time>2018-01-06T11:59:24Z</time>
      </trkpt>
      <trkpt lat="62.651047237229" lon="17.858506733935">
        <ele>69.6</ele>
        <time>2018-01-06T11:59:25Z</time>
      </trkpt>
      <trkpt lat="62.651010021593" lon="17.858554594584">
        <ele>69.6</ele>
        <time>2018-01-06T11:59:26Z</time>
      </trkpt>
      <trkpt lat="62.6509725545" lon="17.858586864899">
        <ele>69.4</ele>
        <time>2018-01-06T11:59:27Z</time>
      </trkpt>
      <trkpt lat="62.650925699679" lon="17.858618297024">
        <ele>69.6</ele>
        <time>2018-01-06T11:59:28Z</time>
      </trkpt>
      <trkpt lat="62.650885550378" lon="17.858632797711">
        <ele>69.4</ele>
        <time>2018-01-06T11:59:29Z</time>
      </trkpt>
      <trkpt lat="62.650847748009" lon="17.858638329765">
        <ele>69</ele>
        <time>2018-01-06T11:59:30Z</time>
      </trkpt>
      <trkpt lat="62.650810029459" lon="17.858631121331">
        <ele>68.8</ele>
        <time>2018-01-06T11:59:31Z</time>
      </trkpt>
      <trkpt lat="62.650774657841" lon="17.858619219033">
        <ele>68.4</ele>
        <time>2018-01-06T11:59:32Z</time>
      </trkpt>
      <trkpt lat="62.650743812449" lon="17.858602036138">
        <ele>68.2</ele>
        <time>2018-01-06T11:59:33Z</time>
      </trkpt>
      <trkpt lat="62.650719169663" lon="17.85857504642">
        <ele>68</ele>
        <time>2018-01-06T11:59:34Z</time>
      </trkpt>
      <trkpt lat="62.650696873809" lon="17.858543530476">
        <ele>67.8</ele>
        <time>2018-01-06T11:59:35Z</time>
      </trkpt>
      <trkpt lat="62.650675583783" lon="17.858506985392">
        <ele>67.8</ele>
        <time>2018-01-06T11:59:36Z</time>
      </trkpt>
      <trkpt lat="62.650649516074" lon="17.858455771983">
        <ele>67.8</ele>
        <time>2018-01-06T11:59:37Z</time>
      </trkpt>
      <trkpt lat="62.65062135289" lon="17.858381005435">
        <ele>67.8</ele>
        <time>2018-01-06T11:59:38Z</time>
      </trkpt>
      <trkpt lat="62.650595620457" lon="17.858291822019">
        <ele>67.6</ele>
        <time>2018-01-06T11:59:39Z</time>
      </trkpt>
      <trkpt lat="62.650571648223" lon="17.858181013301">
        <ele>67.4</ele>
        <time>2018-01-06T11:59:40Z</time>
      </trkpt>
      <trkpt lat="62.6505534595" lon="17.858069366393">
        <ele>66.8</ele>
        <time>2018-01-06T11:59:41Z</time>
      </trkpt>
      <trkpt lat="62.650537198614" lon="17.85795394763">
        <ele>66.2</ele>
        <time>2018-01-06T11:59:42Z</time>
      </trkpt>
      <trkpt lat="62.650517752606" lon="17.857814891909">
        <ele>65.4</ele>
        <time>2018-01-06T11:59:43Z</time>
      </trkpt>
      <trkpt lat="62.650498809512" lon="17.857691175065">
        <ele>64.8</ele>
        <time>2018-01-06T11:59:44Z</time>
      </trkpt>
      <trkpt lat="62.65047550783" lon="17.857567206764">
        <ele>64</ele>
        <time>2018-01-06T11:59:45Z</time>
      </trkpt>
      <trkpt lat="62.650447931379" lon="17.857434437468">
        <ele>63.4</ele>
        <time>2018-01-06T11:59:46Z</time>
      </trkpt>
      <trkpt lat="62.650418091815" lon="17.857314743936">
        <ele>63</ele>
        <time>2018-01-06T11:59:47Z</time>
      </trkpt>
      <trkpt lat="62.650378864523" lon="17.857190859454">
        <ele>62.4</ele>
        <time>2018-01-06T11:59:48Z</time>
      </trkpt>
      <trkpt lat="62.650340056326" lon="17.857080888926">
        <ele>62</ele>
        <time>2018-01-06T11:59:49Z</time>
      </trkpt>
      <trkpt lat="62.650303511242" lon="17.856984245619">
        <ele>61.6</ele>
        <time>2018-01-06T11:59:50Z</time>
      </trkpt>
      <trkpt lat="62.650269061633" lon="17.856892212357">
        <ele>61.4</ele>
        <time>2018-01-06T11:59:51Z</time>
      </trkpt>
      <trkpt lat="62.650223883192" lon="17.85681903837">
        <ele>61</ele>
        <time>2018-01-06T11:59:52Z</time>
      </trkpt>
      <trkpt lat="62.650175016715" lon="17.856746786392">
        <ele>60.4</ele>
        <time>2018-01-06T11:59:53Z</time>
      </trkpt>
      <trkpt lat="62.650129251541" lon="17.856690879119">
        <ele>60.2</ele>
        <time>2018-01-06T11:59:54Z</time>
      </trkpt>
      <trkpt lat="62.65008574948" lon="17.856648382886">
        <ele>59.8</ele>
        <time>2018-01-06T11:59:55Z</time>
      </trkpt>
      <trkpt lat="62.650045600179" lon="17.85661368182">
        <ele>59.6</ele>
        <time>2018-01-06T11:59:56Z</time>
      </trkpt>
      <trkpt lat="62.650013581321" lon="17.856592224156">
        <ele>59.4</ele>
        <time>2018-01-06T11:59:57Z</time>
      </trkpt>
      <trkpt lat="62.649979969902" lon="17.856574370709">
        <ele>59.2</ele>
        <time>2018-01-06T11:59:58Z</time>
      </trkpt>
      <trkpt lat="62.649960272437" lon="17.85656422861">
        <ele>58.6</ele>
        <time>2018-01-06T11:59:59Z</time>
      </trkpt>
      <trkpt lat="62.649941329343" lon="17.856555762891">
        <ele>58.2</ele>
        <time>2018-01-06T12:00:00Z</time>
      </trkpt>
      <trkpt lat="62.649923308258" lon="17.856546961896">
        <ele>57.8</ele>
        <time>2018-01-06T12:00:01Z</time>
      </trkpt>
      <trkpt lat="62.649902856422" lon="17.856534640503">
        <ele>57.8</ele>
        <time>2018-01-06T12:00:02Z</time>
      </trkpt>
      <trkpt lat="62.649881650215" lon="17.856520139816">
        <ele>57.6</ele>
        <time>2018-01-06T12:00:03Z</time>
      </trkpt>
      <trkpt lat="62.649858097076" lon="17.856511171183">
        <ele>57.8</ele>
        <time>2018-01-06T12:00:04Z</time>
      </trkpt>
      <trkpt lat="62.649834208661" lon="17.856507734604">
        <ele>58</ele>
        <time>2018-01-06T12:00:05Z</time>
      </trkpt>
      <trkpt lat="62.649811242255" lon="17.856506896414">
        <ele>58.4</ele>
        <time>2018-01-06T12:00:06Z</time>
      </trkpt>
      <trkpt lat="62.649790538962" lon="17.856506477319">
        <ele>58.4</ele>
        <time>2018-01-06T12:00:07Z</time>
      </trkpt>
      <trkpt lat="62.649767656375" lon="17.856502956921">
        <ele>58.6</ele>
        <time>2018-01-06T12:00:08Z</time>
      </trkpt>
      <trkpt lat="62.649744438512" lon="17.856497843962">
        <ele>58.6</ele>
        <time>2018-01-06T12:00:09Z</time>
      </trkpt>
      <trkpt lat="62.64971946045" lon="17.856497341048">
        <ele>58.6</ele>
        <time>2018-01-06T12:00:10Z</time>
      </trkpt>
      <trkpt lat="62.649697080777" lon="17.856495832306">
        <ele>58.8</ele>
        <time>2018-01-06T12:00:11Z</time>
      </trkpt>
      <trkpt lat="62.64967838914" lon="17.856491892813">
        <ele>58.8</ele>
        <time>2018-01-06T12:00:12Z</time>
      </trkpt>
      <trkpt lat="62.649659278408" lon="17.85649130608">
        <ele>59</ele>
        <time>2018-01-06T12:00:13Z</time>
      </trkpt>
      <trkpt lat="62.649642598427" lon="17.856488120958">
        <ele>59.2</ele>
        <time>2018-01-06T12:00:14Z</time>
      </trkpt>
      <trkpt lat="62.649627008093" lon="17.85648795332">
        <ele>59.4</ele>
        <time>2018-01-06T12:00:15Z</time>
      </trkpt>
      <trkpt lat="62.649612004492" lon="17.856491222261">
        <ele>59.4</ele>
        <time>2018-01-06T12:00:16Z</time>
      </trkpt>
      <trkpt lat="62.649594905416" lon="17.856491976632">
        <ele>59.6</ele>
        <time>2018-01-06T12:00:17Z</time>
      </trkpt>
      <trkpt lat="62.649576465236" lon="17.85649046789">
        <ele>59.8</ele>
        <time>2018-01-06T12:00:18Z</time>
      </trkpt>
      <trkpt lat="62.649559533798" lon="17.8564896297">
        <ele>60.2</ele>
        <time>2018-01-06T12:00:19Z</time>
      </trkpt>
      <trkpt lat="62.649545536025" lon="17.85648879151">
        <ele>60.6</ele>
        <time>2018-01-06T12:00:20Z</time>
      </trkpt>
      <trkpt lat="62.649531202976" lon="17.856490970804">
        <ele>60.8</ele>
        <time>2018-01-06T12:00:21Z</time>
      </trkpt>
      <trkpt lat="62.64951158933" lon="17.856492228089">
        <ele>61.4</ele>
        <time>2018-01-06T12:00:22Z</time>
      </trkpt>
      <trkpt lat="62.649487617096" lon="17.856492731003">
        <ele>61.6</ele>
        <time>2018-01-06T12:00:23Z</time>
      </trkpt>
      <trkpt lat="62.649465740337" lon="17.856497760143">
        <ele>61.8</ele>
        <time>2018-01-06T12:00:24Z</time>
      </trkpt>
      <trkpt lat="62.64944788689" lon="17.856502705464">
        <ele>61.8</ele>
        <time>2018-01-06T12:00:25Z</time>
      </trkpt>
      <trkpt lat="62.649428943796" lon="17.856503292197">
        <ele>62</ele>
        <time>2018-01-06T12:00:26Z</time>
      </trkpt>
      <trkpt lat="62.649409078693" lon="17.85650136436">
        <ele>62</ele>
        <time>2018-01-06T12:00:27Z</time>
      </trkpt>
      <trkpt lat="62.649383849174" lon="17.856494575021">
        <ele>62.2</ele>
        <time>2018-01-06T12:00:28Z</time>
      </trkpt>
      <trkpt lat="62.649361134225" lon="17.856484432922">
        <ele>62.4</ele>
        <time>2018-01-06T12:00:29Z</time>
      </trkpt>
      <trkpt lat="62.649343783692" lon="17.85646867495">
        <ele>62.6</ele>
        <time>2018-01-06T12:00:30Z</time>
      </trkpt>
      <trkpt lat="62.64932467296" lon="17.856441769051">
        <ele>62.6</ele>
        <time>2018-01-06T12:00:31Z</time>
      </trkpt>
      <trkpt lat="62.649304724038" lon="17.856413689686">
        <ele>62.6</ele>
        <time>2018-01-06T12:00:32Z</time>
      </trkpt>
      <trkpt lat="62.649288044057" lon="17.856388041072">
        <ele>62.8</ele>
        <time>2018-01-06T12:00:33Z</time>
      </trkpt>
      <trkpt lat="62.649273208094" lon="17.856359961707">
        <ele>62.8</ele>
        <time>2018-01-06T12:00:34Z</time>
      </trkpt>
      <trkpt lat="62.64925342681" lon="17.856319058035">
        <ele>63</ele>
        <time>2018-01-06T12:00:35Z</time>
      </trkpt>
      <trkpt lat="62.649235489544" lon="17.856281674761">
        <ele>62.8</ele>
        <time>2018-01-06T12:00:36Z</time>
      </trkpt>
      <trkpt lat="62.649218977201" lon="17.856239597623">
        <ele>63</ele>
        <time>2018-01-06T12:00:37Z</time>
      </trkpt>
      <trkpt lat="62.649198776822" lon="17.856186121101">
        <ele>63</ele>
        <time>2018-01-06T12:00:38Z</time>
      </trkpt>
      <trkpt lat="62.649182683574" lon="17.856149073103">
        <ele>63</ele>
        <time>2018-01-06T12:00:39Z</time>
      </trkpt>
      <trkpt lat="62.649161477367" lon="17.85610825325">
        <ele>63</ele>
        <time>2018-01-06T12:00:40Z</time>
      </trkpt>
      <trkpt lat="62.649139935884" lon="17.856067684854">
        <ele>63</ele>
        <time>2018-01-06T12:00:41Z</time>
      </trkpt>
      <trkpt lat="62.649119400229" lon="17.856032397055">
        <ele>63</ele>
        <time>2018-01-06T12:00:42Z</time>
      </trkpt>
      <trkpt lat="62.649095092719" lon="17.855994175591">
        <ele>63.2</ele>
        <time>2018-01-06T12:00:43Z</time>
      </trkpt>
      <trkpt lat="62.649068605915" lon="17.855956708498">
        <ele>63.2</ele>
        <time>2018-01-06T12:00:44Z</time>
      </trkpt>
      <trkpt lat="62.649048405536" lon="17.855918654672">
        <ele>63.4</ele>
        <time>2018-01-06T12:00:45Z</time>
      </trkpt>
      <trkpt lat="62.649028372795" lon="17.855886887271">
        <ele>63.4</ele>
        <time>2018-01-06T12:00:46Z</time>
      </trkpt>
      <trkpt lat="62.649008423873" lon="17.855859478458">
        <ele>63.6</ele>
        <time>2018-01-06T12:00:47Z</time>
      </trkpt>
      <trkpt lat="62.64898855877" lon="17.855833913663">
        <ele>63.8</ele>
        <time>2018-01-06T12:00:48Z</time>
      </trkpt>
      <trkpt lat="62.648972297884" lon="17.85581321037">
        <ele>63.8</ele>
        <time>2018-01-06T12:00:49Z</time>
      </trkpt>
      <trkpt lat="62.648952348962" lon="17.855788819041">
        <ele>63.8</ele>
        <time>2018-01-06T12:00:50Z</time>
      </trkpt>
      <trkpt lat="62.648935333705" lon="17.855763840979">
        <ele>64</ele>
        <time>2018-01-06T12:00:51Z</time>
      </trkpt>
      <trkpt lat="62.648917480258" lon="17.855739533469">
        <ele>64</ele>
        <time>2018-01-06T12:00:52Z</time>
      </trkpt>
      <trkpt lat="62.648897866612" lon="17.855710448276">
        <ele>64</ele>
        <time>2018-01-06T12:00:53Z</time>
      </trkpt>
      <trkpt lat="62.648881018993" lon="17.85568161454">
        <ele>64.4</ele>
        <time>2018-01-06T12:00:54Z</time>
      </trkpt>
      <trkpt lat="62.648866015392" lon="17.855651942614">
        <ele>64.6</ele>
        <time>2018-01-06T12:00:55Z</time>
      </trkpt>
      <trkpt lat="62.648850173601" lon="17.855627383647">
        <ele>64.8</ele>
        <time>2018-01-06T12:00:56Z</time>
      </trkpt>
      <trkpt lat="62.648837014018" lon="17.855602321766">
        <ele>65</ele>
        <time>2018-01-06T12:00:57Z</time>
      </trkpt>
      <trkpt lat="62.648820753132" lon="17.855568626528">
        <ele>65.2</ele>
        <time>2018-01-06T12:00:58Z</time>
      </trkpt>
      <trkpt lat="62.648799714563" lon="17.855530488883">
        <ele>65.2</ele>
        <time>2018-01-06T12:00:59Z</time>
      </trkpt>
      <trkpt lat="62.648781609659" lon="17.855499811129">
        <ele>65.4</ele>
        <time>2018-01-06T12:01:00Z</time>
      </trkpt>
      <trkpt lat="62.648767025153" lon="17.855470223022">
        <ele>65.2</ele>
        <time>2018-01-06T12:01:01Z</time>
      </trkpt>
      <trkpt lat="62.648752524466" lon="17.855441724562">
        <ele>65.2</ele>
        <time>2018-01-06T12:01:02Z</time>
      </trkpt>
      <trkpt lat="62.648735006295" lon="17.855407945505">
        <ele>65.4</ele>
        <time>2018-01-06T12:01:03Z</time>
      </trkpt>
      <trkpt lat="62.648712375165" lon="17.855380369054">
        <ele>65.6</ele>
        <time>2018-01-06T12:01:04Z</time>
      </trkpt>
      <trkpt lat="62.648687816198" lon="17.855353798431">
        <ele>65.6</ele>
        <time>2018-01-06T12:01:05Z</time>
      </trkpt>
      <trkpt lat="62.648665771801" lon="17.855334184785">
        <ele>65.8</ele>
        <time>2018-01-06T12:01:06Z</time>
      </trkpt>
      <trkpt lat="62.648642637757" lon="17.855330245292">
        <ele>66</ele>
        <time>2018-01-06T12:01:07Z</time>
      </trkpt>
      <trkpt lat="62.648614223116" lon="17.855329323283">
        <ele>66.2</ele>
        <time>2018-01-06T12:01:08Z</time>
      </trkpt>
      <trkpt lat="62.648585892294" lon="17.855331167301">
        <ele>66.2</ele>
        <time>2018-01-06T12:01:09Z</time>
      </trkpt>
      <trkpt lat="62.648561584784" lon="17.85534298578">
        <ele>66.2</ele>
        <time>2018-01-06T12:01:10Z</time>
      </trkpt>
      <trkpt lat="62.648535684713" lon="17.855356480639">
        <ele>66.2</ele>
        <time>2018-01-06T12:01:11Z</time>
      </trkpt>
      <trkpt lat="62.648507605348" lon="17.855376681018">
        <ele>66.4</ele>
        <time>2018-01-06T12:01:12Z</time>
      </trkpt>
      <trkpt lat="62.648479693621" lon="17.855405430935">
        <ele>66.2</ele>
        <time>2018-01-06T12:01:13Z</time>
      </trkpt>
      <trkpt lat="62.648455218473" lon="17.855427475332">
        <ele>66.2</ele>
        <time>2018-01-06T12:01:14Z</time>
      </trkpt>
      <trkpt lat="62.648428228755" lon="17.855447424254">
        <ele>66.2</ele>
        <time>2018-01-06T12:01:15Z</time>
      </trkpt>
      <trkpt lat="62.648398556829" lon="17.855466954081">
        <ele>66</ele>
        <time>2018-01-06T12:01:16Z</time>
      </trkpt>
      <trkpt lat="62.648373997862" lon="17.855481538587">
        <ele>65.8</ele>
        <time>2018-01-06T12:01:17Z</time>
      </trkpt>
      <trkpt lat="62.648342565737" lon="17.855500649319">
        <ele>65.8</ele>
        <time>2018-01-06T12:01:18Z</time>
      </trkpt>
      <trkpt lat="62.648311720345" lon="17.855511545789">
        <ele>65.6</ele>
        <time>2018-01-06T12:01:19Z</time>
      </trkpt>
      <trkpt lat="62.648282718971" lon="17.855519676232">
        <ele>65.6</ele>
        <time>2018-01-06T12:01:20Z</time>
      </trkpt>
      <trkpt lat="62.648253549959" lon="17.855527890494">
        <ele>65.6</ele>
        <time>2018-01-06T12:01:21Z</time>
      </trkpt>
      <trkpt lat="62.648228990992" lon="17.855536272394">
        <ele>65.6</ele>
        <time>2018-01-06T12:01:22Z</time>
      </trkpt>
      <trkpt lat="62.648198732333" lon="17.855541552991">
        <ele>65.6</ele>
        <time>2018-01-06T12:01:23Z</time>
      </trkpt>
      <trkpt lat="62.648174173366" lon="17.855542726457">
        <ele>65.6</ele>
        <time>2018-01-06T12:01:24Z</time>
      </trkpt>
      <trkpt lat="62.648146764553" lon="17.855536942946">
        <ele>65.6</ele>
        <time>2018-01-06T12:01:25Z</time>
      </trkpt>
      <trkpt lat="62.64812019393" lon="17.855536691489">
        <ele>65.6</ele>
        <time>2018-01-06T12:01:26Z</time>
      </trkpt>
      <trkpt lat="62.64809421004" lon="17.855547420321">
        <ele>65.6</ele>
        <time>2018-01-06T12:01:27Z</time>
      </trkpt>
      <trkpt lat="62.648067555598" lon="17.855556808049">
        <ele>65.8</ele>
        <time>2018-01-06T12:01:28Z</time>
      </trkpt>
      <trkpt lat="62.648041152613" lon="17.855564938492">
        <ele>65.8</ele>
        <time>2018-01-06T12:01:29Z</time>
      </trkpt>
      <trkpt lat="62.648019359673" lon="17.855574745315">
        <ele>66</ele>
        <time>2018-01-06T12:01:30Z</time>
      </trkpt>
      <trkpt lat="62.647999746027" lon="17.855587904898">
        <ele>66</ele>
        <time>2018-01-06T12:01:31Z</time>
      </trkpt>
      <trkpt lat="62.647982060218" lon="17.855604584879">
        <ele>66.2</ele>
        <time>2018-01-06T12:01:32Z</time>
      </trkpt>
      <trkpt lat="62.64796596697" lon="17.855623527973">
        <ele>66.4</ele>
        <time>2018-01-06T12:01:33Z</time>
      </trkpt>
      <trkpt lat="62.647951801559" lon="17.855647667845">
        <ele>66.6</ele>
        <time>2018-01-06T12:01:34Z</time>
      </trkpt>
      <trkpt lat="62.647937300872" lon="17.855671053346">
        <ele>66.6</ele>
        <time>2018-01-06T12:01:35Z</time>
      </trkpt>
      <trkpt lat="62.647922800185" lon="17.855691505182">
        <ele>66.8</ele>
        <time>2018-01-06T12:01:36Z</time>
      </trkpt>
      <trkpt lat="62.647911233163" lon="17.85570927481">
        <ele>67</ele>
        <time>2018-01-06T12:01:37Z</time>
      </trkpt>
      <trkpt lat="62.647900169055" lon="17.855730983931">
        <ele>67</ele>
        <time>2018-01-06T12:01:38Z</time>
      </trkpt>
      <trkpt lat="62.647889775499" lon="17.855752357776">
        <ele>67.2</ele>
        <time>2018-01-06T12:01:39Z</time>
      </trkpt>
      <trkpt lat="62.647875274812" lon="17.855780101865">
        <ele>67.4</ele>
        <time>2018-01-06T12:01:40Z</time>
      </trkpt>
      <trkpt lat="62.647860857944" lon="17.855811031076">
        <ele>67.6</ele>
        <time>2018-01-06T12:01:41Z</time>
      </trkpt>
      <trkpt lat="62.647848117456" lon="17.855836176776">
        <ele>67.8</ele>
        <time>2018-01-06T12:01:42Z</time>
      </trkpt>
      <trkpt lat="62.647836382796" lon="17.855866435435">
        <ele>68</ele>
        <time>2018-01-06T12:01:43Z</time>
      </trkpt>
      <trkpt lat="62.647822971756" lon="17.855901052682">
        <ele>68</ele>
        <time>2018-01-06T12:01:44Z</time>
      </trkpt>
      <trkpt lat="62.647812075286" lon="17.85593055697">
        <ele>68.2</ele>
        <time>2018-01-06T12:01:45Z</time>
      </trkpt>
      <trkpt lat="62.647799418617" lon="17.855960647991">
        <ele>68.4</ele>
        <time>2018-01-06T12:01:46Z</time>
      </trkpt>
      <trkpt lat="62.647788438328" lon="17.855987637709">
        <ele>68.4</ele>
        <time>2018-01-06T12:01:47Z</time>
      </trkpt>
      <trkpt lat="62.647775781659" lon="17.856021249128">
        <ele>68.6</ele>
        <time>2018-01-06T12:01:48Z</time>
      </trkpt>
      <trkpt lat="62.647763292628" lon="17.856059722049">
        <ele>68.8</ele>
        <time>2018-01-06T12:01:49Z</time>
      </trkpt>
      <trkpt lat="62.64775222852" lon="17.856097189142">
        <ele>69</ele>
        <time>2018-01-06T12:01:50Z</time>
      </trkpt>
      <trkpt lat="62.647743092249" lon="17.856133147493">
        <ele>69.2</ele>
        <time>2018-01-06T12:01:51Z</time>
      </trkpt>
      <trkpt lat="62.647731944322" lon="17.856178828848">
        <ele>69.4</ele>
        <time>2018-01-06T12:01:52Z</time>
      </trkpt>
      <trkpt lat="62.647719790567" lon="17.856228282058">
        <ele>69.6</ele>
        <time>2018-01-06T12:01:53Z</time>
      </trkpt>
      <trkpt lat="62.647711827762" lon="17.856270191558">
        <ele>69.6</ele>
        <time>2018-01-06T12:01:54Z</time>
      </trkpt>
      <trkpt lat="62.647706295708" lon="17.856307910108">
        <ele>69.8</ele>
        <time>2018-01-06T12:01:55Z</time>
      </trkpt>
      <trkpt lat="62.647691208288" lon="17.856361721906">
        <ele>69.8</ele>
        <time>2018-01-06T12:01:56Z</time>
      </trkpt>
      <trkpt lat="62.64767930599" lon="17.856411175116">
        <ele>70</ele>
        <time>2018-01-06T12:01:57Z</time>
      </trkpt>
      <trkpt lat="62.647670002081" lon="17.85645777848">
        <ele>70</ele>
        <time>2018-01-06T12:01:58Z</time>
      </trkpt>
      <trkpt lat="62.64766338038" lon="17.856498598333">
        <ele>70.2</ele>
        <time>2018-01-06T12:01:59Z</time>
      </trkpt>
      <trkpt lat="62.647657177774" lon="17.856533802313">
        <ele>70.2</ele>
        <time>2018-01-06T12:02:00Z</time>
      </trkpt>
      <trkpt lat="62.647652148634" lon="17.856571856139">
        <ele>70.4</ele>
        <time>2018-01-06T12:02:01Z</time>
      </trkpt>
      <trkpt lat="62.64764913115" lon="17.856613011268">
        <ele>70.6</ele>
        <time>2018-01-06T12:02:02Z</time>
      </trkpt>
      <trkpt lat="62.647647622408" lon="17.856652657655">
        <ele>70.8</ele>
        <time>2018-01-06T12:02:03Z</time>
      </trkpt>
      <trkpt lat="62.647643682915" lon="17.856708481109">
        <ele>71</ele>
        <time>2018-01-06T12:02:04Z</time>
      </trkpt>
      <trkpt lat="62.647642760906" lon="17.856756928491">
        <ele>71.2</ele>
        <time>2018-01-06T12:02:05Z</time>
      </trkpt>
      <trkpt lat="62.647641168345" lon="17.856814093049">
        <ele>71.6</ele>
        <time>2018-01-06T12:02:06Z</time>
      </trkpt>
      <trkpt lat="62.647639743422" lon="17.856865474096">
        <ele>71.6</ele>
        <time>2018-01-06T12:02:07Z</time>
      </trkpt>
      <trkpt lat="62.647638486137" lon="17.856930098545">
        <ele>71.8</ele>
        <time>2018-01-06T12:02:08Z</time>
      </trkpt>
      <trkpt lat="62.647639659603" lon="17.85698751456">
        <ele>71.8</ele>
        <time>2018-01-06T12:02:09Z</time>
      </trkpt>
      <trkpt lat="62.647637061214" lon="17.857049037706">
        <ele>71.6</ele>
        <time>2018-01-06T12:02:10Z</time>
      </trkpt>
      <trkpt lat="62.647635217196" lon="17.857110225576">
        <ele>71.6</ele>
        <time>2018-01-06T12:02:11Z</time>
      </trkpt>
      <trkpt lat="62.647627422029" lon="17.857168060686">
        <ele>71.6</ele>
        <time>2018-01-06T12:02:12Z</time>
      </trkpt>
      <trkpt lat="62.647618201939" lon="17.85722807509">
        <ele>71.6</ele>
        <time>2018-01-06T12:02:13Z</time>
      </trkpt>
      <trkpt lat="62.647606802555" lon="17.857293034815">
        <ele>71.6</ele>
        <time>2018-01-06T12:02:14Z</time>
      </trkpt>
      <trkpt lat="62.64760051613" lon="17.857344918776">
        <ele>71.4</ele>
        <time>2018-01-06T12:02:15Z</time>
      </trkpt>
      <trkpt lat="62.647589535841" lon="17.857391438321">
        <ele>71.2</ele>
        <time>2018-01-06T12:02:16Z</time>
      </trkpt>
      <trkpt lat="62.647583333235" lon="17.857432341993">
        <ele>71.2</ele>
        <time>2018-01-06T12:02:17Z</time>
      </trkpt>
      <trkpt lat="62.647577382086" lon="17.857495373881">
        <ele>71</ele>
        <time>2018-01-06T12:02:18Z</time>
      </trkpt>
      <trkpt lat="62.647573610231" lon="17.857563518728">
        <ele>71</ele>
        <time>2018-01-06T12:02:19Z</time>
      </trkpt>
      <trkpt lat="62.6475695031" lon="17.857625544788">
        <ele>70.8</ele>
        <time>2018-01-06T12:02:20Z</time>
      </trkpt>
      <trkpt lat="62.647562881399" lon="17.857686145925">
        <ele>70.8</ele>
        <time>2018-01-06T12:02:21Z</time>
      </trkpt>
      <trkpt lat="62.647559696277" lon="17.857741131189">
        <ele>70.6</ele>
        <time>2018-01-06T12:02:22Z</time>
      </trkpt>
      <trkpt lat="62.647553326033" lon="17.85780810257">
        <ele>70.8</ele>
        <time>2018-01-06T12:02:23Z</time>
      </trkpt>
      <trkpt lat="62.647547039608" lon="17.857873565209">
        <ele>70.8</ele>
        <time>2018-01-06T12:02:24Z</time>
      </trkpt>
      <trkpt lat="62.647542010468" lon="17.857928047559">
        <ele>70.6</ele>
        <time>2018-01-06T12:02:25Z</time>
      </trkpt>
      <trkpt lat="62.647537400423" lon="17.857984541565">
        <ele>70.6</ele>
        <time>2018-01-06T12:02:26Z</time>
      </trkpt>
      <trkpt lat="62.647533377111" lon="17.858030055282">
        <ele>70.8</ele>
        <time>2018-01-06T12:02:27Z</time>
      </trkpt>
      <trkpt lat="62.647526839229" lon="17.858085711098">
        <ele>70.8</ele>
        <time>2018-01-06T12:02:28Z</time>
      </trkpt>
      <trkpt lat="62.6475192117" lon="17.858148072434">
        <ele>70.6</ele>
        <time>2018-01-06T12:02:29Z</time>
      </trkpt>
      <trkpt lat="62.647514853112" lon="17.858191406857">
        <ele>70.6</ele>
        <time>2018-01-06T12:02:30Z</time>
      </trkpt>
      <trkpt lat="62.647509488696" lon="17.858245805388">
        <ele>70.6</ele>
        <time>2018-01-06T12:02:31Z</time>
      </trkpt>
      <trkpt lat="62.64750747704" lon="17.858293330761">
        <ele>70.6</ele>
        <time>2018-01-06T12:02:32Z</time>
      </trkpt>
      <trkpt lat="62.647507393221" lon="17.858345298541">
        <ele>70.6</ele>
        <time>2018-01-06T12:02:33Z</time>
      </trkpt>
      <trkpt lat="62.647506806488" lon="17.8584090848">
        <ele>70.8</ele>
        <time>2018-01-06T12:02:34Z</time>
      </trkpt>
      <trkpt lat="62.647508734325" lon="17.858466584634">
        <ele>70.8</ele>
        <time>2018-01-06T12:02:35Z</time>
      </trkpt>
      <trkpt lat="62.647511919447" lon="17.858517043672">
        <ele>70.8</ele>
        <time>2018-01-06T12:02:36Z</time>
      </trkpt>
      <trkpt lat="62.647512254723" lon="17.85858761927">
        <ele>70.8</ele>
        <time>2018-01-06T12:02:37Z</time>
      </trkpt>
      <trkpt lat="62.64751585894" lon="17.858643358905">
        <ele>70.8</ele>
        <time>2018-01-06T12:02:38Z</time>
      </trkpt>
      <trkpt lat="62.647514936931" lon="17.858697338341">
        <ele>70.8</ele>
        <time>2018-01-06T12:02:39Z</time>
      </trkpt>
      <trkpt lat="62.647512757637" lon="17.858755005813">
        <ele>70.8</ele>
        <time>2018-01-06T12:02:40Z</time>
      </trkpt>
      <trkpt lat="62.647509907791" lon="17.85880973962">
        <ele>71</ele>
        <time>2018-01-06T12:02:41Z</time>
      </trkpt>
      <trkpt lat="62.647504459556" lon="17.858863635237">
        <ele>71</ele>
        <time>2018-01-06T12:02:42Z</time>
      </trkpt>
      <trkpt lat="62.647502280262" lon="17.858920296881">
        <ele>71</ele>
        <time>2018-01-06T12:02:43Z</time>
      </trkpt>
      <trkpt lat="62.647497837855" lon="17.858993806144">
        <ele>71.2</ele>
        <time>2018-01-06T12:02:44Z</time>
      </trkpt>
      <trkpt lat="62.647493143991" lon="17.859057257127">
        <ele>71</ele>
        <time>2018-01-06T12:02:45Z</time>
      </trkpt>
      <trkpt lat="62.647487444299" lon="17.859117103893">
        <ele>71</ele>
        <time>2018-01-06T12:02:46Z</time>
      </trkpt>
      <trkpt lat="62.647480152046" lon="17.859179046134">
        <ele>71</ele>
        <time>2018-01-06T12:02:47Z</time>
      </trkpt>
      <trkpt lat="62.64747311125" lon="17.85923721652">
        <ele>71</ele>
        <time>2018-01-06T12:02:48Z</time>
      </trkpt>
      <trkpt lat="62.647465148445" lon="17.859291782689">
        <ele>71</ele>
        <time>2018-01-06T12:02:49Z</time>
      </trkpt>
      <trkpt lat="62.647454503432" lon="17.859362358287">
        <ele>71</ele>
        <time>2018-01-06T12:02:50Z</time>
      </trkpt>
      <trkpt lat="62.647443858419" lon="17.859434526446">
        <ele>71</ele>
        <time>2018-01-06T12:02:51Z</time>
      </trkpt>
      <trkpt lat="62.647443858419" lon="17.859471322987">
        <ele>71</ele>
        <time>2018-01-06T12:02:52Z</time>
      </trkpt>
      <trkpt lat="62.647434470691" lon="17.859536031255">
        <ele>71.2</ele>
        <time>2018-01-06T12:02:53Z</time>
      </trkpt>
      <trkpt lat="62.647422400755" lon="17.859591267976">
        <ele>71.2</ele>
        <time>2018-01-06T12:02:54Z</time>
      </trkpt>
      <trkpt lat="62.647413432122" lon="17.859635189132">
        <ele>71.2</ele>
        <time>2018-01-06T12:02:55Z</time>
      </trkpt>
      <trkpt lat="62.647402451833" lon="17.859681541039">
        <ele>71.2</ele>
        <time>2018-01-06T12:02:56Z</time>
      </trkpt>
      <trkpt lat="62.647385688033" lon="17.859735604294">
        <ele>71.2</ele>
        <time>2018-01-06T12:02:57Z</time>
      </trkpt>
      <trkpt lat="62.64737169026" lon="17.859790002825">
        <ele>71.6</ele>
        <time>2018-01-06T12:02:58Z</time>
      </trkpt>
      <trkpt lat="62.647358027763" lon="17.859837444379">
        <ele>71.6</ele>
        <time>2018-01-06T12:02:59Z</time>
      </trkpt>
      <trkpt lat="62.647340258135" lon="17.859883796286">
        <ele>71.6</ele>
        <time>2018-01-06T12:03:00Z</time>
      </trkpt>
      <trkpt lat="62.647326092724" lon="17.859931824573">
        <ele>71.8</ele>
        <time>2018-01-06T12:03:01Z</time>
      </trkpt>
      <trkpt lat="62.647314190426" lon="17.85997063277">
        <ele>71.8</ele>
        <time>2018-01-06T12:03:02Z</time>
      </trkpt>
      <trkpt lat="62.647296839893" lon="17.860016649401">
        <ele>71.8</ele>
        <time>2018-01-06T12:03:03Z</time>
      </trkpt>
      <trkpt lat="62.647278399713" lon="17.860061073471">
        <ele>71.8</ele>
        <time>2018-01-06T12:03:04Z</time>
      </trkpt>
      <trkpt lat="62.647258031696" lon="17.860114130898">
        <ele>71.8</ele>
        <time>2018-01-06T12:03:05Z</time>
      </trkpt>
      <trkpt lat="62.647244369199" lon="17.860156962407">
        <ele>71.8</ele>
        <time>2018-01-06T12:03:06Z</time>
      </trkpt>
      <trkpt lat="62.647222073345" lon="17.860208091997">
        <ele>71.8</ele>
        <time>2018-01-06T12:03:07Z</time>
      </trkpt>
      <trkpt lat="62.647198771663" lon="17.860269782781">
        <ele>72</ele>
        <time>2018-01-06T12:03:08Z</time>
      </trkpt>
      <trkpt lat="62.647174547972" lon="17.860321750561">
        <ele>72</ele>
        <time>2018-01-06T12:03:09Z</time>
      </trkpt>
      <trkpt lat="62.647146552426" lon="17.860371539047">
        <ele>72</ele>
        <time>2018-01-06T12:03:10Z</time>
      </trkpt>
      <trkpt lat="62.647121155269" lon="17.860409676692">
        <ele>72</ele>
        <time>2018-01-06T12:03:11Z</time>
      </trkpt>
      <trkpt lat="62.647094752284" lon="17.860446389414">
        <ele>72</ele>
        <time>2018-01-06T12:03:12Z</time>
      </trkpt>
      <trkpt lat="62.647070696231" lon="17.860473882046">
        <ele>72</ele>
        <time>2018-01-06T12:03:13Z</time>
      </trkpt>
      <trkpt lat="62.647049322386" lon="17.860492741321">
        <ele>72</ele>
        <time>2018-01-06T12:03:14Z</time>
      </trkpt>
      <trkpt lat="62.647027697084" lon="17.860508666931">
        <ele>72</ele>
        <time>2018-01-06T12:03:15Z</time>
      </trkpt>
      <trkpt lat="62.647005736506" lon="17.860529034948">
        <ele>72</ele>
        <time>2018-01-06T12:03:16Z</time>
      </trkpt>
      <trkpt lat="62.646981512815" lon="17.860552923363">
        <ele>72.2</ele>
        <time>2018-01-06T12:03:17Z</time>
      </trkpt>
      <trkpt lat="62.646950499785" lon="17.860584020212">
        <ele>72.2</ele>
        <time>2018-01-06T12:03:18Z</time>
      </trkpt>
      <trkpt lat="62.646920408764" lon="17.860613692138">
        <ele>72.2</ele>
        <time>2018-01-06T12:03:19Z</time>
      </trkpt>
      <trkpt lat="62.646890233924" lon="17.860643950797">
        <ele>72.4</ele>
        <time>2018-01-06T12:03:20Z</time>
      </trkpt>
      <trkpt lat="62.646864250034" lon="17.860675215284">
        <ele>72.4</ele>
        <time>2018-01-06T12:03:21Z</time>
      </trkpt>
      <trkpt lat="62.646832147357" lon="17.860709664893">
        <ele>72.4</ele>
        <time>2018-01-06T12:03:22Z</time>
      </trkpt>
      <trkpt lat="62.646802726888" lon="17.860746629072">
        <ele>72.4</ele>
        <time>2018-01-06T12:03:23Z</time>
      </trkpt>
      <trkpt lat="62.64677238441" lon="17.860781665414">
        <ele>72.2</ele>
        <time>2018-01-06T12:03:24Z</time>
      </trkpt>
      <trkpt lat="62.646740114095" lon="17.860819886878">
        <ele>72</ele>
        <time>2018-01-06T12:03:25Z</time>
      </trkpt>
      <trkpt lat="62.646713292015" lon="17.860853917392">
        <ele>72</ele>
        <time>2018-01-06T12:03:26Z</time>
      </trkpt>
      <trkpt lat="62.646687140487" lon="17.860886858259">
        <ele>71.8</ele>
        <time>2018-01-06T12:03:27Z</time>
      </trkpt>
      <trkpt lat="62.646661994787" lon="17.860918290384">
        <ele>71.8</ele>
        <time>2018-01-06T12:03:28Z</time>
      </trkpt>
      <trkpt lat="62.646638693105" lon="17.860946788844">
        <ele>71.8</ele>
        <time>2018-01-06T12:03:29Z</time>
      </trkpt>
      <trkpt lat="62.646618408907" lon="17.860973443286">
        <ele>71.8</ele>
        <time>2018-01-06T12:03:30Z</time>
      </trkpt>
      <trkpt lat="62.646597118881" lon="17.860996325873">
        <ele>71.8</ele>
        <time>2018-01-06T12:03:31Z</time>
      </trkpt>
      <trkpt lat="62.646574655389" lon="17.861018454089">
        <ele>71.8</ele>
        <time>2018-01-06T12:03:32Z</time>
      </trkpt>
      <trkpt lat="62.646549928784" lon="17.861040666124">
        <ele>72</ele>
        <time>2018-01-06T12:03:33Z</time>
      </trkpt>
      <trkpt lat="62.64652763293" lon="17.861063548711">
        <ele>72</ele>
        <time>2018-01-06T12:03:34Z</time>
      </trkpt>
      <trkpt lat="62.646497877185" lon="17.861094310284">
        <ele>72.2</ele>
        <time>2018-01-06T12:03:35Z</time>
      </trkpt>
      <trkpt lat="62.646469294906" lon="17.861120713269">
        <ele>72.4</ele>
        <time>2018-01-06T12:03:36Z</time>
      </trkpt>
      <trkpt lat="62.646447418147" lon="17.861144434046">
        <ele>72.4</ele>
        <time>2018-01-06T12:03:37Z</time>
      </trkpt>
      <trkpt lat="62.64642034461" lon="17.861174105972">
        <ele>72.4</ele>
        <time>2018-01-06T12:03:38Z</time>
      </trkpt>
      <trkpt lat="62.646394109263" lon="17.861206041011">
        <ele>72.4</ele>
        <time>2018-01-06T12:03:39Z</time>
      </trkpt>
      <trkpt lat="62.646369717934" lon="17.861235964394">
        <ele>72.4</ele>
        <time>2018-01-06T12:03:40Z</time>
      </trkpt>
      <trkpt lat="62.646346751528" lon="17.861259685171">
        <ele>72.4</ele>
        <time>2018-01-06T12:03:41Z</time>
      </trkpt>
      <trkpt lat="62.646325126226" lon="17.861283573586">
        <ele>72.4</ele>
        <time>2018-01-06T12:03:42Z</time>
      </trkpt>
      <trkpt lat="62.646304087657" lon="17.861308300191">
        <ele>72.6</ele>
        <time>2018-01-06T12:03:43Z</time>
      </trkpt>
      <trkpt lat="62.646285060744" lon="17.86133269152">
        <ele>72.6</ele>
        <time>2018-01-06T12:03:44Z</time>
      </trkpt>
      <trkpt lat="62.646269721867" lon="17.861355825564">
        <ele>73</ele>
        <time>2018-01-06T12:03:45Z</time>
      </trkpt>
      <trkpt lat="62.646254634447" lon="17.861378289056">
        <ele>73.2</ele>
        <time>2018-01-06T12:03:46Z</time>
      </trkpt>
      <trkpt lat="62.646239211751" lon="17.861401590738">
        <ele>73.2</ele>
        <time>2018-01-06T12:03:47Z</time>
      </trkpt>
      <trkpt lat="62.646221274485" lon="17.861431095026">
        <ele>73.6</ele>
        <time>2018-01-06T12:03:48Z</time>
      </trkpt>
      <trkpt lat="62.64620492978" lon="17.861464874083">
        <ele>73.6</ele>
        <time>2018-01-06T12:03:49Z</time>
      </trkpt>
      <trkpt lat="62.646184310306" lon="17.861507621773">
        <ele>74</ele>
        <time>2018-01-06T12:03:50Z</time>
      </trkpt>
      <trkpt lat="62.646165367212" lon="17.861552967852">
        <ele>74</ele>
        <time>2018-01-06T12:03:51Z</time>
      </trkpt>
      <trkpt lat="62.646145669747" lon="17.861607366383">
        <ele>74</ele>
        <time>2018-01-06T12:03:52Z</time>
      </trkpt>
      <trkpt lat="62.646122954798" lon="17.861667716063">
        <ele>74.2</ele>
        <time>2018-01-06T12:03:53Z</time>
      </trkpt>
      <trkpt lat="62.6461026706" lon="17.861726557001">
        <ele>74.2</ele>
        <time>2018-01-06T12:03:54Z</time>
      </trkpt>
      <trkpt lat="62.646082637859" lon="17.861783553921">
        <ele>73.8</ele>
        <time>2018-01-06T12:03:55Z</time>
      </trkpt>
      <trkpt lat="62.646061766928" lon="17.861844993248">
        <ele>73.4</ele>
        <time>2018-01-06T12:03:56Z</time>
      </trkpt>
      <trkpt lat="62.646045757499" lon="17.8618959552">
        <ele>73.2</ele>
        <time>2018-01-06T12:03:57Z</time>
      </trkpt>
      <trkpt lat="62.646025473301" lon="17.861946665695">
        <ele>73</ele>
        <time>2018-01-06T12:03:58Z</time>
      </trkpt>
      <trkpt lat="62.646005692017" lon="17.861998382018">
        <ele>73</ele>
        <time>2018-01-06T12:03:59Z</time>
      </trkpt>
      <trkpt lat="62.645982306516" lon="17.862048757237">
        <ele>73.2</ele>
        <time>2018-01-06T12:04:00Z</time>
      </trkpt>
      <trkpt lat="62.645955484436" lon="17.862099551551">
        <ele>73.2</ele>
        <time>2018-01-06T12:04:01Z</time>
      </trkpt>
      <trkpt lat="62.645934110591" lon="17.862150262046">
        <ele>73.2</ele>
        <time>2018-01-06T12:04:02Z</time>
      </trkpt>
      <trkpt lat="62.645914245488" lon="17.862202146007">
        <ele>73.2</ele>
        <time>2018-01-06T12:04:03Z</time>
      </trkpt>
      <trkpt lat="62.645894296566" lon="17.862254029968">
        <ele>73.2</ele>
        <time>2018-01-06T12:04:04Z</time>
      </trkpt>
      <trkpt lat="62.645879292965" lon="17.862313457639">
        <ele>73</ele>
        <time>2018-01-06T12:04:05Z</time>
      </trkpt>
      <trkpt lat="62.645863618812" lon="17.862365257781">
        <ele>73</ele>
        <time>2018-01-06T12:04:06Z</time>
      </trkpt>
      <trkpt lat="62.645849872496" lon="17.862411358231">
        <ele>73</ele>
        <time>2018-01-06T12:04:07Z</time>
      </trkpt>
      <trkpt lat="62.645839059845" lon="17.862470450626">
        <ele>73</ele>
        <time>2018-01-06T12:04:08Z</time>
      </trkpt>
      <trkpt lat="62.645830007393" lon="17.862536164722">
        <ele>73</ele>
        <time>2018-01-06T12:04:09Z</time>
      </trkpt>
      <trkpt lat="62.645822379864" lon="17.862602968465">
        <ele>73</ele>
        <time>2018-01-06T12:04:10Z</time>
      </trkpt>
      <trkpt lat="62.645820954941" lon="17.86265786991">
        <ele>73</ele>
        <time>2018-01-06T12:04:11Z</time>
      </trkpt>
      <trkpt lat="62.645817183086" lon="17.86272241054">
        <ele>73</ele>
        <time>2018-01-06T12:04:12Z</time>
      </trkpt>
      <trkpt lat="62.645814584697" lon="17.862774210682">
        <ele>73</ele>
        <time>2018-01-06T12:04:13Z</time>
      </trkpt>
      <trkpt lat="62.645810729023" lon="17.862833638353">
        <ele>72.8</ele>
        <time>2018-01-06T12:04:14Z</time>
      </trkpt>
      <trkpt lat="62.645810561385" lon="17.862884684124">
        <ele>72.8</ele>
        <time>2018-01-06T12:04:15Z</time>
      </trkpt>
      <trkpt lat="62.645809471738" lon="17.862943273605">
        <ele>72.8</ele>
        <time>2018-01-06T12:04:16Z</time>
      </trkpt>
      <trkpt lat="62.645807795358" lon="17.862994738471">
        <ele>72.6</ele>
        <time>2018-01-06T12:04:17Z</time>
      </trkpt>
      <trkpt lat="62.645808968824" lon="17.863053663228">
        <ele>72.4</ele>
        <time>2018-01-06T12:04:18Z</time>
      </trkpt>
      <trkpt lat="62.645810058471" lon="17.863124993197">
        <ele>72.4</ele>
        <time>2018-01-06T12:04:19Z</time>
      </trkpt>
      <trkpt lat="62.645813997964" lon="17.86318592961">
        <ele>72.6</ele>
        <time>2018-01-06T12:04:20Z</time>
      </trkpt>
      <trkpt lat="62.645817434543" lon="17.863233622621">
        <ele>72.6</ele>
        <time>2018-01-06T12:04:21Z</time>
      </trkpt>
      <trkpt lat="62.645823050416" lon="17.863290200446">
        <ele>72.8</ele>
        <time>2018-01-06T12:04:22Z</time>
      </trkpt>
      <trkpt lat="62.645833360153" lon="17.863345856262">
        <ele>73</ele>
        <time>2018-01-06T12:04:23Z</time>
      </trkpt>
      <trkpt lat="62.645844340442" lon="17.863409055788">
        <ele>73.2</ele>
        <time>2018-01-06T12:04:24Z</time>
      </trkpt>
      <trkpt lat="62.645858422034" lon="17.863474937522">
        <ele>73.2</ele>
        <time>2018-01-06T12:04:25Z</time>
      </trkpt>
      <trkpt lat="62.645868145038" lon="17.863532688813">
        <ele>73.2</ele>
        <time>2018-01-06T12:04:26Z</time>
      </trkpt>
      <trkpt lat="62.645872503626" lon="17.863588763724">
        <ele>73</ele>
        <time>2018-01-06T12:04:27Z</time>
      </trkpt>
      <trkpt lat="62.645876275481" lon="17.863648526671">
        <ele>73</ele>
        <time>2018-01-06T12:04:28Z</time>
      </trkpt>
      <trkpt lat="62.645880382612" lon="17.86371147474">
        <ele>72.8</ele>
        <time>2018-01-06T12:04:29Z</time>
      </trkpt>
      <trkpt lat="62.645885160295" lon="17.863769561307">
        <ele>72.6</ele>
        <time>2018-01-06T12:04:30Z</time>
      </trkpt>
      <trkpt lat="62.64589060853" lon="17.863817338137">
        <ele>72.8</ele>
        <time>2018-01-06T12:04:31Z</time>
      </trkpt>
      <trkpt lat="62.645897397869" lon="17.863871988125">
        <ele>72.8</ele>
        <time>2018-01-06T12:04:32Z</time>
      </trkpt>
      <trkpt lat="62.645906115045" lon="17.863926386656">
        <ele>73</ele>
        <time>2018-01-06T12:04:33Z</time>
      </trkpt>
      <trkpt lat="62.64591659242" lon="17.863969469622">
        <ele>73.2</ele>
        <time>2018-01-06T12:04:34Z</time>
      </trkpt>
      <trkpt lat="62.645928075623" lon="17.864008613095">
        <ele>73.2</ele>
        <time>2018-01-06T12:04:35Z</time>
      </trkpt>
      <trkpt lat="62.645940229378" lon="17.864048091844">
        <ele>73.2</ele>
        <time>2018-01-06T12:04:36Z</time>
      </trkpt>
      <trkpt lat="62.645952886047" lon="17.864082289996">
        <ele>73.4</ele>
        <time>2018-01-06T12:04:37Z</time>
      </trkpt>
      <trkpt lat="62.645968308743" lon="17.864116069053">
        <ele>73.4</ele>
        <time>2018-01-06T12:04:38Z</time>
      </trkpt>
      <trkpt lat="62.645984401991" lon="17.864140292744">
        <ele>73.4</ele>
        <time>2018-01-06T12:04:39Z</time>
      </trkpt>
      <trkpt lat="62.646002339257" lon="17.864162840055">
        <ele>73.2</ele>
        <time>2018-01-06T12:04:40Z</time>
      </trkpt>
      <trkpt lat="62.64602304255" lon="17.864182034606">
        <ele>73.2</ele>
        <time>2018-01-06T12:04:41Z</time>
      </trkpt>
      <trkpt lat="62.646041818006" lon="17.864197289664">
        <ele>73.2</ele>
        <time>2018-01-06T12:04:42Z</time>
      </trkpt>
      <trkpt lat="62.646060593462" lon="17.864209694876">
        <ele>73.4</ele>
        <time>2018-01-06T12:04:43Z</time>
      </trkpt>
      <trkpt lat="62.64608003947" lon="17.864225955762">
        <ele>73.4</ele>
        <time>2018-01-06T12:04:44Z</time>
      </trkpt>
      <trkpt lat="62.646101748591" lon="17.864238863888">
        <ele>73.6</ele>
        <time>2018-01-06T12:04:45Z</time>
      </trkpt>
      <trkpt lat="62.646126810472" lon="17.864251855833">
        <ele>73.8</ele>
        <time>2018-01-06T12:04:46Z</time>
      </trkpt>
      <trkpt lat="62.646148603412" lon="17.864259567181">
        <ele>73.8</ele>
        <time>2018-01-06T12:04:47Z</time>
      </trkpt>
      <trkpt lat="62.646169809619" lon="17.864265266873">
        <ele>74</ele>
        <time>2018-01-06T12:04:48Z</time>
      </trkpt>
      <trkpt lat="62.64618816598" lon="17.864273732592">
        <ele>74</ele>
        <time>2018-01-06T12:04:49Z</time>
      </trkpt>
      <trkpt lat="62.646209791282" lon="17.864282365949">
        <ele>74.2</ele>
        <time>2018-01-06T12:04:50Z</time>
      </trkpt>
      <trkpt lat="62.646229656385" lon="17.864288233279">
        <ele>74.2</ele>
        <time>2018-01-06T12:04:51Z</time>
      </trkpt>
      <trkpt lat="62.646249605307" lon="17.864291250763">
        <ele>74.4</ele>
        <time>2018-01-06T12:04:52Z</time>
      </trkpt>
      <trkpt lat="62.646270811514" lon="17.864295274075">
        <ele>74.4</ele>
        <time>2018-01-06T12:04:53Z</time>
      </trkpt>
      <trkpt lat="62.646294029377" lon="17.864294938799">
        <ele>74.6</ele>
        <time>2018-01-06T12:04:54Z</time>
      </trkpt>
      <trkpt lat="62.64631557086" lon="17.864294352066">
        <ele>74.4</ele>
        <time>2018-01-06T12:04:55Z</time>
      </trkpt>
      <trkpt lat="62.64633484923" lon="17.864291166944">
        <ele>74.6</ele>
        <time>2018-01-06T12:04:56Z</time>
      </trkpt>
      <trkpt lat="62.6463541276" lon="17.864289239107">
        <ele>74.8</ele>
        <time>2018-01-06T12:04:57Z</time>
      </trkpt>
      <trkpt lat="62.646378183653" lon="17.864288903831">
        <ele>74.8</ele>
        <time>2018-01-06T12:04:58Z</time>
      </trkpt>
      <trkpt lat="62.646402658801" lon="17.864277588266">
        <ele>74.8</ele>
        <time>2018-01-06T12:04:59Z</time>
      </trkpt>
      <trkpt lat="62.646431073442" lon="17.864266440339">
        <ele>74.8</ele>
        <time>2018-01-06T12:05:00Z</time>
      </trkpt>
      <trkpt lat="62.64645722497" lon="17.864259483362">
        <ele>75</ele>
        <time>2018-01-06T12:05:01Z</time>
      </trkpt>
      <trkpt lat="62.646478514996" lon="17.864260070095">
        <ele>75.2</ele>
        <time>2018-01-06T12:05:02Z</time>
      </trkpt>
      <trkpt lat="62.646499888841" lon="17.864263255217">
        <ele>75.2</ele>
        <time>2018-01-06T12:05:03Z</time>
      </trkpt>
      <trkpt lat="62.646524699265" lon="17.864261159742">
        <ele>75.4</ele>
        <time>2018-01-06T12:05:04Z</time>
      </trkpt>
      <trkpt lat="62.646555628476" lon="17.864260740647">
        <ele>75.4</ele>
        <time>2018-01-06T12:05:05Z</time>
      </trkpt>
      <trkpt lat="62.646585551859" lon="17.864262919941">
        <ele>75.4</ele>
        <time>2018-01-06T12:05:06Z</time>
      </trkpt>
      <trkpt lat="62.646616983984" lon="17.864280019017">
        <ele>75.4</ele>
        <time>2018-01-06T12:05:07Z</time>
      </trkpt>
      <trkpt lat="62.646658558208" lon="17.864306086726">
        <ele>75.4</ele>
        <time>2018-01-06T12:05:08Z</time>
      </trkpt>
      <trkpt lat="62.646698372233" lon="17.864330729512">
        <ele>74.8</ele>
        <time>2018-01-06T12:05:09Z</time>
      </trkpt>
      <trkpt lat="62.646740030276" lon="17.86435939561">
        <ele>74.4</ele>
        <time>2018-01-06T12:05:10Z</time>
      </trkpt>
      <trkpt lat="62.646778419378" lon="17.864384122215">
        <ele>73.8</ele>
        <time>2018-01-06T12:05:11Z</time>
      </trkpt>
      <trkpt lat="62.646813288082" lon="17.864403987318">
        <ele>73.4</ele>
        <time>2018-01-06T12:05:12Z</time>
      </trkpt>
      <trkpt lat="62.646849833166" lon="17.86442477443">
        <ele>73</ele>
        <time>2018-01-06T12:05:13Z</time>
      </trkpt>
      <trkpt lat="62.646886462069" lon="17.864447489379">
        <ele>72.6</ele>
        <time>2018-01-06T12:05:14Z</time>
      </trkpt>
      <trkpt lat="62.646916050176" lon="17.864467689758">
        <ele>72.4</ele>
        <time>2018-01-06T12:05:15Z</time>
      </trkpt>
      <trkpt lat="62.646953014355" lon="17.864492416363">
        <ele>72</ele>
        <time>2018-01-06T12:05:16Z</time>
      </trkpt>
      <trkpt lat="62.646992241647" lon="17.86451865171">
        <ele>71.6</ele>
        <time>2018-01-06T12:05:17Z</time>
      </trkpt>
      <trkpt lat="62.647037420088" lon="17.864547820722">
        <ele>71.4</ele>
        <time>2018-01-06T12:05:18Z</time>
      </trkpt>
      <trkpt lat="62.647078072303" lon="17.864575564811">
        <ele>71.2</ele>
        <time>2018-01-06T12:05:19Z</time>
      </trkpt>
      <trkpt lat="62.647125849133" lon="17.86460749985">
        <ele>70.8</ele>
        <time>2018-01-06T12:05:20Z</time>
      </trkpt>
      <trkpt lat="62.647168429185" lon="17.864629544247">
        <ele>69.8</ele>
        <time>2018-01-06T12:05:21Z</time>
      </trkpt>
      <trkpt lat="62.647215032549" lon="17.864641949459">
        <ele>68.8</ele>
        <time>2018-01-06T12:05:22Z</time>
      </trkpt>
      <trkpt lat="62.647267670881" lon="17.864654187033">
        <ele>68</ele>
        <time>2018-01-06T12:05:23Z</time>
      </trkpt>
      <trkpt lat="62.647317710824" lon="17.864671118471">
        <ele>66.8</ele>
        <time>2018-01-06T12:05:24Z</time>
      </trkpt>
      <trkpt lat="62.647367834586" lon="17.864690313022">
        <ele>66</ele>
        <time>2018-01-06T12:05:25Z</time>
      </trkpt>
      <trkpt lat="62.647410330819" lon="17.864707076822">
        <ele>65.4</ele>
        <time>2018-01-06T12:05:26Z</time>
      </trkpt>
      <trkpt lat="62.647451737405" lon="17.86472317007">
        <ele>65</ele>
        <time>2018-01-06T12:05:27Z</time>
      </trkpt>
      <trkpt lat="62.647495993837" lon="17.864744543915">
        <ele>64.6</ele>
        <time>2018-01-06T12:05:28Z</time>
      </trkpt>
      <trkpt lat="62.64754938654" lon="17.864773545289">
        <ele>64</ele>
        <time>2018-01-06T12:05:29Z</time>
      </trkpt>
      <trkpt lat="62.647593223877" lon="17.864819897196">
        <ele>63.6</ele>
        <time>2018-01-06T12:05:30Z</time>
      </trkpt>
      <trkpt lat="62.647633792273" lon="17.864882090894">
        <ele>63.2</ele>
        <time>2018-01-06T12:05:31Z</time>
      </trkpt>
      <trkpt lat="62.647670169719" lon="17.864954426691">
        <ele>63</ele>
        <time>2018-01-06T12:05:32Z</time>
      </trkpt>
      <trkpt lat="62.647702607672" lon="17.865026678669">
        <ele>62.8</ele>
        <time>2018-01-06T12:05:33Z</time>
      </trkpt>
      <trkpt lat="62.647732363417" lon="17.865097338086">
        <ele>62.8</ele>
        <time>2018-01-06T12:05:34Z</time>
      </trkpt>
      <trkpt lat="62.64776480137" lon="17.865164644743">
        <ele>62.8</ele>
        <time>2018-01-06T12:05:35Z</time>
      </trkpt>
      <trkpt lat="62.647793886563" lon="17.865224910604">
        <ele>62.8</ele>
        <time>2018-01-06T12:05:36Z</time>
      </trkpt>
      <trkpt lat="62.647821463014" lon="17.865285344103">
        <ele>63</ele>
        <time>2018-01-06T12:05:37Z</time>
      </trkpt>
      <trkpt lat="62.647853733329" lon="17.865338485349">
        <ele>63</ele>
        <time>2018-01-06T12:05:38Z</time>
      </trkpt>
      <trkpt lat="62.647881896513" lon="17.86538114922">
        <ele>62.8</ele>
        <time>2018-01-06T12:05:39Z</time>
      </trkpt>
      <trkpt lat="62.647910143516" lon="17.865432949362">
        <ele>62.6</ele>
        <time>2018-01-06T12:05:40Z</time>
      </trkpt>
      <trkpt lat="62.647938893433" lon="17.865486593522">
        <ele>62.6</ele>
        <time>2018-01-06T12:05:41Z</time>
      </trkpt>
      <trkpt lat="62.647962446572" lon="17.865526491366">
        <ele>62.4</ele>
        <time>2018-01-06T12:05:42Z</time>
      </trkpt>
      <trkpt lat="62.647987005539" lon="17.865568317047">
        <ele>62.4</ele>
        <time>2018-01-06T12:05:43Z</time>
      </trkpt>
      <trkpt lat="62.648013576162" lon="17.865611819108">
        <ele>62.2</ele>
        <time>2018-01-06T12:05:44Z</time>
      </trkpt>
      <trkpt lat="62.64803553674" lon="17.86564098812">
        <ele>62</ele>
        <time>2018-01-06T12:05:45Z</time>
      </trkpt>
      <trkpt lat="62.648063783743" lon="17.865684657819">
        <ele>62.2</ele>
        <time>2018-01-06T12:05:46Z</time>
      </trkpt>
      <trkpt lat="62.648100999379" lon="17.865723801292">
        <ele>62.2</ele>
        <time>2018-01-06T12:05:47Z</time>
      </trkpt>
      <trkpt lat="62.648139975214" lon="17.865773254502">
        <ele>62</ele>
        <time>2018-01-06T12:05:48Z</time>
      </trkpt>
      <trkpt lat="62.648173502814" lon="17.865819774047">
        <ele>61.8</ele>
        <time>2018-01-06T12:05:49Z</time>
      </trkpt>
      <trkpt lat="62.648206024586" lon="17.865861767366">
        <ele>61.4</ele>
        <time>2018-01-06T12:05:50Z</time>
      </trkpt>
      <trkpt lat="62.648235612693" lon="17.865901078477">
        <ele>60.8</ele>
        <time>2018-01-06T12:05:51Z</time>
      </trkpt>
      <trkpt lat="62.648265452257" lon="17.865944161443">
        <ele>60.2</ele>
        <time>2018-01-06T12:05:52Z</time>
      </trkpt>
      <trkpt lat="62.648296968201" lon="17.86598464602">
        <ele>59.6</ele>
        <time>2018-01-06T12:05:53Z</time>
      </trkpt>
      <trkpt lat="62.648328232688" lon="17.866034434506">
        <ele>59.4</ele>
        <time>2018-01-06T12:05:54Z</time>
      </trkpt>
      <trkpt lat="62.648361341193" lon="17.866088497761">
        <ele>59.2</ele>
        <time>2018-01-06T12:05:55Z</time>
      </trkpt>
      <trkpt lat="62.648390258748" lon="17.866162174662">
        <ele>59.2</ele>
        <time>2018-01-06T12:05:56Z</time>
      </trkpt>
      <trkpt lat="62.648410794403" lon="17.866239958694">
        <ele>59.4</ele>
        <time>2018-01-06T12:05:57Z</time>
      </trkpt>
      <trkpt lat="62.648431665334" lon="17.866334757983">
        <ele>59.6</ele>
        <time>2018-01-06T12:05:58Z</time>
      </trkpt>
      <trkpt lat="62.648453206817" lon="17.866437100982">
        <ele>59.8</ele>
        <time>2018-01-06T12:05:59Z</time>
      </trkpt>
      <trkpt lat="62.648471227902" lon="17.866538521972">
        <ele>59.8</ele>
        <time>2018-01-06T12:06:00Z</time>
      </trkpt>
      <trkpt lat="62.648485560951" lon="17.866637260754">
        <ele>59.8</ele>
        <time>2018-01-06T12:06:01Z</time>
      </trkpt>
      <trkpt lat="62.648501235104" lon="17.866723845781">
        <ele>59.6</ele>
        <time>2018-01-06T12:06:02Z</time>
      </trkpt>
      <trkpt lat="62.648520513474" lon="17.866820405269">
        <ele>59.2</ele>
        <time>2018-01-06T12:06:03Z</time>
      </trkpt>
      <trkpt lat="62.648541971138" lon="17.866917048576">
        <ele>59</ele>
        <time>2018-01-06T12:06:04Z</time>
      </trkpt>
      <trkpt lat="62.648559740766" lon="17.867010003847">
        <ele>58.6</ele>
        <time>2018-01-06T12:06:05Z</time>
      </trkpt>
      <trkpt lat="62.648575247281" lon="17.867112514484">
        <ele>58.2</ele>
        <time>2018-01-06T12:06:06Z</time>
      </trkpt>
      <trkpt lat="62.648591508167" lon="17.867210247438">
        <ele>57.4</ele>
        <time>2018-01-06T12:06:07Z</time>
      </trkpt>
      <trkpt lat="62.648607601415" lon="17.867301861605">
        <ele>56.6</ele>
        <time>2018-01-06T12:06:08Z</time>
      </trkpt>
      <trkpt lat="62.648624449034" lon="17.867396241799">
        <ele>56</ele>
        <time>2018-01-06T12:06:09Z</time>
      </trkpt>
      <trkpt lat="62.648643811223" lon="17.86747075689">
        <ele>55.6</ele>
        <time>2018-01-06T12:06:10Z</time>
      </trkpt>
      <trkpt lat="62.64865831191" lon="17.867545104343">
        <ele>55.4</ele>
        <time>2018-01-06T12:06:11Z</time>
      </trkpt>
      <trkpt lat="62.648670130389" lon="17.867616350493">
        <ele>55.4</ele>
        <time>2018-01-06T12:06:12Z</time>
      </trkpt>
      <trkpt lat="62.648685720723" lon="17.867675778164">
        <ele>55.6</ele>
        <time>2018-01-06T12:06:13Z</time>
      </trkpt>
      <trkpt lat="62.648701813971" lon="17.867748952151">
        <ele>55.8</ele>
        <time>2018-01-06T12:06:14Z</time>
      </trkpt>
      <trkpt lat="62.648712961898" lon="17.867819863025">
        <ele>55.6</ele>
        <time>2018-01-06T12:06:15Z</time>
      </trkpt>
      <trkpt lat="62.648726121481" lon="17.867883649284">
        <ele>55.6</ele>
        <time>2018-01-06T12:06:16Z</time>
      </trkpt>
      <trkpt lat="62.64874045453" lon="17.867957996737">
        <ele>55.6</ele>
        <time>2018-01-06T12:06:17Z</time>
      </trkpt>
      <trkpt lat="62.648755961045" lon="17.868033014742">
        <ele>55.6</ele>
        <time>2018-01-06T12:06:18Z</time>
      </trkpt>
      <trkpt lat="62.648770964646" lon="17.868092442413">
        <ele>55.6</ele>
        <time>2018-01-06T12:06:19Z</time>
      </trkpt>
      <trkpt lat="62.648789321007" lon="17.868172573377">
        <ele>55.6</ele>
        <time>2018-01-06T12:06:20Z</time>
      </trkpt>
      <trkpt lat="62.64880667154" lon="17.868248094296">
        <ele>55.6</ele>
        <time>2018-01-06T12:06:21Z</time>
      </trkpt>
      <trkpt lat="62.648823686797" lon="17.868327973803">
        <ele>55.6</ele>
        <time>2018-01-06T12:06:22Z</time>
      </trkpt>
      <trkpt lat="62.648843048986" lon="17.868409948785">
        <ele>55.4</ele>
        <time>2018-01-06T12:06:23Z</time>
      </trkpt>
      <trkpt lat="62.648864758107" lon="17.868468035352">
        <ele>55.4</ele>
        <time>2018-01-06T12:06:24Z</time>
      </trkpt>
      <trkpt lat="62.648886634866" lon="17.868538191855">
        <ele>55.2</ele>
        <time>2018-01-06T12:06:25Z</time>
      </trkpt>
      <trkpt lat="62.648906919064" lon="17.868604157408">
        <ele>55.2</ele>
        <time>2018-01-06T12:06:26Z</time>
      </trkpt>
      <trkpt lat="62.64892317995" lon="17.868655622274">
        <ele>55</ele>
        <time>2018-01-06T12:06:27Z</time>
      </trkpt>
      <trkpt lat="62.648947236003" lon="17.868725024406">
        <ele>55</ele>
        <time>2018-01-06T12:06:28Z</time>
      </trkpt>
      <trkpt lat="62.648969112762" lon="17.868793253072">
        <ele>54.6</ele>
        <time>2018-01-06T12:06:29Z</time>
      </trkpt>
      <trkpt lat="62.648991408616" lon="17.868861733195">
        <ele>54.4</ele>
        <time>2018-01-06T12:06:30Z</time>
      </trkpt>
      <trkpt lat="62.649019404162" lon="17.868936835019">
        <ele>54.2</ele>
        <time>2018-01-06T12:06:31Z</time>
      </trkpt>
      <trkpt lat="62.649044968957" lon="17.868996095052">
        <ele>54</ele>
        <time>2018-01-06T12:06:32Z</time>
      </trkpt>
      <trkpt lat="62.649072796865" lon="17.869058204931">
        <ele>54</ele>
        <time>2018-01-06T12:06:33Z</time>
      </trkpt>
      <trkpt lat="62.649101882058" lon="17.869121236819">
        <ele>54</ele>
        <time>2018-01-06T12:06:34Z</time>
      </trkpt>
      <trkpt lat="62.649129290871" lon="17.869194159349">
        <ele>54</ele>
        <time>2018-01-06T12:06:35Z</time>
      </trkpt>
      <trkpt lat="62.649155945313" lon="17.869266578965">
        <ele>54</ele>
        <time>2018-01-06T12:06:36Z</time>
      </trkpt>
      <trkpt lat="62.649178408805" lon="17.869330616681">
        <ele>54</ele>
        <time>2018-01-06T12:06:37Z</time>
      </trkpt>
      <trkpt lat="62.6492039736" lon="17.869403371573">
        <ele>54</ele>
        <time>2018-01-06T12:06:38Z</time>
      </trkpt>
      <trkpt lat="62.649230125128" lon="17.869453243878">
        <ele>54</ele>
        <time>2018-01-06T12:06:39Z</time>
      </trkpt>
      <trkpt lat="62.649260216149" lon="17.869522226915">
        <ele>53.8</ele>
        <time>2018-01-06T12:06:40Z</time>
      </trkpt>
      <trkpt lat="62.649292654102" lon="17.869585594079">
        <ele>53.6</ele>
        <time>2018-01-06T12:06:41Z</time>
      </trkpt>
      <trkpt lat="62.649321655476" lon="17.86964837451">
        <ele>53.4</ele>
        <time>2018-01-06T12:06:42Z</time>
      </trkpt>
      <trkpt lat="62.649353841972" lon="17.869719033927">
        <ele>53.2</ele>
        <time>2018-01-06T12:06:43Z</time>
      </trkpt>
      <trkpt lat="62.649388291581" lon="17.869781981996">
        <ele>53</ele>
        <time>2018-01-06T12:06:44Z</time>
      </trkpt>
      <trkpt lat="62.649418634059" lon="17.869843002228">
        <ele>52.8</ele>
        <time>2018-01-06T12:06:45Z</time>
      </trkpt>
      <trkpt lat="62.649450233822" lon="17.869916846767">
        <ele>52.6</ele>
        <time>2018-01-06T12:06:46Z</time>
      </trkpt>
      <trkpt lat="62.649483426146" lon="17.86998532689">
        <ele>52.4</ele>
        <time>2018-01-06T12:06:47Z</time>
      </trkpt>
      <trkpt lat="62.649520893239" lon="17.870063613836">
        <ele>52.2</ele>
        <time>2018-01-06T12:06:48Z</time>
      </trkpt>
      <trkpt lat="62.649557522142" lon="17.870138128927">
        <ele>51.8</ele>
        <time>2018-01-06T12:06:49Z</time>
      </trkpt>
      <trkpt lat="62.649594318683" lon="17.870218846624">
        <ele>51.4</ele>
        <time>2018-01-06T12:06:50Z</time>
      </trkpt>
      <trkpt lat="62.649625750808" lon="17.870291350059">
        <ele>50.8</ele>
        <time>2018-01-06T12:06:51Z</time>
      </trkpt>
      <trkpt lat="62.649655925648" lon="17.870373492679">
        <ele>49.6</ele>
        <time>2018-01-06T12:06:52Z</time>
      </trkpt>
      <trkpt lat="62.649681909538" lon="17.870463598104">
        <ele>48.8</ele>
        <time>2018-01-06T12:06:53Z</time>
      </trkpt>
      <trkpt lat="62.64970102027" lon="17.870537107367">
        <ele>48.4</ele>
        <time>2018-01-06T12:06:54Z</time>
      </trkpt>
      <trkpt lat="62.649724154314" lon="17.870625871688">
        <ele>48</ele>
        <time>2018-01-06T12:06:55Z</time>
      </trkpt>
      <trkpt lat="62.649749048557" lon="17.870705080643">
        <ele>48</ele>
        <time>2018-01-06T12:06:56Z</time>
      </trkpt>
      <trkpt lat="62.649769081298" lon="17.870776913526">
        <ele>48.2</ele>
        <time>2018-01-06T12:06:57Z</time>
      </trkpt>
      <trkpt lat="62.649792885894" lon="17.870860229612">
        <ele>48.2</ele>
        <time>2018-01-06T12:06:58Z</time>
      </trkpt>
      <trkpt lat="62.649814511196" lon="17.870945138259">
        <ele>48.6</ele>
        <time>2018-01-06T12:06:59Z</time>
      </trkpt>
      <trkpt lat="62.649832867557" lon="17.871025269223">
        <ele>48.6</ele>
        <time>2018-01-06T12:07:00Z</time>
      </trkpt>
      <trkpt lat="62.64985273266" lon="17.871107160386">
        <ele>48.6</ele>
        <time>2018-01-06T12:07:01Z</time>
      </trkpt>
      <trkpt lat="62.649867987718" lon="17.871174299405">
        <ele>48.6</ele>
        <time>2018-01-06T12:07:02Z</time>
      </trkpt>
      <trkpt lat="62.649881734034" lon="17.871260884432">
        <ele>48.8</ele>
        <time>2018-01-06T12:07:03Z</time>
      </trkpt>
      <trkpt lat="62.649899336024" lon="17.871346798907">
        <ele>48.8</ele>
        <time>2018-01-06T12:07:04Z</time>
      </trkpt>
      <trkpt lat="62.649914591082" lon="17.871422403645">
        <ele>48.8</ele>
        <time>2018-01-06T12:07:05Z</time>
      </trkpt>
      <trkpt lat="62.649931019606" lon="17.871496415822">
        <ele>48.8</ele>
        <time>2018-01-06T12:07:06Z</time>
      </trkpt>
      <trkpt lat="62.649945101198" lon="17.871562632832">
        <ele>48.8</ele>
        <time>2018-01-06T12:07:07Z</time>
      </trkpt>
      <trkpt lat="62.649958763695" lon="17.87163656119">
        <ele>48.8</ele>
        <time>2018-01-06T12:07:08Z</time>
      </trkpt>
      <trkpt lat="62.649972007097" lon="17.87170696915">
        <ele>48.6</ele>
        <time>2018-01-06T12:07:09Z</time>
      </trkpt>
      <trkpt lat="62.649982233015" lon="17.871758769292">
        <ele>48.4</ele>
        <time>2018-01-06T12:07:10Z</time>
      </trkpt>
      <trkpt lat="62.649996817521" lon="17.871818867515">
        <ele>48.4</ele>
        <time>2018-01-06T12:07:11Z</time>
      </trkpt>
      <trkpt lat="62.650008468362" lon="17.87188047448">
        <ele>48.2</ele>
        <time>2018-01-06T12:07:12Z</time>
      </trkpt>
      <trkpt lat="62.650020873574" lon="17.871940153608">
        <ele>48</ele>
        <time>2018-01-06T12:07:13Z</time>
      </trkpt>
      <trkpt lat="62.650034703709" lon="17.871997066709">
        <ele>48</ele>
        <time>2018-01-06T12:07:14Z</time>
      </trkpt>
      <trkpt lat="62.650042079781" lon="17.872050878507">
        <ele>48.2</ele>
        <time>2018-01-06T12:07:15Z</time>
      </trkpt>
      <trkpt lat="62.650042917971" lon="17.872097146595">
        <ele>48.2</ele>
        <time>2018-01-06T12:07:16Z</time>
      </trkpt>
      <trkpt lat="62.650027746732" lon="17.872131177109">
        <ele>48.2</ele>
        <time>2018-01-06T12:07:17Z</time>
      </trkpt>
      <trkpt lat="62.650010982932" lon="17.872141067751">
        <ele>48.4</ele>
        <time>2018-01-06T12:07:18Z</time>
      </trkpt>
      <trkpt lat="62.649996230788" lon="17.872115083861">
        <ele>48.4</ele>
        <time>2018-01-06T12:07:19Z</time>
      </trkpt>
      <trkpt lat="62.649985250499" lon="17.872073761094">
        <ele>48.4</ele>
        <time>2018-01-06T12:07:20Z</time>
      </trkpt>
      <trkpt lat="62.649975527495" lon="17.872028917929">
        <ele>48.4</ele>
        <time>2018-01-06T12:07:21Z</time>
      </trkpt>
      <trkpt lat="62.649963792835" lon="17.871973681208">
        <ele>48.4</ele>
        <time>2018-01-06T12:07:22Z</time>
      </trkpt>
      <trkpt lat="62.649948453958" lon="17.871914169718">
        <ele>48.4</ele>
        <time>2018-01-06T12:07:23Z</time>
      </trkpt>
      <trkpt lat="62.649938563316" lon="17.871867231078">
        <ele>48.6</ele>
        <time>2018-01-06T12:07:24Z</time>
      </trkpt>
      <trkpt lat="62.649929175588" lon="17.871817274954">
        <ele>48.6</ele>
        <time>2018-01-06T12:07:25Z</time>
      </trkpt>
      <trkpt lat="62.649917943842" lon="17.871765139536">
        <ele>48.4</ele>
        <time>2018-01-06T12:07:26Z</time>
      </trkpt>
      <trkpt lat="62.649907047372" lon="17.871715770145">
        <ele>48.4</ele>
        <time>2018-01-06T12:07:27Z</time>
      </trkpt>
      <trkpt lat="62.649895899445" lon="17.871658018854">
        <ele>48.4</ele>
        <time>2018-01-06T12:07:28Z</time>
      </trkpt>
      <trkpt lat="62.649882236948" lon="17.871604039418">
        <ele>48.4</ele>
        <time>2018-01-06T12:07:29Z</time>
      </trkpt>
      <trkpt lat="62.649868490632" lon="17.871555759674">
        <ele>48.4</ele>
        <time>2018-01-06T12:07:30Z</time>
      </trkpt>
      <trkpt lat="62.649852397384" lon="17.871505468274">
        <ele>48.4</ele>
        <time>2018-01-06T12:07:31Z</time>
      </trkpt>
      <trkpt lat="62.649840075991" lon="17.871461630937">
        <ele>48.2</ele>
        <time>2018-01-06T12:07:32Z</time>
      </trkpt>
      <trkpt lat="62.649825659123" lon="17.871409160243">
        <ele>48.2</ele>
        <time>2018-01-06T12:07:33Z</time>
      </trkpt>
      <trkpt lat="62.649811577531" lon="17.871358198291">
        <ele>48</ele>
        <time>2018-01-06T12:07:34Z</time>
      </trkpt>
      <trkpt lat="62.649797998853" lon="17.871312349298">
        <ele>48</ele>
        <time>2018-01-06T12:07:35Z</time>
      </trkpt>
      <trkpt lat="62.649783246709" lon="17.87125686112">
        <ele>48</ele>
        <time>2018-01-06T12:07:36Z</time>
      </trkpt>
      <trkpt lat="62.649769668031" lon="17.871207156453">
        <ele>48</ele>
        <time>2018-01-06T12:07:37Z</time>
      </trkpt>
      <trkpt lat="62.649757179" lon="17.871163738211">
        <ele>48</ele>
        <time>2018-01-06T12:07:38Z</time>
      </trkpt>
      <trkpt lat="62.649743684141" lon="17.871116380476">
        <ele>48</ele>
        <time>2018-01-06T12:07:39Z</time>
      </trkpt>
      <trkpt lat="62.649728931997" lon="17.871062652497">
        <ele>48.2</ele>
        <time>2018-01-06T12:07:40Z</time>
      </trkpt>
      <trkpt lat="62.649716778242" lon="17.871019569531">
        <ele>48.2</ele>
        <time>2018-01-06T12:07:41Z</time>
      </trkpt>
      <trkpt lat="62.649703870116" lon="17.87097020014">
        <ele>48.2</ele>
        <time>2018-01-06T12:07:42Z</time>
      </trkpt>
      <trkpt lat="62.649688363601" lon="17.870915131057">
        <ele>48.4</ele>
        <time>2018-01-06T12:07:43Z</time>
      </trkpt>
      <trkpt lat="62.649674952561" lon="17.870868276236">
        <ele>48.4</ele>
        <time>2018-01-06T12:07:44Z</time>
      </trkpt>
      <trkpt lat="62.649664810462" lon="17.870827288745">
        <ele>48.4</ele>
        <time>2018-01-06T12:07:45Z</time>
      </trkpt>
      <trkpt lat="62.649652991983" lon="17.87076903454">
        <ele>48.4</ele>
        <time>2018-01-06T12:07:46Z</time>
      </trkpt>
      <trkpt lat="62.649641089685" lon="17.870722598814">
        <ele>48.4</ele>
        <time>2018-01-06T12:07:47Z</time>
      </trkpt>
      <trkpt lat="62.649629271206" lon="17.870685550816">
        <ele>48.4</ele>
        <time>2018-01-06T12:07:48Z</time>
      </trkpt>
      <trkpt lat="62.649615943985" lon="17.87064414423">
        <ele>48.4</ele>
        <time>2018-01-06T12:07:49Z</time>
      </trkpt>
      <trkpt lat="62.64960211385" lon="17.870597792323">
        <ele>48.4</ele>
        <time>2018-01-06T12:07:50Z</time>
      </trkpt>
      <trkpt lat="62.649587361706" lon="17.870561247239">
        <ele>48.6</ele>
        <time>2018-01-06T12:07:51Z</time>
      </trkpt>
      <trkpt lat="62.649572358105" lon="17.870521852309">
        <ele>48.6</ele>
        <time>2018-01-06T12:07:52Z</time>
      </trkpt>
      <trkpt lat="62.649552325364" lon="17.870484133759">
        <ele>48.6</ele>
        <time>2018-01-06T12:07:53Z</time>
      </trkpt>
      <trkpt lat="62.649536399754" lon="17.870454964747">
        <ele>48.6</ele>
        <time>2018-01-06T12:07:54Z</time>
      </trkpt>
      <trkpt lat="62.649522066705" lon="17.87042202388">
        <ele>48.6</ele>
        <time>2018-01-06T12:07:55Z</time>
      </trkpt>
      <trkpt lat="62.649502117783" lon="17.870384892063">
        <ele>48.8</ele>
        <time>2018-01-06T12:07:56Z</time>
      </trkpt>
      <trkpt lat="62.64948560544" lon="17.87035580687">
        <ele>49</ele>
        <time>2018-01-06T12:07:57Z</time>
      </trkpt>
      <trkpt lat="62.649468254907" lon="17.870326218763">
        <ele>49.2</ele>
        <time>2018-01-06T12:07:58Z</time>
      </trkpt>
      <trkpt lat="62.649451910202" lon="17.870298726131">
        <ele>49.4</ele>
        <time>2018-01-06T12:07:59Z</time>
      </trkpt>
      <trkpt lat="62.649435900773" lon="17.870271317318">
        <ele>49.6</ele>
        <time>2018-01-06T12:08:00Z</time>
      </trkpt>
      <trkpt lat="62.649418382602" lon="17.87023929846">
        <ele>49.6</ele>
        <time>2018-01-06T12:08:01Z</time>
      </trkpt>
      <trkpt lat="62.64940094825" lon="17.870211805828">
        <ele>49.8</ele>
        <time>2018-01-06T12:08:02Z</time>
      </trkpt>
      <trkpt lat="62.649382927165" lon="17.870184732291">
        <ele>50</ele>
        <time>2018-01-06T12:08:03Z</time>
      </trkpt>
      <trkpt lat="62.649366163365" lon="17.870156569107">
        <ele>50</ele>
        <time>2018-01-06T12:08:04Z</time>
      </trkpt>
      <trkpt lat="62.649350321574" lon="17.870128489742">
        <ele>50.2</ele>
        <time>2018-01-06T12:08:05Z</time>
      </trkpt>
      <trkpt lat="62.649334647421" lon="17.870104685146">
        <ele>50.4</ele>
        <time>2018-01-06T12:08:06Z</time>
      </trkpt>
      <trkpt lat="62.649320565829" lon="17.870083143663">
        <ele>50.4</ele>
        <time>2018-01-06T12:08:07Z</time>
      </trkpt>
      <trkpt lat="62.649305478409" lon="17.870052968823">
        <ele>50.6</ele>
        <time>2018-01-06T12:08:08Z</time>
      </trkpt>
      <trkpt lat="62.649290977722" lon="17.870022374888">
        <ele>50.6</ele>
        <time>2018-01-06T12:08:09Z</time>
      </trkpt>
      <trkpt lat="62.649276560854" lon="17.869989350202">
        <ele>50.8</ele>
        <time>2018-01-06T12:08:10Z</time>
      </trkpt>
      <trkpt lat="62.649263988004" lon="17.86996185757">
        <ele>50.8</ele>
        <time>2018-01-06T12:08:11Z</time>
      </trkpt>
      <trkpt lat="62.649248481489" lon="17.869931431273">
        <ele>50.8</ele>
        <time>2018-01-06T12:08:12Z</time>
      </trkpt>
      <trkpt lat="62.649231885327" lon="17.869900418243">
        <ele>51</ele>
        <time>2018-01-06T12:08:13Z</time>
      </trkpt>
      <trkpt lat="62.649215875898" lon="17.869869908127">
        <ele>51</ele>
        <time>2018-01-06T12:08:14Z</time>
      </trkpt>
      <trkpt lat="62.649198609184" lon="17.869836464346">
        <ele>51</ele>
        <time>2018-01-06T12:08:15Z</time>
      </trkpt>
      <trkpt lat="62.649180336642" lon="17.869801511823">
        <ele>51.2</ele>
        <time>2018-01-06T12:08:16Z</time>
      </trkpt>
      <trkpt lat="62.649165333041" lon="17.869772594268">
        <ele>51.2</ele>
        <time>2018-01-06T12:08:17Z</time>
      </trkpt>
      <trkpt lat="62.64914781487" lon="17.869732444967">
        <ele>51.4</ele>
        <time>2018-01-06T12:08:18Z</time>
      </trkpt>
      <trkpt lat="62.649132056898" lon="17.869694391141">
        <ele>51.4</ele>
        <time>2018-01-06T12:08:19Z</time>
      </trkpt>
      <trkpt lat="62.649119651686" lon="17.869666898509">
        <ele>51.6</ele>
        <time>2018-01-06T12:08:20Z</time>
      </trkpt>
      <trkpt lat="62.649107078836" lon="17.869630940158">
        <ele>51.8</ele>
        <time>2018-01-06T12:08:21Z</time>
      </trkpt>
      <trkpt lat="62.649091153226" lon="17.869591545228">
        <ele>52.2</ele>
        <time>2018-01-06T12:08:22Z</time>
      </trkpt>
      <trkpt lat="62.649073383598" lon="17.869550054823">
        <ele>52.2</ele>
        <time>2018-01-06T12:08:23Z</time>
      </trkpt>
      <trkpt lat="62.649062151852" lon="17.869518371241">
        <ele>52.4</ele>
        <time>2018-01-06T12:08:24Z</time>
      </trkpt>
      <trkpt lat="62.64905142302" lon="17.869479395406">
        <ele>52.6</ele>
        <time>2018-01-06T12:08:25Z</time>
      </trkpt>
      <trkpt lat="62.64903717379" lon="17.869443688512">
        <ele>52.8</ele>
        <time>2018-01-06T12:08:26Z</time>
      </trkpt>
      <trkpt lat="62.649025774406" lon="17.869417285527">
        <ele>52.6</ele>
        <time>2018-01-06T12:08:27Z</time>
      </trkpt>
      <trkpt lat="62.649012363366" lon="17.869374621656">
        <ele>52.6</ele>
        <time>2018-01-06T12:08:28Z</time>
      </trkpt>
      <trkpt lat="62.648995851023" lon="17.869330029948">
        <ele>52.6</ele>
        <time>2018-01-06T12:08:29Z</time>
      </trkpt>
      <trkpt lat="62.648983110535" lon="17.86930052566">
        <ele>52.8</ele>
        <time>2018-01-06T12:08:30Z</time>
      </trkpt>
      <trkpt lat="62.648969531857" lon="17.869263896757">
        <ele>52.8</ele>
        <time>2018-01-06T12:08:31Z</time>
      </trkpt>
      <trkpt lat="62.648950588763" lon="17.869226262026">
        <ele>52.8</ele>
        <time>2018-01-06T12:08:32Z</time>
      </trkpt>
      <trkpt lat="62.648937093904" lon="17.869190974227">
        <ele>52.8</ele>
        <time>2018-01-06T12:08:33Z</time>
      </trkpt>
      <trkpt lat="62.64892150357" lon="17.869153507134">
        <ele>52.8</ele>
        <time>2018-01-06T12:08:34Z</time>
      </trkpt>
      <trkpt lat="62.648904572132" lon="17.869115956222">
        <ele>53</ele>
        <time>2018-01-06T12:08:35Z</time>
      </trkpt>
      <trkpt lat="62.648890993454" lon="17.86908678721">
        <ele>53</ele>
        <time>2018-01-06T12:08:36Z</time>
      </trkpt>
      <trkpt lat="62.648879091156" lon="17.869058875483">
        <ele>53</ele>
        <time>2018-01-06T12:08:37Z</time>
      </trkpt>
      <trkpt lat="62.648864171374" lon="17.869016798345">
        <ele>53.2</ele>
        <time>2018-01-06T12:08:38Z</time>
      </trkpt>
      <trkpt lat="62.648850005963" lon="17.868975559397">
        <ele>53.4</ele>
        <time>2018-01-06T12:08:39Z</time>
      </trkpt>
      <trkpt lat="62.648838271303" lon="17.868943372901">
        <ele>53.4</ele>
        <time>2018-01-06T12:08:40Z</time>
      </trkpt>
      <trkpt lat="62.648824189711" lon="17.868903055962">
        <ele>53.4</ele>
        <time>2018-01-06T12:08:41Z</time>
      </trkpt>
      <trkpt lat="62.648811281585" lon="17.868864163946">
        <ele>53.6</ele>
        <time>2018-01-06T12:08:42Z</time>
      </trkpt>
      <trkpt lat="62.6488016424" lon="17.868824601378">
        <ele>53.6</ele>
        <time>2018-01-06T12:08:43Z</time>
      </trkpt>
      <trkpt lat="62.648789488645" lon="17.868780428765">
        <ele>53.6</ele>
        <time>2018-01-06T12:08:44Z</time>
      </trkpt>
      <trkpt lat="62.648779095089" lon="17.868745895337">
        <ele>53.8</ele>
        <time>2018-01-06T12:08:45Z</time>
      </trkpt>
      <trkpt lat="62.648767779524" lon="17.868706751864">
        <ele>54</ele>
        <time>2018-01-06T12:08:46Z</time>
      </trkpt>
      <trkpt lat="62.64875470376" lon="17.868658136844">
        <ele>54</ele>
        <time>2018-01-06T12:08:47Z</time>
      </trkpt>
      <trkpt lat="62.648746992412" lon="17.86861237167">
        <ele>54.2</ele>
        <time>2018-01-06T12:08:48Z</time>
      </trkpt>
      <trkpt lat="62.648737856141" lon="17.868566187401">
        <ele>54.2</ele>
        <time>2018-01-06T12:08:49Z</time>
      </trkpt>
      <trkpt lat="62.648724780377" lon="17.86852184715">
        <ele>54.2</ele>
        <time>2018-01-06T12:08:50Z</time>
      </trkpt>
      <trkpt lat="62.648715057373" lon="17.86848161403">
        <ele>54.2</ele>
        <time>2018-01-06T12:08:51Z</time>
      </trkpt>
      <trkpt lat="62.648706004921" lon="17.868435094485">
        <ele>54.4</ele>
        <time>2018-01-06T12:08:52Z</time>
      </trkpt>
      <trkpt lat="62.648695024632" lon="17.868386563284">
        <ele>54.4</ele>
        <time>2018-01-06T12:08:53Z</time>
      </trkpt>
      <trkpt lat="62.648685469266" lon="17.868339624644">
        <ele>54.2</ele>
        <time>2018-01-06T12:08:54Z</time>
      </trkpt>
      <trkpt lat="62.648675243348" lon="17.86829805042">
        <ele>54.2</ele>
        <time>2018-01-06T12:08:55Z</time>
      </trkpt>
      <trkpt lat="62.648664263059" lon="17.868251195599">
        <ele>54.4</ele>
        <time>2018-01-06T12:08:56Z</time>
      </trkpt>
      <trkpt lat="62.648655378245" lon="17.868205598063">
        <ele>54.4</ele>
        <time>2018-01-06T12:08:57Z</time>
      </trkpt>
      <trkpt lat="62.648646409612" lon="17.868163604744">
        <ele>54.4</ele>
        <time>2018-01-06T12:08:58Z</time>
      </trkpt>
      <trkpt lat="62.648637943893" lon="17.86811783957">
        <ele>54.4</ele>
        <time>2018-01-06T12:08:59Z</time>
      </trkpt>
      <trkpt lat="62.648628472346" lon="17.868058914813">
        <ele>54.6</ele>
        <time>2018-01-06T12:09:00Z</time>
      </trkpt>
      <trkpt lat="62.648621347731" lon="17.868011808535">
        <ele>54.6</ele>
        <time>2018-01-06T12:09:01Z</time>
      </trkpt>
      <trkpt lat="62.648614223116" lon="17.867962439144">
        <ele>54.8</ele>
        <time>2018-01-06T12:09:02Z</time>
      </trkpt>
      <trkpt lat="62.648604583931" lon="17.867915165228">
        <ele>54.8</ele>
        <time>2018-01-06T12:09:03Z</time>
      </trkpt>
      <trkpt lat="62.648593687461" lon="17.867870908796">
        <ele>54.8</ele>
        <time>2018-01-06T12:09:04Z</time>
      </trkpt>
      <trkpt lat="62.648581449887" lon="17.86780854746">
        <ele>54.8</ele>
        <time>2018-01-06T12:09:05Z</time>
      </trkpt>
      <trkpt lat="62.648570050503" lon="17.867758172241">
        <ele>54.8</ele>
        <time>2018-01-06T12:09:06Z</time>
      </trkpt>
      <trkpt lat="62.648559740766" lon="17.867715256913">
        <ele>54.8</ele>
        <time>2018-01-06T12:09:07Z</time>
      </trkpt>
      <trkpt lat="62.648548341382" lon="17.867655745423">
        <ele>54.8</ele>
        <time>2018-01-06T12:09:08Z</time>
      </trkpt>
      <trkpt lat="62.648540546215" lon="17.867617943054">
        <ele>54.8</ele>
        <time>2018-01-06T12:09:09Z</time>
      </trkpt>
      <trkpt lat="62.648534846523" lon="17.867572596975">
        <ele>54.8</ele>
        <time>2018-01-06T12:09:10Z</time>
      </trkpt>
      <trkpt lat="62.648527302813" lon="17.867515097141">
        <ele>54.8</ele>
        <time>2018-01-06T12:09:11Z</time>
      </trkpt>
      <trkpt lat="62.648518920913" lon="17.867465224836">
        <ele>54.8</ele>
        <time>2018-01-06T12:09:12Z</time>
      </trkpt>
      <trkpt lat="62.64850911409" lon="17.867405210432">
        <ele>55</ele>
        <time>2018-01-06T12:09:13Z</time>
      </trkpt>
      <trkpt lat="62.648497463249" lon="17.867348967883">
        <ele>55</ele>
        <time>2018-01-06T12:09:14Z</time>
      </trkpt>
      <trkpt lat="62.648488494616" lon="17.86729222242">
        <ele>55</ele>
        <time>2018-01-06T12:09:15Z</time>
      </trkpt>
      <trkpt lat="62.648480196535" lon="17.867240170821">
        <ele>55</ele>
        <time>2018-01-06T12:09:16Z</time>
      </trkpt>
      <trkpt lat="62.648471814635" lon="17.867197004036">
        <ele>55.2</ele>
        <time>2018-01-06T12:09:17Z</time>
      </trkpt>
      <trkpt lat="62.648462343088" lon="17.867144198066">
        <ele>55.2</ele>
        <time>2018-01-06T12:09:18Z</time>
      </trkpt>
      <trkpt lat="62.648454547921" lon="17.867090050992">
        <ele>55.2</ele>
        <time>2018-01-06T12:09:19Z</time>
      </trkpt>
      <trkpt lat="62.648447758582" lon="17.867040011049">
        <ele>55.2</ele>
        <time>2018-01-06T12:09:20Z</time>
      </trkpt>
      <trkpt lat="62.648442310347" lon="17.866997347178">
        <ele>55.2</ele>
        <time>2018-01-06T12:09:21Z</time>
      </trkpt>
      <trkpt lat="62.648437448845" lon="17.86695610823">
        <ele>55.2</ele>
        <time>2018-01-06T12:09:22Z</time>
      </trkpt>
      <trkpt lat="62.648431581515" lon="17.866909840142">
        <ele>55.4</ele>
        <time>2018-01-06T12:09:23Z</time>
      </trkpt>
      <trkpt lat="62.648425211271" lon="17.866865667529">
        <ele>55.4</ele>
        <time>2018-01-06T12:09:24Z</time>
      </trkpt>
      <trkpt lat="62.648419511579" lon="17.866819818536">
        <ele>55.4</ele>
        <time>2018-01-06T12:09:25Z</time>
      </trkpt>
      <trkpt lat="62.648412470783" lon="17.866774137181">
        <ele>55.8</ele>
        <time>2018-01-06T12:09:26Z</time>
      </trkpt>
      <trkpt lat="62.648405681444" lon="17.866738514106">
        <ele>56</ele>
        <time>2018-01-06T12:09:27Z</time>
      </trkpt>
      <trkpt lat="62.6483993112" lon="17.866699705909">
        <ele>56.2</ele>
        <time>2018-01-06T12:09:28Z</time>
      </trkpt>
      <trkpt lat="62.648393611508" lon="17.866667016499">
        <ele>56.4</ele>
        <time>2018-01-06T12:09:29Z</time>
      </trkpt>
      <trkpt lat="62.648387241264" lon="17.866631058148">
        <ele>56.8</ele>
        <time>2018-01-06T12:09:30Z</time>
      </trkpt>
      <trkpt lat="62.648379027002" lon="17.866589903019">
        <ele>57</ele>
        <time>2018-01-06T12:09:31Z</time>
      </trkpt>
      <trkpt lat="62.648370226007" lon="17.866548999347">
        <ele>57.2</ele>
        <time>2018-01-06T12:09:32Z</time>
      </trkpt>
      <trkpt lat="62.648361927926" lon="17.866505329648">
        <ele>57.4</ele>
        <time>2018-01-06T12:09:33Z</time>
      </trkpt>
      <trkpt lat="62.64835321075" lon="17.866463587786">
        <ele>57.6</ele>
        <time>2018-01-06T12:09:34Z</time>
      </trkpt>
      <trkpt lat="62.648347762515" lon="17.866428970539">
        <ele>57.6</ele>
        <time>2018-01-06T12:09:35Z</time>
      </trkpt>
      <trkpt lat="62.648339464434" lon="17.866389910885">
        <ele>57.6</ele>
        <time>2018-01-06T12:09:36Z</time>
      </trkpt>
      <trkpt lat="62.648330411982" lon="17.866351857059">
        <ele>57.8</ele>
        <time>2018-01-06T12:09:37Z</time>
      </trkpt>
      <trkpt lat="62.648321443349" lon="17.866313719414">
        <ele>58</ele>
        <time>2018-01-06T12:09:38Z</time>
      </trkpt>
      <trkpt lat="62.64831130125" lon="17.866285807687">
        <ele>58</ele>
        <time>2018-01-06T12:09:39Z</time>
      </trkpt>
      <trkpt lat="62.648297638753" lon="17.866254040286">
        <ele>58.2</ele>
        <time>2018-01-06T12:09:40Z</time>
      </trkpt>
      <trkpt lat="62.648286909921" lon="17.866227637301">
        <ele>58.2</ele>
        <time>2018-01-06T12:09:41Z</time>
      </trkpt>
      <trkpt lat="62.648278192745" lon="17.86620508999">
        <ele>58.4</ele>
        <time>2018-01-06T12:09:42Z</time>
      </trkpt>
      <trkpt lat="62.648266206628" lon="17.866183967602">
        <ele>58.6</ele>
        <time>2018-01-06T12:09:43Z</time>
      </trkpt>
      <trkpt lat="62.648251286846" lon="17.866162509938">
        <ele>58.6</ele>
        <time>2018-01-06T12:09:44Z</time>
      </trkpt>
      <trkpt lat="62.648234690684" lon="17.866145662319">
        <ele>58.8</ele>
        <time>2018-01-06T12:09:45Z</time>
      </trkpt>
      <trkpt lat="62.6482149094" lon="17.866129485252">
        <ele>59</ele>
        <time>2018-01-06T12:09:46Z</time>
      </trkpt>
      <trkpt lat="62.648199151428" lon="17.866117499135">
        <ele>59.2</ele>
        <time>2018-01-06T12:09:47Z</time>
      </trkpt>
      <trkpt lat="62.648181465619" lon="17.866109703968">
        <ele>59.6</ele>
        <time>2018-01-06T12:09:48Z</time>
      </trkpt>
      <trkpt lat="62.648164869457" lon="17.86610953633">
        <ele>59.8</ele>
        <time>2018-01-06T12:09:49Z</time>
      </trkpt>
      <trkpt lat="62.648149195304" lon="17.866114146375">
        <ele>60</ele>
        <time>2018-01-06T12:09:50Z</time>
      </trkpt>
      <trkpt lat="62.648132934418" lon="17.866121857723">
        <ele>60</ele>
        <time>2018-01-06T12:09:51Z</time>
      </trkpt>
      <trkpt lat="62.648114997152" lon="17.866129401433">
        <ele>60.2</ele>
        <time>2018-01-06T12:09:52Z</time>
      </trkpt>
      <trkpt lat="62.648093790945" lon="17.866139543532">
        <ele>60.2</ele>
        <time>2018-01-06T12:09:53Z</time>
      </trkpt>
      <trkpt lat="62.648078452068" lon="17.866151864925">
        <ele>60.4</ele>
        <time>2018-01-06T12:09:54Z</time>
      </trkpt>
      <trkpt lat="62.648064705752" lon="17.866163599585">
        <ele>60.6</ele>
        <time>2018-01-06T12:09:55Z</time>
      </trkpt>
      <trkpt lat="62.648053054911" lon="17.866172735856">
        <ele>60.8</ele>
        <time>2018-01-06T12:09:56Z</time>
      </trkpt>
      <trkpt lat="62.648042661355" lon="17.866183129412">
        <ele>61</ele>
        <time>2018-01-06T12:09:57Z</time>
      </trkpt>
      <trkpt lat="62.648029753229" lon="17.866197881556">
        <ele>61.2</ele>
        <time>2018-01-06T12:09:58Z</time>
      </trkpt>
      <trkpt lat="62.648017850931" lon="17.866213388071">
        <ele>61.4</ele>
        <time>2018-01-06T12:09:59Z</time>
      </trkpt>
      <trkpt lat="62.64800368552" lon="17.866228307853">
        <ele>61.6</ele>
        <time>2018-01-06T12:10:00Z</time>
      </trkpt>
      <trkpt lat="62.647987089358" lon="17.8662461613">
        <ele>61.8</ele>
        <time>2018-01-06T12:10:01Z</time>
      </trkpt>
      <trkpt lat="62.647972085757" lon="17.866266361679">
        <ele>61.8</ele>
        <time>2018-01-06T12:10:02Z</time>
      </trkpt>
      <trkpt lat="62.647958590898" lon="17.866285723868">
        <ele>62</ele>
        <time>2018-01-06T12:10:03Z</time>
      </trkpt>
      <trkpt lat="62.647945096039" lon="17.86630818736">
        <ele>62</ele>
        <time>2018-01-06T12:10:04Z</time>
      </trkpt>
      <trkpt lat="62.647932607008" lon="17.866330483214">
        <ele>62.2</ele>
        <time>2018-01-06T12:10:05Z</time>
      </trkpt>
      <trkpt lat="62.64791986652" lon="17.866352192335">
        <ele>62.2</ele>
        <time>2018-01-06T12:10:06Z</time>
      </trkpt>
      <trkpt lat="62.647908215679" lon="17.86637272799">
        <ele>62.4</ele>
        <time>2018-01-06T12:10:07Z</time>
      </trkpt>
      <trkpt lat="62.647896061924" lon="17.866396867862">
        <ele>62.4</ele>
        <time>2018-01-06T12:10:08Z</time>
      </trkpt>
      <trkpt lat="62.64788382435" lon="17.866418744621">
        <ele>62.8</ele>
        <time>2018-01-06T12:10:09Z</time>
      </trkpt>
      <trkpt lat="62.647872341147" lon="17.866442633036">
        <ele>63.2</ele>
        <time>2018-01-06T12:10:10Z</time>
      </trkpt>
      <trkpt lat="62.647861696134" lon="17.866465934718">
        <ele>63.6</ele>
        <time>2018-01-06T12:10:11Z</time>
      </trkpt>
      <trkpt lat="62.647853398053" lon="17.866486386554">
        <ele>64</ele>
        <time>2018-01-06T12:10:12Z</time>
      </trkpt>
      <trkpt lat="62.647843339773" lon="17.866506754571">
        <ele>64.4</ele>
        <time>2018-01-06T12:10:13Z</time>
      </trkpt>
      <trkpt lat="62.647832527122" lon="17.86652695495">
        <ele>64.4</ele>
        <time>2018-01-06T12:10:14Z</time>
      </trkpt>
      <trkpt lat="62.647824061403" lon="17.86654455694">
        <ele>64.6</ele>
        <time>2018-01-06T12:10:15Z</time>
      </trkpt>
      <trkpt lat="62.647814338399" lon="17.866564841138">
        <ele>64.8</ele>
        <time>2018-01-06T12:10:16Z</time>
      </trkpt>
      <trkpt lat="62.647802771377" lon="17.866586801716">
        <ele>65</ele>
        <time>2018-01-06T12:10:17Z</time>
      </trkpt>
      <trkpt lat="62.647791539631" lon="17.866611109226">
        <ele>65.2</ele>
        <time>2018-01-06T12:10:18Z</time>
      </trkpt>
      <trkpt lat="62.647781648989" lon="17.866632650709">
        <ele>65.4</ele>
        <time>2018-01-06T12:10:19Z</time>
      </trkpt>
      <trkpt lat="62.647772093623" lon="17.866653354002">
        <ele>65.4</ele>
        <time>2018-01-06T12:10:20Z</time>
      </trkpt>
      <trkpt lat="62.647762454438" lon="17.866674392571">
        <ele>65.6</ele>
        <time>2018-01-06T12:10:21Z</time>
      </trkpt>
      <trkpt lat="62.647754575452" lon="17.866697275158">
        <ele>65.8</ele>
        <time>2018-01-06T12:10:22Z</time>
      </trkpt>
      <trkpt lat="62.647745103905" lon="17.866722756134">
        <ele>66</ele>
        <time>2018-01-06T12:10:23Z</time>
      </trkpt>
      <trkpt lat="62.647737224919" lon="17.866742034504">
        <ele>66.2</ele>
        <time>2018-01-06T12:10:24Z</time>
      </trkpt>
      <trkpt lat="62.647728675381" lon="17.866768437489">
        <ele>66.6</ele>
        <time>2018-01-06T12:10:25Z</time>
      </trkpt>
      <trkpt lat="62.647718281825" lon="17.866801378356">
        <ele>66.8</ele>
        <time>2018-01-06T12:10:26Z</time>
      </trkpt>
      <trkpt lat="62.64771115721" lon="17.866835744146">
        <ele>67</ele>
        <time>2018-01-06T12:10:27Z</time>
      </trkpt>
      <trkpt lat="62.647705541337" lon="17.866875222895">
        <ele>67.2</ele>
        <time>2018-01-06T12:10:28Z</time>
      </trkpt>
      <trkpt lat="62.647696153609" lon="17.866925598114">
        <ele>67.4</ele>
        <time>2018-01-06T12:10:29Z</time>
      </trkpt>
      <trkpt lat="62.64768098237" lon="17.866982762672">
        <ele>67.6</ele>
        <time>2018-01-06T12:10:30Z</time>
      </trkpt>
      <trkpt lat="62.647671594642" lon="17.867033054072">
        <ele>67.8</ele>
        <time>2018-01-06T12:10:31Z</time>
      </trkpt>
      <trkpt lat="62.64766505676" lon="17.867072700459">
        <ele>67.8</ele>
        <time>2018-01-06T12:10:32Z</time>
      </trkpt>
      <trkpt lat="62.647656591041" lon="17.867117711262">
        <ele>67.8</ele>
        <time>2018-01-06T12:10:33Z</time>
      </trkpt>
      <trkpt lat="62.647649801702" lon="17.8671597884">
        <ele>67.8</ele>
        <time>2018-01-06T12:10:34Z</time>
      </trkpt>
      <trkpt lat="62.647643599096" lon="17.867194405647">
        <ele>68</ele>
        <time>2018-01-06T12:10:35Z</time>
      </trkpt>
      <trkpt lat="62.647636055386" lon="17.86723354912">
        <ele>68.2</ele>
        <time>2018-01-06T12:10:36Z</time>
      </trkpt>
      <trkpt lat="62.647629517504" lon="17.867268836919">
        <ele>68.4</ele>
        <time>2018-01-06T12:10:37Z</time>
      </trkpt>
      <trkpt lat="62.647622225251" lon="17.867306304012">
        <ele>68.8</ele>
        <time>2018-01-06T12:10:38Z</time>
      </trkpt>
      <trkpt lat="62.647614094808" lon="17.867340753621">
        <ele>69</ele>
        <time>2018-01-06T12:10:39Z</time>
      </trkpt>
      <trkpt lat="62.647604455623" lon="17.867376292877">
        <ele>69.2</ele>
        <time>2018-01-06T12:10:40Z</time>
      </trkpt>
      <trkpt lat="62.647594816438" lon="17.867411413038">
        <ele>69.4</ele>
        <time>2018-01-06T12:10:41Z</time>
      </trkpt>
      <trkpt lat="62.647584171425" lon="17.867447455208">
        <ele>69.6</ele>
        <time>2018-01-06T12:10:42Z</time>
      </trkpt>
      <trkpt lat="62.647580734846" lon="17.867478384419">
        <ele>69.6</ele>
        <time>2018-01-06T12:10:43Z</time>
      </trkpt>
      <trkpt lat="62.647570760385" lon="17.867525323059">
        <ele>69.8</ele>
        <time>2018-01-06T12:10:44Z</time>
      </trkpt>
      <trkpt lat="62.647563887227" lon="17.867555749356">
        <ele>70</ele>
        <time>2018-01-06T12:10:45Z</time>
      </trkpt>
      <trkpt lat="62.647557349345" lon="17.867591372431">
        <ele>70</ele>
        <time>2018-01-06T12:10:46Z</time>
      </trkpt>
      <trkpt lat="62.647551817291" lon="17.867621882547">
        <ele>70.4</ele>
        <time>2018-01-06T12:10:47Z</time>
      </trkpt>
      <trkpt lat="62.647540837002" lon="17.867653817586">
        <ele>70.6</ele>
        <time>2018-01-06T12:10:48Z</time>
      </trkpt>
      <trkpt lat="62.647531868369" lon="17.867681729313">
        <ele>70.8</ele>
        <time>2018-01-06T12:10:49Z</time>
      </trkpt>
      <trkpt lat="62.647523737926" lon="17.86770880285">
        <ele>71.2</ele>
        <time>2018-01-06T12:10:50Z</time>
      </trkpt>
      <trkpt lat="62.647512589999" lon="17.867739061509">
        <ele>71.6</ele>
        <time>2018-01-06T12:10:51Z</time>
      </trkpt>
      <trkpt lat="62.647497167303" lon="17.867775438955">
        <ele>71.8</ele>
        <time>2018-01-06T12:10:52Z</time>
      </trkpt>
      <trkpt lat="62.647486270833" lon="17.867802512492">
        <ele>72</ele>
        <time>2018-01-06T12:10:53Z</time>
      </trkpt>
      <trkpt lat="62.647467998291" lon="17.867830172762">
        <ele>72.2</ele>
        <time>2018-01-06T12:10:54Z</time>
      </trkpt>
      <trkpt lat="62.647447881731" lon="17.867853977358">
        <ele>72.4</ele>
        <time>2018-01-06T12:10:55Z</time>
      </trkpt>
      <trkpt lat="62.64742784899" lon="17.867868226588">
        <ele>72.6</ele>
        <time>2018-01-06T12:10:56Z</time>
      </trkpt>
      <trkpt lat="62.647408654439" lon="17.867874261556">
        <ele>72.8</ele>
        <time>2018-01-06T12:10:57Z</time>
      </trkpt>
      <trkpt lat="62.64738091035" lon="17.867880967076">
        <ele>73</ele>
        <time>2018-01-06T12:10:58Z</time>
      </trkpt>
      <trkpt lat="62.647351238424" lon="17.867887169682">
        <ele>73</ele>
        <time>2018-01-06T12:10:59Z</time>
      </trkpt>
      <trkpt lat="62.647322991421" lon="17.867886750587">
        <ele>73.2</ele>
        <time>2018-01-06T12:11:00Z</time>
      </trkpt>
      <trkpt lat="62.64729876773" lon="17.867876943764">
        <ele>73.4</ele>
        <time>2018-01-06T12:11:01Z</time>
      </trkpt>
      <trkpt lat="62.64727865117" lon="17.867865292923">
        <ele>73.4</ele>
        <time>2018-01-06T12:11:02Z</time>
      </trkpt>
      <trkpt lat="62.647261468275" lon="17.867846349829">
        <ele>73.6</ele>
        <time>2018-01-06T12:11:03Z</time>
      </trkpt>
      <trkpt lat="62.647242106086" lon="17.86782112031">
        <ele>73.6</ele>
        <time>2018-01-06T12:11:04Z</time>
      </trkpt>
      <trkpt lat="62.647217295662" lon="17.867783234122">
        <ele>73.8</ele>
        <time>2018-01-06T12:11:05Z</time>
      </trkpt>
      <trkpt lat="62.647197430559" lon="17.867745180296">
        <ele>73.8</ele>
        <time>2018-01-06T12:11:06Z</time>
      </trkpt>
      <trkpt lat="62.647180918216" lon="17.867709557221">
        <ele>74</ele>
        <time>2018-01-06T12:11:07Z</time>
      </trkpt>
      <trkpt lat="62.647161053113" lon="17.867669910834">
        <ele>74</ele>
        <time>2018-01-06T12:11:08Z</time>
      </trkpt>
      <trkpt lat="62.647142612933" lon="17.867633533388">
        <ele>74.2</ele>
        <time>2018-01-06T12:11:09Z</time>
      </trkpt>
      <trkpt lat="62.647122161097" lon="17.867594222277">
        <ele>74.4</ele>
        <time>2018-01-06T12:11:10Z</time>
      </trkpt>
      <trkpt lat="62.647098859415" lon="17.867547199818">
        <ele>74.6</ele>
        <time>2018-01-06T12:11:11Z</time>
      </trkpt>
      <trkpt lat="62.647078910493" lon="17.867511660562">
        <ele>74.6</ele>
        <time>2018-01-06T12:11:12Z</time>
      </trkpt>
      <trkpt lat="62.647061224684" lon="17.867467990863">
        <ele>74.8</ele>
        <time>2018-01-06T12:11:13Z</time>
      </trkpt>
      <trkpt lat="62.6470414434" lon="17.867432367788">
        <ele>74.8</ele>
        <time>2018-01-06T12:11:14Z</time>
      </trkpt>
      <trkpt lat="62.647022332668" lon="17.867394733057">
        <ele>75</ele>
        <time>2018-01-06T12:11:15Z</time>
      </trkpt>
      <trkpt lat="62.647005233592" lon="17.867356679231">
        <ele>74.8</ele>
        <time>2018-01-06T12:11:16Z</time>
      </trkpt>
      <trkpt lat="62.646989727077" lon="17.867313596265">
        <ele>75</ele>
        <time>2018-01-06T12:11:17Z</time>
      </trkpt>
      <trkpt lat="62.646971789811" lon="17.867277302638">
        <ele>75</ele>
        <time>2018-01-06T12:11:18Z</time>
      </trkpt>
      <trkpt lat="62.646956953848" lon="17.867238242984">
        <ele>75.2</ele>
        <time>2018-01-06T12:11:19Z</time>
      </trkpt>
      <trkpt lat="62.646939687134" lon="17.867199350968">
        <ele>75.2</ele>
        <time>2018-01-06T12:11:20Z</time>
      </trkpt>
      <trkpt lat="62.646925354085" lon="17.867160458952">
        <ele>75.6</ele>
        <time>2018-01-06T12:11:21Z</time>
      </trkpt>
      <trkpt lat="62.646910099027" lon="17.867113939407">
        <ele>75.6</ele>
        <time>2018-01-06T12:11:22Z</time>
      </trkpt>
      <trkpt lat="62.646891826485" lon="17.867060714342">
        <ele>75.6</ele>
        <time>2018-01-06T12:11:23Z</time>
      </trkpt>
      <trkpt lat="62.646879002178" lon="17.867011344951">
        <ele>75.6</ele>
        <time>2018-01-06T12:11:24Z</time>
      </trkpt>
      <trkpt lat="62.646869195355" lon="17.866961472646">
        <ele>75.6</ele>
        <time>2018-01-06T12:11:25Z</time>
      </trkpt>
      <trkpt lat="62.646860813455" lon="17.866898776034">
        <ele>75.4</ele>
        <time>2018-01-06T12:11:26Z</time>
      </trkpt>
      <trkpt lat="62.646857293057" lon="17.866850328652">
        <ele>75.4</ele>
        <time>2018-01-06T12:11:27Z</time>
      </trkpt>
      <trkpt lat="62.646850922813" lon="17.866783105814">
        <ele>75.4</ele>
        <time>2018-01-06T12:11:28Z</time>
      </trkpt>
      <trkpt lat="62.646850000804" lon="17.866727198541">
        <ele>75.4</ele>
        <time>2018-01-06T12:11:29Z</time>
      </trkpt>
      <trkpt lat="62.646848492062" lon="17.866647067577">
        <ele>75.6</ele>
        <time>2018-01-06T12:11:30Z</time>
      </trkpt>
      <trkpt lat="62.646840864533" lon="17.866580431472">
        <ele>75.6</ele>
        <time>2018-01-06T12:11:31Z</time>
      </trkpt>
      <trkpt lat="62.646836254488" lon="17.866510358788">
        <ele>75.8</ele>
        <time>2018-01-06T12:11:32Z</time>
      </trkpt>
      <trkpt lat="62.646832314995" lon="17.86644313595">
        <ele>75.8</ele>
        <time>2018-01-06T12:11:33Z</time>
      </trkpt>
      <trkpt lat="62.646828459321" lon="17.86637356618">
        <ele>75.8</ele>
        <time>2018-01-06T12:11:34Z</time>
      </trkpt>
      <trkpt lat="62.646825022742" lon="17.86628723261">
        <ele>75.8</ele>
        <time>2018-01-06T12:11:35Z</time>
      </trkpt>
      <trkpt lat="62.646818401041" lon="17.866194947891">
        <ele>75.8</ele>
        <time>2018-01-06T12:11:36Z</time>
      </trkpt>
      <trkpt lat="62.646810270598" lon="17.866136023134">
        <ele>75.6</ele>
        <time>2018-01-06T12:11:37Z</time>
      </trkpt>
      <trkpt lat="62.646802140155" lon="17.866054551066">
        <ele>75.4</ele>
        <time>2018-01-06T12:11:38Z</time>
      </trkpt>
      <trkpt lat="62.646794596445" lon="17.865995458671">
        <ele>75.4</ele>
        <time>2018-01-06T12:11:39Z</time>
      </trkpt>
      <trkpt lat="62.646785879269" lon="17.86592932548">
        <ele>75.2</ele>
        <time>2018-01-06T12:11:40Z</time>
      </trkpt>
      <trkpt lat="62.646772887324" lon="17.865857995511">
        <ele>75</ele>
        <time>2018-01-06T12:11:41Z</time>
      </trkpt>
      <trkpt lat="62.646760314474" lon="17.865805943912">
        <ele>75</ele>
        <time>2018-01-06T12:11:42Z</time>
      </trkpt>
      <trkpt lat="62.646735839326" lon="17.865717431048">
        <ele>74.8</ele>
        <time>2018-01-06T12:11:43Z</time>
      </trkpt>
      <trkpt lat="62.646714968395" lon="17.86564853183">
        <ele>74.6</ele>
        <time>2018-01-06T12:11:44Z</time>
      </trkpt>
      <trkpt lat="62.646699126604" lon="17.865589271797">
        <ele>74.6</ele>
        <time>2018-01-06T12:11:45Z</time>
      </trkpt>
      <trkpt lat="62.646675824922" lon="17.865528251565">
        <ele>74.4</ele>
        <time>2018-01-06T12:11:46Z</time>
      </trkpt>
      <trkpt lat="62.646657217104" lon="17.865476870518">
        <ele>74.4</ele>
        <time>2018-01-06T12:11:47Z</time>
      </trkpt>
      <trkpt lat="62.646638022553" lon="17.865421633797">
        <ele>74.2</ele>
        <time>2018-01-06T12:11:48Z</time>
      </trkpt>
      <trkpt lat="62.646614720871" lon="17.865354997692">
        <ele>74.2</ele>
        <time>2018-01-06T12:11:49Z</time>
      </trkpt>
      <trkpt lat="62.646595442501" lon="17.865305963577">
        <ele>74</ele>
        <time>2018-01-06T12:11:50Z</time>
      </trkpt>
      <trkpt lat="62.64657038062" lon="17.865242261137">
        <ele>74</ele>
        <time>2018-01-06T12:11:51Z</time>
      </trkpt>
      <trkpt lat="62.646543893816" lon="17.865185348036">
        <ele>73.8</ele>
        <time>2018-01-06T12:11:52Z</time>
      </trkpt>
      <trkpt lat="62.646521849419" lon="17.8651397505">
        <ele>73.8</ele>
        <time>2018-01-06T12:11:53Z</time>
      </trkpt>
      <trkpt lat="62.646498883013" lon="17.865093566231">
        <ele>73.8</ele>
        <time>2018-01-06T12:11:54Z</time>
      </trkpt>
      <trkpt lat="62.646477257711" lon="17.865049812713">
        <ele>73.6</ele>
        <time>2018-01-06T12:11:55Z</time>
      </trkpt>
      <trkpt lat="62.646457476427" lon="17.865023158271">
        <ele>73.6</ele>
        <time>2018-01-06T12:11:56Z</time>
      </trkpt>
      <trkpt lat="62.646438533333" lon="17.864992061422">
        <ele>73.8</ele>
        <time>2018-01-06T12:11:57Z</time>
      </trkpt>
      <trkpt lat="62.646409783416" lon="17.864946882981">
        <ele>74</ele>
        <time>2018-01-06T12:11:58Z</time>
      </trkpt>
      <trkpt lat="62.646382961336" lon="17.864914864123">
        <ele>73.8</ele>
        <time>2018-01-06T12:11:59Z</time>
      </trkpt>
      <trkpt lat="62.646356725989" lon="17.864883599636">
        <ele>74</ele>
        <time>2018-01-06T12:12:00Z</time>
      </trkpt>
      <trkpt lat="62.646327473158" lon="17.864844120887">
        <ele>74</ele>
        <time>2018-01-06T12:12:01Z</time>
      </trkpt>
      <trkpt lat="62.646298555603" lon="17.864817214988">
        <ele>73.8</ele>
        <time>2018-01-06T12:12:02Z</time>
      </trkpt>
      <trkpt lat="62.646270895333" lon="17.864791147279">
        <ele>73.8</ele>
        <time>2018-01-06T12:12:03Z</time>
      </trkpt>
      <trkpt lat="62.646244743805" lon="17.864759379878">
        <ele>73.6</ele>
        <time>2018-01-06T12:12:04Z</time>
      </trkpt>
      <trkpt lat="62.646216496802" lon="17.864732557798">
        <ele>73.6</ele>
        <time>2018-01-06T12:12:05Z</time>
      </trkpt>
      <trkpt lat="62.646186154324" lon="17.864731216694">
        <ele>73.6</ele>
        <time>2018-01-06T12:12:06Z</time>
      </trkpt>
      <trkpt lat="62.646156985312" lon="17.864734234178">
        <ele>73.6</ele>
        <time>2018-01-06T12:12:07Z</time>
      </trkpt>
      <trkpt lat="62.64612111078" lon="17.864746890847">
        <ele>73.6</ele>
        <time>2018-01-06T12:12:08Z</time>
      </trkpt>
      <trkpt lat="62.646091187397" lon="17.864771282176">
        <ele>73.6</ele>
        <time>2018-01-06T12:12:09Z</time>
      </trkpt>
      <trkpt lat="62.646062269842" lon="17.864813443133">
        <ele>73.6</ele>
        <time>2018-01-06T12:12:10Z</time>
      </trkpt>
      <trkpt lat="62.646040225445" lon="17.864854682081">
        <ele>73.4</ele>
        <time>2018-01-06T12:12:11Z</time>
      </trkpt>
      <trkpt lat="62.646021282351" lon="17.864905141119">
        <ele>73.4</ele>
        <time>2018-01-06T12:12:12Z</time>
      </trkpt>
      <trkpt lat="62.645998148307" lon="17.864973118328">
        <ele>73.4</ele>
        <time>2018-01-06T12:12:13Z</time>
      </trkpt>
      <trkpt lat="62.645972080598" lon="17.865038245691">
        <ele>73.2</ele>
        <time>2018-01-06T12:12:14Z</time>
      </trkpt>
      <trkpt lat="62.645949617106" lon="17.865090381109">
        <ele>73.2</ele>
        <time>2018-01-06T12:12:15Z</time>
      </trkpt>
      <trkpt lat="62.645909216348" lon="17.86516824896">
        <ele>73</ele>
        <time>2018-01-06T12:12:16Z</time>
      </trkpt>
      <trkpt lat="62.645875940205" lon="17.865234214513">
        <ele>72.6</ele>
        <time>2018-01-06T12:12:17Z</time>
      </trkpt>
      <trkpt lat="62.645837299646" lon="17.865297162582">
        <ele>72.4</ele>
        <time>2018-01-06T12:12:18Z</time>
      </trkpt>
      <trkpt lat="62.645797150345" lon="17.86536270904">
        <ele>72.2</ele>
        <time>2018-01-06T12:12:19Z</time>
      </trkpt>
      <trkpt lat="62.645756079035" lon="17.865433200819">
        <ele>71.8</ele>
        <time>2018-01-06T12:12:20Z</time>
      </trkpt>
      <trkpt lat="62.645715259182" lon="17.865504614607">
        <ele>71.2</ele>
        <time>2018-01-06T12:12:21Z</time>
      </trkpt>
      <trkpt lat="62.645670667474" lon="17.865586589589">
        <ele>70.8</ele>
        <time>2018-01-06T12:12:22Z</time>
      </trkpt>
      <trkpt lat="62.645623477377" lon="17.865675605367">
        <ele>70.2</ele>
        <time>2018-01-06T12:12:23Z</time>
      </trkpt>
      <trkpt lat="62.645578047479" lon="17.865767470991">
        <ele>69.4</ele>
        <time>2018-01-06T12:12:24Z</time>
      </trkpt>
      <trkpt lat="62.645532449943" lon="17.865864281936">
        <ele>68.6</ele>
        <time>2018-01-06T12:12:25Z</time>
      </trkpt>
      <trkpt lat="62.645484421656" lon="17.865970648247">
        <ele>68</ele>
        <time>2018-01-06T12:12:26Z</time>
      </trkpt>
      <trkpt lat="62.645453324807" lon="17.866034853601">
        <ele>67.6</ele>
        <time>2018-01-06T12:12:27Z</time>
      </trkpt>
      <trkpt lat="62.645398507181" lon="17.866143399206">
        <ele>67</ele>
        <time>2018-01-06T12:12:28Z</time>
      </trkpt>
      <trkpt lat="62.645345617392" lon="17.866238449952">
        <ele>66.4</ele>
        <time>2018-01-06T12:12:29Z</time>
      </trkpt>
      <trkpt lat="62.645298343476" lon="17.866321514581">
        <ele>66</ele>
        <time>2018-01-06T12:12:30Z</time>
      </trkpt>
      <trkpt lat="62.645250650465" lon="17.86640793197">
        <ele>65.6</ele>
        <time>2018-01-06T12:12:31Z</time>
      </trkpt>
      <trkpt lat="62.645202622178" lon="17.866495355187">
        <ele>65.2</ele>
        <time>2018-01-06T12:12:32Z</time>
      </trkpt>
      <trkpt lat="62.645157695194" lon="17.866594764521">
        <ele>65</ele>
        <time>2018-01-06T12:12:33Z</time>
      </trkpt>
      <trkpt lat="62.645112181477" lon="17.866707081981">
        <ele>64.6</ele>
        <time>2018-01-06T12:12:34Z</time>
      </trkpt>
      <trkpt lat="62.645072786547" lon="17.86681696869">
        <ele>64.2</ele>
        <time>2018-01-06T12:12:35Z</time>
      </trkpt>
      <trkpt lat="62.645033726893" lon="17.866940098801">
        <ele>63.6</ele>
        <time>2018-01-06T12:12:36Z</time>
      </trkpt>
      <trkpt lat="62.645001456578" lon="17.867058954143">
        <ele>63</ele>
        <time>2018-01-06T12:12:37Z</time>
      </trkpt>
      <trkpt lat="62.644965414408" lon="17.867205637393">
        <ele>62.2</ele>
        <time>2018-01-06T12:12:38Z</time>
      </trkpt>
      <trkpt lat="62.644932222084" lon="17.867338909603">
        <ele>61</ele>
        <time>2018-01-06T12:12:39Z</time>
      </trkpt>
      <trkpt lat="62.644896179914" lon="17.867482826826">
        <ele>59.8</ele>
        <time>2018-01-06T12:12:40Z</time>
      </trkpt>
      <trkpt lat="62.644863406685" lon="17.867610566982">
        <ele>58.6</ele>
        <time>2018-01-06T12:12:41Z</time>
      </trkpt>
      <trkpt lat="62.64483616551" lon="17.867709892497">
        <ele>57</ele>
        <time>2018-01-06T12:12:42Z</time>
      </trkpt>
      <trkpt lat="62.644797776408" lon="17.867844757268">
        <ele>56</ele>
        <time>2018-01-06T12:12:43Z</time>
      </trkpt>
      <trkpt lat="62.64478252135" lon="17.86792924682">
        <ele>54.8</ele>
        <time>2018-01-06T12:12:44Z</time>
      </trkpt>
      <trkpt lat="62.644767266292" lon="17.868014155467">
        <ele>53.8</ele>
        <time>2018-01-06T12:12:45Z</time>
      </trkpt>
      <trkpt lat="62.644752597967" lon="17.868119096855">
        <ele>53.8</ele>
        <time>2018-01-06T12:12:46Z</time>
      </trkpt>
      <trkpt lat="62.644748658474" lon="17.868199563095">
        <ele>54</ele>
        <time>2018-01-06T12:12:47Z</time>
      </trkpt>
      <trkpt lat="62.644757208012" lon="17.868290003796">
        <ele>54</ele>
        <time>2018-01-06T12:12:48Z</time>
      </trkpt>
      <trkpt lat="62.6447448028" lon="17.868383126705">
        <ele>54</ele>
        <time>2018-01-06T12:12:49Z</time>
      </trkpt>
      <trkpt lat="62.644738684013" lon="17.868466610429">
        <ele>54</ele>
        <time>2018-01-06T12:12:50Z</time>
      </trkpt>
      <trkpt lat="62.644726697896" lon="17.868542382805">
        <ele>53.8</ele>
        <time>2018-01-06T12:12:51Z</time>
      </trkpt>
      <trkpt lat="62.644725105335" lon="17.86861907719">
        <ele>53.8</ele>
        <time>2018-01-06T12:12:52Z</time>
      </trkpt>
      <trkpt lat="62.644721165842" lon="17.868689820426">
        <ele>53.4</ele>
        <time>2018-01-06T12:12:53Z</time>
      </trkpt>
      <trkpt lat="62.644714879417" lon="17.868771124856">
        <ele>53.4</ele>
        <time>2018-01-06T12:12:54Z</time>
      </trkpt>
      <trkpt lat="62.644715130874" lon="17.868843544472">
        <ele>53.2</ele>
        <time>2018-01-06T12:12:55Z</time>
      </trkpt>
      <trkpt lat="62.644698115617" lon="17.86892585473">
        <ele>53.2</ele>
        <time>2018-01-06T12:12:56Z</time>
      </trkpt>
      <trkpt lat="62.644705072594" lon="17.868985198582">
        <ele>53.2</ele>
        <time>2018-01-06T12:12:57Z</time>
      </trkpt>
      <trkpt lat="62.644694595219" lon="17.869076477473">
        <ele>53.2</ele>
        <time>2018-01-06T12:12:58Z</time>
      </trkpt>
      <trkpt lat="62.64468529131" lon="17.869158284817">
        <ele>53.2</ele>
        <time>2018-01-06T12:12:59Z</time>
      </trkpt>
      <trkpt lat="62.644684369301" lon="17.869238080505">
        <ele>53.2</ele>
        <time>2018-01-06T12:13:00Z</time>
      </trkpt>
      <trkpt lat="62.644675819763" lon="17.869325084627">
        <ele>53.2</ele>
        <time>2018-01-06T12:13:01Z</time>
      </trkpt>
      <trkpt lat="62.644663582189" lon="17.869409657998">
        <ele>53.2</ele>
        <time>2018-01-06T12:13:02Z</time>
      </trkpt>
      <trkpt lat="62.644653272452" lon="17.869502361812">
        <ele>53</ele>
        <time>2018-01-06T12:13:03Z</time>
      </trkpt>
      <trkpt lat="62.644645561104" lon="17.869590707038">
        <ele>52.8</ele>
        <time>2018-01-06T12:13:04Z</time>
      </trkpt>
      <trkpt lat="62.644634916091" lon="17.869686679793">
        <ele>52.8</ele>
        <time>2018-01-06T12:13:05Z</time>
      </trkpt>
      <trkpt lat="62.644625612182" lon="17.869766810757">
        <ele>52.8</ele>
        <time>2018-01-06T12:13:06Z</time>
      </trkpt>
      <trkpt lat="62.644614380436" lon="17.8698503783">
        <ele>52.4</ele>
        <time>2018-01-06T12:13:07Z</time>
      </trkpt>
      <trkpt lat="62.644602478138" lon="17.869941238096">
        <ele>52.4</ele>
        <time>2018-01-06T12:13:08Z</time>
      </trkpt>
      <trkpt lat="62.644596862265" lon="17.870014831178">
        <ele>52.2</ele>
        <time>2018-01-06T12:13:09Z</time>
      </trkpt>
      <trkpt lat="62.644589318555" lon="17.870112899408">
        <ele>52</ele>
        <time>2018-01-06T12:13:10Z</time>
      </trkpt>
      <trkpt lat="62.644584037958" lon="17.870208117792">
        <ele>51.8</ele>
        <time>2018-01-06T12:13:11Z</time>
      </trkpt>
      <trkpt lat="62.644578924999" lon="17.870276095001">
        <ele>51.6</ele>
        <time>2018-01-06T12:13:12Z</time>
      </trkpt>
      <trkpt lat="62.644566519787" lon="17.870372905946">
        <ele>51.6</ele>
        <time>2018-01-06T12:13:13Z</time>
      </trkpt>
      <trkpt lat="62.644556377688" lon="17.870475919497">
        <ele>51.4</ele>
        <time>2018-01-06T12:13:14Z</time>
      </trkpt>
      <trkpt lat="62.644543721019" lon="17.870581531437">
        <ele>51.2</ele>
        <time>2018-01-06T12:13:15Z</time>
      </trkpt>
      <trkpt lat="62.644528633599" lon="17.870705667376">
        <ele>50.8</ele>
        <time>2018-01-06T12:13:16Z</time>
      </trkpt>
      <trkpt lat="62.64451932969" lon="17.870808764746">
        <ele>50.4</ele>
        <time>2018-01-06T12:13:17Z</time>
      </trkpt>
      <trkpt lat="62.644512959446" lon="17.870922004215">
        <ele>50</ele>
        <time>2018-01-06T12:13:18Z</time>
      </trkpt>
      <trkpt lat="62.644509187591" lon="17.87105234276">
        <ele>49.2</ele>
        <time>2018-01-06T12:13:19Z</time>
      </trkpt>
      <trkpt lat="62.644501560062" lon="17.871162313288">
        <ele>48.6</ele>
        <time>2018-01-06T12:13:20Z</time>
      </trkpt>
      <trkpt lat="62.644493178162" lon="17.871245545555">
        <ele>48</ele>
        <time>2018-01-06T12:13:21Z</time>
      </trkpt>
      <trkpt lat="62.644477755466" lon="17.871352917694">
        <ele>47.8</ele>
        <time>2018-01-06T12:13:22Z</time>
      </trkpt>
      <trkpt lat="62.64446149458" lon="17.871456015064">
        <ele>47.8</ele>
        <time>2018-01-06T12:13:23Z</time>
      </trkpt>
      <trkpt lat="62.644447580626" lon="17.871536565123">
        <ele>47.8</ele>
        <time>2018-01-06T12:13:24Z</time>
      </trkpt>
      <trkpt lat="62.644430397731" lon="17.871625245625">
        <ele>48</ele>
        <time>2018-01-06T12:13:25Z</time>
      </trkpt>
      <trkpt lat="62.644419333623" lon="17.871707723521">
        <ele>48.2</ele>
        <time>2018-01-06T12:13:26Z</time>
      </trkpt>
      <trkpt lat="62.644403072737" lon="17.871777293291">
        <ele>48</ele>
        <time>2018-01-06T12:13:27Z</time>
      </trkpt>
      <trkpt lat="62.644384632557" lon="17.871874355693">
        <ele>48</ele>
        <time>2018-01-06T12:13:28Z</time>
      </trkpt>
      <trkpt lat="62.644371556793" lon="17.871953229372">
        <ele>47.8</ele>
        <time>2018-01-06T12:13:29Z</time>
      </trkpt>
      <trkpt lat="62.64435588264" lon="17.872030342852">
        <ele>47.8</ele>
        <time>2018-01-06T12:13:30Z</time>
      </trkpt>
      <trkpt lat="62.644340208487" lon="17.872111982558">
        <ele>47.6</ele>
        <time>2018-01-06T12:13:31Z</time>
      </trkpt>
      <trkpt lat="62.64433157513" lon="17.872179792129">
        <ele>47.6</ele>
        <time>2018-01-06T12:13:32Z</time>
      </trkpt>
      <trkpt lat="62.644318331728" lon="17.872262186206">
        <ele>47.6</ele>
        <time>2018-01-06T12:13:33Z</time>
      </trkpt>
      <trkpt lat="62.644302992851" lon="17.872347011034">
        <ele>47.4</ele>
        <time>2018-01-06T12:13:34Z</time>
      </trkpt>
      <trkpt lat="62.64428547468" lon="17.872415742614">
        <ele>47.4</ele>
        <time>2018-01-06T12:13:35Z</time>
      </trkpt>
      <trkpt lat="62.644262089179" lon="17.872499226338">
        <ele>47.6</ele>
        <time>2018-01-06T12:13:36Z</time>
      </trkpt>
      <trkpt lat="62.644245995931" lon="17.872570221031">
        <ele>47.6</ele>
        <time>2018-01-06T12:13:37Z</time>
      </trkpt>
      <trkpt lat="62.644221269326" lon="17.872663846854">
        <ele>47.4</ele>
        <time>2018-01-06T12:13:38Z</time>
      </trkpt>
      <trkpt lat="62.644202661508" lon="17.872749258415">
        <ele>47</ele>
        <time>2018-01-06T12:13:39Z</time>
      </trkpt>
      <trkpt lat="62.644186484441" lon="17.872833328872">
        <ele>47</ele>
        <time>2018-01-06T12:13:40Z</time>
      </trkpt>
      <trkpt lat="62.644169385365" lon="17.872927122333">
        <ele>46.6</ele>
        <time>2018-01-06T12:13:41Z</time>
      </trkpt>
      <trkpt lat="62.644158740352" lon="17.873006666564">
        <ele>46.2</ele>
        <time>2018-01-06T12:13:42Z</time>
      </trkpt>
      <trkpt lat="62.644142647104" lon="17.873121750051">
        <ele>45.8</ele>
        <time>2018-01-06T12:13:43Z</time>
      </trkpt>
      <trkpt lat="62.644132337367" lon="17.873228703095">
        <ele>45.6</ele>
        <time>2018-01-06T12:13:44Z</time>
      </trkpt>
      <trkpt lat="62.644117920499" lon="17.873332638655">
        <ele>45</ele>
        <time>2018-01-06T12:13:45Z</time>
      </trkpt>
      <trkpt lat="62.644098139215" lon="17.873447554504">
        <ele>44.4</ele>
        <time>2018-01-06T12:13:46Z</time>
      </trkpt>
      <trkpt lat="62.644076681551" lon="17.873552412073">
        <ele>43.6</ele>
        <time>2018-01-06T12:13:47Z</time>
      </trkpt>
      <trkpt lat="62.644059750113" lon="17.873655425624">
        <ele>43.2</ele>
        <time>2018-01-06T12:13:48Z</time>
      </trkpt>
      <trkpt lat="62.644034185318" lon="17.873767994541">
        <ele>43</ele>
        <time>2018-01-06T12:13:49Z</time>
      </trkpt>
      <trkpt lat="62.644009458713" lon="17.873870002264">
        <ele>42.8</ele>
        <time>2018-01-06T12:13:50Z</time>
      </trkpt>
      <trkpt lat="62.643996969682" lon="17.873945020269">
        <ele>42.8</ele>
        <time>2018-01-06T12:13:51Z</time>
      </trkpt>
      <trkpt lat="62.643979283873" lon="17.874042837042">
        <ele>43</ele>
        <time>2018-01-06T12:13:52Z</time>
      </trkpt>
      <trkpt lat="62.64395774239" lon="17.874148281344">
        <ele>43</ele>
        <time>2018-01-06T12:13:53Z</time>
      </trkpt>
      <trkpt lat="62.643936703821" lon="17.874238722045">
        <ele>43</ele>
        <time>2018-01-06T12:13:54Z</time>
      </trkpt>
      <trkpt lat="62.643910887569" lon="17.874357577387">
        <ele>43</ele>
        <time>2018-01-06T12:13:55Z</time>
      </trkpt>
      <trkpt lat="62.643900158737" lon="17.874446341708">
        <ele>42.8</ele>
        <time>2018-01-06T12:13:56Z</time>
      </trkpt>
      <trkpt lat="62.643881634738" lon="17.874539632255">
        <ele>42.8</ele>
        <time>2018-01-06T12:13:57Z</time>
      </trkpt>
      <trkpt lat="62.643860093255" lon="17.874662343271">
        <ele>42.4</ele>
        <time>2018-01-06T12:13:58Z</time>
      </trkpt>
      <trkpt lat="62.643847520405" lon="17.874748257746">
        <ele>42.2</ele>
        <time>2018-01-06T12:13:59Z</time>
      </trkpt>
      <trkpt lat="62.643834696098" lon="17.87485101984">
        <ele>41.8</ele>
        <time>2018-01-06T12:14:00Z</time>
      </trkpt>
      <trkpt lat="62.643820949782" lon="17.874941041446">
        <ele>41.4</ele>
        <time>2018-01-06T12:14:01Z</time>
      </trkpt>
      <trkpt lat="62.643804521258" lon="17.875025447179">
        <ele>41.4</ele>
        <time>2018-01-06T12:14:02Z</time>
      </trkpt>
      <trkpt lat="62.643784572336" lon="17.87512426978">
        <ele>40.8</ele>
        <time>2018-01-06T12:14:03Z</time>
      </trkpt>
      <trkpt lat="62.643769317278" lon="17.875186714935">
        <ele>40.8</ele>
        <time>2018-01-06T12:14:04Z</time>
      </trkpt>
      <trkpt lat="62.643747608157" lon="17.875291488685">
        <ele>40.6</ele>
        <time>2018-01-06T12:14:05Z</time>
      </trkpt>
      <trkpt lat="62.643728832701" lon="17.875387629078">
        <ele>40.6</ele>
        <time>2018-01-06T12:14:06Z</time>
      </trkpt>
      <trkpt lat="62.643717517136" lon="17.875465161653">
        <ele>40.2</ele>
        <time>2018-01-06T12:14:07Z</time>
      </trkpt>
      <trkpt lat="62.643700334241" lon="17.875565073901">
        <ele>40.4</ele>
        <time>2018-01-06T12:14:08Z</time>
      </trkpt>
      <trkpt lat="62.643685917373" lon="17.875659537914">
        <ele>40.2</ele>
        <time>2018-01-06T12:14:09Z</time>
      </trkpt>
      <trkpt lat="62.643674685627" lon="17.875740423249">
        <ele>40</ele>
        <time>2018-01-06T12:14:10Z</time>
      </trkpt>
      <trkpt lat="62.643658676198" lon="17.875834132891">
        <ele>40</ele>
        <time>2018-01-06T12:14:11Z</time>
      </trkpt>
      <trkpt lat="62.643644678425" lon="17.875908145068">
        <ele>40</ele>
        <time>2018-01-06T12:14:12Z</time>
      </trkpt>
      <trkpt lat="62.643628417539" lon="17.875998669588">
        <ele>40</ele>
        <time>2018-01-06T12:14:13Z</time>
      </trkpt>
      <trkpt lat="62.643613078662" lon="17.876089613203">
        <ele>39.8</ele>
        <time>2018-01-06T12:14:14Z</time>
      </trkpt>
      <trkpt lat="62.643603942391" lon="17.876160188801">
        <ele>39.8</ele>
        <time>2018-01-06T12:14:15Z</time>
      </trkpt>
      <trkpt lat="62.643589860799" lon="17.876251886787">
        <ele>39.6</ele>
        <time>2018-01-06T12:14:16Z</time>
      </trkpt>
      <trkpt lat="62.643568403135" lon="17.876341405479">
        <ele>39.6</ele>
        <time>2018-01-06T12:14:17Z</time>
      </trkpt>
      <trkpt lat="62.643547280747" lon="17.876422374633">
        <ele>39.6</ele>
        <time>2018-01-06T12:14:18Z</time>
      </trkpt>
      <trkpt lat="62.643521213038" lon="17.876504349615">
        <ele>39.6</ele>
        <time>2018-01-06T12:14:19Z</time>
      </trkpt>
      <trkpt lat="62.643484835592" lon="17.87656595658">
        <ele>39.4</ele>
        <time>2018-01-06T12:14:20Z</time>
      </trkpt>
      <trkpt lat="62.643455247485" lon="17.876597137248">
        <ele>39.2</ele>
        <time>2018-01-06T12:14:21Z</time>
      </trkpt>
      <trkpt lat="62.643401854782" lon="17.876638962929">
        <ele>39</ele>
        <time>2018-01-06T12:14:22Z</time>
      </trkpt>
      <trkpt lat="62.643357095436" lon="17.87665983386">
        <ele>38.6</ele>
        <time>2018-01-06T12:14:23Z</time>
      </trkpt>
      <trkpt lat="62.64331904161" lon="17.876674166909">
        <ele>38.6</ele>
        <time>2018-01-06T12:14:24Z</time>
      </trkpt>
      <trkpt lat="62.643268834029" lon="17.876677519669">
        <ele>38.4</ele>
        <time>2018-01-06T12:14:25Z</time>
      </trkpt>
      <trkpt lat="62.643227762719" lon="17.876679615144">
        <ele>38.6</ele>
        <time>2018-01-06T12:14:26Z</time>
      </trkpt>
      <trkpt lat="62.643194402757" lon="17.876678441678">
        <ele>38.6</ele>
        <time>2018-01-06T12:14:27Z</time>
      </trkpt>
      <trkpt lat="62.643147380298" lon="17.87667408309">
        <ele>38.8</ele>
        <time>2018-01-06T12:14:28Z</time>
      </trkpt>
      <trkpt lat="62.643116618725" lon="17.876677268212">
        <ele>38.6</ele>
        <time>2018-01-06T12:14:29Z</time>
      </trkpt>
      <trkpt lat="62.64308099565" lon="17.876670059778">
        <ele>38.4</ele>
        <time>2018-01-06T12:14:30Z</time>
      </trkpt>
      <trkpt lat="62.643043863833" lon="17.876665785009">
        <ele>38.2</ele>
        <time>2018-01-06T12:14:31Z</time>
      </trkpt>
      <trkpt lat="62.643018382857" lon="17.876666707018">
        <ele>38.2</ele>
        <time>2018-01-06T12:14:32Z</time>
      </trkpt>
      <trkpt lat="62.642983933248" lon="17.876653212159">
        <ele>38.4</ele>
        <time>2018-01-06T12:14:33Z</time>
      </trkpt>
      <trkpt lat="62.642945041232" lon="17.876640220214">
        <ele>38.4</ele>
        <time>2018-01-06T12:14:34Z</time>
      </trkpt>
      <trkpt lat="62.642910591623" lon="17.876626138622">
        <ele>38.4</ele>
        <time>2018-01-06T12:14:35Z</time>
      </trkpt>
      <trkpt lat="62.64288234462" lon="17.876616667075">
        <ele>38.4</ele>
        <time>2018-01-06T12:14:36Z</time>
      </trkpt>
      <trkpt lat="62.642858204748" lon="17.876608285175">
        <ele>38.6</ele>
        <time>2018-01-06T12:14:37Z</time>
      </trkpt>
      <trkpt lat="62.642834483971" lon="17.876601495836">
        <ele>38.6</ele>
        <time>2018-01-06T12:14:38Z</time>
      </trkpt>
      <trkpt lat="62.642819145094" lon="17.876595209411">
        <ele>38.6</ele>
        <time>2018-01-06T12:14:39Z</time>
      </trkpt>
      <trkpt lat="62.642804309131" lon="17.876587414244">
        <ele>38.8</ele>
        <time>2018-01-06T12:14:40Z</time>
      </trkpt>
      <trkpt lat="62.642788132064" lon="17.876585151131">
        <ele>39</ele>
        <time>2018-01-06T12:14:41Z</time>
      </trkpt>
      <trkpt lat="62.642772793187" lon="17.876584983493">
        <ele>39.2</ele>
        <time>2018-01-06T12:14:42Z</time>
      </trkpt>
      <trkpt lat="62.642755442654" lon="17.876586995149">
        <ele>39.4</ele>
        <time>2018-01-06T12:14:43Z</time>
      </trkpt>
      <trkpt lat="62.642740941967" lon="17.876589761176">
        <ele>39.6</ele>
        <time>2018-01-06T12:14:44Z</time>
      </trkpt>
      <trkpt lat="62.642729123488" lon="17.876594874135">
        <ele>40</ele>
        <time>2018-01-06T12:14:45Z</time>
      </trkpt>
      <trkpt lat="62.642716885914" lon="17.876599735637">
        <ele>40.6</ele>
        <time>2018-01-06T12:14:46Z</time>
      </trkpt>
      <trkpt lat="62.642700960304" lon="17.876604680958">
        <ele>41</ele>
        <time>2018-01-06T12:14:47Z</time>
      </trkpt>
      <trkpt lat="62.642683358314" lon="17.876611554116">
        <ele>41.2</ele>
        <time>2018-01-06T12:14:48Z</time>
      </trkpt>
      <trkpt lat="62.642665421048" lon="17.876620690387">
        <ele>41.4</ele>
        <time>2018-01-06T12:14:49Z</time>
      </trkpt>
      <trkpt lat="62.642640023891" lon="17.876636280721">
        <ele>41.6</ele>
        <time>2018-01-06T12:14:50Z</time>
      </trkpt>
      <trkpt lat="62.642615381105" lon="17.876651032865">
        <ele>41.6</ele>
        <time>2018-01-06T12:14:51Z</time>
      </trkpt>
      <trkpt lat="62.642599287857" lon="17.876665114457">
        <ele>41.8</ele>
        <time>2018-01-06T12:14:52Z</time>
      </trkpt>
      <trkpt lat="62.642576656727" lon="17.87668665594">
        <ele>42</ele>
        <time>2018-01-06T12:14:53Z</time>
      </trkpt>
      <trkpt lat="62.642556456348" lon="17.876701491903">
        <ele>42</ele>
        <time>2018-01-06T12:14:54Z</time>
      </trkpt>
      <trkpt lat="62.642538351444" lon="17.876714483848">
        <ele>42</ele>
        <time>2018-01-06T12:14:55Z</time>
      </trkpt>
      <trkpt lat="62.642519324531" lon="17.876730996191">
        <ele>42.2</ele>
        <time>2018-01-06T12:14:56Z</time>
      </trkpt>
      <trkpt lat="62.642504069473" lon="17.876746083611">
        <ele>42.2</ele>
        <time>2018-01-06T12:14:57Z</time>
      </trkpt>
      <trkpt lat="62.642482444171" lon="17.876770726397">
        <ele>42.4</ele>
        <time>2018-01-06T12:14:58Z</time>
      </trkpt>
      <trkpt lat="62.642466434742" lon="17.876794447174">
        <ele>42.8</ele>
        <time>2018-01-06T12:14:59Z</time>
      </trkpt>
      <trkpt lat="62.642446653458" lon="17.876818000313">
        <ele>43</ele>
        <time>2018-01-06T12:15:00Z</time>
      </trkpt>
      <trkpt lat="62.642427458907" lon="17.8768408829">
        <ele>43.2</ele>
        <time>2018-01-06T12:15:01Z</time>
      </trkpt>
      <trkpt lat="62.642410778926" lon="17.876869716636">
        <ele>43.4</ele>
        <time>2018-01-06T12:15:02Z</time>
      </trkpt>
      <trkpt lat="62.642394182764" lon="17.876899640019">
        <ele>43.6</ele>
        <time>2018-01-06T12:15:03Z</time>
      </trkpt>
      <trkpt lat="62.64237104872" lon="17.876938196759">
        <ele>43.6</ele>
        <time>2018-01-06T12:15:04Z</time>
      </trkpt>
      <trkpt lat="62.642352105626" lon="17.876973484558">
        <ele>43.8</ele>
        <time>2018-01-06T12:15:05Z</time>
      </trkpt>
      <trkpt lat="62.642339365138" lon="17.877002569751">
        <ele>43.8</ele>
        <time>2018-01-06T12:15:06Z</time>
      </trkpt>
      <trkpt lat="62.642318829483" lon="17.877038611921">
        <ele>43.8</ele>
        <time>2018-01-06T12:15:07Z</time>
      </trkpt>
      <trkpt lat="62.642303742063" lon="17.877077001023">
        <ele>44</ele>
        <time>2018-01-06T12:15:08Z</time>
      </trkpt>
      <trkpt lat="62.642283793141" lon="17.877111115356">
        <ele>44</ele>
        <time>2018-01-06T12:15:09Z</time>
      </trkpt>
      <trkpt lat="62.64225286393" lon="17.877163166955">
        <ele>44.2</ele>
        <time>2018-01-06T12:15:10Z</time>
      </trkpt>
      <trkpt lat="62.642226377126" lon="17.877207088111">
        <ele>44.2</ele>
        <time>2018-01-06T12:15:11Z</time>
      </trkpt>
      <trkpt lat="62.642202656349" lon="17.877251344543">
        <ele>44.2</ele>
        <time>2018-01-06T12:15:12Z</time>
      </trkpt>
      <trkpt lat="62.642169966939" lon="17.877309682567">
        <ele>44.2</ele>
        <time>2018-01-06T12:15:13Z</time>
      </trkpt>
      <trkpt lat="62.642147922542" lon="17.877360476881">
        <ele>44</ele>
        <time>2018-01-06T12:15:14Z</time>
      </trkpt>
      <trkpt lat="62.642121351919" lon="17.877411857928">
        <ele>44</ele>
        <time>2018-01-06T12:15:15Z</time>
      </trkpt>
      <trkpt lat="62.642093021097" lon="17.877465166812">
        <ele>44</ele>
        <time>2018-01-06T12:15:16Z</time>
      </trkpt>
      <trkpt lat="62.642067121026" lon="17.877516128764">
        <ele>43.6</ele>
        <time>2018-01-06T12:15:17Z</time>
      </trkpt>
      <trkpt lat="62.642038119652" lon="17.877577316634">
        <ele>43.2</ele>
        <time>2018-01-06T12:15:18Z</time>
      </trkpt>
      <trkpt lat="62.642009453554" lon="17.87764135435">
        <ele>42.8</ele>
        <time>2018-01-06T12:15:19Z</time>
      </trkpt>
      <trkpt lat="62.641980871275" lon="17.877713690147">
        <ele>42.4</ele>
        <time>2018-01-06T12:15:20Z</time>
      </trkpt>
      <trkpt lat="62.641957066679" lon="17.877776470578">
        <ele>41.8</ele>
        <time>2018-01-06T12:15:21Z</time>
      </trkpt>
      <trkpt lat="62.641926137468" lon="17.877865653994">
        <ele>41.6</ele>
        <time>2018-01-06T12:15:22Z</time>
      </trkpt>
      <trkpt lat="62.641895040619" lon="17.877963806043">
        <ele>41.2</ele>
        <time>2018-01-06T12:15:23Z</time>
      </trkpt>
      <trkpt lat="62.641866039245" lon="17.878064221205">
        <ele>41</ele>
        <time>2018-01-06T12:15:24Z</time>
      </trkpt>
      <trkpt lat="62.641837205509" lon="17.878174359371">
        <ele>40.6</ele>
        <time>2018-01-06T12:15:25Z</time>
      </trkpt>
      <trkpt lat="62.641813149456" lon="17.878291622152">
        <ele>40</ele>
        <time>2018-01-06T12:15:26Z</time>
      </trkpt>
      <trkpt lat="62.641793368172" lon="17.878397150273">
        <ele>39.2</ele>
        <time>2018-01-06T12:15:27Z</time>
      </trkpt>
      <trkpt lat="62.641766797549" lon="17.878548192111">
        <ele>38.4</ele>
        <time>2018-01-06T12:15:28Z</time>
      </trkpt>
      <trkpt lat="62.641747854455" lon="17.878681129045">
        <ele>37.6</ele>
        <time>2018-01-06T12:15:29Z</time>
      </trkpt>
      <trkpt lat="62.641733437587" lon="17.878814736531">
        <ele>36.8</ele>
        <time>2018-01-06T12:15:30Z</time>
      </trkpt>
      <trkpt lat="62.64172564242" lon="17.878946751456">
        <ele>36</ele>
        <time>2018-01-06T12:15:31Z</time>
      </trkpt>
      <trkpt lat="62.64172145147" lon="17.879068959558">
        <ele>35.4</ele>
        <time>2018-01-06T12:15:32Z</time>
      </trkpt>
      <trkpt lat="62.641720780918" lon="17.879203824329">
        <ele>34.8</ele>
        <time>2018-01-06T12:15:33Z</time>
      </trkpt>
      <trkpt lat="62.641726229153" lon="17.879356542547">
        <ele>34.6</ele>
        <time>2018-01-06T12:15:34Z</time>
      </trkpt>
      <trkpt lat="62.641737041804" lon="17.879500795046">
        <ele>34.2</ele>
        <time>2018-01-06T12:15:35Z</time>
      </trkpt>
      <trkpt lat="62.641748525007" lon="17.879638928758">
        <ele>33.4</ele>
        <time>2018-01-06T12:15:36Z</time>
      </trkpt>
      <trkpt lat="62.641759253839" lon="17.879766836552">
        <ele>32.8</ele>
        <time>2018-01-06T12:15:37Z</time>
      </trkpt>
      <trkpt lat="62.641768641567" lon="17.879893235604">
        <ele>32.4</ele>
        <time>2018-01-06T12:15:38Z</time>
      </trkpt>
      <trkpt lat="62.641773586888" lon="17.880015527525">
        <ele>32</ele>
        <time>2018-01-06T12:15:39Z</time>
      </trkpt>
      <trkpt lat="62.641783393711" lon="17.880126168605">
        <ele>32.2</ele>
        <time>2018-01-06T12:15:40Z</time>
      </trkpt>
      <trkpt lat="62.641785237729" lon="17.880252735295">
        <ele>32.2</ele>
        <time>2018-01-06T12:15:41Z</time>
      </trkpt>
      <trkpt lat="62.641776855829" lon="17.880368237877">
        <ele>32.2</ele>
        <time>2018-01-06T12:15:42Z</time>
      </trkpt>
      <trkpt lat="62.641765204988" lon="17.880511987462">
        <ele>32</ele>
        <time>2018-01-06T12:15:43Z</time>
      </trkpt>
      <trkpt lat="62.641748357369" lon="17.880631597175">
        <ele>32</ele>
        <time>2018-01-06T12:15:44Z</time>
      </trkpt>
      <trkpt lat="62.641732012664" lon="17.880742992626">
        <ele>31.4</ele>
        <time>2018-01-06T12:15:45Z</time>
      </trkpt>
      <trkpt lat="62.641724971868" lon="17.880833098051">
        <ele>31</ele>
        <time>2018-01-06T12:15:46Z</time>
      </trkpt>
      <trkpt lat="62.641712482837" lon="17.880911887911">
        <ele>31</ele>
        <time>2018-01-06T12:15:47Z</time>
      </trkpt>
      <trkpt lat="62.64169965853" lon="17.880990174857">
        <ele>30.6</ele>
        <time>2018-01-06T12:15:48Z</time>
      </trkpt>
      <trkpt lat="62.641686918042" lon="17.881058990256">
        <ele>31</ele>
        <time>2018-01-06T12:15:49Z</time>
      </trkpt>
      <trkpt lat="62.641679877246" lon="17.881110455122">
        <ele>31.4</ele>
        <time>2018-01-06T12:15:50Z</time>
      </trkpt>
      <trkpt lat="62.641664957464" lon="17.881179438159">
        <ele>31.8</ele>
        <time>2018-01-06T12:15:51Z</time>
      </trkpt>
      <trkpt lat="62.641656743202" lon="17.881252360689">
        <ele>31.6</ele>
        <time>2018-01-06T12:15:52Z</time>
      </trkpt>
      <trkpt lat="62.641645427637" lon="17.881362247398">
        <ele>31.8</ele>
        <time>2018-01-06T12:15:53Z</time>
      </trkpt>
      <trkpt lat="62.641639392669" lon="17.881475654505">
        <ele>31.4</ele>
        <time>2018-01-06T12:15:54Z</time>
      </trkpt>
      <trkpt lat="62.641629669665" lon="17.881572549269">
        <ele>31</ele>
        <time>2018-01-06T12:15:55Z</time>
      </trkpt>
      <trkpt lat="62.641614498426" lon="17.881661397409">
        <ele>30.2</ele>
        <time>2018-01-06T12:15:56Z</time>
      </trkpt>
      <trkpt lat="62.641598740454" lon="17.881722166184">
        <ele>30</ele>
        <time>2018-01-06T12:15:57Z</time>
      </trkpt>
      <trkpt lat="62.641564793759" lon="17.881789808117">
        <ele>30</ele>
        <time>2018-01-06T12:15:58Z</time>
      </trkpt>
      <trkpt lat="62.641527494304" lon="17.881825515011">
        <ele>30</ele>
        <time>2018-01-06T12:15:59Z</time>
      </trkpt>
      <trkpt lat="62.641493799066" lon="17.881852923824">
        <ele>30.4</ele>
        <time>2018-01-06T12:16:00Z</time>
      </trkpt>
      <trkpt lat="62.641460942018" lon="17.881861724819">
        <ele>30.6</ele>
        <time>2018-01-06T12:16:01Z</time>
      </trkpt>
      <trkpt lat="62.641429174617" lon="17.881870358176">
        <ele>30.6</ele>
        <time>2018-01-06T12:16:02Z</time>
      </trkpt>
      <trkpt lat="62.641398245406" lon="17.881878991533">
        <ele>30.8</ele>
        <time>2018-01-06T12:16:03Z</time>
      </trkpt>
      <trkpt lat="62.64136773529" lon="17.881897766989">
        <ele>30.8</ele>
        <time>2018-01-06T12:16:04Z</time>
      </trkpt>
      <trkpt lat="62.641339404468" lon="17.881911680943">
        <ele>30.8</ele>
        <time>2018-01-06T12:16:05Z</time>
      </trkpt>
      <trkpt lat="62.641309229628" lon="17.881926684544">
        <ele>31</ele>
        <time>2018-01-06T12:16:06Z</time>
      </trkpt>
      <trkpt lat="62.641280395892" lon="17.881944705629">
        <ele>31</ele>
        <time>2018-01-06T12:16:07Z</time>
      </trkpt>
      <trkpt lat="62.64125206507" lon="17.881965325103">
        <ele>31.2</ele>
        <time>2018-01-06T12:16:08Z</time>
      </trkpt>
      <trkpt lat="62.64122524299" lon="17.881985190206">
        <ele>31.4</ele>
        <time>2018-01-06T12:16:09Z</time>
      </trkpt>
      <trkpt lat="62.641197834177" lon="17.882014694494">
        <ele>31.6</ele>
        <time>2018-01-06T12:16:10Z</time>
      </trkpt>
      <trkpt lat="62.641159780351" lon="17.882062219867">
        <ele>31.8</ele>
        <time>2018-01-06T12:16:11Z</time>
      </trkpt>
      <trkpt lat="62.641128348226" lon="17.882126592859">
        <ele>31.6</ele>
        <time>2018-01-06T12:16:12Z</time>
      </trkpt>
      <trkpt lat="62.641093060427" lon="17.882220302501">
        <ele>31</ele>
        <time>2018-01-06T12:16:13Z</time>
      </trkpt>
      <trkpt lat="62.641066070709" lon="17.882305378786">
        <ele>30.4</ele>
        <time>2018-01-06T12:16:14Z</time>
      </trkpt>
      <trkpt lat="62.641035309136" lon="17.882406380681">
        <ele>29.6</ele>
        <time>2018-01-06T12:16:15Z</time>
      </trkpt>
      <trkpt lat="62.641018964431" lon="17.882514758648">
        <ele>28.6</ele>
        <time>2018-01-06T12:16:16Z</time>
      </trkpt>
      <trkpt lat="62.640997087672" lon="17.882643169356">
        <ele>27.6</ele>
        <time>2018-01-06T12:16:17Z</time>
      </trkpt>
      <trkpt lat="62.640987867582" lon="17.882768059666">
        <ele>27</ele>
        <time>2018-01-06T12:16:18Z</time>
      </trkpt>
      <trkpt lat="62.640976635836" lon="17.882869480656">
        <ele>26.6</ele>
        <time>2018-01-06T12:16:19Z</time>
      </trkpt>
      <trkpt lat="62.640966493737" lon="17.882968973809">
        <ele>26.6</ele>
        <time>2018-01-06T12:16:20Z</time>
      </trkpt>
      <trkpt lat="62.640957776561" lon="17.883044662366">
        <ele>26.8</ele>
        <time>2018-01-06T12:16:21Z</time>
      </trkpt>
      <trkpt lat="62.640950568127" lon="17.883122865493">
        <ele>26.8</ele>
        <time>2018-01-06T12:16:22Z</time>
      </trkpt>
      <trkpt lat="62.640941431856" lon="17.8832111269">
        <ele>26.6</ele>
        <time>2018-01-06T12:16:23Z</time>
      </trkpt>
      <trkpt lat="62.640933636689" lon="17.883308105483">
        <ele>26.2</ele>
        <time>2018-01-06T12:16:24Z</time>
      </trkpt>
      <trkpt lat="62.640933301413" lon="17.883415812898">
        <ele>25.8</ele>
        <time>2018-01-06T12:16:25Z</time>
      </trkpt>
      <trkpt lat="62.640948891747" lon="17.883523687951">
        <ele>25.4</ele>
        <time>2018-01-06T12:16:26Z</time>
      </trkpt>
      <trkpt lat="62.640965907004" lon="17.883620666534">
        <ele>25</ele>
        <time>2018-01-06T12:16:27Z</time>
      </trkpt>
      <trkpt lat="62.640989543962" lon="17.883736252935">
        <ele>24.6</ele>
        <time>2018-01-06T12:16:28Z</time>
      </trkpt>
      <trkpt lat="62.641010750169" lon="17.883828453835">
        <ele>24.4</ele>
        <time>2018-01-06T12:16:29Z</time>
      </trkpt>
      <trkpt lat="62.641037236973" lon="17.883919984183">
        <ele>24</ele>
        <time>2018-01-06T12:16:30Z</time>
      </trkpt>
      <trkpt lat="62.641067411813" lon="17.884023416829">
        <ele>23.6</ele>
        <time>2018-01-06T12:16:31Z</time>
      </trkpt>
      <trkpt lat="62.641094401531" lon="17.884122909982">
        <ele>23.2</ele>
        <time>2018-01-06T12:16:32Z</time>
      </trkpt>
      <trkpt lat="62.641119463412" lon="17.884224582429">
        <ele>22.8</ele>
        <time>2018-01-06T12:16:33Z</time>
      </trkpt>
      <trkpt lat="62.641146285492" lon="17.884327679799">
        <ele>22.2</ele>
        <time>2018-01-06T12:16:34Z</time>
      </trkpt>
      <trkpt lat="62.641173945762" lon="17.884428430237">
        <ele>21.6</ele>
        <time>2018-01-06T12:16:35Z</time>
      </trkpt>
      <trkpt lat="62.641202863317" lon="17.884503867337">
        <ele>21.4</ele>
        <time>2018-01-06T12:16:36Z</time>
      </trkpt>
      <trkpt lat="62.641235217451" lon="17.884575197306">
        <ele>20.8</ele>
        <time>2018-01-06T12:16:37Z</time>
      </trkpt>
      <trkpt lat="62.641277797503" lon="17.884658094297">
        <ele>20.4</ele>
        <time>2018-01-06T12:16:38Z</time>
      </trkpt>
      <trkpt lat="62.641312079474" lon="17.884719533624">
        <ele>20.2</ele>
        <time>2018-01-06T12:16:39Z</time>
      </trkpt>
      <trkpt lat="62.641355246259" lon="17.884795138362">
        <ele>19.6</ele>
        <time>2018-01-06T12:16:40Z</time>
      </trkpt>
      <trkpt lat="62.641400005605" lon="17.884871497471">
        <ele>19.2</ele>
        <time>2018-01-06T12:16:41Z</time>
      </trkpt>
      <trkpt lat="62.641433868481" lon="17.884930589866">
        <ele>18.6</ele>
        <time>2018-01-06T12:16:42Z</time>
      </trkpt>
      <trkpt lat="62.641476113257" lon="17.885006362242">
        <ele>18.2</ele>
        <time>2018-01-06T12:16:43Z</time>
      </trkpt>
      <trkpt lat="62.641514753816" lon="17.885078865677">
        <ele>18</ele>
        <time>2018-01-06T12:16:44Z</time>
      </trkpt>
      <trkpt lat="62.641551382719" lon="17.885145250325">
        <ele>17.4</ele>
        <time>2018-01-06T12:16:45Z</time>
      </trkpt>
      <trkpt lat="62.641596309703" lon="17.88522948842">
        <ele>17</ele>
        <time>2018-01-06T12:16:46Z</time>
      </trkpt>
      <trkpt lat="62.641637381013" lon="17.88530408733">
        <ele>16.8</ele>
        <time>2018-01-06T12:16:47Z</time>
      </trkpt>
      <trkpt lat="62.641686498947" lon="17.885394779488">
        <ele>16.2</ele>
        <time>2018-01-06T12:16:48Z</time>
      </trkpt>
      <trkpt lat="62.64173150975" lon="17.885475832461">
        <ele>15.6</ele>
        <time>2018-01-06T12:16:49Z</time>
      </trkpt>
      <trkpt lat="62.641778113114" lon="17.885560405832">
        <ele>15</ele>
        <time>2018-01-06T12:16:50Z</time>
      </trkpt>
      <trkpt lat="62.641819771157" lon="17.885635842932">
        <ele>14.6</ele>
        <time>2018-01-06T12:16:51Z</time>
      </trkpt>
      <trkpt lat="62.6418614292" lon="17.885714297516">
        <ele>14.2</ele>
        <time>2018-01-06T12:16:52Z</time>
      </trkpt>
      <trkpt lat="62.641896884637" lon="17.88578520839">
        <ele>13.8</ele>
        <time>2018-01-06T12:16:53Z</time>
      </trkpt>
      <trkpt lat="62.6419368663" lon="17.885851341581">
        <ele>13.4</ele>
        <time>2018-01-06T12:16:54Z</time>
      </trkpt>
      <trkpt lat="62.641963185466" lon="17.885881264964">
        <ele>12.8</ele>
        <time>2018-01-06T12:16:55Z</time>
      </trkpt>
      <trkpt lat="62.641995204324" lon="17.885922336274">
        <ele>13.2</ele>
        <time>2018-01-06T12:16:56Z</time>
      </trkpt>
      <trkpt lat="62.642018086911" lon="17.885951253829">
        <ele>13.4</ele>
        <time>2018-01-06T12:16:57Z</time>
      </trkpt>
      <trkpt lat="62.642047926475" lon="17.885999198297">
        <ele>13.8</ele>
        <time>2018-01-06T12:16:58Z</time>
      </trkpt>
      <trkpt lat="62.642075922021" lon="17.886044376738">
        <ele>14.2</ele>
        <time>2018-01-06T12:16:59Z</time>
      </trkpt>
      <trkpt lat="62.64209863697" lon="17.886072204646">
        <ele>14.6</ele>
        <time>2018-01-06T12:17:00Z</time>
      </trkpt>
      <trkpt lat="62.642126883973" lon="17.886127273729">
        <ele>14.2</ele>
        <time>2018-01-06T12:17:01Z</time>
      </trkpt>
      <trkpt lat="62.642153706053" lon="17.886185192658">
        <ele>14</ele>
        <time>2018-01-06T12:17:02Z</time>
      </trkpt>
      <trkpt lat="62.642186395463" lon="17.88624788927">
        <ele>13.8</ele>
        <time>2018-01-06T12:17:03Z</time>
      </trkpt>
      <trkpt lat="62.642221599443" lon="17.88632667913">
        <ele>13.6</ele>
        <time>2018-01-06T12:17:04Z</time>
      </trkpt>
      <trkpt lat="62.64226040764" lon="17.88641804184">
        <ele>13.4</ele>
        <time>2018-01-06T12:17:05Z</time>
      </trkpt>
      <trkpt lat="62.642294689611" lon="17.886508985455">
        <ele>13</ele>
        <time>2018-01-06T12:17:06Z</time>
      </trkpt>
      <trkpt lat="62.642323104252" lon="17.886605293486">
        <ele>12.8</ele>
        <time>2018-01-06T12:17:07Z</time>
      </trkpt>
      <trkpt lat="62.642351351255" lon="17.886705960105">
        <ele>12.4</ele>
        <time>2018-01-06T12:17:08Z</time>
      </trkpt>
      <trkpt lat="62.642372054548" lon="17.886797490453">
        <ele>12</ele>
        <time>2018-01-06T12:17:09Z</time>
      </trkpt>
      <trkpt lat="62.642388315434" lon="17.886903856764">
        <ele>11.6</ele>
        <time>2018-01-06T12:17:10Z</time>
      </trkpt>
      <trkpt lat="62.64239032709" lon="17.887004942478">
        <ele>11.2</ele>
        <time>2018-01-06T12:17:11Z</time>
      </trkpt>
      <trkpt lat="62.642378340973" lon="17.887097227197">
        <ele>10.8</ele>
        <time>2018-01-06T12:17:12Z</time>
      </trkpt>
      <trkpt lat="62.642353782006" lon="17.887180208007">
        <ele>10.6</ele>
        <time>2018-01-06T12:17:13Z</time>
      </trkpt>
      <trkpt lat="62.64232494827" lon="17.8872428208">
        <ele>10</ele>
        <time>2018-01-06T12:17:14Z</time>
      </trkpt>
      <trkpt lat="62.642297204181" lon="17.887297386969">
        <ele>9.4</ele>
        <time>2018-01-06T12:17:15Z</time>
      </trkpt>
      <trkpt lat="62.642263592762" lon="17.887361759961">
        <ele>8.8</ele>
        <time>2018-01-06T12:17:16Z</time>
      </trkpt>
      <trkpt lat="62.642229310791" lon="17.887420265623">
        <ele>8.2</ele>
        <time>2018-01-06T12:17:17Z</time>
      </trkpt>
      <trkpt lat="62.642186563101" lon="17.887483884244">
        <ele>7.6</ele>
        <time>2018-01-06T12:17:18Z</time>
      </trkpt>
      <trkpt lat="62.642148257818" lon="17.887532666902">
        <ele>7.4</ele>
        <time>2018-01-06T12:17:19Z</time>
      </trkpt>
      <trkpt lat="62.642103163196" lon="17.887581281922">
        <ele>6.8</ele>
        <time>2018-01-06T12:17:20Z</time>
      </trkpt>
      <trkpt lat="62.642071563433" lon="17.88762252087">
        <ele>6.2</ele>
        <time>2018-01-06T12:17:21Z</time>
      </trkpt>
      <trkpt lat="62.642043903163" lon="17.887668705139">
        <ele>6</ele>
        <time>2018-01-06T12:17:22Z</time>
      </trkpt>
      <trkpt lat="62.64202822901" lon="17.887713296847">
        <ele>5.6</ele>
        <time>2018-01-06T12:17:23Z</time>
      </trkpt>
      <trkpt lat="62.642001323111" lon="17.887778675667">
        <ele>5.4</ele>
        <time>2018-01-06T12:17:24Z</time>
      </trkpt>
      <trkpt lat="62.641985732777" lon="17.88783458294">
        <ele>5.4</ele>
        <time>2018-01-06T12:17:25Z</time>
      </trkpt>
      <trkpt lat="62.641960167982" lon="17.887892250412">
        <ele>5.4</ele>
        <time>2018-01-06T12:17:26Z</time>
      </trkpt>
      <trkpt lat="62.641941727802" lon="17.887947403314">
        <ele>5.4</ele>
        <time>2018-01-06T12:17:27Z</time>
      </trkpt>
      <trkpt lat="62.641908954573" lon="17.88801060284">
        <ele>5.2</ele>
        <time>2018-01-06T12:17:28Z</time>
      </trkpt>
      <trkpt lat="62.641883976511" lon="17.888075646384">
        <ele>5.2</ele>
        <time>2018-01-06T12:17:29Z</time>
      </trkpt>
      <trkpt lat="62.641860339553" lon="17.88813633134">
        <ele>5</ele>
        <time>2018-01-06T12:17:30Z</time>
      </trkpt>
      <trkpt lat="62.641843072839" lon="17.888192070975">
        <ele>4.8</ele>
        <time>2018-01-06T12:17:31Z</time>
      </trkpt>
      <trkpt lat="62.641825554668" lon="17.888252420655">
        <ele>4.8</ele>
        <time>2018-01-06T12:17:32Z</time>
      </trkpt>
      <trkpt lat="62.641808455592" lon="17.888315033448">
        <ele>4.8</ele>
        <time>2018-01-06T12:17:33Z</time>
      </trkpt>
      <trkpt lat="62.641790937421" lon="17.888379322621">
        <ele>4.8</ele>
        <time>2018-01-06T12:17:34Z</time>
      </trkpt>
      <trkpt lat="62.641774592716" lon="17.888461381422">
        <ele>4.6</ele>
        <time>2018-01-06T12:17:35Z</time>
      </trkpt>
      <trkpt lat="62.641756236355" lon="17.88854620625">
        <ele>4.6</ele>
        <time>2018-01-06T12:17:36Z</time>
      </trkpt>
      <trkpt lat="62.641736706528" lon="17.888617955314">
        <ele>4.6</ele>
        <time>2018-01-06T12:17:37Z</time>
      </trkpt>
      <trkpt lat="62.64172312785" lon="17.888679562279">
        <ele>4.4</ele>
        <time>2018-01-06T12:17:38Z</time>
      </trkpt>
      <trkpt lat="62.641714494493" lon="17.88872054977">
        <ele>4.2</ele>
        <time>2018-01-06T12:17:39Z</time>
      </trkpt>
      <trkpt lat="62.64170636405" lon="17.888758771234">
        <ele>4.2</ele>
        <time>2018-01-06T12:17:40Z</time>
      </trkpt>
      <trkpt lat="62.641695970494" lon="17.888795316318">
        <ele>4.2</ele>
        <time>2018-01-06T12:17:41Z</time>
      </trkpt>
      <trkpt lat="62.641687504775" lon="17.888831945221">
        <ele>4.2</ele>
        <time>2018-01-06T12:17:42Z</time>
      </trkpt>
      <trkpt lat="62.641678619961" lon="17.888870166685">
        <ele>4.6</ele>
        <time>2018-01-06T12:17:43Z</time>
      </trkpt>
      <trkpt lat="62.641679039056" lon="17.888895815299">
        <ele>4.8</ele>
        <time>2018-01-06T12:17:44Z</time>
      </trkpt>
      <trkpt lat="62.641677781771" lon="17.888933030935">
        <ele>5.2</ele>
        <time>2018-01-06T12:17:45Z</time>
      </trkpt>
      <trkpt lat="62.641674261373" lon="17.888969073105">
        <ele>5.6</ele>
        <time>2018-01-06T12:17:46Z</time>
      </trkpt>
      <trkpt lat="62.64167116007" lon="17.888991452778">
        <ele>6</ele>
        <time>2018-01-06T12:17:47Z</time>
      </trkpt>
      <trkpt lat="62.641666550025" lon="17.889015676469">
        <ele>6.4</ele>
        <time>2018-01-06T12:17:48Z</time>
      </trkpt>
      <trkpt lat="62.641661185609" lon="17.8890365474">
        <ele>6.4</ele>
        <time>2018-01-06T12:17:49Z</time>
      </trkpt>
      <trkpt lat="62.641655150641" lon="17.88906336948">
        <ele>6.8</ele>
        <time>2018-01-06T12:17:50Z</time>
      </trkpt>
      <trkpt lat="62.641650456777" lon="17.889084910963">
        <ele>6.8</ele>
        <time>2018-01-06T12:17:51Z</time>
      </trkpt>
      <trkpt lat="62.641646684922" lon="17.889103351143">
        <ele>7</ele>
        <time>2018-01-06T12:17:52Z</time>
      </trkpt>
      <trkpt lat="62.641641404325" lon="17.889130089404">
        <ele>7.2</ele>
        <time>2018-01-06T12:17:53Z</time>
      </trkpt>
      <trkpt lat="62.641637297194" lon="17.889154313095">
        <ele>7.4</ele>
        <time>2018-01-06T12:17:54Z</time>
      </trkpt>
      <trkpt lat="62.641632016597" lon="17.889177782415">
        <ele>7.4</ele>
        <time>2018-01-06T12:17:55Z</time>
      </trkpt>
      <trkpt lat="62.64162925057" lon="17.889201251735">
        <ele>7.6</ele>
        <time>2018-01-06T12:17:56Z</time>
      </trkpt>
      <trkpt lat="62.641626400724" lon="17.889220613924">
        <ele>7.8</ele>
        <time>2018-01-06T12:17:57Z</time>
      </trkpt>
      <trkpt lat="62.641623131783" lon="17.889247352185">
        <ele>8</ele>
        <time>2018-01-06T12:17:58Z</time>
      </trkpt>
      <trkpt lat="62.641619779023" lon="17.8892712406">
        <ele>8.4</ele>
        <time>2018-01-06T12:17:59Z</time>
      </trkpt>
      <trkpt lat="62.641617432091" lon="17.889293201178">
        <ele>8.8</ele>
        <time>2018-01-06T12:18:00Z</time>
      </trkpt>
      <trkpt lat="62.641615420435" lon="17.889315077937">
        <ele>9.4</ele>
        <time>2018-01-06T12:18:01Z</time>
      </trkpt>
      <trkpt lat="62.641613492598" lon="17.889335278316">
        <ele>10</ele>
        <time>2018-01-06T12:18:02Z</time>
      </trkpt>
      <trkpt lat="62.641610558933" lon="17.889357322713">
        <ele>10.4</ele>
        <time>2018-01-06T12:18:03Z</time>
      </trkpt>
      <trkpt lat="62.641608379639" lon="17.889377439273">
        <ele>10.8</ele>
        <time>2018-01-06T12:18:04Z</time>
      </trkpt>
      <trkpt lat="62.64160661944" lon="17.889400992412">
        <ele>11.4</ele>
        <time>2018-01-06T12:18:05Z</time>
      </trkpt>
      <trkpt lat="62.641603518137" lon="17.889421108972">
        <ele>11.4</ele>
        <time>2018-01-06T12:18:06Z</time>
      </trkpt>
      <trkpt lat="62.641602260852" lon="17.889440974075">
        <ele>11.6</ele>
        <time>2018-01-06T12:18:07Z</time>
      </trkpt>
      <trkpt lat="62.641599997739" lon="17.889465868318">
        <ele>11.8</ele>
        <time>2018-01-06T12:18:08Z</time>
      </trkpt>
      <trkpt lat="62.641596980255" lon="17.88948497905">
        <ele>12</ele>
        <time>2018-01-06T12:18:09Z</time>
      </trkpt>
      <trkpt lat="62.641593040762" lon="17.88950677199">
        <ele>12</ele>
        <time>2018-01-06T12:18:10Z</time>
      </trkpt>
      <trkpt lat="62.641593124581" lon="17.889524457799">
        <ele>12.4</ele>
        <time>2018-01-06T12:18:11Z</time>
      </trkpt>
      <trkpt lat="62.641592118753" lon="17.889546502196">
        <ele>12.4</ele>
        <time>2018-01-06T12:18:12Z</time>
      </trkpt>
      <trkpt lat="62.641590861468" lon="17.88957382719">
        <ele>12.8</ele>
        <time>2018-01-06T12:18:13Z</time>
      </trkpt>
      <trkpt lat="62.641589771821" lon="17.889596206863">
        <ele>12.8</ele>
        <time>2018-01-06T12:18:14Z</time>
      </trkpt>
      <trkpt lat="62.641587592527" lon="17.889620095278">
        <ele>13</ele>
        <time>2018-01-06T12:18:15Z</time>
      </trkpt>
      <trkpt lat="62.641587760165" lon="17.889648258462">
        <ele>13.2</ele>
        <time>2018-01-06T12:18:16Z</time>
      </trkpt>
      <trkpt lat="62.641588598355" lon="17.889672565972">
        <ele>13.4</ele>
        <time>2018-01-06T12:18:17Z</time>
      </trkpt>
      <trkpt lat="62.641590442373" lon="17.889698885138">
        <ele>13.6</ele>
        <time>2018-01-06T12:18:18Z</time>
      </trkpt>
      <trkpt lat="62.641590358554" lon="17.889718582603">
        <ele>13.8</ele>
        <time>2018-01-06T12:18:19Z</time>
      </trkpt>
      <trkpt lat="62.641590610011" lon="17.889741213733">
        <ele>14</ele>
        <time>2018-01-06T12:18:20Z</time>
      </trkpt>
      <trkpt lat="62.64159069383" lon="17.889758648085">
        <ele>14.2</ele>
        <time>2018-01-06T12:18:21Z</time>
      </trkpt>
      <trkpt lat="62.641591448201" lon="17.889776752989">
        <ele>14.6</ele>
        <time>2018-01-06T12:18:22Z</time>
      </trkpt>
      <trkpt lat="62.641593459857" lon="17.889801563413">
        <ele>15</ele>
        <time>2018-01-06T12:18:23Z</time>
      </trkpt>
      <trkpt lat="62.641596142065" lon="17.889831905891">
        <ele>15.4</ele>
        <time>2018-01-06T12:18:24Z</time>
      </trkpt>
      <trkpt lat="62.641598656635" lon="17.889863673292">
        <ele>15.8</ele>
        <time>2018-01-06T12:18:25Z</time>
      </trkpt>
      <trkpt lat="62.641600165377" lon="17.889897536168">
        <ele>16.2</ele>
        <time>2018-01-06T12:18:26Z</time>
      </trkpt>
      <trkpt lat="62.641601506481" lon="17.889928549198">
        <ele>16.4</ele>
        <time>2018-01-06T12:18:27Z</time>
      </trkpt>
      <trkpt lat="62.641602093214" lon="17.889960065142">
        <ele>16.6</ele>
        <time>2018-01-06T12:18:28Z</time>
      </trkpt>
      <trkpt lat="62.641604356327" lon="17.88999292219">
        <ele>16.8</ele>
        <time>2018-01-06T12:18:29Z</time>
      </trkpt>
      <trkpt lat="62.641609217829" lon="17.890019241356">
        <ele>17</ele>
        <time>2018-01-06T12:18:30Z</time>
      </trkpt>
      <trkpt lat="62.641615588073" lon="17.890048326549">
        <ele>17.4</ele>
        <time>2018-01-06T12:18:31Z</time>
      </trkpt>
      <trkpt lat="62.641625143439" lon="17.890090236049">
        <ele>17.4</ele>
        <time>2018-01-06T12:18:32Z</time>
      </trkpt>
      <trkpt lat="62.641633357701" lon="17.890122087269">
        <ele>17.6</ele>
        <time>2018-01-06T12:18:33Z</time>
      </trkpt>
      <trkpt lat="62.641645679094" lon="17.890166678977">
        <ele>17.6</ele>
        <time>2018-01-06T12:18:34Z</time>
      </trkpt>
      <trkpt lat="62.641664203093" lon="17.890204816622">
        <ele>17.6</ele>
        <time>2018-01-06T12:18:35Z</time>
      </trkpt>
      <trkpt lat="62.641685828395" lon="17.890256449126">
        <ele>17.6</ele>
        <time>2018-01-06T12:18:36Z</time>
      </trkpt>
      <trkpt lat="62.641704939127" lon="17.890288132708">
        <ele>17.6</ele>
        <time>2018-01-06T12:18:37Z</time>
      </trkpt>
      <trkpt lat="62.641735616881" lon="17.890351583691">
        <ele>17.6</ele>
        <time>2018-01-06T12:18:38Z</time>
      </trkpt>
      <trkpt lat="62.641765624083" lon="17.890390810983">
        <ele>17.6</ele>
        <time>2018-01-06T12:18:39Z</time>
      </trkpt>
      <trkpt lat="62.641811221619" lon="17.890432469026">
        <ele>17.4</ele>
        <time>2018-01-06T12:18:40Z</time>
      </trkpt>
      <trkpt lat="62.641861513019" lon="17.890467673006">
        <ele>17.2</ele>
        <time>2018-01-06T12:18:41Z</time>
      </trkpt>
      <trkpt lat="62.641916665921" lon="17.890503715176">
        <ele>16.6</ele>
        <time>2018-01-06T12:18:42Z</time>
      </trkpt>
      <trkpt lat="62.641986068053" lon="17.890549312712">
        <ele>15.8</ele>
        <time>2018-01-06T12:18:43Z</time>
      </trkpt>
      <trkpt lat="62.642059577316" lon="17.890598346827">
        <ele>14.8</ele>
        <time>2018-01-06T12:18:44Z</time>
      </trkpt>
      <trkpt lat="62.642132499846" lon="17.890650230788">
        <ele>13.4</ele>
        <time>2018-01-06T12:18:45Z</time>
      </trkpt>
      <trkpt lat="62.642214977742" lon="17.890708904088">
        <ele>12</ele>
        <time>2018-01-06T12:18:46Z</time>
      </trkpt>
      <trkpt lat="62.642284044598" lon="17.890762296791">
        <ele>10</ele>
        <time>2018-01-06T12:18:47Z</time>
      </trkpt>
      <trkpt lat="62.642344897192" lon="17.89080848106">
        <ele>8.4</ele>
        <time>2018-01-06T12:18:48Z</time>
      </trkpt>
      <trkpt lat="62.642386303778" lon="17.890849384732">
        <ele>7.4</ele>
        <time>2018-01-06T12:18:49Z</time>
      </trkpt>
      <trkpt lat="62.642426704536" lon="17.890892216241">
        <ele>7</ele>
        <time>2018-01-06T12:18:50Z</time>
      </trkpt>
      <trkpt lat="62.642443049241" lon="17.890914512095">
        <ele>7.2</ele>
        <time>2018-01-06T12:18:51Z</time>
      </trkpt>
      <trkpt lat="62.642465596552" lon="17.890957762699">
        <ele>7.8</ele>
        <time>2018-01-06T12:18:52Z</time>
      </trkpt>
      <trkpt lat="62.642477163574" lon="17.890985087693">
        <ele>8.8</ele>
        <time>2018-01-06T12:18:53Z</time>
      </trkpt>
      <trkpt lat="62.642486551302" lon="17.891017106551">
        <ele>10</ele>
        <time>2018-01-06T12:18:54Z</time>
      </trkpt>
      <trkpt lat="62.64249426265" lon="17.891053735454">
        <ele>10.4</ele>
        <time>2018-01-06T12:18:55Z</time>
      </trkpt>
      <trkpt lat="62.642501890179" lon="17.891095561135">
        <ele>10.6</ele>
        <time>2018-01-06T12:18:56Z</time>
      </trkpt>
      <trkpt lat="62.642507086957" lon="17.891139230834">
        <ele>10.8</ele>
        <time>2018-01-06T12:18:57Z</time>
      </trkpt>
      <trkpt lat="62.642512786649" lon="17.891192288261">
        <ele>10.8</ele>
        <time>2018-01-06T12:18:58Z</time>
      </trkpt>
      <trkpt lat="62.642516726142" lon="17.891228833345">
        <ele>10.8</ele>
        <time>2018-01-06T12:18:59Z</time>
      </trkpt>
      <trkpt lat="62.642515804133" lon="17.8912912785">
        <ele>10.6</ele>
        <time>2018-01-06T12:19:00Z</time>
      </trkpt>
      <trkpt lat="62.642513876296" lon="17.891335115837">
        <ele>10.8</ele>
        <time>2018-01-06T12:19:01Z</time>
      </trkpt>
      <trkpt lat="62.642501387265" lon="17.891386329246">
        <ele>11</ele>
        <time>2018-01-06T12:19:02Z</time>
      </trkpt>
      <trkpt lat="62.642489149691" lon="17.89143544718">
        <ele>11.2</ele>
        <time>2018-01-06T12:19:03Z</time>
      </trkpt>
      <trkpt lat="62.642466015647" lon="17.891487917874">
        <ele>11.6</ele>
        <time>2018-01-06T12:19:04Z</time>
      </trkpt>
      <trkpt lat="62.642435756988" lon="17.891541310577">
        <ele>11.6</ele>
        <time>2018-01-06T12:19:05Z</time>
      </trkpt>
      <trkpt lat="62.642403151397" lon="17.891595373832">
        <ele>11.6</ele>
        <time>2018-01-06T12:19:06Z</time>
      </trkpt>
      <trkpt lat="62.642369539978" lon="17.891650778191">
        <ele>11.4</ele>
        <time>2018-01-06T12:19:07Z</time>
      </trkpt>
      <trkpt lat="62.64232913922" lon="17.891713055708">
        <ele>11</ele>
        <time>2018-01-06T12:19:08Z</time>
      </trkpt>
      <trkpt lat="62.642293767602" lon="17.891766616049">
        <ele>10.4</ele>
        <time>2018-01-06T12:19:09Z</time>
      </trkpt>
      <trkpt lat="62.642262000201" lon="17.891808777006">
        <ele>10.2</ele>
        <time>2018-01-06T12:19:10Z</time>
      </trkpt>
      <trkpt lat="62.642235429578" lon="17.891839790036">
        <ele>10</ele>
        <time>2018-01-06T12:19:11Z</time>
      </trkpt>
      <trkpt lat="62.642217157036" lon="17.891854039266">
        <ele>10</ele>
        <time>2018-01-06T12:19:12Z</time>
      </trkpt>
      <trkpt lat="62.642201482883" lon="17.891866444478">
        <ele>10</ele>
        <time>2018-01-06T12:19:13Z</time>
      </trkpt>
      <trkpt lat="62.642189496766" lon="17.891879268785">
        <ele>10.4</ele>
        <time>2018-01-06T12:19:14Z</time>
      </trkpt>
      <trkpt lat="62.642177510649" lon="17.891887399228">
        <ele>10.6</ele>
        <time>2018-01-06T12:19:15Z</time>
      </trkpt>
      <trkpt lat="62.642162423229" lon="17.891887985961">
        <ele>10.8</ele>
        <time>2018-01-06T12:19:16Z</time>
      </trkpt>
      <trkpt lat="62.642150940026" lon="17.891896703137">
        <ele>11</ele>
        <time>2018-01-06T12:19:17Z</time>
      </trkpt>
      <trkpt lat="62.642136104063" lon="17.8919031572">
        <ele>11.6</ele>
        <time>2018-01-06T12:19:18Z</time>
      </trkpt>
      <trkpt lat="62.642124453222" lon="17.891910365634">
        <ele>11.8</ele>
        <time>2018-01-06T12:19:19Z</time>
      </trkpt>
      <trkpt lat="62.642108359974" lon="17.891919585724">
        <ele>11.8</ele>
        <time>2018-01-06T12:19:20Z</time>
      </trkpt>
      <trkpt lat="62.642094362201" lon="17.891927380891">
        <ele>11.8</ele>
        <time>2018-01-06T12:19:21Z</time>
      </trkpt>
      <trkpt lat="62.64208690231" lon="17.891928638176">
        <ele>12.2</ele>
        <time>2018-01-06T12:19:22Z</time>
      </trkpt>
      <trkpt lat="62.642066199017" lon="17.891931152746">
        <ele>12.4</ele>
        <time>2018-01-06T12:19:23Z</time>
      </trkpt>
      <trkpt lat="62.64205253652" lon="17.891938528818">
        <ele>12.6</ele>
        <time>2018-01-06T12:19:24Z</time>
      </trkpt>
      <trkpt lat="62.642037365281" lon="17.891945821071">
        <ele>12.8</ele>
        <time>2018-01-06T12:19:25Z</time>
      </trkpt>
      <trkpt lat="62.642026049716" lon="17.891951353125">
        <ele>13</ele>
        <time>2018-01-06T12:19:26Z</time>
      </trkpt>
      <trkpt lat="62.642015069427" lon="17.891951101668">
        <ele>13.4</ele>
        <time>2018-01-06T12:19:27Z</time>
      </trkpt>
      <trkpt lat="62.642002161301" lon="17.891959399749">
        <ele>13.8</ele>
        <time>2018-01-06T12:19:28Z</time>
      </trkpt>
      <trkpt lat="62.641991097193" lon="17.89196518326">
        <ele>14.2</ele>
        <time>2018-01-06T12:19:29Z</time>
      </trkpt>
      <trkpt lat="62.641979278714" lon="17.891969625667">
        <ele>14.6</ele>
        <time>2018-01-06T12:19:30Z</time>
      </trkpt>
      <trkpt lat="62.64196620295" lon="17.891977337015">
        <ele>14.8</ele>
        <time>2018-01-06T12:19:31Z</time>
      </trkpt>
      <trkpt lat="62.641950612616" lon="17.891986054191">
        <ele>15</ele>
        <time>2018-01-06T12:19:32Z</time>
      </trkpt>
      <trkpt lat="62.641936614843" lon="17.89199619629">
        <ele>15.4</ele>
        <time>2018-01-06T12:19:33Z</time>
      </trkpt>
      <trkpt lat="62.641921611242" lon="17.892004913466">
        <ele>15.6</ele>
        <time>2018-01-06T12:19:34Z</time>
      </trkpt>
      <trkpt lat="62.641906859098" lon="17.89201631285">
        <ele>15.8</ele>
        <time>2018-01-06T12:19:35Z</time>
      </trkpt>
      <trkpt lat="62.641893112782" lon="17.892028466605">
        <ele>16</ele>
        <time>2018-01-06T12:19:36Z</time>
      </trkpt>
      <trkpt lat="62.641882467769" lon="17.892045565681">
        <ele>16</ele>
        <time>2018-01-06T12:19:37Z</time>
      </trkpt>
      <trkpt lat="62.641872744765" lon="17.892057300341">
        <ele>16.2</ele>
        <time>2018-01-06T12:19:38Z</time>
      </trkpt>
      <trkpt lat="62.64186645834" lon="17.892077249263">
        <ele>16.2</ele>
        <time>2018-01-06T12:19:39Z</time>
      </trkpt>
      <trkpt lat="62.641859082268" lon="17.892100550945">
        <ele>16.4</ele>
        <time>2018-01-06T12:19:40Z</time>
      </trkpt>
      <trkpt lat="62.641852879662" lon="17.892126534835">
        <ele>16.6</ele>
        <time>2018-01-06T12:19:41Z</time>
      </trkpt>
      <trkpt lat="62.641847515246" lon="17.892151764354">
        <ele>16.6</ele>
        <time>2018-01-06T12:19:42Z</time>
      </trkpt>
      <trkpt lat="62.641841815554" lon="17.892174898398">
        <ele>16.8</ele>
        <time>2018-01-06T12:19:43Z</time>
      </trkpt>
      <trkpt lat="62.641841815554" lon="17.892204654143">
        <ele>16.8</ele>
        <time>2018-01-06T12:19:44Z</time>
      </trkpt>
      <trkpt lat="62.641842569925" lon="17.892229799843">
        <ele>17</ele>
        <time>2018-01-06T12:19:45Z</time>
      </trkpt>
      <trkpt lat="62.641845168314" lon="17.892260729054">
        <ele>17.4</ele>
        <time>2018-01-06T12:19:46Z</time>
      </trkpt>
      <trkpt lat="62.641849862178" lon="17.892292161179">
        <ele>17.6</ele>
        <time>2018-01-06T12:19:47Z</time>
      </trkpt>
      <trkpt lat="62.641853969309" lon="17.89233482505">
        <ele>17.8</ele>
        <time>2018-01-06T12:19:48Z</time>
      </trkpt>
      <trkpt lat="62.641859166087" lon="17.892375812541">
        <ele>18.2</ele>
        <time>2018-01-06T12:19:49Z</time>
      </trkpt>
      <trkpt lat="62.641854891318" lon="17.89241780586">
        <ele>18.4</ele>
        <time>2018-01-06T12:19:50Z</time>
      </trkpt>
      <trkpt lat="62.641858495535" lon="17.892459799179">
        <ele>18.4</ele>
        <time>2018-01-06T12:19:51Z</time>
      </trkpt>
      <trkpt lat="62.641859166087" lon="17.892497685367">
        <ele>18.6</ele>
        <time>2018-01-06T12:19:52Z</time>
      </trkpt>
      <trkpt lat="62.641861177743" lon="17.892540852152">
        <ele>18.8</ele>
        <time>2018-01-06T12:19:53Z</time>
      </trkpt>
      <trkpt lat="62.641858327897" lon="17.892575804675">
        <ele>19</ele>
        <time>2018-01-06T12:19:54Z</time>
      </trkpt>
      <trkpt lat="62.641857992621" lon="17.89261142775">
        <ele>19</ele>
        <time>2018-01-06T12:19:55Z</time>
      </trkpt>
      <trkpt lat="62.641860507191" lon="17.892644703893">
        <ele>19.2</ele>
        <time>2018-01-06T12:19:56Z</time>
      </trkpt>
      <trkpt lat="62.641858411716" lon="17.89267261562">
        <ele>19.4</ele>
        <time>2018-01-06T12:19:57Z</time>
      </trkpt>
      <trkpt lat="62.641858244078" lon="17.892703963926">
        <ele>19.4</ele>
        <time>2018-01-06T12:19:58Z</time>
      </trkpt>
      <trkpt lat="62.641856735336" lon="17.892732630024">
        <ele>19.8</ele>
        <time>2018-01-06T12:19:59Z</time>
      </trkpt>
      <trkpt lat="62.64185472368" lon="17.892759871199">
        <ele>19.8</ele>
        <time>2018-01-06T12:20:00Z</time>
      </trkpt>
      <trkpt lat="62.641853131119" lon="17.892784262528">
        <ele>20</ele>
        <time>2018-01-06T12:20:01Z</time>
      </trkpt>
      <trkpt lat="62.641850197454" lon="17.892805720192">
        <ele>20.2</ele>
        <time>2018-01-06T12:20:02Z</time>
      </trkpt>
      <trkpt lat="62.641850868006" lon="17.892824914743">
        <ele>20.2</ele>
        <time>2018-01-06T12:20:03Z</time>
      </trkpt>
      <trkpt lat="62.641849526902" lon="17.892844696027">
        <ele>20.4</ele>
        <time>2018-01-06T12:20:04Z</time>
      </trkpt>
      <trkpt lat="62.641849526902" lon="17.892863555302">
        <ele>20.6</ele>
        <time>2018-01-06T12:20:05Z</time>
      </trkpt>
      <trkpt lat="62.641846928513" lon="17.892885180604">
        <ele>20.8</ele>
        <time>2018-01-06T12:20:06Z</time>
      </trkpt>
      <trkpt lat="62.641844916857" lon="17.89289641235">
        <ele>21.2</ele>
        <time>2018-01-06T12:20:07Z</time>
      </trkpt>
      <trkpt lat="62.641843911029" lon="17.89292239624">
        <ele>21.6</ele>
        <time>2018-01-06T12:20:08Z</time>
      </trkpt>
      <trkpt lat="62.641844916857" lon="17.892945614103">
        <ele>22.2</ele>
        <time>2018-01-06T12:20:09Z</time>
      </trkpt>
      <trkpt lat="62.641845755047" lon="17.892966065939">
        <ele>22.4</ele>
        <time>2018-01-06T12:20:10Z</time>
      </trkpt>
      <trkpt lat="62.641844916857" lon="17.892968329052">
        <ele>23</ele>
        <time>2018-01-06T12:20:11Z</time>
      </trkpt>
      <trkpt lat="62.641844078667" lon="17.892990792544">
        <ele>23.2</ele>
        <time>2018-01-06T12:20:12Z</time>
      </trkpt>
      <trkpt lat="62.641842905201" lon="17.893011579656">
        <ele>23.6</ele>
        <time>2018-01-06T12:20:13Z</time>
      </trkpt>
      <trkpt lat="62.641843994848" lon="17.893027337628">
        <ele>24</ele>
        <time>2018-01-06T12:20:14Z</time>
      </trkpt>
      <trkpt lat="62.641847431427" lon="17.893036809175">
        <ele>24.2</ele>
        <time>2018-01-06T12:20:15Z</time>
      </trkpt>
      <trkpt lat="62.641847766703" lon="17.893046699817">
        <ele>24.2</ele>
        <time>2018-01-06T12:20:16Z</time>
      </trkpt>
      <trkpt lat="62.64184634178" lon="17.893063044522">
        <ele>24.4</ele>
        <time>2018-01-06T12:20:17Z</time>
      </trkpt>
      <trkpt lat="62.641844497762" lon="17.893089363688">
        <ele>24.6</ele>
        <time>2018-01-06T12:20:18Z</time>
      </trkpt>
      <trkpt lat="62.64184550359" lon="17.893109061153">
        <ele>24.6</ele>
        <time>2018-01-06T12:20:19Z</time>
      </trkpt>
      <trkpt lat="62.64184634178" lon="17.893133117206">
        <ele>25</ele>
        <time>2018-01-06T12:20:20Z</time>
      </trkpt>
      <trkpt lat="62.641847347608" lon="17.893150719196">
        <ele>25.2</ele>
        <time>2018-01-06T12:20:21Z</time>
      </trkpt>
      <trkpt lat="62.641847347608" lon="17.893170249023">
        <ele>25.2</ele>
        <time>2018-01-06T12:20:22Z</time>
      </trkpt>
      <trkpt lat="62.641846844694" lon="17.893196400551">
        <ele>25.4</ele>
        <time>2018-01-06T12:20:23Z</time>
      </trkpt>
      <trkpt lat="62.641841899373" lon="17.893226156296">
        <ele>25.4</ele>
        <time>2018-01-06T12:20:24Z</time>
      </trkpt>
      <trkpt lat="62.641841396459" lon="17.89325934862">
        <ele>25.8</ele>
        <time>2018-01-06T12:20:25Z</time>
      </trkpt>
      <trkpt lat="62.641833349835" lon="17.893278962266">
        <ele>26</ele>
        <time>2018-01-06T12:20:26Z</time>
      </trkpt>
      <trkpt lat="62.641828236876" lon="17.893297318627">
        <ele>26.2</ele>
        <time>2018-01-06T12:20:27Z</time>
      </trkpt>
      <trkpt lat="62.641821363718" lon="17.893324224526">
        <ele>26.4</ele>
        <time>2018-01-06T12:20:28Z</time>
      </trkpt>
      <trkpt lat="62.641816250759" lon="17.893352303891">
        <ele>26.8</ele>
        <time>2018-01-06T12:20:29Z</time>
      </trkpt>
      <trkpt lat="62.641813484732" lon="17.893385831491">
        <ele>27</ele>
        <time>2018-01-06T12:20:30Z</time>
      </trkpt>
      <trkpt lat="62.64180694685" lon="17.893428160086">
        <ele>27.2</ele>
        <time>2018-01-06T12:20:31Z</time>
      </trkpt>
      <trkpt lat="62.641797140027" lon="17.893466213912">
        <ele>27.4</ele>
        <time>2018-01-06T12:20:32Z</time>
      </trkpt>
      <trkpt lat="62.641788171394" lon="17.893505608842">
        <ele>27.4</ele>
        <time>2018-01-06T12:20:33Z</time>
      </trkpt>
      <trkpt lat="62.641779705675" lon="17.893548691808">
        <ele>27.6</ele>
        <time>2018-01-06T12:20:34Z</time>
      </trkpt>
      <trkpt lat="62.641774927992" lon="17.893581632675">
        <ele>27.6</ele>
        <time>2018-01-06T12:20:35Z</time>
      </trkpt>
      <trkpt lat="62.641770150309" lon="17.893610466411">
        <ele>27.8</ele>
        <time>2018-01-06T12:20:36Z</time>
      </trkpt>
      <trkpt lat="62.641765456445" lon="17.893647682047">
        <ele>28</ele>
        <time>2018-01-06T12:20:37Z</time>
      </trkpt>
      <trkpt lat="62.641757242183" lon="17.893680706733">
        <ele>28.2</ele>
        <time>2018-01-06T12:20:38Z</time>
      </trkpt>
      <trkpt lat="62.641751961586" lon="17.893707109718">
        <ele>28.4</ele>
        <time>2018-01-06T12:20:39Z</time>
      </trkpt>
      <trkpt lat="62.641747602998" lon="17.893736194911">
        <ele>28.6</ele>
        <time>2018-01-06T12:20:40Z</time>
      </trkpt>
      <trkpt lat="62.641745675161" lon="17.893765866837">
        <ele>28.8</ele>
        <time>2018-01-06T12:20:41Z</time>
      </trkpt>
      <trkpt lat="62.641744753152" lon="17.893797801876">
        <ele>29</ele>
        <time>2018-01-06T12:20:42Z</time>
      </trkpt>
      <trkpt lat="62.641743998781" lon="17.893835688064">
        <ele>29.2</ele>
        <time>2018-01-06T12:20:43Z</time>
      </trkpt>
      <trkpt lat="62.641753805604" lon="17.893868796569">
        <ele>29.4</ele>
        <time>2018-01-06T12:20:44Z</time>
      </trkpt>
      <trkpt lat="62.641763612427" lon="17.893898133219">
        <ele>29.6</ele>
        <time>2018-01-06T12:20:45Z</time>
      </trkpt>
      <trkpt lat="62.641778867485" lon="17.893945155678">
        <ele>29.8</ele>
        <time>2018-01-06T12:20:46Z</time>
      </trkpt>
      <trkpt lat="62.641796804751" lon="17.893983293323">
        <ele>29.8</ele>
        <time>2018-01-06T12:20:47Z</time>
      </trkpt>
      <trkpt lat="62.641827650143" lon="17.894011288869">
        <ele>29.8</ele>
        <time>2018-01-06T12:20:48Z</time>
      </trkpt>
      <trkpt lat="62.641862937942" lon="17.894020508959">
        <ele>29.8</ele>
        <time>2018-01-06T12:20:49Z</time>
      </trkpt>
      <trkpt lat="62.641910966229" lon="17.894014641629">
        <ele>29.6</ele>
        <time>2018-01-06T12:20:50Z</time>
      </trkpt>
      <trkpt lat="62.641955055023" lon="17.894000560037">
        <ele>29.4</ele>
        <time>2018-01-06T12:20:51Z</time>
      </trkpt>
      <trkpt lat="62.64200140693" lon="17.89397935383">
        <ele>29</ele>
        <time>2018-01-06T12:20:52Z</time>
      </trkpt>
      <trkpt lat="62.642049016122" lon="17.893965356057">
        <ele>28.4</ele>
        <time>2018-01-06T12:20:53Z</time>
      </trkpt>
      <trkpt lat="62.64209193145" lon="17.893970217559">
        <ele>27.8</ele>
        <time>2018-01-06T12:20:54Z</time>
      </trkpt>
      <trkpt lat="62.642133338036" lon="17.893989663567">
        <ele>27</ele>
        <time>2018-01-06T12:20:55Z</time>
      </trkpt>
      <trkpt lat="62.642169966939" lon="17.89403299799">
        <ele>25.8</ele>
        <time>2018-01-06T12:20:56Z</time>
      </trkpt>
      <trkpt lat="62.642194274449" lon="17.894086474512">
        <ele>25</ele>
        <time>2018-01-06T12:20:57Z</time>
      </trkpt>
      <trkpt lat="62.642217073217" lon="17.894163252716">
        <ele>24</ele>
        <time>2018-01-06T12:20:58Z</time>
      </trkpt>
      <trkpt lat="62.642229143153" lon="17.8942333254">
        <ele>23.4</ele>
        <time>2018-01-06T12:20:59Z</time>
      </trkpt>
      <trkpt lat="62.64223526194" lon="17.894301051152">
        <ele>23</ele>
        <time>2018-01-06T12:21:00Z</time>
      </trkpt>
      <trkpt lat="62.642241716003" lon="17.894370620922">
        <ele>22.8</ele>
        <time>2018-01-06T12:21:01Z</time>
      </trkpt>
      <trkpt lat="62.642245068763" lon="17.894445974203">
        <ele>22.8</ele>
        <time>2018-01-06T12:21:02Z</time>
      </trkpt>
      <trkpt lat="62.642248253885" lon="17.894539097112">
        <ele>22.6</ele>
        <time>2018-01-06T12:21:03Z</time>
      </trkpt>
      <trkpt lat="62.642241380727" lon="17.894632890573">
        <ele>22.4</ele>
        <time>2018-01-06T12:21:04Z</time>
      </trkpt>
      <trkpt lat="62.642226544764" lon="17.894735149753">
        <ele>21.8</ele>
        <time>2018-01-06T12:21:05Z</time>
      </trkpt>
      <trkpt lat="62.642205254738" lon="17.894834391449">
        <ele>21.2</ele>
        <time>2018-01-06T12:21:06Z</time>
      </trkpt>
      <trkpt lat="62.642187066015" lon="17.894922820494">
        <ele>20.8</ele>
        <time>2018-01-06T12:21:07Z</time>
      </trkpt>
      <trkpt lat="62.642169799301" lon="17.895014769937">
        <ele>20.2</ele>
        <time>2018-01-06T12:21:08Z</time>
      </trkpt>
      <trkpt lat="62.642161082125" lon="17.895099594765">
        <ele>19.4</ele>
        <time>2018-01-06T12:21:09Z</time>
      </trkpt>
      <trkpt lat="62.64215731027" lon="17.895202021583">
        <ele>19.2</ele>
        <time>2018-01-06T12:21:10Z</time>
      </trkpt>
      <trkpt lat="62.642157561727" lon="17.895321379839">
        <ele>18.8</ele>
        <time>2018-01-06T12:21:11Z</time>
      </trkpt>
      <trkpt lat="62.642155382433" lon="17.895461525207">
        <ele>18.6</ele>
        <time>2018-01-06T12:21:12Z</time>
      </trkpt>
      <trkpt lat="62.642151275302" lon="17.895625978085">
        <ele>18.2</ele>
        <time>2018-01-06T12:21:13Z</time>
      </trkpt>
      <trkpt lat="62.642137361348" lon="17.895787664936">
        <ele>17.6</ele>
        <time>2018-01-06T12:21:14Z</time>
      </trkpt>
      <trkpt lat="62.642122273928" lon="17.895929570503">
        <ele>16.8</ele>
        <time>2018-01-06T12:21:15Z</time>
      </trkpt>
      <trkpt lat="62.642095368029" lon="17.896079103599">
        <ele>15.6</ele>
        <time>2018-01-06T12:21:16Z</time>
      </trkpt>
      <trkpt lat="62.642067875397" lon="17.896203155719">
        <ele>13.8</ele>
        <time>2018-01-06T12:21:17Z</time>
      </trkpt>
      <trkpt lat="62.642037365281" lon="17.896329890047">
        <ele>12.6</ele>
        <time>2018-01-06T12:21:18Z</time>
      </trkpt>
      <trkpt lat="62.642010710839" lon="17.896444302982">
        <ele>12</ele>
        <time>2018-01-06T12:21:19Z</time>
      </trkpt>
      <trkpt lat="62.641980787456" lon="17.896572462233">
        <ele>11.4</ele>
        <time>2018-01-06T12:21:20Z</time>
      </trkpt>
      <trkpt lat="62.641958240145" lon="17.896681007838">
        <ele>11.2</ele>
        <time>2018-01-06T12:21:21Z</time>
      </trkpt>
      <trkpt lat="62.641937453033" lon="17.896797264791">
        <ele>11</ele>
        <time>2018-01-06T12:21:22Z</time>
      </trkpt>
      <trkpt lat="62.641920689233" lon="17.896911845364">
        <ele>10.8</ele>
        <time>2018-01-06T12:21:23Z</time>
      </trkpt>
      <trkpt lat="62.641907613469" lon="17.897020474788">
        <ele>10.6</ele>
        <time>2018-01-06T12:21:24Z</time>
      </trkpt>
      <trkpt lat="62.64189579499" lon="17.897152657351">
        <ele>10.8</ele>
        <time>2018-01-06T12:21:25Z</time>
      </trkpt>
      <trkpt lat="62.641886071986" lon="17.897297161307">
        <ele>10.6</ele>
        <time>2018-01-06T12:21:26Z</time>
      </trkpt>
      <trkpt lat="62.641877606267" lon="17.897428086585">
        <ele>10.4</ele>
        <time>2018-01-06T12:21:27Z</time>
      </trkpt>
      <trkpt lat="62.64186729653" lon="17.897595054033">
        <ele>10</ele>
        <time>2018-01-06T12:21:28Z</time>
      </trkpt>
      <trkpt lat="62.641854136947" lon="17.897745509138">
        <ele>9.6</ele>
        <time>2018-01-06T12:21:29Z</time>
      </trkpt>
      <trkpt lat="62.641843072839" lon="17.897886744153">
        <ele>9</ele>
        <time>2018-01-06T12:21:30Z</time>
      </trkpt>
      <trkpt lat="62.641834690939" lon="17.89801691506">
        <ele>8.2</ele>
        <time>2018-01-06T12:21:31Z</time>
      </trkpt>
      <trkpt lat="62.641833601292" lon="17.898109870331">
        <ele>8</ele>
        <time>2018-01-06T12:21:32Z</time>
      </trkpt>
      <trkpt lat="62.641831002903" lon="17.898200813946">
        <ele>8.2</ele>
        <time>2018-01-06T12:21:33Z</time>
      </trkpt>
      <trkpt lat="62.641824884116" lon="17.898307096438">
        <ele>8.2</ele>
        <time>2018-01-06T12:21:34Z</time>
      </trkpt>
      <trkpt lat="62.641818597691" lon="17.898399632614">
        <ele>8.4</ele>
        <time>2018-01-06T12:21:35Z</time>
      </trkpt>
      <trkpt lat="62.641815831664" lon="17.898457383905">
        <ele>8.8</ele>
        <time>2018-01-06T12:21:36Z</time>
      </trkpt>
      <trkpt lat="62.641810718705" lon="17.898534665023">
        <ele>8.8</ele>
        <time>2018-01-06T12:21:37Z</time>
      </trkpt>
      <trkpt lat="62.64180778504" lon="17.898605659716">
        <ele>9</ele>
        <time>2018-01-06T12:21:38Z</time>
      </trkpt>
      <trkpt lat="62.641809545239" lon="17.89866064498">
        <ele>9.4</ele>
        <time>2018-01-06T12:21:39Z</time>
      </trkpt>
      <trkpt lat="62.641806779212" lon="17.898717138986">
        <ele>9.6</ele>
        <time>2018-01-06T12:21:40Z</time>
      </trkpt>
      <trkpt lat="62.641802839719" lon="17.898785619109">
        <ele>9.8</ele>
        <time>2018-01-06T12:21:41Z</time>
      </trkpt>
      <trkpt lat="62.641796720932" lon="17.898838927993">
        <ele>10.4</ele>
        <time>2018-01-06T12:21:42Z</time>
      </trkpt>
      <trkpt lat="62.641794038724" lon="17.898888297384">
        <ele>10.6</ele>
        <time>2018-01-06T12:21:43Z</time>
      </trkpt>
      <trkpt lat="62.641783896625" lon="17.898938756422">
        <ele>10.8</ele>
        <time>2018-01-06T12:21:44Z</time>
      </trkpt>
      <trkpt lat="62.6417692283" lon="17.898993657867">
        <ele>10.8</ele>
        <time>2018-01-06T12:21:45Z</time>
      </trkpt>
      <trkpt lat="62.641753135052" lon="17.89905207971">
        <ele>11</ele>
        <time>2018-01-06T12:21:46Z</time>
      </trkpt>
      <trkpt lat="62.641739556374" lon="17.899088373337">
        <ele>10.8</ele>
        <time>2018-01-06T12:21:47Z</time>
      </trkpt>
      <trkpt lat="62.641715081226" lon="17.899135144339">
        <ele>10.8</ele>
        <time>2018-01-06T12:21:48Z</time>
      </trkpt>
      <trkpt lat="62.64168960025" lon="17.899170096862">
        <ele>11</ele>
        <time>2018-01-06T12:21:49Z</time>
      </trkpt>
      <trkpt lat="62.641660766514" lon="17.899197254218">
        <ele>11</ele>
        <time>2018-01-06T12:21:50Z</time>
      </trkpt>
      <trkpt lat="62.641626987457" lon="17.899212341638">
        <ele>11</ele>
        <time>2018-01-06T12:21:51Z</time>
      </trkpt>
      <trkpt lat="62.641592789305" lon="17.899215694398">
        <ele>11.2</ele>
        <time>2018-01-06T12:21:52Z</time>
      </trkpt>
      <trkpt lat="62.641560016076" lon="17.899215191484">
        <ele>11.4</ele>
        <time>2018-01-06T12:21:53Z</time>
      </trkpt>
      <trkpt lat="62.641525650286" lon="17.899199936426">
        <ele>11.4</ele>
        <time>2018-01-06T12:21:54Z</time>
      </trkpt>
      <trkpt lat="62.641487764098" lon="17.899181915341">
        <ele>11.6</ele>
        <time>2018-01-06T12:21:55Z</time>
      </trkpt>
      <trkpt lat="62.641448285349" lon="17.899153333062">
        <ele>12</ele>
        <time>2018-01-06T12:21:56Z</time>
      </trkpt>
      <trkpt lat="62.641413584283" lon="17.89912416405">
        <ele>12</ele>
        <time>2018-01-06T12:21:57Z</time>
      </trkpt>
      <trkpt lat="62.641370166041" lon="17.899082841283">
        <ele>11.8</ele>
        <time>2018-01-06T12:21:58Z</time>
      </trkpt>
      <trkpt lat="62.641338650097" lon="17.899049062226">
        <ele>12</ele>
        <time>2018-01-06T12:21:59Z</time>
      </trkpt>
      <trkpt lat="62.641305122497" lon="17.899003297052">
        <ele>11.8</ele>
        <time>2018-01-06T12:22:00Z</time>
      </trkpt>
      <trkpt lat="62.641272684544" lon="17.89895484967">
        <ele>11.8</ele>
        <time>2018-01-06T12:22:01Z</time>
      </trkpt>
      <trkpt lat="62.641248293215" lon="17.898907743392">
        <ele>11.8</ele>
        <time>2018-01-06T12:22:02Z</time>
      </trkpt>
      <trkpt lat="62.641221219678" lon="17.898851836119">
        <ele>11.8</ele>
        <time>2018-01-06T12:22:03Z</time>
      </trkpt>
      <trkpt lat="62.641192218304" lon="17.898792576086">
        <ele>11.4</ele>
        <time>2018-01-06T12:22:04Z</time>
      </trkpt>
      <trkpt lat="62.641170844459" lon="17.898744799256">
        <ele>11.4</ele>
        <time>2018-01-06T12:22:05Z</time>
      </trkpt>
      <trkpt lat="62.641140921076" lon="17.898679252798">
        <ele>11.4</ele>
        <time>2018-01-06T12:22:06Z</time>
      </trkpt>
      <trkpt lat="62.641114182815" lon="17.898618903118">
        <ele>11.2</ele>
        <time>2018-01-06T12:22:07Z</time>
      </trkpt>
      <trkpt lat="62.641088701839" lon="17.89857263503">
        <ele>11.4</ele>
        <time>2018-01-06T12:22:08Z</time>
      </trkpt>
      <trkpt lat="62.641065651614" lon="17.89851144716">
        <ele>11.4</ele>
        <time>2018-01-06T12:22:09Z</time>
      </trkpt>
      <trkpt lat="62.641042098475" lon="17.898446655073">
        <ele>11.4</ele>
        <time>2018-01-06T12:22:10Z</time>
      </trkpt>
      <trkpt lat="62.641025837589" lon="17.898396698949">
        <ele>11.4</ele>
        <time>2018-01-06T12:22:11Z</time>
      </trkpt>
      <trkpt lat="62.641011420721" lon="17.898350263223">
        <ele>11.4</ele>
        <time>2018-01-06T12:22:12Z</time>
      </trkpt>
      <trkpt lat="62.640994824559" lon="17.898303995135">
        <ele>11.4</ele>
        <time>2018-01-06T12:22:13Z</time>
      </trkpt>
      <trkpt lat="62.640981916433" lon="17.898260409255">
        <ele>11.4</ele>
        <time>2018-01-06T12:22:14Z</time>
      </trkpt>
      <trkpt lat="62.640968253936" lon="17.898215985185">
        <ele>11.2</ele>
        <time>2018-01-06T12:22:15Z</time>
      </trkpt>
      <trkpt lat="62.640954759077" lon="17.898166196699">
        <ele>11.4</ele>
        <time>2018-01-06T12:22:16Z</time>
      </trkpt>
      <trkpt lat="62.640944197883" lon="17.898126298855">
        <ele>11.4</ele>
        <time>2018-01-06T12:22:17Z</time>
      </trkpt>
      <trkpt lat="62.640934139603" lon="17.8980806175">
        <ele>11.6</ele>
        <time>2018-01-06T12:22:18Z</time>
      </trkpt>
      <trkpt lat="62.640927182626" lon="17.898038624181">
        <ele>11.8</ele>
        <time>2018-01-06T12:22:19Z</time>
      </trkpt>
      <trkpt lat="62.64091930364" lon="17.897990428256">
        <ele>12.2</ele>
        <time>2018-01-06T12:22:20Z</time>
      </trkpt>
      <trkpt lat="62.640910418826" lon="17.897953044982">
        <ele>12.4</ele>
        <time>2018-01-06T12:22:21Z</time>
      </trkpt>
      <trkpt lat="62.640900779641" lon="17.897913650052">
        <ele>12.8</ele>
        <time>2018-01-06T12:22:22Z</time>
      </trkpt>
      <trkpt lat="62.640891811008" lon="17.897856401675">
        <ele>12.8</ele>
        <time>2018-01-06T12:22:23Z</time>
      </trkpt>
      <trkpt lat="62.640882507099" lon="17.897803260429">
        <ele>13</ele>
        <time>2018-01-06T12:22:24Z</time>
      </trkpt>
      <trkpt lat="62.640875466303" lon="17.897751041192">
        <ele>13.4</ele>
        <time>2018-01-06T12:22:25Z</time>
      </trkpt>
      <trkpt lat="62.640866162394" lon="17.897699911602">
        <ele>13.4</ele>
        <time>2018-01-06T12:22:26Z</time>
      </trkpt>
      <trkpt lat="62.640858367227" lon="17.897667808925">
        <ele>13.6</ele>
        <time>2018-01-06T12:22:27Z</time>
      </trkpt>
      <trkpt lat="62.640850739698" lon="17.89761877481">
        <ele>13.8</ele>
        <time>2018-01-06T12:22:28Z</time>
      </trkpt>
      <trkpt lat="62.640842441617" lon="17.897580301889">
        <ele>13.8</ele>
        <time>2018-01-06T12:22:29Z</time>
      </trkpt>
      <trkpt lat="62.640832634794" lon="17.897536548371">
        <ele>14.2</ele>
        <time>2018-01-06T12:22:30Z</time>
      </trkpt>
      <trkpt lat="62.640822576514" lon="17.897484077677">
        <ele>14.6</ele>
        <time>2018-01-06T12:22:31Z</time>
      </trkpt>
      <trkpt lat="62.640814362252" lon="17.897433870096">
        <ele>14.6</ele>
        <time>2018-01-06T12:22:32Z</time>
      </trkpt>
      <trkpt lat="62.640804555429" lon="17.897388775474">
        <ele>14.8</ele>
        <time>2018-01-06T12:22:33Z</time>
      </trkpt>
      <trkpt lat="62.640795754434" lon="17.897344519042">
        <ele>15.2</ele>
        <time>2018-01-06T12:22:34Z</time>
      </trkpt>
      <trkpt lat="62.640785947611" lon="17.897303866827">
        <ele>15.4</ele>
        <time>2018-01-06T12:22:35Z</time>
      </trkpt>
      <trkpt lat="62.640777062797" lon="17.897265142449">
        <ele>15.6</ele>
        <time>2018-01-06T12:22:36Z</time>
      </trkpt>
      <trkpt lat="62.640768094164" lon="17.897231363392">
        <ele>15.8</ele>
        <time>2018-01-06T12:22:37Z</time>
      </trkpt>
      <trkpt lat="62.640757868246" lon="17.89718626877">
        <ele>16</ele>
        <time>2018-01-06T12:22:38Z</time>
      </trkpt>
      <trkpt lat="62.6407466365" lon="17.897144862184">
        <ele>16.4</ele>
        <time>2018-01-06T12:22:39Z</time>
      </trkpt>
      <trkpt lat="62.640734818021" lon="17.897099348467">
        <ele>16.4</ele>
        <time>2018-01-06T12:22:40Z</time>
      </trkpt>
      <trkpt lat="62.640723250999" lon="17.897074118948">
        <ele>16.6</ele>
        <time>2018-01-06T12:22:41Z</time>
      </trkpt>
      <trkpt lat="62.640713695633" lon="17.897047548325">
        <ele>16.8</ele>
        <time>2018-01-06T12:22:42Z</time>
      </trkpt>
      <trkpt lat="62.640700787507" lon="17.897017373485">
        <ele>17</ele>
        <time>2018-01-06T12:22:43Z</time>
      </trkpt>
      <trkpt lat="62.64069047777" lon="17.896985857541">
        <ele>17.2</ele>
        <time>2018-01-06T12:22:44Z</time>
      </trkpt>
      <trkpt lat="62.640677234368" lon="17.896961550031">
        <ele>17.4</ele>
        <time>2018-01-06T12:22:45Z</time>
      </trkpt>
      <trkpt lat="62.640662314586" lon="17.896931542829">
        <ele>17.6</ele>
        <time>2018-01-06T12:22:46Z</time>
      </trkpt>
      <trkpt lat="62.640648232994" lon="17.89691301883">
        <ele>18</ele>
        <time>2018-01-06T12:22:47Z</time>
      </trkpt>
      <trkpt lat="62.640631636832" lon="17.8968903877">
        <ele>18.2</ele>
        <time>2018-01-06T12:22:48Z</time>
      </trkpt>
      <trkpt lat="62.640613867204" lon="17.896881502886">
        <ele>18.4</ele>
        <time>2018-01-06T12:22:49Z</time>
      </trkpt>
      <trkpt lat="62.640595510843" lon="17.896869097674">
        <ele>18.4</ele>
        <time>2018-01-06T12:22:50Z</time>
      </trkpt>
      <trkpt lat="62.6405789985" lon="17.896853339702">
        <ele>18.4</ele>
        <time>2018-01-06T12:22:51Z</time>
      </trkpt>
      <trkpt lat="62.640560139225" lon="17.896857782109">
        <ele>18.6</ele>
        <time>2018-01-06T12:22:52Z</time>
      </trkpt>
      <trkpt lat="62.640534406792" lon="17.89686188924">
        <ele>18.8</ele>
        <time>2018-01-06T12:22:53Z</time>
      </trkpt>
      <trkpt lat="62.640501717382" lon="17.896878150126">
        <ele>19</ele>
        <time>2018-01-06T12:22:54Z</time>
      </trkpt>
      <trkpt lat="62.640474308569" lon="17.896903379645">
        <ele>19</ele>
        <time>2018-01-06T12:22:55Z</time>
      </trkpt>
      <trkpt lat="62.640451258344" lon="17.89693564996">
        <ele>19</ele>
        <time>2018-01-06T12:22:56Z</time>
      </trkpt>
      <trkpt lat="62.640429297766" lon="17.896976050718">
        <ele>19</ele>
        <time>2018-01-06T12:22:57Z</time>
      </trkpt>
      <trkpt lat="62.640405074075" lon="17.897043860289">
        <ele>19</ele>
        <time>2018-01-06T12:22:58Z</time>
      </trkpt>
      <trkpt lat="62.640378503452" lon="17.897121225226">
        <ele>18.8</ele>
        <time>2018-01-06T12:22:59Z</time>
      </trkpt>
      <trkpt lat="62.640350927001" lon="17.897203200208">
        <ele>18.6</ele>
        <time>2018-01-06T12:23:00Z</time>
      </trkpt>
      <trkpt lat="62.640325613663" lon="17.897287019208">
        <ele>18.2</ele>
        <time>2018-01-06T12:23:01Z</time>
      </trkpt>
      <trkpt lat="62.640302731076" lon="17.897366060525">
        <ele>18</ele>
        <time>2018-01-06T12:23:02Z</time>
      </trkpt>
      <trkpt lat="62.640281943964" lon="17.897449041335">
        <ele>17.6</ele>
        <time>2018-01-06T12:23:03Z</time>
      </trkpt>
      <trkpt lat="62.640266940363" lon="17.89753747038">
        <ele>17.2</ele>
        <time>2018-01-06T12:23:04Z</time>
      </trkpt>
      <trkpt lat="62.640255876255" lon="17.897637047352">
        <ele>17.2</ele>
        <time>2018-01-06T12:23:05Z</time>
      </trkpt>
      <trkpt lat="62.64025629535" lon="17.897739557989">
        <ele>17</ele>
        <time>2018-01-06T12:23:06Z</time>
      </trkpt>
      <trkpt lat="62.640265347802" lon="17.897832848536">
        <ele>16.8</ele>
        <time>2018-01-06T12:23:07Z</time>
      </trkpt>
      <trkpt lat="62.640285296724" lon="17.897935023897">
        <ele>16.6</ele>
        <time>2018-01-06T12:23:08Z</time>
      </trkpt>
      <trkpt lat="62.640314884831" lon="17.898027057159">
        <ele>16.4</ele>
        <time>2018-01-06T12:23:09Z</time>
      </trkpt>
      <trkpt lat="62.640351681372" lon="17.898130405986">
        <ele>16</ele>
        <time>2018-01-06T12:23:10Z</time>
      </trkpt>
      <trkpt lat="62.640391327759" lon="17.898225456732">
        <ele>15.4</ele>
        <time>2018-01-06T12:23:11Z</time>
      </trkpt>
      <trkpt lat="62.64043063887" lon="17.898316484166">
        <ele>14.8</ele>
        <time>2018-01-06T12:23:12Z</time>
      </trkpt>
      <trkpt lat="62.640478499519" lon="17.898418994803">
        <ele>14</ele>
        <time>2018-01-06T12:23:13Z</time>
      </trkpt>
      <trkpt lat="62.640528036548" lon="17.898522846544">
        <ele>13</ele>
        <time>2018-01-06T12:23:14Z</time>
      </trkpt>
      <trkpt lat="62.640578411767" lon="17.898625524819">
        <ele>12.2</ele>
        <time>2018-01-06T12:23:15Z</time>
      </trkpt>
      <trkpt lat="62.640636414515" lon="17.898747313826">
        <ele>11.4</ele>
        <time>2018-01-06T12:23:16Z</time>
      </trkpt>
      <trkpt lat="62.640690226313" lon="17.898861475304">
        <ele>10.8</ele>
        <time>2018-01-06T12:23:17Z</time>
      </trkpt>
      <trkpt lat="62.64074496012" lon="17.898978570447">
        <ele>10</ele>
        <time>2018-01-06T12:23:18Z</time>
      </trkpt>
      <trkpt lat="62.640789551828" lon="17.899073621193">
        <ele>9.2</ele>
        <time>2018-01-06T12:23:19Z</time>
      </trkpt>
      <trkpt lat="62.640835903735" lon="17.899172024699">
        <ele>8.4</ele>
        <time>2018-01-06T12:23:20Z</time>
      </trkpt>
      <trkpt lat="62.640872113543" lon="17.899251820387">
        <ele>7.8</ele>
        <time>2018-01-06T12:23:21Z</time>
      </trkpt>
      <trkpt lat="62.640908071894" lon="17.899329185324">
        <ele>7.4</ele>
        <time>2018-01-06T12:23:22Z</time>
      </trkpt>
      <trkpt lat="62.640943275874" lon="17.899403951872">
        <ele>7.2</ele>
        <time>2018-01-06T12:23:23Z</time>
      </trkpt>
      <trkpt lat="62.640969511221" lon="17.899470671796">
        <ele>7.2</ele>
        <time>2018-01-06T12:23:24Z</time>
      </trkpt>
      <trkpt lat="62.641000943346" lon="17.899528758363">
        <ele>7.2</ele>
        <time>2018-01-06T12:23:25Z</time>
      </trkpt>
      <trkpt lat="62.641026340503" lon="17.899574607356">
        <ele>7.6</ele>
        <time>2018-01-06T12:23:26Z</time>
      </trkpt>
      <trkpt lat="62.641051402384" lon="17.899626826593">
        <ele>8</ele>
        <time>2018-01-06T12:23:27Z</time>
      </trkpt>
      <trkpt lat="62.641083672699" lon="17.899687260092">
        <ele>8.2</ele>
        <time>2018-01-06T12:23:28Z</time>
      </trkpt>
      <trkpt lat="62.641113428444" lon="17.89972598447">
        <ele>8.4</ele>
        <time>2018-01-06T12:23:29Z</time>
      </trkpt>
      <trkpt lat="62.641144106198" lon="17.899776192051">
        <ele>8.6</ele>
        <time>2018-01-06T12:23:30Z</time>
      </trkpt>
      <trkpt lat="62.641171766468" lon="17.899825561442">
        <ele>8.4</ele>
        <time>2018-01-06T12:23:31Z</time>
      </trkpt>
      <trkpt lat="62.641195738702" lon="17.899869063503">
        <ele>8.2</ele>
        <time>2018-01-06T12:23:32Z</time>
      </trkpt>
      <trkpt lat="62.641224572438" lon="17.899922707663">
        <ele>8.4</ele>
        <time>2018-01-06T12:23:33Z</time>
      </trkpt>
      <trkpt lat="62.641250807785" lon="17.899968556656">
        <ele>8.2</ele>
        <time>2018-01-06T12:23:34Z</time>
      </trkpt>
      <trkpt lat="62.641279557702" lon="17.900021194988">
        <ele>8.2</ele>
        <time>2018-01-06T12:23:35Z</time>
      </trkpt>
      <trkpt lat="62.641309564904" lon="17.900070145284">
        <ele>8</ele>
        <time>2018-01-06T12:23:36Z</time>
      </trkpt>
      <trkpt lat="62.641331776939" lon="17.900106774187">
        <ele>8.2</ele>
        <time>2018-01-06T12:23:37Z</time>
      </trkpt>
      <trkpt lat="62.641363209064" lon="17.900168967885">
        <ele>8.2</ele>
        <time>2018-01-06T12:23:38Z</time>
      </trkpt>
      <trkpt lat="62.641386510746" lon="17.900212805222">
        <ele>8</ele>
        <time>2018-01-06T12:23:39Z</time>
      </trkpt>
      <trkpt lat="62.641412243179" lon="17.900278100223">
        <ele>8.2</ele>
        <time>2018-01-06T12:23:40Z</time>
      </trkpt>
      <trkpt lat="62.64143311411" lon="17.900330570917">
        <ele>8.2</ele>
        <time>2018-01-06T12:23:41Z</time>
      </trkpt>
      <trkpt lat="62.641448452987" lon="17.900400895058">
        <ele>8.2</ele>
        <time>2018-01-06T12:23:42Z</time>
      </trkpt>
      <trkpt lat="62.641454739412" lon="17.900468788448">
        <ele>8.4</ele>
        <time>2018-01-06T12:23:43Z</time>
      </trkpt>
      <trkpt lat="62.64145155429" lon="17.900544728462">
        <ele>8.2</ele>
        <time>2018-01-06T12:23:44Z</time>
      </trkpt>
      <trkpt lat="62.641443926761" lon="17.900600635735">
        <ele>8.2</ele>
        <time>2018-01-06T12:23:45Z</time>
      </trkpt>
      <trkpt lat="62.641427833513" lon="17.900654363714">
        <ele>7.8</ele>
        <time>2018-01-06T12:23:46Z</time>
      </trkpt>
      <trkpt lat="62.641405034745" lon="17.900685460563">
        <ele>8</ele>
        <time>2018-01-06T12:23:47Z</time>
      </trkpt>
      <trkpt lat="62.641370333679" lon="17.900704655114">
        <ele>7.8</ele>
        <time>2018-01-06T12:23:48Z</time>
      </trkpt>
      <trkpt lat="62.641336135527" lon="17.900688980961">
        <ele>7.8</ele>
        <time>2018-01-06T12:23:49Z</time>
      </trkpt>
      <trkpt lat="62.641311911836" lon="17.900655956275">
        <ele>8</ele>
        <time>2018-01-06T12:23:50Z</time>
      </trkpt>
      <trkpt lat="62.641287017593" lon="17.900629301833">
        <ele>8.4</ele>
        <time>2018-01-06T12:23:51Z</time>
      </trkpt>
      <trkpt lat="62.641263548273" lon="17.900585045401">
        <ele>8.4</ele>
        <time>2018-01-06T12:23:52Z</time>
      </trkpt>
      <trkpt lat="62.641240917143" lon="17.900515978545">
        <ele>8.6</ele>
        <time>2018-01-06T12:23:53Z</time>
      </trkpt>
      <trkpt lat="62.64122105204" lon="17.900456802331">
        <ele>8.8</ele>
        <time>2018-01-06T12:23:54Z</time>
      </trkpt>
      <trkpt lat="62.641206299896" lon="17.900410869519">
        <ele>9.2</ele>
        <time>2018-01-06T12:23:55Z</time>
      </trkpt>
      <trkpt lat="62.641184087861" lon="17.900355213703">
        <ele>9</ele>
        <time>2018-01-06T12:23:56Z</time>
      </trkpt>
      <trkpt lat="62.641169670993" lon="17.900307101597">
        <ele>9.2</ele>
        <time>2018-01-06T12:23:57Z</time>
      </trkpt>
      <trkpt lat="62.641151649908" lon="17.900255301455">
        <ele>9.4</ele>
        <time>2018-01-06T12:23:58Z</time>
      </trkpt>
      <trkpt lat="62.641132706814" lon="17.900204507141">
        <ele>9.2</ele>
        <time>2018-01-06T12:23:59Z</time>
      </trkpt>
      <trkpt lat="62.641116529747" lon="17.900159496338">
        <ele>9.4</ele>
        <time>2018-01-06T12:24:00Z</time>
      </trkpt>
      <trkpt lat="62.641098927757" lon="17.900108702024">
        <ele>9.6</ele>
        <time>2018-01-06T12:24:01Z</time>
      </trkpt>
      <trkpt lat="62.641082583052" lon="17.900061595746">
        <ele>9.4</ele>
        <time>2018-01-06T12:24:02Z</time>
      </trkpt>
      <trkpt lat="62.641068836736" lon="17.900022787549">
        <ele>9.6</ele>
        <time>2018-01-06T12:24:03Z</time>
      </trkpt>
      <trkpt lat="62.641049306909" lon="17.899967047914">
        <ele>9.6</ele>
        <time>2018-01-06T12:24:04Z</time>
      </trkpt>
      <trkpt lat="62.641032878385" lon="17.89991373903">
        <ele>9.8</ele>
        <time>2018-01-06T12:24:05Z</time>
      </trkpt>
      <trkpt lat="62.64101821006" lon="17.899869482598">
        <ele>9.8</ele>
        <time>2018-01-06T12:24:06Z</time>
      </trkpt>
      <trkpt lat="62.64099976988" lon="17.899819275017">
        <ele>9.8</ele>
        <time>2018-01-06T12:24:07Z</time>
      </trkpt>
      <trkpt lat="62.640986107383" lon="17.899769654169">
        <ele>9.6</ele>
        <time>2018-01-06T12:24:08Z</time>
      </trkpt>
      <trkpt lat="62.640970684687" lon="17.89971927895">
        <ele>9.6</ele>
        <time>2018-01-06T12:24:09Z</time>
      </trkpt>
      <trkpt lat="62.640952915059" lon="17.899649122447">
        <ele>9.6</ele>
        <time>2018-01-06T12:24:10Z</time>
      </trkpt>
      <trkpt lat="62.640937073268" lon="17.89959690321">
        <ele>9.6</ele>
        <time>2018-01-06T12:24:11Z</time>
      </trkpt>
      <trkpt lat="62.64091762726" lon="17.899534458055">
        <ele>9.6</ele>
        <time>2018-01-06T12:24:12Z</time>
      </trkpt>
      <trkpt lat="62.640897426881" lon="17.899470420339">
        <ele>9.6</ele>
        <time>2018-01-06T12:24:13Z</time>
      </trkpt>
      <trkpt lat="62.640882088004" lon="17.89942591245">
        <ele>9.4</ele>
        <time>2018-01-06T12:24:14Z</time>
      </trkpt>
      <trkpt lat="62.64086230672" lon="17.89937813562">
        <ele>9.4</ele>
        <time>2018-01-06T12:24:15Z</time>
      </trkpt>
      <trkpt lat="62.640847806033" lon="17.89932868241">
        <ele>9.4</ele>
        <time>2018-01-06T12:24:16Z</time>
      </trkpt>
      <trkpt lat="62.640830539319" lon="17.899281576132">
        <ele>9.2</ele>
        <time>2018-01-06T12:24:17Z</time>
      </trkpt>
      <trkpt lat="62.640810171302" lon="17.899227345239">
        <ele>9.2</ele>
        <time>2018-01-06T12:24:18Z</time>
      </trkpt>
      <trkpt lat="62.640796257348" lon="17.899194404372">
        <ele>9.2</ele>
        <time>2018-01-06T12:24:19Z</time>
      </trkpt>
      <trkpt lat="62.640773961494" lon="17.899139419108">
        <ele>9.2</ele>
        <time>2018-01-06T12:24:20Z</time>
      </trkpt>
      <trkpt lat="62.640758119703" lon="17.899093905391">
        <ele>9</ele>
        <time>2018-01-06T12:24:21Z</time>
      </trkpt>
      <trkpt lat="62.6407382546" lon="17.899047804941">
        <ele>8.8</ele>
        <time>2018-01-06T12:24:22Z</time>
      </trkpt>
      <trkpt lat="62.640714450004" lon="17.898994831333">
        <ele>8.8</ele>
        <time>2018-01-06T12:24:23Z</time>
      </trkpt>
      <trkpt lat="62.640695003996" lon="17.898949652892">
        <ele>8.6</ele>
        <time>2018-01-06T12:24:24Z</time>
      </trkpt>
      <trkpt lat="62.64066868483" lon="17.898890057583">
        <ele>8.6</ele>
        <time>2018-01-06T12:24:25Z</time>
      </trkpt>
      <trkpt lat="62.640647310985" lon="17.898839263269">
        <ele>8.4</ele>
        <time>2018-01-06T12:24:26Z</time>
      </trkpt>
      <trkpt lat="62.640632977936" lon="17.898804729841">
        <ele>8.6</ele>
        <time>2018-01-06T12:24:27Z</time>
      </trkpt>
      <trkpt lat="62.640609927711" lon="17.898755108993">
        <ele>8.4</ele>
        <time>2018-01-06T12:24:28Z</time>
      </trkpt>
      <trkpt lat="62.64059408592" lon="17.898719234461">
        <ele>8.4</ele>
        <time>2018-01-06T12:24:29Z</time>
      </trkpt>
      <trkpt lat="62.640579417595" lon="17.898686461232">
        <ele>8.6</ele>
        <time>2018-01-06T12:24:30Z</time>
      </trkpt>
      <trkpt lat="62.6405706166" lon="17.898658717143">
        <ele>8.6</ele>
        <time>2018-01-06T12:24:31Z</time>
      </trkpt>
      <trkpt lat="62.640558798121" lon="17.8986338229">
        <ele>8.6</ele>
        <time>2018-01-06T12:24:32Z</time>
      </trkpt>
      <trkpt lat="62.64054798547" lon="17.898604318612">
        <ele>8.8</ele>
        <time>2018-01-06T12:24:33Z</time>
      </trkpt>
      <trkpt lat="62.640536502267" lon="17.898572802668">
        <ele>9.2</ele>
        <time>2018-01-06T12:24:34Z</time>
      </trkpt>
      <trkpt lat="62.640520911933" lon="17.898545561493">
        <ele>9.6</ele>
        <time>2018-01-06T12:24:35Z</time>
      </trkpt>
      <trkpt lat="62.640506578884" lon="17.898518823232">
        <ele>10.2</ele>
        <time>2018-01-06T12:24:36Z</time>
      </trkpt>
      <trkpt lat="62.640494089853" lon="17.898495437731">
        <ele>10.6</ele>
        <time>2018-01-06T12:24:37Z</time>
      </trkpt>
      <trkpt lat="62.640480678813" lon="17.898471381678">
        <ele>10.8</ele>
        <time>2018-01-06T12:24:38Z</time>
      </trkpt>
      <trkpt lat="62.640468273601" lon="17.898446235978">
        <ele>11</ele>
        <time>2018-01-06T12:24:39Z</time>
      </trkpt>
      <trkpt lat="62.640454192009" lon="17.898421257916">
        <ele>11</ele>
        <time>2018-01-06T12:24:40Z</time>
      </trkpt>
      <trkpt lat="62.640439356046" lon="17.89839829151">
        <ele>11.2</ele>
        <time>2018-01-06T12:24:41Z</time>
      </trkpt>
      <trkpt lat="62.640428878671" lon="17.898375828018">
        <ele>11.2</ele>
        <time>2018-01-06T12:24:42Z</time>
      </trkpt>
      <trkpt lat="62.640415886726" lon="17.898349005938">
        <ele>11.4</ele>
        <time>2018-01-06T12:24:43Z</time>
      </trkpt>
      <trkpt lat="62.640402056591" lon="17.898326626265">
        <ele>11.6</ele>
        <time>2018-01-06T12:24:44Z</time>
      </trkpt>
      <trkpt lat="62.640389902836" lon="17.898303827497">
        <ele>11.8</ele>
        <time>2018-01-06T12:24:45Z</time>
      </trkpt>
      <trkpt lat="62.640373055217" lon="17.898280609634">
        <ele>12</ele>
        <time>2018-01-06T12:24:46Z</time>
      </trkpt>
      <trkpt lat="62.640358638349" lon="17.8982566374">
        <ele>12</ele>
        <time>2018-01-06T12:24:47Z</time>
      </trkpt>
      <trkpt lat="62.640343299472" lon="17.898231407881">
        <ele>12.2</ele>
        <time>2018-01-06T12:24:48Z</time>
      </trkpt>
      <trkpt lat="62.64032670331" lon="17.898211458959">
        <ele>12.4</ele>
        <time>2018-01-06T12:24:49Z</time>
      </trkpt>
      <trkpt lat="62.640307844035" lon="17.898188073458">
        <ele>12.6</ele>
        <time>2018-01-06T12:24:50Z</time>
      </trkpt>
      <trkpt lat="62.640286134914" lon="17.898166196699">
        <ele>12.8</ele>
        <time>2018-01-06T12:24:51Z</time>
      </trkpt>
      <trkpt lat="62.640261911223" lon="17.898148007976">
        <ele>13</ele>
        <time>2018-01-06T12:24:52Z</time>
      </trkpt>
      <trkpt lat="62.640242213758" lon="17.898122694638">
        <ele>13.2</ele>
        <time>2018-01-06T12:24:53Z</time>
      </trkpt>
      <trkpt lat="62.64021941499" lon="17.898105930838">
        <ele>13.4</ele>
        <time>2018-01-06T12:24:54Z</time>
      </trkpt>
      <trkpt lat="62.640193682557" lon="17.898096459291">
        <ele>13.4</ele>
        <time>2018-01-06T12:24:55Z</time>
      </trkpt>
      <trkpt lat="62.640172057255" lon="17.898093944721">
        <ele>13.4</ele>
        <time>2018-01-06T12:24:56Z</time>
      </trkpt>
      <trkpt lat="62.640150599591" lon="17.898098638585">
        <ele>13.4</ele>
        <time>2018-01-06T12:24:57Z</time>
      </trkpt>
      <trkpt lat="62.640127130271" lon="17.898102661897">
        <ele>13.4</ele>
        <time>2018-01-06T12:24:58Z</time>
      </trkpt>
      <trkpt lat="62.640104331503" lon="17.898116324394">
        <ele>13.6</ele>
        <time>2018-01-06T12:24:59Z</time>
      </trkpt>
      <trkpt lat="62.640079269622" lon="17.898133339651">
        <ele>13.8</ele>
        <time>2018-01-06T12:25:00Z</time>
      </trkpt>
      <trkpt lat="62.640055800302" lon="17.898153959125">
        <ele>13.8</ele>
        <time>2018-01-06T12:25:01Z</time>
      </trkpt>
      <trkpt lat="62.640034426457" lon="17.898178853368">
        <ele>14</ele>
        <time>2018-01-06T12:25:02Z</time>
      </trkpt>
      <trkpt lat="62.640013890802" lon="17.898202071231">
        <ele>14.2</ele>
        <time>2018-01-06T12:25:03Z</time>
      </trkpt>
      <trkpt lat="62.639994360975" lon="17.898226714017">
        <ele>14.2</ele>
        <time>2018-01-06T12:25:04Z</time>
      </trkpt>
      <trkpt lat="62.639977597175" lon="17.898257391771">
        <ele>14.4</ele>
        <time>2018-01-06T12:25:05Z</time>
      </trkpt>
      <trkpt lat="62.639965359601" lon="17.89829351776">
        <ele>14.4</ele>
        <time>2018-01-06T12:25:06Z</time>
      </trkpt>
      <trkpt lat="62.639950272181" lon="17.898339785848">
        <ele>14.6</ele>
        <time>2018-01-06T12:25:07Z</time>
      </trkpt>
      <trkpt lat="62.639941471186" lon="17.89838068952">
        <ele>14.8</ele>
        <time>2018-01-06T12:25:08Z</time>
      </trkpt>
      <trkpt lat="62.639926132309" lon="17.898436512974">
        <ele>15.2</ele>
        <time>2018-01-06T12:25:09Z</time>
      </trkpt>
      <trkpt lat="62.63991347564" lon="17.898495186274">
        <ele>15.4</ele>
        <time>2018-01-06T12:25:10Z</time>
      </trkpt>
      <trkpt lat="62.639905345197" lon="17.898547070235">
        <ele>15.4</ele>
        <time>2018-01-06T12:25:11Z</time>
      </trkpt>
      <trkpt lat="62.639892604709" lon="17.898606581725">
        <ele>15.4</ele>
        <time>2018-01-06T12:25:12Z</time>
      </trkpt>
      <trkpt lat="62.639882714067" lon="17.898673804563">
        <ele>15.4</ele>
        <time>2018-01-06T12:25:13Z</time>
      </trkpt>
      <trkpt lat="62.639865447353" lon="17.898737590822">
        <ele>15.4</ele>
        <time>2018-01-06T12:25:14Z</time>
      </trkpt>
      <trkpt lat="62.639854969978" lon="17.898779416503">
        <ele>15.4</ele>
        <time>2018-01-06T12:25:15Z</time>
      </trkpt>
      <trkpt lat="62.639839966377" lon="17.898861307666">
        <ele>15.2</ele>
        <time>2018-01-06T12:25:16Z</time>
      </trkpt>
      <trkpt lat="62.639824543681" lon="17.898920148604">
        <ele>15.4</ele>
        <time>2018-01-06T12:25:17Z</time>
      </trkpt>
      <trkpt lat="62.639806941691" lon="17.898983683406">
        <ele>15.4</ele>
        <time>2018-01-06T12:25:18Z</time>
      </trkpt>
      <trkpt lat="62.63978690895" lon="17.899047469665">
        <ele>15.2</ele>
        <time>2018-01-06T12:25:19Z</time>
      </trkpt>
      <trkpt lat="62.639763774906" lon="17.899120895109">
        <ele>15</ele>
        <time>2018-01-06T12:25:20Z</time>
      </trkpt>
      <trkpt lat="62.639750363866" lon="17.899183088807">
        <ele>14.8</ele>
        <time>2018-01-06T12:25:21Z</time>
      </trkpt>
      <trkpt lat="62.639733180971" lon="17.899296328276">
        <ele>14.8</ele>
        <time>2018-01-06T12:25:22Z</time>
      </trkpt>
      <trkpt lat="62.639717506818" lon="17.899361036544">
        <ele>14.6</ele>
        <time>2018-01-06T12:25:23Z</time>
      </trkpt>
      <trkpt lat="62.639685152684" lon="17.899455500557">
        <ele>14.4</ele>
        <time>2018-01-06T12:25:24Z</time>
      </trkpt>
      <trkpt lat="62.639667550694" lon="17.899530853838">
        <ele>14.2</ele>
        <time>2018-01-06T12:25:25Z</time>
      </trkpt>
      <trkpt lat="62.639647266496" lon="17.899595813563">
        <ele>14</ele>
        <time>2018-01-06T12:25:26Z</time>
      </trkpt>
      <trkpt lat="62.639626563203" lon="17.899669909559">
        <ele>14</ele>
        <time>2018-01-06T12:25:27Z</time>
      </trkpt>
      <trkpt lat="62.639610386136" lon="17.899747693591">
        <ele>13.6</ele>
        <time>2018-01-06T12:25:28Z</time>
      </trkpt>
      <trkpt lat="62.639585827169" lon="17.899822041044">
        <ele>13.6</ele>
        <time>2018-01-06T12:25:29Z</time>
      </trkpt>
      <trkpt lat="62.639562693125" lon="17.899882223086">
        <ele>13.4</ele>
        <time>2018-01-06T12:25:30Z</time>
      </trkpt>
      <trkpt lat="62.639551629017" lon="17.899932598305">
        <ele>13.2</ele>
        <time>2018-01-06T12:25:31Z</time>
      </trkpt>
      <trkpt lat="62.639534865217" lon="17.899986242465">
        <ele>13.4</ele>
        <time>2018-01-06T12:25:32Z</time>
      </trkpt>
      <trkpt lat="62.639516341218" lon="17.900049022896">
        <ele>13.2</ele>
        <time>2018-01-06T12:25:33Z</time>
      </trkpt>
      <trkpt lat="62.639501672893" lon="17.900096212993">
        <ele>13.2</ele>
        <time>2018-01-06T12:25:34Z</time>
      </trkpt>
      <trkpt lat="62.639482394523" lon="17.900159747795">
        <ele>13.2</ele>
        <time>2018-01-06T12:25:35Z</time>
      </trkpt>
      <trkpt lat="62.639465379266" lon="17.900221019484">
        <ele>13.2</ele>
        <time>2018-01-06T12:25:36Z</time>
      </trkpt>
      <trkpt lat="62.639444256878" lon="17.900276507662">
        <ele>13.2</ele>
        <time>2018-01-06T12:25:37Z</time>
      </trkpt>
      <trkpt lat="62.639420452282" lon="17.900348927278">
        <ele>13.2</ele>
        <time>2018-01-06T12:25:38Z</time>
      </trkpt>
      <trkpt lat="62.639402515016" lon="17.900401817067">
        <ele>13.2</ele>
        <time>2018-01-06T12:25:39Z</time>
      </trkpt>
      <trkpt lat="62.639376614945" lon="17.900474823416">
        <ele>13</ele>
        <time>2018-01-06T12:25:40Z</time>
      </trkpt>
      <trkpt lat="62.639360102602" lon="17.900545063738">
        <ele>13</ele>
        <time>2018-01-06T12:25:41Z</time>
      </trkpt>
      <trkpt lat="62.63934015368" lon="17.900619914105">
        <ele>13</ele>
        <time>2018-01-06T12:25:42Z</time>
      </trkpt>
      <trkpt lat="62.639319534206" lon="17.900694680653">
        <ele>13</ele>
        <time>2018-01-06T12:25:43Z</time>
      </trkpt>
      <trkpt lat="62.639307631908" lon="17.900760478568">
        <ele>12.8</ele>
        <time>2018-01-06T12:25:44Z</time>
      </trkpt>
      <trkpt lat="62.639293885592" lon="17.900813452176">
        <ele>12.6</ele>
        <time>2018-01-06T12:25:45Z</time>
      </trkpt>
      <trkpt lat="62.639274271946" lon="17.90087262839">
        <ele>12.6</ele>
        <time>2018-01-06T12:25:46Z</time>
      </trkpt>
      <trkpt lat="62.639259268345" lon="17.900923338885">
        <ele>12.4</ele>
        <time>2018-01-06T12:25:47Z</time>
      </trkpt>
      <trkpt lat="62.639251054083" lon="17.900980335805">
        <ele>12.4</ele>
        <time>2018-01-06T12:25:48Z</time>
      </trkpt>
      <trkpt lat="62.639230266971" lon="17.901045127892">
        <ele>12.6</ele>
        <time>2018-01-06T12:25:49Z</time>
      </trkpt>
      <trkpt lat="62.639209144583" lon="17.901111763997">
        <ele>12.8</ele>
        <time>2018-01-06T12:25:50Z</time>
      </trkpt>
      <trkpt lat="62.639190872041" lon="17.901183261604">
        <ele>13</ele>
        <time>2018-01-06T12:25:51Z</time>
      </trkpt>
      <trkpt lat="62.639168157092" lon="17.901264566034">
        <ele>13</ele>
        <time>2018-01-06T12:25:52Z</time>
      </trkpt>
      <trkpt lat="62.639146950885" lon="17.901346624835">
        <ele>12.8</ele>
        <time>2018-01-06T12:25:53Z</time>
      </trkpt>
      <trkpt lat="62.639138233709" lon="17.901412674207">
        <ele>12.8</ele>
        <time>2018-01-06T12:25:54Z</time>
      </trkpt>
      <trkpt lat="62.639130522361" lon="17.90148534528">
        <ele>12.6</ele>
        <time>2018-01-06T12:25:55Z</time>
      </trkpt>
      <trkpt lat="62.639125744678" lon="17.901559189819">
        <ele>12.4</ele>
        <time>2018-01-06T12:25:56Z</time>
      </trkpt>
      <trkpt lat="62.639123733022" lon="17.901620964422">
        <ele>12.2</ele>
        <time>2018-01-06T12:25:57Z</time>
      </trkpt>
      <trkpt lat="62.639122308099" lon="17.901691456201">
        <ele>12</ele>
        <time>2018-01-06T12:25:58Z</time>
      </trkpt>
      <trkpt lat="62.639117865692" lon="17.901767982948">
        <ele>12</ele>
        <time>2018-01-06T12:25:59Z</time>
      </trkpt>
      <trkpt lat="62.639121134633" lon="17.901838055632">
        <ele>12</ele>
        <time>2018-01-06T12:26:00Z</time>
      </trkpt>
      <trkpt lat="62.639116273131" lon="17.901934196025">
        <ele>12</ele>
        <time>2018-01-06T12:26:01Z</time>
      </trkpt>
      <trkpt lat="62.639118368606" lon="17.902011896238">
        <ele>12</ele>
        <time>2018-01-06T12:26:02Z</time>
      </trkpt>
      <trkpt lat="62.639114345294" lon="17.902099235636">
        <ele>11.8</ele>
        <time>2018-01-06T12:26:03Z</time>
      </trkpt>
      <trkpt lat="62.639105963394" lon="17.902197136228">
        <ele>11.8</ele>
        <time>2018-01-06T12:26:04Z</time>
      </trkpt>
      <trkpt lat="62.639095486019" lon="17.902281039047">
        <ele>11.6</ele>
        <time>2018-01-06T12:26:05Z</time>
      </trkpt>
      <trkpt lat="62.639074195993" lon="17.902390255204">
        <ele>11.4</ele>
        <time>2018-01-06T12:26:06Z</time>
      </trkpt>
      <trkpt lat="62.639056258727" lon="17.902477678421">
        <ele>11</ele>
        <time>2018-01-06T12:26:07Z</time>
      </trkpt>
      <trkpt lat="62.639023988412" lon="17.902570046959">
        <ele>10.6</ele>
        <time>2018-01-06T12:26:08Z</time>
      </trkpt>
      <trkpt lat="62.638994987038" lon="17.902643388584">
        <ele>10.4</ele>
        <time>2018-01-06T12:26:09Z</time>
      </trkpt>
      <trkpt lat="62.638958609592" lon="17.902719412417">
        <ele>9.8</ele>
        <time>2018-01-06T12:26:10Z</time>
      </trkpt>
      <trkpt lat="62.638924327621" lon="17.902800884485">
        <ele>9.6</ele>
        <time>2018-01-06T12:26:11Z</time>
      </trkpt>
      <trkpt lat="62.638886357614" lon="17.902903059846">
        <ele>9.4</ele>
        <time>2018-01-06T12:26:12Z</time>
      </trkpt>
      <trkpt lat="62.638846962684" lon="17.903012946555">
        <ele>9</ele>
        <time>2018-01-06T12:26:13Z</time>
      </trkpt>
      <trkpt lat="62.638814860007" lon="17.903099950677">
        <ele>8.4</ele>
        <time>2018-01-06T12:26:14Z</time>
      </trkpt>
      <trkpt lat="62.638779739846" lon="17.9031851946">
        <ele>7.8</ele>
        <time>2018-01-06T12:26:15Z</time>
      </trkpt>
      <trkpt lat="62.638748307721" lon="17.903252333619">
        <ele>7.4</ele>
        <time>2018-01-06T12:26:16Z</time>
      </trkpt>
      <trkpt lat="62.638714444845" lon="17.90332433414">
        <ele>7.4</ele>
        <time>2018-01-06T12:26:17Z</time>
      </trkpt>
      <trkpt lat="62.638677732123" lon="17.903389545322">
        <ele>7.4</ele>
        <time>2018-01-06T12:26:18Z</time>
      </trkpt>
      <trkpt lat="62.638654011346" lon="17.903439249989">
        <ele>7.6</ele>
        <time>2018-01-06T12:26:19Z</time>
      </trkpt>
      <trkpt lat="62.638630458207" lon="17.903485937172">
        <ele>8</ele>
        <time>2018-01-06T12:26:20Z</time>
      </trkpt>
      <trkpt lat="62.638612101846" lon="17.903522230799">
        <ele>8.2</ele>
        <time>2018-01-06T12:26:21Z</time>
      </trkpt>
      <trkpt lat="62.638594751313" lon="17.903555423123">
        <ele>8.2</ele>
        <time>2018-01-06T12:26:22Z</time>
      </trkpt>
      <trkpt lat="62.638577316961" lon="17.903585765601">
        <ele>8.4</ele>
        <time>2018-01-06T12:26:23Z</time>
      </trkpt>
      <trkpt lat="62.638564408835" lon="17.903611078939">
        <ele>8.6</ele>
        <time>2018-01-06T12:26:24Z</time>
      </trkpt>
      <trkpt lat="62.638549908148" lon="17.903638823028">
        <ele>8.8</ele>
        <time>2018-01-06T12:26:25Z</time>
      </trkpt>
      <trkpt lat="62.638536748565" lon="17.903661621796">
        <ele>9.2</ele>
        <time>2018-01-06T12:26:26Z</time>
      </trkpt>
      <trkpt lat="62.638526187371" lon="17.903679307605">
        <ele>9.6</ele>
        <time>2018-01-06T12:26:27Z</time>
      </trkpt>
      <trkpt lat="62.638514787987" lon="17.903700597631">
        <ele>9.8</ele>
        <time>2018-01-06T12:26:28Z</time>
      </trkpt>
      <trkpt lat="62.638505400259" lon="17.903718702535">
        <ele>10</ele>
        <time>2018-01-06T12:26:29Z</time>
      </trkpt>
      <trkpt lat="62.638492492133" lon="17.903741417484">
        <ele>10.6</ele>
        <time>2018-01-06T12:26:30Z</time>
      </trkpt>
      <trkpt lat="62.638480841292" lon="17.903760612035">
        <ele>11</ele>
        <time>2018-01-06T12:26:31Z</time>
      </trkpt>
      <trkpt lat="62.638471453564" lon="17.903776370007">
        <ele>11.6</ele>
        <time>2018-01-06T12:26:32Z</time>
      </trkpt>
      <trkpt lat="62.638462736388" lon="17.90380126425">
        <ele>11.8</ele>
        <time>2018-01-06T12:26:33Z</time>
      </trkpt>
      <trkpt lat="62.638453767755" lon="17.903834456574">
        <ele>12.2</ele>
        <time>2018-01-06T12:26:34Z</time>
      </trkpt>
      <trkpt lat="62.638443793294" lon="17.90385826117">
        <ele>12.6</ele>
        <time>2018-01-06T12:26:35Z</time>
      </trkpt>
      <trkpt lat="62.638433567376" lon="17.903878210092">
        <ele>12.8</ele>
        <time>2018-01-06T12:26:36Z</time>
      </trkpt>
      <trkpt lat="62.63842317382" lon="17.903896650272">
        <ele>13</ele>
        <time>2018-01-06T12:26:37Z</time>
      </trkpt>
      <trkpt lat="62.638410517151" lon="17.903918694669">
        <ele>13.2</ele>
        <time>2018-01-06T12:26:38Z</time>
      </trkpt>
      <trkpt lat="62.638400458871" lon="17.903935961383">
        <ele>13.6</ele>
        <time>2018-01-06T12:26:39Z</time>
      </trkpt>
      <trkpt lat="62.638387047831" lon="17.9039647113">
        <ele>13.8</ele>
        <time>2018-01-06T12:26:40Z</time>
      </trkpt>
      <trkpt lat="62.638373301515" lon="17.903986588059">
        <ele>14</ele>
        <time>2018-01-06T12:26:41Z</time>
      </trkpt>
      <trkpt lat="62.638361063941" lon="17.90400997356">
        <ele>14.2</ele>
        <time>2018-01-06T12:26:42Z</time>
      </trkpt>
      <trkpt lat="62.638347820539" lon="17.904030676853">
        <ele>14.4</ele>
        <time>2018-01-06T12:26:43Z</time>
      </trkpt>
      <trkpt lat="62.638335666784" lon="17.904054146173">
        <ele>14.4</ele>
        <time>2018-01-06T12:26:44Z</time>
      </trkpt>
      <trkpt lat="62.638324518857" lon="17.904075520018">
        <ele>14.6</ele>
        <time>2018-01-06T12:26:45Z</time>
      </trkpt>
      <trkpt lat="62.638313873844" lon="17.904097312958">
        <ele>14.6</ele>
        <time>2018-01-06T12:26:46Z</time>
      </trkpt>
      <trkpt lat="62.638305324306" lon="17.904113657663">
        <ele>14.8</ele>
        <time>2018-01-06T12:26:47Z</time>
      </trkpt>
      <trkpt lat="62.638295517483" lon="17.904131594929">
        <ele>15.2</ele>
        <time>2018-01-06T12:26:48Z</time>
      </trkpt>
      <trkpt lat="62.638285543022" lon="17.904149196919">
        <ele>15.4</ele>
        <time>2018-01-06T12:26:49Z</time>
      </trkpt>
      <trkpt lat="62.63827732876" lon="17.904163446149">
        <ele>15.8</ele>
        <time>2018-01-06T12:26:50Z</time>
      </trkpt>
      <trkpt lat="62.638269282136" lon="17.904180209949">
        <ele>16.4</ele>
        <time>2018-01-06T12:26:51Z</time>
      </trkpt>
      <trkpt lat="62.63826224134" lon="17.904193956265">
        <ele>16.8</ele>
        <time>2018-01-06T12:26:52Z</time>
      </trkpt>
      <trkpt lat="62.638252685974" lon="17.904208205495">
        <ele>17.4</ele>
        <time>2018-01-06T12:26:53Z</time>
      </trkpt>
      <trkpt lat="62.638241621866" lon="17.904221029802">
        <ele>17.8</ele>
        <time>2018-01-06T12:26:54Z</time>
      </trkpt>
      <trkpt lat="62.63823122831" lon="17.904238547973">
        <ele>18</ele>
        <time>2018-01-06T12:26:55Z</time>
      </trkpt>
      <trkpt lat="62.638220750935" lon="17.904252964841">
        <ele>18.4</ele>
        <time>2018-01-06T12:26:56Z</time>
      </trkpt>
      <trkpt lat="62.638211698483" lon="17.904267381709">
        <ele>18.8</ele>
        <time>2018-01-06T12:26:57Z</time>
      </trkpt>
      <trkpt lat="62.638199125633" lon="17.904284229328">
        <ele>19.2</ele>
        <time>2018-01-06T12:26:58Z</time>
      </trkpt>
      <trkpt lat="62.638184624946" lon="17.904308536838">
        <ele>19.4</ele>
        <time>2018-01-06T12:26:59Z</time>
      </trkpt>
      <trkpt lat="62.638168112603" lon="17.904325635914">
        <ele>19.8</ele>
        <time>2018-01-06T12:27:00Z</time>
      </trkpt>
      <trkpt lat="62.638150342975" lon="17.904333850176">
        <ele>20</ele>
        <time>2018-01-06T12:27:01Z</time>
      </trkpt>
      <trkpt lat="62.638131735157" lon="17.904344076094">
        <ele>20.2</ele>
        <time>2018-01-06T12:27:02Z</time>
      </trkpt>
      <trkpt lat="62.638117485927" lon="17.904347596492">
        <ele>20.2</ele>
        <time>2018-01-06T12:27:03Z</time>
      </trkpt>
      <trkpt lat="62.638101727955" lon="17.904353715279">
        <ele>20.6</ele>
        <time>2018-01-06T12:27:04Z</time>
      </trkpt>
      <trkpt lat="62.638082617223" lon="17.904363019188">
        <ele>20.6</ele>
        <time>2018-01-06T12:27:05Z</time>
      </trkpt>
      <trkpt lat="62.638064679957" lon="17.904378441884">
        <ele>20.8</ele>
        <time>2018-01-06T12:27:06Z</time>
      </trkpt>
      <trkpt lat="62.638049257261" lon="17.904390930915">
        <ele>21</ele>
        <time>2018-01-06T12:27:07Z</time>
      </trkpt>
      <trkpt lat="62.638025955579" lon="17.904404258136">
        <ele>21.2</ele>
        <time>2018-01-06T12:27:08Z</time>
      </trkpt>
      <trkpt lat="62.638003659725" lon="17.904414484054">
        <ele>21.4</ele>
        <time>2018-01-06T12:27:09Z</time>
      </trkpt>
      <trkpt lat="62.637985387183" lon="17.9044257158">
        <ele>21.4</ele>
        <time>2018-01-06T12:27:10Z</time>
      </trkpt>
      <trkpt lat="62.63796300751" lon="17.904428398008">
        <ele>21.4</ele>
        <time>2018-01-06T12:27:11Z</time>
      </trkpt>
      <trkpt lat="62.637935598697" lon="17.904432672777">
        <ele>21.4</ele>
        <time>2018-01-06T12:27:12Z</time>
      </trkpt>
      <trkpt lat="62.637916320327" lon="17.904440048849">
        <ele>21.6</ele>
        <time>2018-01-06T12:27:13Z</time>
      </trkpt>
      <trkpt lat="62.63789846688" lon="17.904452789337">
        <ele>21.6</ele>
        <time>2018-01-06T12:27:14Z</time>
      </trkpt>
      <trkpt lat="62.637872147714" lon="17.904459746314">
        <ele>21.6</ele>
        <time>2018-01-06T12:27:15Z</time>
      </trkpt>
      <trkpt lat="62.637847840204" lon="17.904476258657">
        <ele>21.6</ele>
        <time>2018-01-06T12:27:16Z</time>
      </trkpt>
      <trkpt lat="62.637830992585" lon="17.904493022457">
        <ele>21.8</ele>
        <time>2018-01-06T12:27:17Z</time>
      </trkpt>
      <trkpt lat="62.63780626598" lon="17.904508193696">
        <ele>22</ele>
        <time>2018-01-06T12:27:18Z</time>
      </trkpt>
      <trkpt lat="62.637783048117" lon="17.904527472066">
        <ele>22.4</ele>
        <time>2018-01-06T12:27:19Z</time>
      </trkpt>
      <trkpt lat="62.637767876878" lon="17.904541637477">
        <ele>22.6</ele>
        <time>2018-01-06T12:27:20Z</time>
      </trkpt>
      <trkpt lat="62.637746922128" lon="17.904558904191">
        <ele>23</ele>
        <time>2018-01-06T12:27:21Z</time>
      </trkpt>
      <trkpt lat="62.637724542455" lon="17.904579523665">
        <ele>23.2</ele>
        <time>2018-01-06T12:27:22Z</time>
      </trkpt>
      <trkpt lat="62.637708281569" lon="17.904601484243">
        <ele>23.4</ele>
        <time>2018-01-06T12:27:23Z</time>
      </trkpt>
      <trkpt lat="62.637687410638" lon="17.904620930251">
        <ele>23.4</ele>
        <time>2018-01-06T12:27:24Z</time>
      </trkpt>
      <trkpt lat="62.637666036793" lon="17.904635766214">
        <ele>23.6</ele>
        <time>2018-01-06T12:27:25Z</time>
      </trkpt>
      <trkpt lat="62.637651452287" lon="17.904652613833">
        <ele>23.8</ele>
        <time>2018-01-06T12:27:26Z</time>
      </trkpt>
      <trkpt lat="62.637633682659" lon="17.904672898031">
        <ele>23.8</ele>
        <time>2018-01-06T12:27:27Z</time>
      </trkpt>
      <trkpt lat="62.637614991022" lon="17.904698043731">
        <ele>23.8</ele>
        <time>2018-01-06T12:27:28Z</time>
      </trkpt>
      <trkpt lat="62.637595964109" lon="17.904721429232">
        <ele>23.8</ele>
        <time>2018-01-06T12:27:29Z</time>
      </trkpt>
      <trkpt lat="62.637578781214" lon="17.904744563276">
        <ele>24</ele>
        <time>2018-01-06T12:27:30Z</time>
      </trkpt>
      <trkpt lat="62.637565034898" lon="17.904774989573">
        <ele>24</ele>
        <time>2018-01-06T12:27:31Z</time>
      </trkpt>
      <trkpt lat="62.637552713505" lon="17.904805834965">
        <ele>24.2</ele>
        <time>2018-01-06T12:27:32Z</time>
      </trkpt>
      <trkpt lat="62.637539805379" lon="17.904833495235">
        <ele>24.4</ele>
        <time>2018-01-06T12:27:33Z</time>
      </trkpt>
      <trkpt lat="62.637528489814" lon="17.904869453586">
        <ele>24.4</ele>
        <time>2018-01-06T12:27:34Z</time>
      </trkpt>
      <trkpt lat="62.637516755154" lon="17.904906753041">
        <ele>24.8</ele>
        <time>2018-01-06T12:27:35Z</time>
      </trkpt>
      <trkpt lat="62.637507199788" lon="17.904945225962">
        <ele>24.8</ele>
        <time>2018-01-06T12:27:36Z</time>
      </trkpt>
      <trkpt lat="62.63749948844" lon="17.90497975939">
        <ele>25.2</ele>
        <time>2018-01-06T12:27:37Z</time>
      </trkpt>
      <trkpt lat="62.637492531463" lon="17.905018986682">
        <ele>25.4</ele>
        <time>2018-01-06T12:27:38Z</time>
      </trkpt>
      <trkpt lat="62.637484736296" lon="17.905050754083">
        <ele>25.8</ele>
        <time>2018-01-06T12:27:39Z</time>
      </trkpt>
      <trkpt lat="62.637478114595" lon="17.90508201857">
        <ele>26.2</ele>
        <time>2018-01-06T12:27:40Z</time>
      </trkpt>
      <trkpt lat="62.637474510378" lon="17.90510800246">
        <ele>26.4</ele>
        <time>2018-01-06T12:27:41Z</time>
      </trkpt>
      <trkpt lat="62.637469229781" lon="17.905143038802">
        <ele>26.8</ele>
        <time>2018-01-06T12:27:42Z</time>
      </trkpt>
      <trkpt lat="62.637459842053" lon="17.905181679361">
        <ele>27.2</ele>
        <time>2018-01-06T12:27:43Z</time>
      </trkpt>
      <trkpt lat="62.637453304171" lon="17.905212273296">
        <ele>27.6</ele>
        <time>2018-01-06T12:27:44Z</time>
      </trkpt>
      <trkpt lat="62.637448023574" lon="17.905247728733">
        <ele>27.8</ele>
        <time>2018-01-06T12:27:45Z</time>
      </trkpt>
      <trkpt lat="62.637440731321" lon="17.905288129491">
        <ele>28</ele>
        <time>2018-01-06T12:27:46Z</time>
      </trkpt>
      <trkpt lat="62.637443916443" lon="17.905321321815">
        <ele>28</ele>
        <time>2018-01-06T12:27:47Z</time>
      </trkpt>
      <trkpt lat="62.637438887303" lon="17.905358118356">
        <ele>28.2</ele>
        <time>2018-01-06T12:27:48Z</time>
      </trkpt>
      <trkpt lat="62.63743159505" lon="17.905406733376">
        <ele>28.2</ele>
        <time>2018-01-06T12:27:49Z</time>
      </trkpt>
      <trkpt lat="62.637430086308" lon="17.905446128306">
        <ele>28.4</ele>
        <time>2018-01-06T12:27:50Z</time>
      </trkpt>
      <trkpt lat="62.637423799883" lon="17.905491139109">
        <ele>28.4</ele>
        <time>2018-01-06T12:27:51Z</time>
      </trkpt>
      <trkpt lat="62.637415166526" lon="17.905527348917">
        <ele>28.4</ele>
        <time>2018-01-06T12:27:52Z</time>
      </trkpt>
      <trkpt lat="62.63740142021" lon="17.905576383032">
        <ele>28.4</ele>
        <time>2018-01-06T12:27:53Z</time>
      </trkpt>
      <trkpt lat="62.637387757713" lon="17.905620807102">
        <ele>28.6</ele>
        <time>2018-01-06T12:27:54Z</time>
      </trkpt>
      <trkpt lat="62.637369401352" lon="17.905652909779">
        <ele>28.6</ele>
        <time>2018-01-06T12:27:55Z</time>
      </trkpt>
      <trkpt lat="62.637344004195" lon="17.905681408239">
        <ele>28.6</ele>
        <time>2018-01-06T12:27:56Z</time>
      </trkpt>
      <trkpt lat="62.637324642006" lon="17.905701273342">
        <ele>28.6</ele>
        <time>2018-01-06T12:27:57Z</time>
      </trkpt>
      <trkpt lat="62.63729580827" lon="17.905712002174">
        <ele>28.6</ele>
        <time>2018-01-06T12:27:58Z</time>
      </trkpt>
      <trkpt lat="62.637269992018" lon="17.905719545884">
        <ele>28.6</ele>
        <time>2018-01-06T12:27:59Z</time>
      </trkpt>
      <trkpt lat="62.637242583205" lon="17.905708062681">
        <ele>28.4</ele>
        <time>2018-01-06T12:28:00Z</time>
      </trkpt>
      <trkpt lat="62.637218359514" lon="17.905702446808">
        <ele>28.6</ele>
        <time>2018-01-06T12:28:01Z</time>
      </trkpt>
      <trkpt lat="62.637196147479" lon="17.905694148727">
        <ele>28.6</ele>
        <time>2018-01-06T12:28:02Z</time>
      </trkpt>
      <trkpt lat="62.63717427072" lon="17.905686772655">
        <ele>28.6</ele>
        <time>2018-01-06T12:28:03Z</time>
      </trkpt>
      <trkpt lat="62.637150633762" lon="17.905670847045">
        <ele>28.8</ele>
        <time>2018-01-06T12:28:04Z</time>
      </trkpt>
      <trkpt lat="62.63712900846" lon="17.905658609471">
        <ele>29</ele>
        <time>2018-01-06T12:28:05Z</time>
      </trkpt>
      <trkpt lat="62.637106712606" lon="17.905647461544">
        <ele>29.4</ele>
        <time>2018-01-06T12:28:06Z</time>
      </trkpt>
      <trkpt lat="62.637086344589" lon="17.905633715228">
        <ele>29.6</ele>
        <time>2018-01-06T12:28:07Z</time>
      </trkpt>
      <trkpt lat="62.637063713459" lon="17.905606809329">
        <ele>29.8</ele>
        <time>2018-01-06T12:28:08Z</time>
      </trkpt>
      <trkpt lat="62.637046530564" lon="17.90557655067">
        <ele>29.8</ele>
        <time>2018-01-06T12:28:09Z</time>
      </trkpt>
      <trkpt lat="62.637029431488" lon="17.90554469945">
        <ele>30</ele>
        <time>2018-01-06T12:28:10Z</time>
      </trkpt>
      <trkpt lat="62.637019373208" lon="17.905511758583">
        <ele>30</ele>
        <time>2018-01-06T12:28:11Z</time>
      </trkpt>
      <trkpt lat="62.637008225281" lon="17.905471693101">
        <ele>30</ele>
        <time>2018-01-06T12:28:12Z</time>
      </trkpt>
      <trkpt lat="62.637003866693" lon="17.905431879076">
        <ele>30.2</ele>
        <time>2018-01-06T12:28:13Z</time>
      </trkpt>
      <trkpt lat="62.636998167001" lon="17.905395166354">
        <ele>30.2</ele>
        <time>2018-01-06T12:28:14Z</time>
      </trkpt>
      <trkpt lat="62.636996322983" lon="17.905356022881">
        <ele>30.6</ele>
        <time>2018-01-06T12:28:15Z</time>
      </trkpt>
      <trkpt lat="62.636996909716" lon="17.905308832784">
        <ele>30.8</ele>
        <time>2018-01-06T12:28:16Z</time>
      </trkpt>
      <trkpt lat="62.636997496449" lon="17.905269689311">
        <ele>31.4</ele>
        <time>2018-01-06T12:28:17Z</time>
      </trkpt>
      <trkpt lat="62.636996993535" lon="17.905214787866">
        <ele>31.6</ele>
        <time>2018-01-06T12:28:18Z</time>
      </trkpt>
      <trkpt lat="62.636995652431" lon="17.905163658276">
        <ele>32</ele>
        <time>2018-01-06T12:28:19Z</time>
      </trkpt>
      <trkpt lat="62.637000094838" lon="17.905110684668">
        <ele>32</ele>
        <time>2018-01-06T12:28:20Z</time>
      </trkpt>
      <trkpt lat="62.637001519761" lon="17.905065841503">
        <ele>32.2</ele>
        <time>2018-01-06T12:28:21Z</time>
      </trkpt>
      <trkpt lat="62.637003866693" lon="17.905013622266">
        <ele>32</ele>
        <time>2018-01-06T12:28:22Z</time>
      </trkpt>
      <trkpt lat="62.637001938856" lon="17.904965761617">
        <ele>32.2</ele>
        <time>2018-01-06T12:28:23Z</time>
      </trkpt>
      <trkpt lat="62.637003363779" lon="17.904910608715">
        <ele>32.4</ele>
        <time>2018-01-06T12:28:24Z</time>
      </trkpt>
      <trkpt lat="62.637009817842" lon="17.904850342854">
        <ele>32.4</ele>
        <time>2018-01-06T12:28:25Z</time>
      </trkpt>
      <trkpt lat="62.637012416231" lon="17.904787730061">
        <ele>32.4</ele>
        <time>2018-01-06T12:28:26Z</time>
      </trkpt>
      <trkpt lat="62.637014930801" lon="17.904733582987">
        <ele>32.4</ele>
        <time>2018-01-06T12:28:27Z</time>
      </trkpt>
      <trkpt lat="62.637021552502" lon="17.904660241362">
        <ele>32.4</ele>
        <time>2018-01-06T12:28:28Z</time>
      </trkpt>
      <trkpt lat="62.637030521135" lon="17.904582205873">
        <ele>32.2</ele>
        <time>2018-01-06T12:28:29Z</time>
      </trkpt>
      <trkpt lat="62.63704351308" lon="17.904498722149">
        <ele>32</ele>
        <time>2018-01-06T12:28:30Z</time>
      </trkpt>
      <trkpt lat="62.637057929948" lon="17.904412975312">
        <ele>32</ele>
        <time>2018-01-06T12:28:31Z</time>
      </trkpt>
      <trkpt lat="62.637074107015" lon="17.90432932395">
        <ele>32</ele>
        <time>2018-01-06T12:28:32Z</time>
      </trkpt>
      <trkpt lat="62.637090535539" lon="17.904235027575">
        <ele>31.8</ele>
        <time>2018-01-06T12:28:33Z</time>
      </trkpt>
      <trkpt lat="62.63710805371" lon="17.904130337644">
        <ele>31.6</ele>
        <time>2018-01-06T12:28:34Z</time>
      </trkpt>
      <trkpt lat="62.637128673184" lon="17.904028749016">
        <ele>31.4</ele>
        <time>2018-01-06T12:28:35Z</time>
      </trkpt>
      <trkpt lat="62.637147783916" lon="17.903916766832">
        <ele>31</ele>
        <time>2018-01-06T12:28:36Z</time>
      </trkpt>
      <trkpt lat="62.637165805001" lon="17.903803443544">
        <ele>30.8</ele>
        <time>2018-01-06T12:28:37Z</time>
      </trkpt>
      <trkpt lat="62.637188687588" lon="17.903642762521">
        <ele>30</ele>
        <time>2018-01-06T12:28:38Z</time>
      </trkpt>
      <trkpt lat="62.63721115108" lon="17.903486775362">
        <ele>28.6</ele>
        <time>2018-01-06T12:28:39Z</time>
      </trkpt>
      <trkpt lat="62.637232524925" lon="17.903312096566">
        <ele>26.6</ele>
        <time>2018-01-06T12:28:40Z</time>
      </trkpt>
      <trkpt lat="62.637245349232" lon="17.903176896519">
        <ele>24.4</ele>
        <time>2018-01-06T12:28:41Z</time>
      </trkpt>
      <trkpt lat="62.637259598462" lon="17.903031302916">
        <ele>22.6</ele>
        <time>2018-01-06T12:28:42Z</time>
      </trkpt>
      <trkpt lat="62.637272674226" lon="17.902888642978">
        <ele>20.8</ele>
        <time>2018-01-06T12:28:43Z</time>
      </trkpt>
      <trkpt lat="62.637278625375" lon="17.902775654966">
        <ele>20</ele>
        <time>2018-01-06T12:28:44Z</time>
      </trkpt>
      <trkpt lat="62.637285330895" lon="17.902672725234">
        <ele>19.8</ele>
        <time>2018-01-06T12:28:45Z</time>
      </trkpt>
      <trkpt lat="62.637286001447" lon="17.902578512678">
        <ele>20.2</ele>
        <time>2018-01-06T12:28:46Z</time>
      </trkpt>
      <trkpt lat="62.637288013103" lon="17.902498214076">
        <ele>20.2</ele>
        <time>2018-01-06T12:28:47Z</time>
      </trkpt>
      <trkpt lat="62.637284827981" lon="17.902409198298">
        <ele>20.8</ele>
        <time>2018-01-06T12:28:48Z</time>
      </trkpt>
      <trkpt lat="62.637278541556" lon="17.902303586358">
        <ele>21.2</ele>
        <time>2018-01-06T12:28:49Z</time>
      </trkpt>
      <trkpt lat="62.637275272615" lon="17.902207613603">
        <ele>21.4</ele>
        <time>2018-01-06T12:28:50Z</time>
      </trkpt>
      <trkpt lat="62.637274602063" lon="17.902094457953">
        <ele>21.4</ele>
        <time>2018-01-06T12:28:51Z</time>
      </trkpt>
      <trkpt lat="62.637279128289" lon="17.901963029761">
        <ele>21.2</ele>
        <time>2018-01-06T12:28:52Z</time>
      </trkpt>
      <trkpt lat="62.637285414714" lon="17.901834619053">
        <ele>21</ele>
        <time>2018-01-06T12:28:53Z</time>
      </trkpt>
      <trkpt lat="62.637290695311" lon="17.901724061792">
        <ele>20.4</ele>
        <time>2018-01-06T12:28:54Z</time>
      </trkpt>
      <trkpt lat="62.637296059727" lon="17.90160017731">
        <ele>19.8</ele>
        <time>2018-01-06T12:28:55Z</time>
      </trkpt>
      <trkpt lat="62.637311482423" lon="17.901484926185">
        <ele>19.4</ele>
        <time>2018-01-06T12:28:56Z</time>
      </trkpt>
      <trkpt lat="62.637330090241" lon="17.901387863783">
        <ele>19.2</ele>
        <time>2018-01-06T12:28:57Z</time>
      </trkpt>
      <trkpt lat="62.637352972828" lon="17.901276887427">
        <ele>18.8</ele>
        <time>2018-01-06T12:28:58Z</time>
      </trkpt>
      <trkpt lat="62.637378118528" lon="17.901198600481">
        <ele>18.6</ele>
        <time>2018-01-06T12:28:59Z</time>
      </trkpt>
      <trkpt lat="62.637400330563" lon="17.901127857245">
        <ele>18.4</ele>
        <time>2018-01-06T12:29:00Z</time>
      </trkpt>
      <trkpt lat="62.637426733548" lon="17.901061891692">
        <ele>18.4</ele>
        <time>2018-01-06T12:29:01Z</time>
      </trkpt>
      <trkpt lat="62.637451041058" lon="17.901010007731">
        <ele>19</ele>
        <time>2018-01-06T12:29:02Z</time>
      </trkpt>
      <trkpt lat="62.637473001636" lon="17.900956531209">
        <ele>19</ele>
        <time>2018-01-06T12:29:03Z</time>
      </trkpt>
      <trkpt lat="62.637501751553" lon="17.900912693872">
        <ele>18.8</ele>
        <time>2018-01-06T12:29:04Z</time>
      </trkpt>
      <trkpt lat="62.637527316348" lon="17.900879669186">
        <ele>19</ele>
        <time>2018-01-06T12:29:05Z</time>
      </trkpt>
      <trkpt lat="62.637550534211" lon="17.90083407165">
        <ele>19.2</ele>
        <time>2018-01-06T12:29:06Z</time>
      </trkpt>
      <trkpt lat="62.637563693794" lon="17.900810350873">
        <ele>19</ele>
        <time>2018-01-06T12:29:07Z</time>
      </trkpt>
      <trkpt lat="62.637584816182" lon="17.900771961771">
        <ele>19</ele>
        <time>2018-01-06T12:29:08Z</time>
      </trkpt>
      <trkpt lat="62.637603088724" lon="17.900735751963">
        <ele>19.2</ele>
        <time>2018-01-06T12:29:09Z</time>
      </trkpt>
      <trkpt lat="62.637621612723" lon="17.900684538554">
        <ele>19.2</ele>
        <time>2018-01-06T12:29:10Z</time>
      </trkpt>
      <trkpt lat="62.637637538333" lon="17.900627206358">
        <ele>19</ele>
        <time>2018-01-06T12:29:11Z</time>
      </trkpt>
      <trkpt lat="62.637649943545" lon="17.90057423275">
        <ele>19</ele>
        <time>2018-01-06T12:29:12Z</time>
      </trkpt>
      <trkpt lat="62.63766880282" lon="17.900510949405">
        <ele>19</ele>
        <time>2018-01-06T12:29:13Z</time>
      </trkpt>
      <trkpt lat="62.637682884412" lon="17.90044682787">
        <ele>19</ele>
        <time>2018-01-06T12:29:14Z</time>
      </trkpt>
      <trkpt lat="62.637696379271" lon="17.90038983095">
        <ele>19</ele>
        <time>2018-01-06T12:29:15Z</time>
      </trkpt>
      <trkpt lat="62.637710796139" lon="17.900333756039">
        <ele>19</ele>
        <time>2018-01-06T12:29:16Z</time>
      </trkpt>
      <trkpt lat="62.63772160879" lon="17.900275920929">
        <ele>18.8</ele>
        <time>2018-01-06T12:29:17Z</time>
      </trkpt>
      <trkpt lat="62.63772999069" lon="17.900220768027">
        <ele>18.8</ele>
        <time>2018-01-06T12:29:18Z</time>
      </trkpt>
      <trkpt lat="62.637741557712" lon="17.900151198257">
        <ele>18.8</ele>
        <time>2018-01-06T12:29:19Z</time>
      </trkpt>
      <trkpt lat="62.63775094544" lon="17.900089591292">
        <ele>19</ele>
        <time>2018-01-06T12:29:20Z</time>
      </trkpt>
      <trkpt lat="62.63776016553" lon="17.900043323204">
        <ele>18.8</ele>
        <time>2018-01-06T12:29:21Z</time>
      </trkpt>
      <trkpt lat="62.637771397276" lon="17.899987332112">
        <ele>19</ele>
        <time>2018-01-06T12:29:22Z</time>
      </trkpt>
      <trkpt lat="62.637780533547" lon="17.899939890558">
        <ele>19</ele>
        <time>2018-01-06T12:29:23Z</time>
      </trkpt>
      <trkpt lat="62.637785897963" lon="17.899902423465">
        <ele>19</ele>
        <time>2018-01-06T12:29:24Z</time>
      </trkpt>
      <trkpt lat="62.637797213528" lon="17.899855736282">
        <ele>19</ele>
        <time>2018-01-06T12:29:25Z</time>
      </trkpt>
      <trkpt lat="62.637813055319" lon="17.899786250331">
        <ele>19.2</ele>
        <time>2018-01-06T12:29:26Z</time>
      </trkpt>
      <trkpt lat="62.637826047264" lon="17.899722380253">
        <ele>19.2</ele>
        <time>2018-01-06T12:29:27Z</time>
      </trkpt>
      <trkpt lat="62.63783141168" lon="17.89967485488">
        <ele>19.2</ele>
        <time>2018-01-06T12:29:28Z</time>
      </trkpt>
      <trkpt lat="62.637839709761" lon="17.899601345617">
        <ele>19.4</ele>
        <time>2018-01-06T12:29:29Z</time>
      </trkpt>
      <trkpt lat="62.637849768041" lon="17.899545605982">
        <ele>19.6</ele>
        <time>2018-01-06T12:29:30Z</time>
      </trkpt>
      <trkpt lat="62.637859574864" lon="17.899499421713">
        <ele>19.8</ele>
        <time>2018-01-06T12:29:31Z</time>
      </trkpt>
      <trkpt lat="62.637870890429" lon="17.899454494729">
        <ele>19.8</ele>
        <time>2018-01-06T12:29:32Z</time>
      </trkpt>
      <trkpt lat="62.637880445795" lon="17.899398671275">
        <ele>19.8</ele>
        <time>2018-01-06T12:29:33Z</time>
      </trkpt>
      <trkpt lat="62.637889833523" lon="17.899344859477">
        <ele>19.8</ele>
        <time>2018-01-06T12:29:34Z</time>
      </trkpt>
      <trkpt lat="62.637902154916" lon="17.89929766938">
        <ele>19.8</ele>
        <time>2018-01-06T12:29:35Z</time>
      </trkpt>
      <trkpt lat="62.637915482137" lon="17.899254167319">
        <ele>19.8</ele>
        <time>2018-01-06T12:29:36Z</time>
      </trkpt>
      <trkpt lat="62.637929815186" lon="17.899219298615">
        <ele>19.8</ele>
        <time>2018-01-06T12:29:37Z</time>
      </trkpt>
      <trkpt lat="62.637941549846" lon="17.899185016644">
        <ele>20</ele>
        <time>2018-01-06T12:29:38Z</time>
      </trkpt>
      <trkpt lat="62.637954960886" lon="17.899159032754">
        <ele>20.2</ele>
        <time>2018-01-06T12:29:39Z</time>
      </trkpt>
      <trkpt lat="62.637973820161" lon="17.899130450475">
        <ele>20.2</ele>
        <time>2018-01-06T12:29:40Z</time>
      </trkpt>
      <trkpt lat="62.637989242857" lon="17.899096671418">
        <ele>20.4</ele>
        <time>2018-01-06T12:29:41Z</time>
      </trkpt>
      <trkpt lat="62.638003408268" lon="17.899061132162">
        <ele>20.6</ele>
        <time>2018-01-06T12:29:42Z</time>
      </trkpt>
      <trkpt lat="62.638017741317" lon="17.899024335621">
        <ele>20.8</ele>
        <time>2018-01-06T12:29:43Z</time>
      </trkpt>
      <trkpt lat="62.638032074366" lon="17.898995334247">
        <ele>21</ele>
        <time>2018-01-06T12:29:44Z</time>
      </trkpt>
      <trkpt lat="62.638047413243" lon="17.898968176891">
        <ele>21.2</ele>
        <time>2018-01-06T12:29:45Z</time>
      </trkpt>
      <trkpt lat="62.638064931414" lon="17.898938337327">
        <ele>21.6</ele>
        <time>2018-01-06T12:29:46Z</time>
      </trkpt>
      <trkpt lat="62.638081443757" lon="17.898911012333">
        <ele>21.8</ele>
        <time>2018-01-06T12:29:47Z</time>
      </trkpt>
      <trkpt lat="62.638095776806" lon="17.898883016787">
        <ele>21.8</ele>
        <time>2018-01-06T12:29:48Z</time>
      </trkpt>
      <trkpt lat="62.638104158706" lon="17.898872790869">
        <ele>22</ele>
        <time>2018-01-06T12:29:49Z</time>
      </trkpt>
      <trkpt lat="62.638111283321" lon="17.898859966562">
        <ele>22.4</ele>
        <time>2018-01-06T12:29:50Z</time>
      </trkpt>
      <trkpt lat="62.638119162307" lon="17.898843538038">
        <ele>22.6</ele>
        <time>2018-01-06T12:29:51Z</time>
      </trkpt>
      <trkpt lat="62.638127711845" lon="17.898820320175">
        <ele>22.8</ele>
        <time>2018-01-06T12:29:52Z</time>
      </trkpt>
      <trkpt lat="62.638144391826" lon="17.898794587742">
        <ele>22.8</ele>
        <time>2018-01-06T12:29:53Z</time>
      </trkpt>
      <trkpt lat="62.638157886685" lon="17.898763407074">
        <ele>23</ele>
        <time>2018-01-06T12:29:54Z</time>
      </trkpt>
      <trkpt lat="62.638171213906" lon="17.898735998261">
        <ele>23</ele>
        <time>2018-01-06T12:29:55Z</time>
      </trkpt>
      <trkpt lat="62.638190827552" lon="17.898706158697">
        <ele>23.2</ele>
        <time>2018-01-06T12:29:56Z</time>
      </trkpt>
      <trkpt lat="62.638205663515" lon="17.898677492599">
        <ele>23</ele>
        <time>2018-01-06T12:29:57Z</time>
      </trkpt>
      <trkpt lat="62.638220499478" lon="17.898647988311">
        <ele>23.2</ele>
        <time>2018-01-06T12:29:58Z</time>
      </trkpt>
      <trkpt lat="62.638244052617" lon="17.898614628349">
        <ele>23.2</ele>
        <time>2018-01-06T12:29:59Z</time>
      </trkpt>
      <trkpt lat="62.638265342643" lon="17.898580262559">
        <ele>23.4</ele>
        <time>2018-01-06T12:30:00Z</time>
      </trkpt>
      <trkpt lat="62.638273473086" lon="17.898545896769">
        <ele>23.4</ele>
        <time>2018-01-06T12:30:01Z</time>
      </trkpt>
      <trkpt lat="62.638291829447" lon="17.89851899087">
        <ele>23.4</ele>
        <time>2018-01-06T12:30:02Z</time>
      </trkpt>
      <trkpt lat="62.638314628215" lon="17.898487894021">
        <ele>23.4</ele>
        <time>2018-01-06T12:30:03Z</time>
      </trkpt>
      <trkpt lat="62.638333403671" lon="17.898459730837">
        <ele>23.4</ele>
        <time>2018-01-06T12:30:04Z</time>
      </trkpt>
      <trkpt lat="62.638357711181" lon="17.898428801626">
        <ele>23.6</ele>
        <time>2018-01-06T12:30:05Z</time>
      </trkpt>
      <trkpt lat="62.638381431958" lon="17.898392843275">
        <ele>23.6</ele>
        <time>2018-01-06T12:30:06Z</time>
      </trkpt>
      <trkpt lat="62.63839886631" lon="17.898356046734">
        <ele>23.8</ele>
        <time>2018-01-06T12:30:07Z</time>
      </trkpt>
      <trkpt lat="62.638417390309" lon="17.898331655405">
        <ele>24</ele>
        <time>2018-01-06T12:30:08Z</time>
      </trkpt>
      <trkpt lat="62.638440524353" lon="17.898313382863">
        <ele>24</ele>
        <time>2018-01-06T12:30:09Z</time>
      </trkpt>
      <trkpt lat="62.638466256786" lon="17.898292428113">
        <ele>24.2</ele>
        <time>2018-01-06T12:30:10Z</time>
      </trkpt>
      <trkpt lat="62.63848687626" lon="17.89826921025">
        <ele>24.4</ele>
        <time>2018-01-06T12:30:11Z</time>
      </trkpt>
      <trkpt lat="62.638505735535" lon="17.898252111174">
        <ele>24.4</ele>
        <time>2018-01-06T12:30:12Z</time>
      </trkpt>
      <trkpt lat="62.638524259534" lon="17.8982398736">
        <ele>24.4</ele>
        <time>2018-01-06T12:30:13Z</time>
      </trkpt>
      <trkpt lat="62.638540101325" lon="17.89822059523">
        <ele>24.6</ele>
        <time>2018-01-06T12:30:14Z</time>
      </trkpt>
      <trkpt lat="62.638559882609" lon="17.898197042091">
        <ele>24.6</ele>
        <time>2018-01-06T12:30:15Z</time>
      </trkpt>
      <trkpt lat="62.638583184291" lon="17.898173740409">
        <ele>24.8</ele>
        <time>2018-01-06T12:30:16Z</time>
      </trkpt>
      <trkpt lat="62.638598020254" lon="17.898141637732">
        <ele>24.8</ele>
        <time>2018-01-06T12:30:17Z</time>
      </trkpt>
      <trkpt lat="62.638614616416" lon="17.898116156756">
        <ele>25</ele>
        <time>2018-01-06T12:30:18Z</time>
      </trkpt>
      <trkpt lat="62.638635654985" lon="17.898091011056">
        <ele>25</ele>
        <time>2018-01-06T12:30:19Z</time>
      </trkpt>
      <trkpt lat="62.638655100993" lon="17.898066619727">
        <ele>25.2</ele>
        <time>2018-01-06T12:30:20Z</time>
      </trkpt>
      <trkpt lat="62.638670858965" lon="17.898047006081">
        <ele>25.2</ele>
        <time>2018-01-06T12:30:21Z</time>
      </trkpt>
      <trkpt lat="62.638692065172" lon="17.898033427403">
        <ele>25.4</ele>
        <time>2018-01-06T12:30:22Z</time>
      </trkpt>
      <trkpt lat="62.638714612483" lon="17.898024961684">
        <ele>25.4</ele>
        <time>2018-01-06T12:30:23Z</time>
      </trkpt>
      <trkpt lat="62.638734812862" lon="17.898015071042">
        <ele>25.6</ele>
        <time>2018-01-06T12:30:24Z</time>
      </trkpt>
      <trkpt lat="62.638751241386" lon="17.898010460997">
        <ele>25.6</ele>
        <time>2018-01-06T12:30:25Z</time>
      </trkpt>
      <trkpt lat="62.638771106489" lon="17.898009958083">
        <ele>25.8</ele>
        <time>2018-01-06T12:30:26Z</time>
      </trkpt>
      <trkpt lat="62.638793234705" lon="17.898010377178">
        <ele>25.8</ele>
        <time>2018-01-06T12:30:27Z</time>
      </trkpt>
      <trkpt lat="62.638818715681" lon="17.89800601859">
        <ele>26</ele>
        <time>2018-01-06T12:30:28Z</time>
      </trkpt>
      <trkpt lat="62.638848555245" lon="17.898014232852">
        <ele>26.2</ele>
        <time>2018-01-06T12:30:29Z</time>
      </trkpt>
      <trkpt lat="62.638874874411" lon="17.898018675259">
        <ele>26</ele>
        <time>2018-01-06T12:30:30Z</time>
      </trkpt>
      <trkpt lat="62.63890764764" lon="17.898027895349">
        <ele>26.2</ele>
        <time>2018-01-06T12:30:31Z</time>
      </trkpt>
      <trkpt lat="62.638938744489" lon="17.898036696344">
        <ele>26</ele>
        <time>2018-01-06T12:30:32Z</time>
      </trkpt>
      <trkpt lat="62.638974451383" lon="17.89805211904">
        <ele>26</ele>
        <time>2018-01-06T12:30:33Z</time>
      </trkpt>
      <trkpt lat="62.639010158277" lon="17.898049436832">
        <ele>25.8</ele>
        <time>2018-01-06T12:30:34Z</time>
      </trkpt>
      <trkpt lat="62.639052151596" lon="17.898050861755">
        <ele>25.6</ele>
        <time>2018-01-06T12:30:35Z</time>
      </trkpt>
      <trkpt lat="62.639085763015" lon="17.898040216742">
        <ele>25.4</ele>
        <time>2018-01-06T12:30:36Z</time>
      </trkpt>
      <trkpt lat="62.63911048962" lon="17.898020016363">
        <ele>25.4</ele>
        <time>2018-01-06T12:30:37Z</time>
      </trkpt>
      <trkpt lat="62.639143598125" lon="17.897978525958">
        <ele>25</ele>
        <time>2018-01-06T12:30:38Z</time>
      </trkpt>
      <trkpt lat="62.639164049961" lon="17.897924211246">
        <ele>24.8</ele>
        <time>2018-01-06T12:30:39Z</time>
      </trkpt>
      <trkpt lat="62.639183244512" lon="17.897862436643">
        <ele>24.8</ele>
        <time>2018-01-06T12:30:40Z</time>
      </trkpt>
      <trkpt lat="62.63920520509" lon="17.897794207977">
        <ele>24.6</ele>
        <time>2018-01-06T12:30:41Z</time>
      </trkpt>
      <trkpt lat="62.639219705777" lon="17.897737713971">
        <ele>24.8</ele>
        <time>2018-01-06T12:30:42Z</time>
      </trkpt>
      <trkpt lat="62.639226662754" lon="17.89768834458">
        <ele>24.6</ele>
        <time>2018-01-06T12:30:43Z</time>
      </trkpt>
      <trkpt lat="62.639237391586" lon="17.897632102031">
        <ele>24.6</ele>
        <time>2018-01-06T12:30:44Z</time>
      </trkpt>
      <trkpt lat="62.639249964436" lon="17.897581559174">
        <ele>24.6</ele>
        <time>2018-01-06T12:30:45Z</time>
      </trkpt>
      <trkpt lat="62.63925884925" lon="17.897540236407">
        <ele>24.6</ele>
        <time>2018-01-06T12:30:46Z</time>
      </trkpt>
      <trkpt lat="62.639265135675" lon="17.897508888101">
        <ele>24.8</ele>
        <time>2018-01-06T12:30:47Z</time>
      </trkpt>
      <trkpt lat="62.63927226029" lon="17.897476701605">
        <ele>24.8</ele>
        <time>2018-01-06T12:30:48Z</time>
      </trkpt>
      <trkpt lat="62.639280139276" lon="17.897444515109">
        <ele>25.2</ele>
        <time>2018-01-06T12:30:49Z</time>
      </trkpt>
      <trkpt lat="62.639285922787" lon="17.897411825699">
        <ele>25.4</ele>
        <time>2018-01-06T12:30:50Z</time>
      </trkpt>
      <trkpt lat="62.639291957755" lon="17.897382069954">
        <ele>25.6</ele>
        <time>2018-01-06T12:30:51Z</time>
      </trkpt>
      <trkpt lat="62.639297825085" lon="17.897352900942">
        <ele>25.8</ele>
        <time>2018-01-06T12:30:52Z</time>
      </trkpt>
      <trkpt lat="62.639301345483" lon="17.897326162681">
        <ele>26.2</ele>
        <time>2018-01-06T12:30:53Z</time>
      </trkpt>
      <trkpt lat="62.639306290804" lon="17.897295401108">
        <ele>26.2</ele>
        <time>2018-01-06T12:30:54Z</time>
      </trkpt>
      <trkpt lat="62.639311739039" lon="17.897264974811">
        <ele>26.4</ele>
        <time>2018-01-06T12:30:55Z</time>
      </trkpt>
      <trkpt lat="62.639317941645" lon="17.897223903501">
        <ele>26.6</ele>
        <time>2018-01-06T12:30:56Z</time>
      </trkpt>
      <trkpt lat="62.639325317717" lon="17.897189789168">
        <ele>26.8</ele>
        <time>2018-01-06T12:30:57Z</time>
      </trkpt>
      <trkpt lat="62.639332358513" lon="17.897148969315">
        <ele>26.8</ele>
        <time>2018-01-06T12:30:58Z</time>
      </trkpt>
      <trkpt lat="62.639344093173" lon="17.897110496394">
        <ele>27</ele>
        <time>2018-01-06T12:30:59Z</time>
      </trkpt>
      <trkpt lat="62.639352139797" lon="17.897077890803">
        <ele>27.2</ele>
        <time>2018-01-06T12:31:00Z</time>
      </trkpt>
      <trkpt lat="62.639356833661" lon="17.897043692651">
        <ele>27.4</ele>
        <time>2018-01-06T12:31:01Z</time>
      </trkpt>
      <trkpt lat="62.639366221389" lon="17.897004465359">
        <ele>27.6</ele>
        <time>2018-01-06T12:31:02Z</time>
      </trkpt>
      <trkpt lat="62.639374603289" lon="17.896965154248">
        <ele>27.6</ele>
        <time>2018-01-06T12:31:03Z</time>
      </trkpt>
      <trkpt lat="62.639385164483" lon="17.896912851192">
        <ele>27.8</ele>
        <time>2018-01-06T12:31:04Z</time>
      </trkpt>
      <trkpt lat="62.639389942166" lon="17.896878904497">
        <ele>28</ele>
        <time>2018-01-06T12:31:05Z</time>
      </trkpt>
      <trkpt lat="62.639402347378" lon="17.896828696916">
        <ele>28.2</ele>
        <time>2018-01-06T12:31:06Z</time>
      </trkpt>
      <trkpt lat="62.6394139144" lon="17.896775136575">
        <ele>28.2</ele>
        <time>2018-01-06T12:31:07Z</time>
      </trkpt>
      <trkpt lat="62.639418608264" lon="17.896726270098">
        <ele>28.2</ele>
        <time>2018-01-06T12:31:08Z</time>
      </trkpt>
      <trkpt lat="62.639427576897" lon="17.896675643422">
        <ele>28.2</ele>
        <time>2018-01-06T12:31:09Z</time>
      </trkpt>
      <trkpt lat="62.639440904118" lon="17.896619568511">
        <ele>28.2</ele>
        <time>2018-01-06T12:31:10Z</time>
      </trkpt>
      <trkpt lat="62.639448783104" lon="17.896572881328">
        <ele>28.2</ele>
        <time>2018-01-06T12:31:11Z</time>
      </trkpt>
      <trkpt lat="62.639461020678" lon="17.896518566616">
        <ele>28</ele>
        <time>2018-01-06T12:31:12Z</time>
      </trkpt>
      <trkpt lat="62.639475353727" lon="17.89644949976">
        <ele>28.2</ele>
        <time>2018-01-06T12:31:13Z</time>
      </trkpt>
      <trkpt lat="62.639483987084" lon="17.896401220016">
        <ele>28.2</ele>
        <time>2018-01-06T12:31:14Z</time>
      </trkpt>
      <trkpt lat="62.639492536622" lon="17.896358723783">
        <ele>28</ele>
        <time>2018-01-06T12:31:15Z</time>
      </trkpt>
      <trkpt lat="62.639503433092" lon="17.896302313596">
        <ele>28</ele>
        <time>2018-01-06T12:31:16Z</time>
      </trkpt>
      <trkpt lat="62.639510054793" lon="17.896264092132">
        <ele>28.2</ele>
        <time>2018-01-06T12:31:17Z</time>
      </trkpt>
      <trkpt lat="62.639519693978" lon="17.896213297818">
        <ele>28.2</ele>
        <time>2018-01-06T12:31:18Z</time>
      </trkpt>
      <trkpt lat="62.639534362303" lon="17.896147583722">
        <ele>28.4</ele>
        <time>2018-01-06T12:31:19Z</time>
      </trkpt>
      <trkpt lat="62.639552718664" lon="17.896075415563">
        <ele>28.8</ele>
        <time>2018-01-06T12:31:20Z</time>
      </trkpt>
      <trkpt lat="62.639575852708" lon="17.895999307911">
        <ele>28.8</ele>
        <time>2018-01-06T12:31:21Z</time>
      </trkpt>
      <trkpt lat="62.639603932073" lon="17.895929654322">
        <ele>28.6</ele>
        <time>2018-01-06T12:31:22Z</time>
      </trkpt>
      <trkpt lat="62.639640560976" lon="17.895869053185">
        <ele>28.6</ele>
        <time>2018-01-06T12:31:23Z</time>
      </trkpt>
      <trkpt lat="62.639671993101" lon="17.895837285784">
        <ele>28.4</ele>
        <time>2018-01-06T12:31:24Z</time>
      </trkpt>
      <trkpt lat="62.639721781587" lon="17.895801495071">
        <ele>28.2</ele>
        <time>2018-01-06T12:31:25Z</time>
      </trkpt>
      <trkpt lat="62.639764780734" lon="17.895775511181">
        <ele>28</ele>
        <time>2018-01-06T12:31:26Z</time>
      </trkpt>
      <trkpt lat="62.639798559791" lon="17.895753466784">
        <ele>27.8</ele>
        <time>2018-01-06T12:31:27Z</time>
      </trkpt>
      <trkpt lat="62.639871398502" lon="17.895696050769">
        <ele>27.6</ele>
        <time>2018-01-06T12:31:28Z</time>
      </trkpt>
      <trkpt lat="62.639926970499" lon="17.895627151551">
        <ele>27.2</ele>
        <time>2018-01-06T12:31:29Z</time>
      </trkpt>
      <trkpt lat="62.639975334062" lon="17.895541404714">
        <ele>26.8</ele>
        <time>2018-01-06T12:31:30Z</time>
      </trkpt>
      <trkpt lat="62.640015231906" lon="17.895447443615">
        <ele>26.4</ele>
        <time>2018-01-06T12:31:31Z</time>
      </trkpt>
      <trkpt lat="62.640046496393" lon="17.895356919095">
        <ele>25.8</ele>
        <time>2018-01-06T12:31:32Z</time>
      </trkpt>
      <trkpt lat="62.640070636265" lon="17.895262455082">
        <ele>25.4</ele>
        <time>2018-01-06T12:31:33Z</time>
      </trkpt>
      <trkpt lat="62.640085891323" lon="17.895161034092">
        <ele>24.4</ele>
        <time>2018-01-06T12:31:34Z</time>
      </trkpt>
      <trkpt lat="62.640093770309" lon="17.895065145156">
        <ele>23.4</ele>
        <time>2018-01-06T12:31:35Z</time>
      </trkpt>
      <trkpt lat="62.640102403666" lon="17.894976716111">
        <ele>22.8</ele>
        <time>2018-01-06T12:31:36Z</time>
      </trkpt>
      <trkpt lat="62.640105253512" lon="17.894908319807">
        <ele>22.2</ele>
        <time>2018-01-06T12:31:37Z</time>
      </trkpt>
      <trkpt lat="62.640107516625" lon="17.894830451956">
        <ele>22</ele>
        <time>2018-01-06T12:31:38Z</time>
      </trkpt>
      <trkpt lat="62.640106929892" lon="17.894765995145">
        <ele>21.8</ele>
        <time>2018-01-06T12:31:39Z</time>
      </trkpt>
      <trkpt lat="62.640107265168" lon="17.894710171691">
        <ele>22</ele>
        <time>2018-01-06T12:31:40Z</time>
      </trkpt>
      <trkpt lat="62.640108941548" lon="17.894652839495">
        <ele>22.2</ele>
        <time>2018-01-06T12:31:41Z</time>
      </trkpt>
      <trkpt lat="62.640110366471" lon="17.894597518955">
        <ele>22.2</ele>
        <time>2018-01-06T12:31:42Z</time>
      </trkpt>
      <trkpt lat="62.640111875213" lon="17.894553681618">
        <ele>22.2</ele>
        <time>2018-01-06T12:31:43Z</time>
      </trkpt>
      <trkpt lat="62.640115647068" lon="17.894513783774">
        <ele>22.2</ele>
        <time>2018-01-06T12:31:44Z</time>
      </trkpt>
      <trkpt lat="62.640119502742" lon="17.89447304774">
        <ele>22.2</ele>
        <time>2018-01-06T12:31:45Z</time>
      </trkpt>
      <trkpt lat="62.640122604045" lon="17.894435496828">
        <ele>22.2</ele>
        <time>2018-01-06T12:31:46Z</time>
      </trkpt>
      <trkpt lat="62.640125956805" lon="17.89440347797">
        <ele>22.6</ele>
        <time>2018-01-06T12:31:47Z</time>
      </trkpt>
      <trkpt lat="62.640133249058" lon="17.894362993393">
        <ele>22.8</ele>
        <time>2018-01-06T12:31:48Z</time>
      </trkpt>
      <trkpt lat="62.64015068341" lon="17.894333824381">
        <ele>23</ele>
        <time>2018-01-06T12:31:49Z</time>
      </trkpt>
      <trkpt lat="62.640174236549" lon="17.894313204907">
        <ele>23.4</ele>
        <time>2018-01-06T12:31:50Z</time>
      </trkpt>
      <trkpt lat="62.640199801344" lon="17.894305158283">
        <ele>23.8</ele>
        <time>2018-01-06T12:31:51Z</time>
      </trkpt>
      <trkpt lat="62.640229892365" lon="17.894323933739">
        <ele>24.2</ele>
        <time>2018-01-06T12:31:52Z</time>
      </trkpt>
      <trkpt lat="62.640255540979" lon="17.894366346153">
        <ele>24.2</ele>
        <time>2018-01-06T12:31:53Z</time>
      </trkpt>
      <trkpt lat="62.640276244272" lon="17.894440274511">
        <ele>24.2</ele>
        <time>2018-01-06T12:31:54Z</time>
      </trkpt>
      <trkpt lat="62.640293343348" lon="17.89450573715">
        <ele>24.2</ele>
        <time>2018-01-06T12:31:55Z</time>
      </trkpt>
      <trkpt lat="62.640303653085" lon="17.89457111597">
        <ele>24</ele>
        <time>2018-01-06T12:31:56Z</time>
      </trkpt>
      <trkpt lat="62.640316142116" lon="17.894637668256">
        <ele>23.8</ele>
        <time>2018-01-06T12:31:57Z</time>
      </trkpt>
      <trkpt lat="62.640332319183" lon="17.894711680433">
        <ele>23.6</ele>
        <time>2018-01-06T12:31:58Z</time>
      </trkpt>
      <trkpt lat="62.640349418259" lon="17.894791727578">
        <ele>23.4</ele>
        <time>2018-01-06T12:31:59Z</time>
      </trkpt>
      <trkpt lat="62.640373055217" lon="17.894871690904">
        <ele>23.2</ele>
        <time>2018-01-06T12:32:00Z</time>
      </trkpt>
      <trkpt lat="62.640399961116" lon="17.894925083607">
        <ele>23</ele>
        <time>2018-01-06T12:32:01Z</time>
      </trkpt>
      <trkpt lat="62.640423765712" lon="17.894995659205">
        <ele>23</ele>
        <time>2018-01-06T12:32:02Z</time>
      </trkpt>
      <trkpt lat="62.640444804281" lon="17.895062798224">
        <ele>22.8</ele>
        <time>2018-01-06T12:32:03Z</time>
      </trkpt>
      <trkpt lat="62.640464920841" lon="17.895123566999">
        <ele>22.6</ele>
        <time>2018-01-06T12:32:04Z</time>
      </trkpt>
      <trkpt lat="62.640482522831" lon="17.895188694362">
        <ele>22.4</ele>
        <time>2018-01-06T12:32:05Z</time>
      </trkpt>
      <trkpt lat="62.640500460097" lon="17.895259353779">
        <ele>22.2</ele>
        <time>2018-01-06T12:32:06Z</time>
      </trkpt>
      <trkpt lat="62.640518313544" lon="17.895315596328">
        <ele>22.2</ele>
        <time>2018-01-06T12:32:07Z</time>
      </trkpt>
      <trkpt lat="62.6405287071" lon="17.895385920469">
        <ele>22</ele>
        <time>2018-01-06T12:32:08Z</time>
      </trkpt>
      <trkpt lat="62.640535999353" lon="17.89544953909">
        <ele>22</ele>
        <time>2018-01-06T12:32:09Z</time>
      </trkpt>
      <trkpt lat="62.640543291606" lon="17.895506787467">
        <ele>22</ele>
        <time>2018-01-06T12:32:10Z</time>
      </trkpt>
      <trkpt lat="62.640550080945" lon="17.895558084695">
        <ele>22</ele>
        <time>2018-01-06T12:32:11Z</time>
      </trkpt>
      <trkpt lat="62.640560809777" lon="17.895623128239">
        <ele>22</ele>
        <time>2018-01-06T12:32:12Z</time>
      </trkpt>
      <trkpt lat="62.640568437306" lon="17.895685824851">
        <ele>22.2</ele>
        <time>2018-01-06T12:32:13Z</time>
      </trkpt>
      <trkpt lat="62.640574136998" lon="17.895754724069">
        <ele>22.4</ele>
        <time>2018-01-06T12:32:14Z</time>
      </trkpt>
      <trkpt lat="62.640583692364" lon="17.895830999359">
        <ele>22.4</ele>
        <time>2018-01-06T12:32:15Z</time>
      </trkpt>
      <trkpt lat="62.64059408592" lon="17.895911297961">
        <ele>22.6</ele>
        <time>2018-01-06T12:32:16Z</time>
      </trkpt>
      <trkpt lat="62.640599282698" lon="17.895995871332">
        <ele>22.6</ele>
        <time>2018-01-06T12:32:17Z</time>
      </trkpt>
      <trkpt lat="62.640613783385" lon="17.896089161879">
        <ele>22.4</ele>
        <time>2018-01-06T12:32:18Z</time>
      </trkpt>
      <trkpt lat="62.640630295728" lon="17.896190834326">
        <ele>22.4</ele>
        <time>2018-01-06T12:32:19Z</time>
      </trkpt>
      <trkpt lat="62.64064689189" lon="17.896283789597">
        <ele>22</ele>
        <time>2018-01-06T12:32:20Z</time>
      </trkpt>
      <trkpt lat="62.640665751165" lon="17.896371380452">
        <ele>21.6</ele>
        <time>2018-01-06T12:32:21Z</time>
      </trkpt>
      <trkpt lat="62.640689471942" lon="17.896467437026">
        <ele>21.4</ele>
        <time>2018-01-06T12:32:22Z</time>
      </trkpt>
      <trkpt lat="62.640716042565" lon="17.896567097817">
        <ele>20.8</ele>
        <time>2018-01-06T12:32:23Z</time>
      </trkpt>
      <trkpt lat="62.64074244555" lon="17.896656197414">
        <ele>20.2</ele>
        <time>2018-01-06T12:32:24Z</time>
      </trkpt>
      <trkpt lat="62.640768932354" lon="17.896753008359">
        <ele>19.8</ele>
        <time>2018-01-06T12:32:25Z</time>
      </trkpt>
      <trkpt lat="62.640796844081" lon="17.896856524824">
        <ele>19.2</ele>
        <time>2018-01-06T12:32:26Z</time>
      </trkpt>
      <trkpt lat="62.640821989781" lon="17.896961382393">
        <ele>18.8</ele>
        <time>2018-01-06T12:32:27Z</time>
      </trkpt>
      <trkpt lat="62.640852667535" lon="17.897108652376">
        <ele>18.6</ele>
        <time>2018-01-06T12:32:28Z</time>
      </trkpt>
      <trkpt lat="62.640879573434" lon="17.897243517147">
        <ele>18</ele>
        <time>2018-01-06T12:32:29Z</time>
      </trkpt>
      <trkpt lat="62.640904383858" lon="17.897373939511">
        <ele>17.6</ele>
        <time>2018-01-06T12:32:30Z</time>
      </trkpt>
      <trkpt lat="62.640929194282" lon="17.897510061567">
        <ele>17.2</ele>
        <time>2018-01-06T12:32:31Z</time>
      </trkpt>
      <trkpt lat="62.640951741593" lon="17.897639394284">
        <ele>16.2</ele>
        <time>2018-01-06T12:32:32Z</time>
      </trkpt>
      <trkpt lat="62.640979066587" lon="17.89777216358">
        <ele>15.2</ele>
        <time>2018-01-06T12:32:33Z</time>
      </trkpt>
      <trkpt lat="62.641013600015" lon="17.897921696676">
        <ele>14</ele>
        <time>2018-01-06T12:32:34Z</time>
      </trkpt>
      <trkpt lat="62.64105089947" lon="17.89805630999">
        <ele>13</ele>
        <time>2018-01-06T12:32:35Z</time>
      </trkpt>
      <trkpt lat="62.641097335196" lon="17.898196958272">
        <ele>12</ele>
        <time>2018-01-06T12:32:36Z</time>
      </trkpt>
      <trkpt lat="62.641138825601" lon="17.898311455026">
        <ele>11</ele>
        <time>2018-01-06T12:32:37Z</time>
      </trkpt>
      <trkpt lat="62.641183836404" lon="17.89843014273">
        <ele>10</ele>
        <time>2018-01-06T12:32:38Z</time>
      </trkpt>
      <trkpt lat="62.641218705108" lon="17.89851731449">
        <ele>9.2</ele>
        <time>2018-01-06T12:32:39Z</time>
      </trkpt>
      <trkpt lat="62.641253154717" lon="17.898603815698">
        <ele>8.4</ele>
        <time>2018-01-06T12:32:40Z</time>
      </trkpt>
      <trkpt lat="62.641288023421" lon="17.898675061848">
        <ele>8.2</ele>
        <time>2018-01-06T12:32:41Z</time>
      </trkpt>
      <trkpt lat="62.641315683691" lon="17.898723425411">
        <ele>8.2</ele>
        <time>2018-01-06T12:32:42Z</time>
      </trkpt>
      <trkpt lat="62.641352899327" lon="17.898780422331">
        <ele>8.6</ele>
        <time>2018-01-06T12:32:43Z</time>
      </trkpt>
      <trkpt lat="62.641387935669" lon="17.898827109514">
        <ele>9.2</ele>
        <time>2018-01-06T12:32:44Z</time>
      </trkpt>
      <trkpt lat="62.641415093025" lon="17.898855272698">
        <ele>9.6</ele>
        <time>2018-01-06T12:32:45Z</time>
      </trkpt>
      <trkpt lat="62.641446860426" lon="17.89888192714">
        <ele>10</ele>
        <time>2018-01-06T12:32:46Z</time>
      </trkpt>
      <trkpt lat="62.641475945619" lon="17.898911599066">
        <ele>10.2</ele>
        <time>2018-01-06T12:32:47Z</time>
      </trkpt>
      <trkpt lat="62.641503857346" lon="17.898932469997">
        <ele>10.4</ele>
        <time>2018-01-06T12:32:48Z</time>
      </trkpt>
      <trkpt lat="62.641533445453" lon="17.898961722828">
        <ele>10.2</ele>
        <time>2018-01-06T12:32:49Z</time>
      </trkpt>
      <trkpt lat="62.641564123207" lon="17.898972200203">
        <ele>10.4</ele>
        <time>2018-01-06T12:32:50Z</time>
      </trkpt>
      <trkpt lat="62.641587676346" lon="17.898977648438">
        <ele>10.4</ele>
        <time>2018-01-06T12:32:51Z</time>
      </trkpt>
      <trkpt lat="62.641608379639" lon="17.898982342302">
        <ele>10.6</ele>
        <time>2018-01-06T12:32:52Z</time>
      </trkpt>
      <trkpt lat="62.64163176514" lon="17.898984689234">
        <ele>10.8</ele>
        <time>2018-01-06T12:32:53Z</time>
      </trkpt>
      <trkpt lat="62.641653222804" lon="17.898977396981">
        <ele>10.6</ele>
        <time>2018-01-06T12:32:54Z</time>
      </trkpt>
      <trkpt lat="62.641668813138" lon="17.898957112783">
        <ele>10.6</ele>
        <time>2018-01-06T12:32:55Z</time>
      </trkpt>
      <trkpt lat="62.641690019345" lon="17.898930290703">
        <ele>11</ele>
        <time>2018-01-06T12:32:56Z</time>
      </trkpt>
      <trkpt lat="62.641703346566" lon="17.898894667628">
        <ele>10.8</ele>
        <time>2018-01-06T12:32:57Z</time>
      </trkpt>
      <trkpt lat="62.641713656303" lon="17.898846304065">
        <ele>11</ele>
        <time>2018-01-06T12:32:58Z</time>
      </trkpt>
      <trkpt lat="62.641722457298" lon="17.898801879995">
        <ele>11.4</ele>
        <time>2018-01-06T12:32:59Z</time>
      </trkpt>
      <trkpt lat="62.641728911361" lon="17.898737255546">
        <ele>11.4</ele>
        <time>2018-01-06T12:33:00Z</time>
      </trkpt>
      <trkpt lat="62.641733689044" lon="17.898677576418">
        <ele>11.6</ele>
        <time>2018-01-06T12:33:01Z</time>
      </trkpt>
      <trkpt lat="62.641737125623" lon="17.898624518991">
        <ele>11.8</ele>
        <time>2018-01-06T12:33:02Z</time>
      </trkpt>
      <trkpt lat="62.641740813659" lon="17.898557966705">
        <ele>12</ele>
        <time>2018-01-06T12:33:03Z</time>
      </trkpt>
      <trkpt lat="62.641747100084" lon="17.89848630146">
        <ele>11.8</ele>
        <time>2018-01-06T12:33:04Z</time>
      </trkpt>
      <trkpt lat="62.641752883595" lon="17.898425784142">
        <ele>11.8</ele>
        <time>2018-01-06T12:33:05Z</time>
      </trkpt>
      <trkpt lat="62.641759002382" lon="17.898350598499">
        <ele>12</ele>
        <time>2018-01-06T12:33:06Z</time>
      </trkpt>
      <trkpt lat="62.641762941875" lon="17.898288823896">
        <ele>11.8</ele>
        <time>2018-01-06T12:33:07Z</time>
      </trkpt>
      <trkpt lat="62.641768138653" lon="17.89822143342">
        <ele>11.6</ele>
        <time>2018-01-06T12:33:08Z</time>
      </trkpt>
      <trkpt lat="62.641773503069" lon="17.898143062655">
        <ele>11.6</ele>
        <time>2018-01-06T12:33:09Z</time>
      </trkpt>
      <trkpt lat="62.641783226073" lon="17.898069218116">
        <ele>11.6</ele>
        <time>2018-01-06T12:33:10Z</time>
      </trkpt>
      <trkpt lat="62.641794206362" lon="17.897979364148">
        <ele>11.4</ele>
        <time>2018-01-06T12:33:11Z</time>
      </trkpt>
      <trkpt lat="62.6418027559" lon="17.897889677818">
        <ele>11.4</ele>
        <time>2018-01-06T12:33:12Z</time>
      </trkpt>
      <trkpt lat="62.641805019013" lon="17.897808960121">
        <ele>11</ele>
        <time>2018-01-06T12:33:13Z</time>
      </trkpt>
      <trkpt lat="62.64180946142" lon="17.897721536904">
        <ele>10.8</ele>
        <time>2018-01-06T12:33:14Z</time>
      </trkpt>
      <trkpt lat="62.641805857203" lon="17.897640316293">
        <ele>10.6</ele>
        <time>2018-01-06T12:33:15Z</time>
      </trkpt>
      <trkpt lat="62.641791607973" lon="17.897563873365">
        <ele>10</ele>
        <time>2018-01-06T12:33:16Z</time>
      </trkpt>
      <trkpt lat="62.641771072318" lon="17.897508301368">
        <ele>9.4</ele>
        <time>2018-01-06T12:33:17Z</time>
      </trkpt>
      <trkpt lat="62.641755733441" lon="17.897487849532">
        <ele>9.2</ele>
        <time>2018-01-06T12:33:18Z</time>
      </trkpt>
      <trkpt lat="62.641731845026" lon="17.89747879708">
        <ele>9</ele>
        <time>2018-01-06T12:33:19Z</time>
      </trkpt>
      <trkpt lat="62.641712315199" lon="17.897492711034">
        <ele>8.8</ele>
        <time>2018-01-06T12:33:20Z</time>
      </trkpt>
      <trkpt lat="62.64169211482" lon="17.897507882273">
        <ele>8.6</ele>
        <time>2018-01-06T12:33:21Z</time>
      </trkpt>
      <trkpt lat="62.641670154242" lon="17.897530932498">
        <ele>8.4</ele>
        <time>2018-01-06T12:33:22Z</time>
      </trkpt>
      <trkpt lat="62.641647020198" lon="17.897559514777">
        <ele>8.2</ele>
        <time>2018-01-06T12:33:23Z</time>
      </trkpt>
      <trkpt lat="62.64162086867" lon="17.897595389309">
        <ele>8.2</ele>
        <time>2018-01-06T12:33:24Z</time>
      </trkpt>
      <trkpt lat="62.641593878952" lon="17.897635873886">
        <ele>8.2</ele>
        <time>2018-01-06T12:33:25Z</time>
      </trkpt>
      <trkpt lat="62.641575857867" lon="17.89767158078">
        <ele>8.2</ele>
        <time>2018-01-06T12:33:26Z</time>
      </trkpt>
      <trkpt lat="62.641550125434" lon="17.897705276018">
        <ele>8.2</ele>
        <time>2018-01-06T12:33:27Z</time>
      </trkpt>
      <trkpt lat="62.641523387173" lon="17.897744670948">
        <ele>8</ele>
        <time>2018-01-06T12:33:28Z</time>
      </trkpt>
      <trkpt lat="62.641506707192" lon="17.897770403381">
        <ele>8.2</ele>
        <time>2018-01-06T12:33:29Z</time>
      </trkpt>
      <trkpt lat="62.641486506813" lon="17.897792615416">
        <ele>8.2</ele>
        <time>2018-01-06T12:33:30Z</time>
      </trkpt>
      <trkpt lat="62.641464630054" lon="17.897810301225">
        <ele>8.2</ele>
        <time>2018-01-06T12:33:31Z</time>
      </trkpt>
      <trkpt lat="62.641443507666" lon="17.897835949839">
        <ele>8.2</ele>
        <time>2018-01-06T12:33:32Z</time>
      </trkpt>
      <trkpt lat="62.641424899848" lon="17.897855060571">
        <ele>8.2</ele>
        <time>2018-01-06T12:33:33Z</time>
      </trkpt>
      <trkpt lat="62.641407800772" lon="17.897872159647">
        <ele>8.4</ele>
        <time>2018-01-06T12:33:34Z</time>
      </trkpt>
      <trkpt lat="62.641389779687" lon="17.897889174904">
        <ele>8.4</ele>
        <time>2018-01-06T12:33:35Z</time>
      </trkpt>
      <trkpt lat="62.641366980919" lon="17.897902502125">
        <ele>8.6</ele>
        <time>2018-01-06T12:33:36Z</time>
      </trkpt>
      <trkpt lat="62.641346612902" lon="17.897922534866">
        <ele>9</ele>
        <time>2018-01-06T12:33:37Z</time>
      </trkpt>
      <trkpt lat="62.641327250713" lon="17.897944663082">
        <ele>9.2</ele>
        <time>2018-01-06T12:33:38Z</time>
      </trkpt>
      <trkpt lat="62.641306966515" lon="17.897963354719">
        <ele>9.4</ele>
        <time>2018-01-06T12:33:39Z</time>
      </trkpt>
      <trkpt lat="62.641289867439" lon="17.89797835832">
        <ele>9.6</ele>
        <time>2018-01-06T12:33:40Z</time>
      </trkpt>
      <trkpt lat="62.641271259621" lon="17.897996127948">
        <ele>9.8</ele>
        <time>2018-01-06T12:33:41Z</time>
      </trkpt>
      <trkpt lat="62.641247538844" lon="17.898012975567">
        <ele>10</ele>
        <time>2018-01-06T12:33:42Z</time>
      </trkpt>
      <trkpt lat="62.64122356661" lon="17.898029655548">
        <ele>10.2</ele>
        <time>2018-01-06T12:33:43Z</time>
      </trkpt>
      <trkpt lat="62.641202947136" lon="17.898046419348">
        <ele>10.2</ele>
        <time>2018-01-06T12:33:44Z</time>
      </trkpt>
      <trkpt lat="62.641175538323" lon="17.89805798637">
        <ele>10.6</ele>
        <time>2018-01-06T12:33:45Z</time>
      </trkpt>
      <trkpt lat="62.641147458958" lon="17.898072487057">
        <ele>10.6</ele>
        <time>2018-01-06T12:33:46Z</time>
      </trkpt>
      <trkpt lat="62.641124744009" lon="17.898074414894">
        <ele>10.6</ele>
        <time>2018-01-06T12:33:47Z</time>
      </trkpt>
      <trkpt lat="62.641097167558" lon="17.898069553392">
        <ele>10.8</ele>
        <time>2018-01-06T12:33:48Z</time>
      </trkpt>
      <trkpt lat="62.641073446781" lon="17.898047257538">
        <ele>10.8</ele>
        <time>2018-01-06T12:33:49Z</time>
      </trkpt>
      <trkpt lat="62.641053833135" lon="17.898018172345">
        <ele>11</ele>
        <time>2018-01-06T12:33:50Z</time>
      </trkpt>
      <trkpt lat="62.641037153154" lon="17.897992942826">
        <ele>11</ele>
        <time>2018-01-06T12:33:51Z</time>
      </trkpt>
      <trkpt lat="62.641023825933" lon="17.897964612004">
        <ele>11.2</ele>
        <time>2018-01-06T12:33:52Z</time>
      </trkpt>
      <trkpt lat="62.64100815178" lon="17.897934688621">
        <ele>11.2</ele>
        <time>2018-01-06T12:33:53Z</time>
      </trkpt>
      <trkpt lat="62.64099474074" lon="17.897906609256">
        <ele>11.4</ele>
        <time>2018-01-06T12:33:54Z</time>
      </trkpt>
      <trkpt lat="62.640984179546" lon="17.897878529891">
        <ele>11.8</ele>
        <time>2018-01-06T12:33:55Z</time>
      </trkpt>
      <trkpt lat="62.640973115438" lon="17.897845421386">
        <ele>11.8</ele>
        <time>2018-01-06T12:33:56Z</time>
      </trkpt>
      <trkpt lat="62.640963979167" lon="17.897818599306">
        <ele>12</ele>
        <time>2018-01-06T12:33:57Z</time>
      </trkpt>
      <trkpt lat="62.64095199305" lon="17.897779958747">
        <ele>12.2</ele>
        <time>2018-01-06T12:33:58Z</time>
      </trkpt>
      <trkpt lat="62.640943946426" lon="17.897740479998">
        <ele>12.4</ele>
        <time>2018-01-06T12:33:59Z</time>
      </trkpt>
      <trkpt lat="62.640937995277" lon="17.897699408688">
        <ele>12.6</ele>
        <time>2018-01-06T12:34:00Z</time>
      </trkpt>
      <trkpt lat="62.640931541214" lon="17.897654984618">
        <ele>12.8</ele>
        <time>2018-01-06T12:34:01Z</time>
      </trkpt>
      <trkpt lat="62.640925422427" lon="17.897613410394">
        <ele>13.2</ele>
        <time>2018-01-06T12:34:02Z</time>
      </trkpt>
      <trkpt lat="62.640923829866" lon="17.897570075971">
        <ele>13.6</ele>
        <time>2018-01-06T12:34:03Z</time>
      </trkpt>
      <trkpt lat="62.640916118518" lon="17.897529004661">
        <ele>13.8</ele>
        <time>2018-01-06T12:34:04Z</time>
      </trkpt>
      <trkpt lat="62.640909329179" lon="17.897490364102">
        <ele>14</ele>
        <time>2018-01-06T12:34:05Z</time>
      </trkpt>
      <trkpt lat="62.640900192908" lon="17.897463122927">
        <ele>14.2</ele>
        <time>2018-01-06T12:34:06Z</time>
      </trkpt>
      <trkpt lat="62.640893152112" lon="17.897423644178">
        <ele>14.4</ele>
        <time>2018-01-06T12:34:07Z</time>
      </trkpt>
      <trkpt lat="62.640882590918" lon="17.897367066353">
        <ele>14.6</ele>
        <time>2018-01-06T12:34:08Z</time>
      </trkpt>
      <trkpt lat="62.64087487957" lon="17.897324905396">
        <ele>14.6</ele>
        <time>2018-01-06T12:34:09Z</time>
      </trkpt>
      <trkpt lat="62.640867252041" lon="17.897280732783">
        <ele>14.6</ele>
        <time>2018-01-06T12:34:10Z</time>
      </trkpt>
      <trkpt lat="62.640861971444" lon="17.897241756948">
        <ele>15.2</ele>
        <time>2018-01-06T12:34:11Z</time>
      </trkpt>
      <trkpt lat="62.640852499897" lon="17.897210073366">
        <ele>15.2</ele>
        <time>2018-01-06T12:34:12Z</time>
      </trkpt>
      <trkpt lat="62.640844453273" lon="17.89716950497">
        <ele>15.4</ele>
        <time>2018-01-06T12:34:13Z</time>
      </trkpt>
      <trkpt lat="62.640838753581" lon="17.897125583814">
        <ele>15.6</ele>
        <time>2018-01-06T12:34:14Z</time>
      </trkpt>
      <trkpt lat="62.640830204043" lon="17.89708652416">
        <ele>15.6</ele>
        <time>2018-01-06T12:34:15Z</time>
      </trkpt>
      <trkpt lat="62.640819978125" lon="17.897045033755">
        <ele>15.8</ele>
        <time>2018-01-06T12:34:16Z</time>
      </trkpt>
      <trkpt lat="62.640811093311" lon="17.897010081232">
        <ele>15.6</ele>
        <time>2018-01-06T12:34:17Z</time>
      </trkpt>
      <trkpt lat="62.640801873221" lon="17.89697672127">
        <ele>15.6</ele>
        <time>2018-01-06T12:34:18Z</time>
      </trkpt>
      <trkpt lat="62.640791395846" lon="17.896945624421">
        <ele>15.8</ele>
        <time>2018-01-06T12:34:19Z</time>
      </trkpt>
      <trkpt lat="62.640782594851" lon="17.896911929183">
        <ele>16</ele>
        <time>2018-01-06T12:34:20Z</time>
      </trkpt>
      <trkpt lat="62.64077262039" lon="17.896880580877">
        <ele>16.2</ele>
        <time>2018-01-06T12:34:21Z</time>
      </trkpt>
      <trkpt lat="62.640761975377" lon="17.896851411865">
        <ele>16.6</ele>
        <time>2018-01-06T12:34:22Z</time>
      </trkpt>
      <trkpt lat="62.640749486346" lon="17.89682165612">
        <ele>17</ele>
        <time>2018-01-06T12:34:23Z</time>
      </trkpt>
      <trkpt lat="62.640739679523" lon="17.896792906203">
        <ele>17.2</ele>
        <time>2018-01-06T12:34:24Z</time>
      </trkpt>
      <trkpt lat="62.640728615415" lon="17.896771951453">
        <ele>17.2</ele>
        <time>2018-01-06T12:34:25Z</time>
      </trkpt>
      <trkpt lat="62.640717886583" lon="17.896741776613">
        <ele>17.6</ele>
        <time>2018-01-06T12:34:26Z</time>
      </trkpt>
      <trkpt lat="62.640709253226" lon="17.896715792723">
        <ele>17.6</ele>
        <time>2018-01-06T12:34:27Z</time>
      </trkpt>
      <trkpt lat="62.640700703688" lon="17.896694586516">
        <ele>17.8</ele>
        <time>2018-01-06T12:34:28Z</time>
      </trkpt>
      <trkpt lat="62.640690142494" lon="17.896667177703">
        <ele>18</ele>
        <time>2018-01-06T12:34:29Z</time>
      </trkpt>
      <trkpt lat="62.640683604612" lon="17.89663976889">
        <ele>18.2</ele>
        <time>2018-01-06T12:34:30Z</time>
      </trkpt>
      <trkpt lat="62.640673797789" lon="17.896606744204">
        <ele>18.4</ele>
        <time>2018-01-06T12:34:31Z</time>
      </trkpt>
      <trkpt lat="62.640665583527" lon="17.89657941921">
        <ele>18.4</ele>
        <time>2018-01-06T12:34:32Z</time>
      </trkpt>
      <trkpt lat="62.640658710369" lon="17.896542874126">
        <ele>18.6</ele>
        <time>2018-01-06T12:34:33Z</time>
      </trkpt>
      <trkpt lat="62.640648316813" lon="17.896506999594">
        <ele>18.6</ele>
        <time>2018-01-06T12:34:34Z</time>
      </trkpt>
      <trkpt lat="62.6406376718" lon="17.896471208881">
        <ele>18.8</ele>
        <time>2018-01-06T12:34:35Z</time>
      </trkpt>
      <trkpt lat="62.640627110606" lon="17.89643860329">
        <ele>19</ele>
        <time>2018-01-06T12:34:36Z</time>
      </trkpt>
      <trkpt lat="62.640617974335" lon="17.896413709047">
        <ele>19.2</ele>
        <time>2018-01-06T12:34:37Z</time>
      </trkpt>
      <trkpt lat="62.640608670426" lon="17.89636819533">
        <ele>19.4</ele>
        <time>2018-01-06T12:34:38Z</time>
      </trkpt>
      <trkpt lat="62.640598360689" lon="17.896325531459">
        <ele>19.6</ele>
        <time>2018-01-06T12:34:39Z</time>
      </trkpt>
      <trkpt lat="62.64058654221" lon="17.896284627787">
        <ele>19.8</ele>
        <time>2018-01-06T12:34:40Z</time>
      </trkpt>
      <trkpt lat="62.640577405939" lon="17.896245651952">
        <ele>20</ele>
        <time>2018-01-06T12:34:41Z</time>
      </trkpt>
      <trkpt lat="62.640568604944" lon="17.896205670289">
        <ele>20.2</ele>
        <time>2018-01-06T12:34:42Z</time>
      </trkpt>
      <trkpt lat="62.640559803949" lon="17.89615697145">
        <ele>20.4</ele>
        <time>2018-01-06T12:34:43Z</time>
      </trkpt>
      <trkpt lat="62.64055301461" lon="17.896108104973">
        <ele>20.4</ele>
        <time>2018-01-06T12:34:44Z</time>
      </trkpt>
      <trkpt lat="62.640550164764" lon="17.896065860197">
        <ele>20.6</ele>
        <time>2018-01-06T12:34:45Z</time>
      </trkpt>
      <trkpt lat="62.640545806176" lon="17.896018837738">
        <ele>20.8</ele>
        <time>2018-01-06T12:34:46Z</time>
      </trkpt>
      <trkpt lat="62.640540609398" lon="17.895980029541">
        <ele>21</ele>
        <time>2018-01-06T12:34:47Z</time>
      </trkpt>
      <trkpt lat="62.640536921362" lon="17.895937784765">
        <ele>21.2</ele>
        <time>2018-01-06T12:34:48Z</time>
      </trkpt>
      <trkpt lat="62.640534993525" lon="17.895897803102">
        <ele>21.6</ele>
        <time>2018-01-06T12:34:49Z</time>
      </trkpt>
      <trkpt lat="62.640531473127" lon="17.895861006561">
        <ele>21.6</ele>
        <time>2018-01-06T12:34:50Z</time>
      </trkpt>
      <trkpt lat="62.64053038348" lon="17.895818510328">
        <ele>21.8</ele>
        <time>2018-01-06T12:34:51Z</time>
      </trkpt>
      <trkpt lat="62.640526108711" lon="17.895762351598">
        <ele>21.8</ele>
        <time>2018-01-06T12:34:52Z</time>
      </trkpt>
      <trkpt lat="62.640523761779" lon="17.895700744633">
        <ele>21.8</ele>
        <time>2018-01-06T12:34:53Z</time>
      </trkpt>
      <trkpt lat="62.640521247209" lon="17.895655650011">
        <ele>21.8</ele>
        <time>2018-01-06T12:34:54Z</time>
      </trkpt>
      <trkpt lat="62.640518062087" lon="17.895614327244">
        <ele>22</ele>
        <time>2018-01-06T12:34:55Z</time>
      </trkpt>
      <trkpt lat="62.640517391535" lon="17.895552301184">
        <ele>21.8</ele>
        <time>2018-01-06T12:34:56Z</time>
      </trkpt>
      <trkpt lat="62.640515547517" lon="17.895506033096">
        <ele>22</ele>
        <time>2018-01-06T12:34:57Z</time>
      </trkpt>
      <trkpt lat="62.640514122594" lon="17.895462866311">
        <ele>22</ele>
        <time>2018-01-06T12:34:58Z</time>
      </trkpt>
      <trkpt lat="62.640514625508" lon="17.895408383961">
        <ele>22.2</ele>
        <time>2018-01-06T12:34:59Z</time>
      </trkpt>
      <trkpt lat="62.640512613852" lon="17.895349626842">
        <ele>22.2</ele>
        <time>2018-01-06T12:35:00Z</time>
      </trkpt>
      <trkpt lat="62.640508674359" lon="17.895282571642">
        <ele>22.4</ele>
        <time>2018-01-06T12:35:01Z</time>
      </trkpt>
      <trkpt lat="62.640505573056" lon="17.89522574236">
        <ele>22.6</ele>
        <time>2018-01-06T12:35:02Z</time>
      </trkpt>
      <trkpt lat="62.64049769407" lon="17.895156004952">
        <ele>22.8</ele>
        <time>2018-01-06T12:35:03Z</time>
      </trkpt>
      <trkpt lat="62.640490401817" lon="17.89509247015">
        <ele>22.8</ele>
        <time>2018-01-06T12:35:04Z</time>
      </trkpt>
      <trkpt lat="62.640488138704" lon="17.895026336959">
        <ele>23</ele>
        <time>2018-01-06T12:35:05Z</time>
      </trkpt>
      <trkpt lat="62.640483528659" lon="17.894962466881">
        <ele>23.4</ele>
        <time>2018-01-06T12:35:06Z</time>
      </trkpt>
      <trkpt lat="62.64048260665" lon="17.894920389743">
        <ele>23.4</ele>
        <time>2018-01-06T12:35:07Z</time>
      </trkpt>
      <trkpt lat="62.640482439012" lon="17.894867751411">
        <ele>23.4</ele>
        <time>2018-01-06T12:35:08Z</time>
      </trkpt>
      <trkpt lat="62.640481600822" lon="17.894815951269">
        <ele>23</ele>
        <time>2018-01-06T12:35:09Z</time>
      </trkpt>
      <trkpt lat="62.640479840623" lon="17.894769264086">
        <ele>23</ele>
        <time>2018-01-06T12:35:10Z</time>
      </trkpt>
      <trkpt lat="62.640477158415" lon="17.894721235799">
        <ele>22.6</ele>
        <time>2018-01-06T12:35:11Z</time>
      </trkpt>
      <trkpt lat="62.640474308569" lon="17.89466331687">
        <ele>22.6</ele>
        <time>2018-01-06T12:35:12Z</time>
      </trkpt>
      <trkpt lat="62.640472632189" lon="17.89460883452">
        <ele>22.4</ele>
        <time>2018-01-06T12:35:13Z</time>
      </trkpt>
      <trkpt lat="62.640469698524" lon="17.89456943959">
        <ele>22.4</ele>
        <time>2018-01-06T12:35:14Z</time>
      </trkpt>
      <trkpt lat="62.640469614705" lon="17.894515627792">
        <ele>22.4</ele>
        <time>2018-01-06T12:35:15Z</time>
      </trkpt>
      <trkpt lat="62.640467183954" lon="17.894460726347">
        <ele>22.4</ele>
        <time>2018-01-06T12:35:16Z</time>
      </trkpt>
      <trkpt lat="62.640465172298" lon="17.894418230114">
        <ele>22.6</ele>
        <time>2018-01-06T12:35:17Z</time>
      </trkpt>
      <trkpt lat="62.64045997552" lon="17.894379924831">
        <ele>22.6</ele>
        <time>2018-01-06T12:35:18Z</time>
      </trkpt>
      <trkpt lat="62.640454443466" lon="17.894340865177">
        <ele>22.6</ele>
        <time>2018-01-06T12:35:19Z</time>
      </trkpt>
      <trkpt lat="62.640446899756" lon="17.89429367508">
        <ele>22.6</ele>
        <time>2018-01-06T12:35:20Z</time>
      </trkpt>
      <trkpt lat="62.64043902077" lon="17.894247658449">
        <ele>22.8</ele>
        <time>2018-01-06T12:35:21Z</time>
      </trkpt>
      <trkpt lat="62.640432063793" lon="17.8942081797">
        <ele>22.8</ele>
        <time>2018-01-06T12:35:22Z</time>
      </trkpt>
      <trkpt lat="62.640425945006" lon="17.894172808082">
        <ele>23</ele>
        <time>2018-01-06T12:35:23Z</time>
      </trkpt>
      <trkpt lat="62.640416557278" lon="17.894123354872">
        <ele>23.2</ele>
        <time>2018-01-06T12:35:24Z</time>
      </trkpt>
      <trkpt lat="62.640402810962" lon="17.894081277734">
        <ele>23.4</ele>
        <time>2018-01-06T12:35:25Z</time>
      </trkpt>
      <trkpt lat="62.640391746854" lon="17.894046911944">
        <ele>23.4</ele>
        <time>2018-01-06T12:35:26Z</time>
      </trkpt>
      <trkpt lat="62.640378084357" lon="17.893997374915">
        <ele>23.6</ele>
        <time>2018-01-06T12:35:27Z</time>
      </trkpt>
      <trkpt lat="62.640361320557" lon="17.893952699388">
        <ele>23.4</ele>
        <time>2018-01-06T12:35:28Z</time>
      </trkpt>
      <trkpt lat="62.640346652232" lon="17.893923530376">
        <ele>23.6</ele>
        <time>2018-01-06T12:35:29Z</time>
      </trkpt>
      <trkpt lat="62.640331480993" lon="17.893883213437">
        <ele>23.8</ele>
        <time>2018-01-06T12:35:30Z</time>
      </trkpt>
      <trkpt lat="62.640317650858" lon="17.893839962833">
        <ele>23.8</ele>
        <time>2018-01-06T12:35:31Z</time>
      </trkpt>
      <trkpt lat="62.640306335293" lon="17.89380333393">
        <ele>23.8</ele>
        <time>2018-01-06T12:35:32Z</time>
      </trkpt>
      <trkpt lat="62.640295019728" lon="17.893767459398">
        <ele>23.8</ele>
        <time>2018-01-06T12:35:33Z</time>
      </trkpt>
      <trkpt lat="62.640286134914" lon="17.893733009789">
        <ele>24</ele>
        <time>2018-01-06T12:35:34Z</time>
      </trkpt>
      <trkpt lat="62.640278172109" lon="17.893701326207">
        <ele>24</ele>
        <time>2018-01-06T12:35:35Z</time>
      </trkpt>
      <trkpt lat="62.640272975331" lon="17.893671905738">
        <ele>24.4</ele>
        <time>2018-01-06T12:35:36Z</time>
      </trkpt>
      <trkpt lat="62.6402688682" lon="17.893641395622">
        <ele>24.2</ele>
        <time>2018-01-06T12:35:37Z</time>
      </trkpt>
      <trkpt lat="62.640262414137" lon="17.893604431443">
        <ele>24.6</ele>
        <time>2018-01-06T12:35:38Z</time>
      </trkpt>
      <trkpt lat="62.640257384997" lon="17.89357283168">
        <ele>25</ele>
        <time>2018-01-06T12:35:39Z</time>
      </trkpt>
      <trkpt lat="62.640253361685" lon="17.893542908297">
        <ele>25.2</ele>
        <time>2018-01-06T12:35:40Z</time>
      </trkpt>
      <trkpt lat="62.640247326717" lon="17.893507871955">
        <ele>25.4</ele>
        <time>2018-01-06T12:35:41Z</time>
      </trkpt>
      <trkpt lat="62.640246907622" lon="17.893480379323">
        <ele>25.8</ele>
        <time>2018-01-06T12:35:42Z</time>
      </trkpt>
      <trkpt lat="62.640250763296" lon="17.893446348809">
        <ele>26</ele>
        <time>2018-01-06T12:35:43Z</time>
      </trkpt>
      <trkpt lat="62.640253194047" lon="17.893412905028">
        <ele>26</ele>
        <time>2018-01-06T12:35:44Z</time>
      </trkpt>
      <trkpt lat="62.640256630626" lon="17.893378203962">
        <ele>26.4</ele>
        <time>2018-01-06T12:35:45Z</time>
      </trkpt>
      <trkpt lat="62.640260989214" lon="17.893338473756">
        <ele>26.6</ele>
        <time>2018-01-06T12:35:46Z</time>
      </trkpt>
      <trkpt lat="62.640263503784" lon="17.893301341939">
        <ele>27</ele>
        <time>2018-01-06T12:35:47Z</time>
      </trkpt>
      <trkpt lat="62.640264761069" lon="17.893262449923">
        <ele>27.2</ele>
        <time>2018-01-06T12:35:48Z</time>
      </trkpt>
      <trkpt lat="62.640267443277" lon="17.893226323934">
        <ele>27.2</ele>
        <time>2018-01-06T12:35:49Z</time>
      </trkpt>
      <trkpt lat="62.640270125485" lon="17.893190784678">
        <ele>27.4</ele>
        <time>2018-01-06T12:35:50Z</time>
      </trkpt>
      <trkpt lat="62.640272640055" lon="17.893151641205">
        <ele>27.6</ele>
        <time>2018-01-06T12:35:51Z</time>
      </trkpt>
      <trkpt lat="62.64027473553" lon="17.893117945967">
        <ele>27.8</ele>
        <time>2018-01-06T12:35:52Z</time>
      </trkpt>
      <trkpt lat="62.640279345575" lon="17.893070420594">
        <ele>27.8</ele>
        <time>2018-01-06T12:35:53Z</time>
      </trkpt>
      <trkpt lat="62.640282195421" lon="17.893034462243">
        <ele>28</ele>
        <time>2018-01-06T12:35:54Z</time>
      </trkpt>
      <trkpt lat="62.640282949792" lon="17.893003197756">
        <ele>28.2</ele>
        <time>2018-01-06T12:35:55Z</time>
      </trkpt>
      <trkpt lat="62.640283201249" lon="17.892975956581">
        <ele>28.6</ele>
        <time>2018-01-06T12:35:56Z</time>
      </trkpt>
      <trkpt lat="62.640282530697" lon="17.892953157813">
        <ele>28.6</ele>
        <time>2018-01-06T12:35:57Z</time>
      </trkpt>
      <trkpt lat="62.640281608688" lon="17.892915523082">
        <ele>28.6</ele>
        <time>2018-01-06T12:35:58Z</time>
      </trkpt>
      <trkpt lat="62.640282111602" lon="17.892881744025">
        <ele>28.8</ele>
        <time>2018-01-06T12:35:59Z</time>
      </trkpt>
      <trkpt lat="62.64027976467" lon="17.892842600552">
        <ele>29</ele>
        <time>2018-01-06T12:36:00Z</time>
      </trkpt>
      <trkpt lat="62.640276663367" lon="17.892802870346">
        <ele>29</ele>
        <time>2018-01-06T12:36:01Z</time>
      </trkpt>
      <trkpt lat="62.640274400254" lon="17.892769258927">
        <ele>29.2</ele>
        <time>2018-01-06T12:36:02Z</time>
      </trkpt>
      <trkpt lat="62.640271298951" lon="17.892735396051">
        <ele>29.2</ele>
        <time>2018-01-06T12:36:03Z</time>
      </trkpt>
      <trkpt lat="62.640267359458" lon="17.892688876506">
        <ele>29.6</ele>
        <time>2018-01-06T12:36:04Z</time>
      </trkpt>
      <trkpt lat="62.640258726101" lon="17.892635819079">
        <ele>29.8</ele>
        <time>2018-01-06T12:36:05Z</time>
      </trkpt>
      <trkpt lat="62.640251182391" lon="17.892593406665">
        <ele>30</ele>
        <time>2018-01-06T12:36:06Z</time>
      </trkpt>
      <trkpt lat="62.64024623707" lon="17.892557699771">
        <ele>30.2</ele>
        <time>2018-01-06T12:36:07Z</time>
      </trkpt>
      <trkpt lat="62.64024120793" lon="17.892516628461">
        <ele>30.4</ele>
        <time>2018-01-06T12:36:08Z</time>
      </trkpt>
      <trkpt lat="62.640234837686" lon="17.892476898255">
        <ele>30.4</ele>
        <time>2018-01-06T12:36:09Z</time>
      </trkpt>
      <trkpt lat="62.640229640908" lon="17.892440017895">
        <ele>30.4</ele>
        <time>2018-01-06T12:36:10Z</time>
      </trkpt>
      <trkpt lat="62.640225869053" lon="17.892396683472">
        <ele>30.4</ele>
        <time>2018-01-06T12:36:11Z</time>
      </trkpt>
      <trkpt lat="62.640222181017" lon="17.8923557798">
        <ele>30.6</ele>
        <time>2018-01-06T12:36:12Z</time>
      </trkpt>
      <trkpt lat="62.640218241524" lon="17.892304314934">
        <ele>31</ele>
        <time>2018-01-06T12:36:13Z</time>
      </trkpt>
      <trkpt lat="62.640215894592" lon="17.892269110954">
        <ele>31</ele>
        <time>2018-01-06T12:36:14Z</time>
      </trkpt>
      <trkpt lat="62.640212877108" lon="17.892213036043">
        <ele>31.2</ele>
        <time>2018-01-06T12:36:15Z</time>
      </trkpt>
      <trkpt lat="62.640210027262" lon="17.892150590888">
        <ele>31.4</ele>
        <time>2018-01-06T12:36:16Z</time>
      </trkpt>
      <trkpt lat="62.640212625651" lon="17.8921043228">
        <ele>31.4</ele>
        <time>2018-01-06T12:36:17Z</time>
      </trkpt>
      <trkpt lat="62.640217990067" lon="17.892050427183">
        <ele>31.2</ele>
        <time>2018-01-06T12:36:18Z</time>
      </trkpt>
      <trkpt lat="62.640230562917" lon="17.891994687548">
        <ele>31.4</ele>
        <time>2018-01-06T12:36:19Z</time>
      </trkpt>
      <trkpt lat="62.640241124111" lon="17.891949425288">
        <ele>31.4</ele>
        <time>2018-01-06T12:36:20Z</time>
      </trkpt>
      <trkpt lat="62.640260151024" lon="17.891903408657">
        <ele>31.2</ele>
        <time>2018-01-06T12:36:21Z</time>
      </trkpt>
      <trkpt lat="62.640282782154" lon="17.891845741185">
        <ele>31.2</ele>
        <time>2018-01-06T12:36:22Z</time>
      </trkpt>
      <trkpt lat="62.640312118804" lon="17.891799137821">
        <ele>31</ele>
        <time>2018-01-06T12:36:23Z</time>
      </trkpt>
      <trkpt lat="62.640347155146" lon="17.89176988499">
        <ele>31.2</ele>
        <time>2018-01-06T12:36:24Z</time>
      </trkpt>
      <trkpt lat="62.640377329986" lon="17.891752115362">
        <ele>31</ele>
        <time>2018-01-06T12:36:25Z</time>
      </trkpt>
      <trkpt lat="62.640405996084" lon="17.891745326023">
        <ele>30.8</ele>
        <time>2018-01-06T12:36:26Z</time>
      </trkpt>
      <trkpt lat="62.640434410725" lon="17.891739961607">
        <ele>30.6</ele>
        <time>2018-01-06T12:36:27Z</time>
      </trkpt>
      <trkpt lat="62.640474392388" lon="17.891733423725">
        <ele>30.4</ele>
        <time>2018-01-06T12:36:28Z</time>
      </trkpt>
      <trkpt lat="62.640519906105" lon="17.891731495888">
        <ele>30.4</ele>
        <time>2018-01-06T12:36:29Z</time>
      </trkpt>
      <trkpt lat="62.640582602717" lon="17.891737279399">
        <ele>29.8</ele>
        <time>2018-01-06T12:36:30Z</time>
      </trkpt>
      <trkpt lat="62.640642868578" lon="17.891744068738">
        <ele>29.2</ele>
        <time>2018-01-06T12:36:31Z</time>
      </trkpt>
      <trkpt lat="62.64072232899" lon="17.891771896646">
        <ele>28.6</ele>
        <time>2018-01-06T12:36:33Z</time>
      </trkpt>
      <trkpt lat="62.640784774145" lon="17.891840712045">
        <ele>27.8</ele>
        <time>2018-01-06T12:36:34Z</time>
      </trkpt>
      <trkpt lat="62.640833892079" lon="17.891910197996">
        <ele>27.2</ele>
        <time>2018-01-06T12:36:35Z</time>
      </trkpt>
      <trkpt lat="62.640878651425" lon="17.891987227657">
        <ele>26.4</ele>
        <time>2018-01-06T12:36:36Z</time>
      </trkpt>
      <trkpt lat="62.640918968364" lon="17.892062497119">
        <ele>26.2</ele>
        <time>2018-01-06T12:36:37Z</time>
      </trkpt>
      <trkpt lat="62.640958195656" lon="17.892140197332">
        <ele>25.6</ele>
        <time>2018-01-06T12:36:38Z</time>
      </trkpt>
      <trkpt lat="62.640998344957" lon="17.892207503989">
        <ele>25.4</ele>
        <time>2018-01-06T12:36:39Z</time>
      </trkpt>
      <trkpt lat="62.641038158982" lon="17.892234074612">
        <ele>24.8</ele>
        <time>2018-01-06T12:36:40Z</time>
      </trkpt>
      <trkpt lat="62.641083672699" lon="17.892257041018">
        <ele>24.8</ele>
        <time>2018-01-06T12:36:41Z</time>
      </trkpt>
      <trkpt lat="62.641127929131" lon="17.892274559189">
        <ele>25</ele>
        <time>2018-01-06T12:36:42Z</time>
      </trkpt>
      <trkpt lat="62.64116154055" lon="17.892254526448">
        <ele>24.8</ele>
        <time>2018-01-06T12:36:43Z</time>
      </trkpt>
      <trkpt lat="62.641198337091" lon="17.892239439028">
        <ele>25</ele>
        <time>2018-01-06T12:36:44Z</time>
      </trkpt>
      <trkpt lat="62.641232367605" lon="17.892218987192">
        <ele>25</ele>
        <time>2018-01-06T12:36:45Z</time>
      </trkpt>
      <trkpt lat="62.641255166373" lon="17.892199122089">
        <ele>24.8</ele>
        <time>2018-01-06T12:36:46Z</time>
      </trkpt>
      <trkpt lat="62.641284922118" lon="17.892180262814">
        <ele>25</ele>
        <time>2018-01-06T12:36:47Z</time>
      </trkpt>
      <trkpt lat="62.641321970116" lon="17.892144388282">
        <ele>24.8</ele>
        <time>2018-01-06T12:36:48Z</time>
      </trkpt>
      <trkpt lat="62.641360526856" lon="17.892114967813">
        <ele>25</ele>
        <time>2018-01-06T12:36:49Z</time>
      </trkpt>
      <trkpt lat="62.641396988121" lon="17.892093761606">
        <ele>25</ele>
        <time>2018-01-06T12:36:50Z</time>
      </trkpt>
      <trkpt lat="62.641430348083" lon="17.892078087453">
        <ele>25</ele>
        <time>2018-01-06T12:36:51Z</time>
      </trkpt>
      <trkpt lat="62.641455577602" lon="17.89206157511">
        <ele>25</ele>
        <time>2018-01-06T12:36:52Z</time>
      </trkpt>
      <trkpt lat="62.64148508189" lon="17.892049672812">
        <ele>24.8</ele>
        <time>2018-01-06T12:36:53Z</time>
      </trkpt>
      <trkpt lat="62.641516262558" lon="17.892033244288">
        <ele>24.6</ele>
        <time>2018-01-06T12:36:54Z</time>
      </trkpt>
      <trkpt lat="62.641552220909" lon="17.892011786624">
        <ele>24.4</ele>
        <time>2018-01-06T12:36:55Z</time>
      </trkpt>
      <trkpt lat="62.64159572297" lon="17.891989826046">
        <ele>23.8</ele>
        <time>2018-01-06T12:36:56Z</time>
      </trkpt>
      <trkpt lat="62.641640817592" lon="17.891971553504">
        <ele>23.6</ele>
        <time>2018-01-06T12:36:57Z</time>
      </trkpt>
      <trkpt lat="62.641692701553" lon="17.891994603729">
        <ele>23</ele>
        <time>2018-01-06T12:36:58Z</time>
      </trkpt>
      <trkpt lat="62.641740562202" lon="17.892024443293">
        <ele>22.6</ele>
        <time>2018-01-06T12:36:59Z</time>
      </trkpt>
      <trkpt lat="62.641785824462" lon="17.89207163339">
        <ele>21.8</ele>
        <time>2018-01-06T12:37:00Z</time>
      </trkpt>
      <trkpt lat="62.641822621003" lon="17.892136006382">
        <ele>21</ele>
        <time>2018-01-06T12:37:01Z</time>
      </trkpt>
      <trkpt lat="62.641854556042" lon="17.892205408514">
        <ele>20.4</ele>
        <time>2018-01-06T12:37:02Z</time>
      </trkpt>
      <trkpt lat="62.641872074213" lon="17.89228369546">
        <ele>19.8</ele>
        <time>2018-01-06T12:37:03Z</time>
      </trkpt>
      <trkpt lat="62.641886993995" lon="17.89236919084">
        <ele>19.2</ele>
        <time>2018-01-06T12:37:04Z</time>
      </trkpt>
      <trkpt lat="62.641895208257" lon="17.892437419506">
        <ele>18.6</ele>
        <time>2018-01-06T12:37:05Z</time>
      </trkpt>
      <trkpt lat="62.64189830956" lon="17.892497098634">
        <ele>18.4</ele>
        <time>2018-01-06T12:37:06Z</time>
      </trkpt>
      <trkpt lat="62.641900321216" lon="17.892549150233">
        <ele>18.4</ele>
        <time>2018-01-06T12:37:07Z</time>
      </trkpt>
      <trkpt lat="62.641898980112" lon="17.892596591787">
        <ele>18.6</ele>
        <time>2018-01-06T12:37:08Z</time>
      </trkpt>
      <trkpt lat="62.64190166232" lon="17.892639339477">
        <ele>18.6</ele>
        <time>2018-01-06T12:37:09Z</time>
      </trkpt>
      <trkpt lat="62.641902751967" lon="17.892671106878">
        <ele>19</ele>
        <time>2018-01-06T12:37:10Z</time>
      </trkpt>
      <trkpt lat="62.6419033387" lon="17.892706059401">
        <ele>19.4</ele>
        <time>2018-01-06T12:37:11Z</time>
      </trkpt>
      <trkpt lat="62.6419033387" lon="17.892739419363">
        <ele>19.8</ele>
        <time>2018-01-06T12:37:12Z</time>
      </trkpt>
      <trkpt lat="62.641900656492" lon="17.892764481244">
        <ele>20.4</ele>
        <time>2018-01-06T12:37:13Z</time>
      </trkpt>
      <trkpt lat="62.641900237397" lon="17.892790129858">
        <ele>20.6</ele>
        <time>2018-01-06T12:37:14Z</time>
      </trkpt>
      <trkpt lat="62.641899734483" lon="17.892817371033">
        <ele>21</ele>
        <time>2018-01-06T12:37:15Z</time>
      </trkpt>
      <trkpt lat="62.641896046447" lon="17.892843941656">
        <ele>21.4</ele>
        <time>2018-01-06T12:37:16Z</time>
      </trkpt>
      <trkpt lat="62.641896130266" lon="17.892872775392">
        <ele>21.6</ele>
        <time>2018-01-06T12:37:17Z</time>
      </trkpt>
      <trkpt lat="62.641898058103" lon="17.892899094558">
        <ele>22</ele>
        <time>2018-01-06T12:37:18Z</time>
      </trkpt>
      <trkpt lat="62.641898393379" lon="17.892920468403">
        <ele>22.4</ele>
        <time>2018-01-06T12:37:19Z</time>
      </trkpt>
      <trkpt lat="62.641896381723" lon="17.892935891099">
        <ele>22.8</ele>
        <time>2018-01-06T12:37:20Z</time>
      </trkpt>
      <trkpt lat="62.641893699515" lon="17.892948044854">
        <ele>23</ele>
        <time>2018-01-06T12:37:21Z</time>
      </trkpt>
      <trkpt lat="62.641891520221" lon="17.892970424527">
        <ele>23.2</ele>
        <time>2018-01-06T12:37:22Z</time>
      </trkpt>
      <trkpt lat="62.641885233796" lon="17.893010573828">
        <ele>23.4</ele>
        <time>2018-01-06T12:37:23Z</time>
      </trkpt>
      <trkpt lat="62.641882886864" lon="17.893030774207">
        <ele>23.6</ele>
        <time>2018-01-06T12:37:24Z</time>
      </trkpt>
      <trkpt lat="62.641881629579" lon="17.893045191075">
        <ele>23.6</ele>
        <time>2018-01-06T12:37:25Z</time>
      </trkpt>
      <trkpt lat="62.641878276819" lon="17.893063295979">
        <ele>24</ele>
        <time>2018-01-06T12:37:26Z</time>
      </trkpt>
      <trkpt lat="62.64187400205" lon="17.89308416691">
        <ele>24.2</ele>
        <time>2018-01-06T12:37:27Z</time>
      </trkpt>
      <trkpt lat="62.641871319842" lon="17.893119538528">
        <ele>24.4</ele>
        <time>2018-01-06T12:37:28Z</time>
      </trkpt>
      <trkpt lat="62.641867128892" lon="17.893149042816">
        <ele>24.6</ele>
        <time>2018-01-06T12:37:29Z</time>
      </trkpt>
      <trkpt lat="62.641864362865" lon="17.893178798561">
        <ele>24.8</ele>
        <time>2018-01-06T12:37:30Z</time>
      </trkpt>
      <trkpt lat="62.641860339553" lon="17.893209727772">
        <ele>25.6</ele>
        <time>2018-01-06T12:37:31Z</time>
      </trkpt>
      <trkpt lat="62.641855645689" lon="17.893238310051">
        <ele>25.8</ele>
        <time>2018-01-06T12:37:32Z</time>
      </trkpt>
      <trkpt lat="62.641845922685" lon="17.893258845706">
        <ele>26</ele>
        <time>2018-01-06T12:37:33Z</time>
      </trkpt>
      <trkpt lat="62.64184215083" lon="17.893295139333">
        <ele>26.6</ele>
        <time>2018-01-06T12:37:34Z</time>
      </trkpt>
      <trkpt lat="62.641835529129" lon="17.893333360797">
        <ele>27</ele>
        <time>2018-01-06T12:37:35Z</time>
      </trkpt>
      <trkpt lat="62.641830164713" lon="17.893370324976">
        <ele>26.8</ele>
        <time>2018-01-06T12:37:36Z</time>
      </trkpt>
      <trkpt lat="62.64182622522" lon="17.893404942223">
        <ele>27.2</ele>
        <time>2018-01-06T12:37:37Z</time>
      </trkpt>
      <trkpt lat="62.641813484732" lon="17.893447270818">
        <ele>27.4</ele>
        <time>2018-01-06T12:37:38Z</time>
      </trkpt>
      <trkpt lat="62.641804767556" lon="17.893483312988">
        <ele>27.4</ele>
        <time>2018-01-06T12:37:39Z</time>
      </trkpt>
      <trkpt lat="62.641791272697" lon="17.893517930235">
        <ele>27.2</ele>
        <time>2018-01-06T12:37:40Z</time>
      </trkpt>
      <trkpt lat="62.641780040951" lon="17.893550116731">
        <ele>27.4</ele>
        <time>2018-01-06T12:37:41Z</time>
      </trkpt>
      <trkpt lat="62.641769312119" lon="17.893582470865">
        <ele>27.4</ele>
        <time>2018-01-06T12:37:42Z</time>
      </trkpt>
      <trkpt lat="62.641767887196" lon="17.893609460583">
        <ele>27.6</ele>
        <time>2018-01-06T12:37:43Z</time>
      </trkpt>
      <trkpt lat="62.641763193332" lon="17.893638629595">
        <ele>27.8</ele>
        <time>2018-01-06T12:37:44Z</time>
      </trkpt>
      <trkpt lat="62.641757661278" lon="17.893666541322">
        <ele>28</ele>
        <time>2018-01-06T12:37:45Z</time>
      </trkpt>
      <trkpt lat="62.641755314346" lon="17.893696632343">
        <ele>28.4</ele>
        <time>2018-01-06T12:37:46Z</time>
      </trkpt>
      <trkpt lat="62.641749530835" lon="17.893728315925">
        <ele>28.4</ele>
        <time>2018-01-06T12:37:47Z</time>
      </trkpt>
      <trkpt lat="62.641750536663" lon="17.8937723209">
        <ele>28.8</ele>
        <time>2018-01-06T12:37:48Z</time>
      </trkpt>
      <trkpt lat="62.641752296862" lon="17.89381758316">
        <ele>29</ele>
        <time>2018-01-06T12:37:49Z</time>
      </trkpt>
      <trkpt lat="62.641759589115" lon="17.893866868732">
        <ele>29.2</ele>
        <time>2018-01-06T12:37:50Z</time>
      </trkpt>
      <trkpt lat="62.64177090468" lon="17.893914980838">
        <ele>29.4</ele>
        <time>2018-01-06T12:37:51Z</time>
      </trkpt>
      <trkpt lat="62.641790350688" lon="17.89395420813">
        <ele>29.6</ele>
        <time>2018-01-06T12:37:52Z</time>
      </trkpt>
      <trkpt lat="62.641830751446" lon="17.893986478445">
        <ele>29.6</ele>
        <time>2018-01-06T12:37:53Z</time>
      </trkpt>
      <trkpt lat="62.641875510792" lon="17.893993938336">
        <ele>29.2</ele>
        <time>2018-01-06T12:37:54Z</time>
      </trkpt>
      <trkpt lat="62.641926724201" lon="17.893984131513">
        <ele>28.6</ele>
        <time>2018-01-06T12:37:55Z</time>
      </trkpt>
      <trkpt lat="62.641978272886" lon="17.893967702989">
        <ele>28</ele>
        <time>2018-01-06T12:37:56Z</time>
      </trkpt>
      <trkpt lat="62.642027474639" lon="17.89395085537">
        <ele>27.6</ele>
        <time>2018-01-06T12:37:57Z</time>
      </trkpt>
      <trkpt lat="62.642078771867" lon="17.893949933361">
        <ele>26.4</ele>
        <time>2018-01-06T12:37:58Z</time>
      </trkpt>
      <trkpt lat="62.642128895629" lon="17.893975833432">
        <ele>25.6</ele>
        <time>2018-01-06T12:37:59Z</time>
      </trkpt>
      <trkpt lat="62.642170972767" lon="17.894030567239">
        <ele>24.8</ele>
        <time>2018-01-06T12:38:00Z</time>
      </trkpt>
      <trkpt lat="62.64220005796" lon="17.894106842529">
        <ele>24.2</ele>
        <time>2018-01-06T12:38:01Z</time>
      </trkpt>
      <trkpt lat="62.642223192004" lon="17.894188649873">
        <ele>24</ele>
        <time>2018-01-06T12:38:02Z</time>
      </trkpt>
      <trkpt lat="62.64223274737" lon="17.894269116113">
        <ele>23.6</ele>
        <time>2018-01-06T12:38:03Z</time>
      </trkpt>
      <trkpt lat="62.642239788166" lon="17.894364166859">
        <ele>23.4</ele>
        <time>2018-01-06T12:38:04Z</time>
      </trkpt>
      <trkpt lat="62.642243727659" lon="17.894462067451">
        <ele>23.2</ele>
        <time>2018-01-06T12:38:05Z</time>
      </trkpt>
      <trkpt lat="62.642237944148" lon="17.894565332459">
        <ele>22.8</ele>
        <time>2018-01-06T12:38:06Z</time>
      </trkpt>
      <trkpt lat="62.642227802049" lon="17.894668681286">
        <ele>22.6</ele>
        <time>2018-01-06T12:38:07Z</time>
      </trkpt>
      <trkpt lat="62.642204835643" lon="17.894792901044">
        <ele>21.8</ele>
        <time>2018-01-06T12:38:08Z</time>
      </trkpt>
      <trkpt lat="62.642183042703" lon="17.894901781925">
        <ele>21.2</ele>
        <time>2018-01-06T12:38:09Z</time>
      </trkpt>
      <trkpt lat="62.642161752677" lon="17.894990965341">
        <ele>20</ele>
        <time>2018-01-06T12:38:10Z</time>
      </trkpt>
      <trkpt lat="62.642149179827" lon="17.895074532884">
        <ele>19.4</ele>
        <time>2018-01-06T12:38:11Z</time>
      </trkpt>
      <trkpt lat="62.642141468479" lon="17.895153238925">
        <ele>19</ele>
        <time>2018-01-06T12:38:12Z</time>
      </trkpt>
      <trkpt lat="62.642142139031" lon="17.895270669344">
        <ele>18.4</ele>
        <time>2018-01-06T12:38:13Z</time>
      </trkpt>
      <trkpt lat="62.642142139031" lon="17.895408551599">
        <ele>18</ele>
        <time>2018-01-06T12:38:14Z</time>
      </trkpt>
      <trkpt lat="62.642141719936" lon="17.89555515103">
        <ele>17.8</ele>
        <time>2018-01-06T12:38:15Z</time>
      </trkpt>
      <trkpt lat="62.642133924769" lon="17.895706192868">
        <ele>17.4</ele>
        <time>2018-01-06T12:38:16Z</time>
      </trkpt>
      <trkpt lat="62.642122022471" lon="17.895853462851">
        <ele>17</ele>
        <time>2018-01-06T12:38:17Z</time>
      </trkpt>
      <trkpt lat="62.642104336662" lon="17.895984807224">
        <ele>16.4</ele>
        <time>2018-01-06T12:38:18Z</time>
      </trkpt>
      <trkpt lat="62.642074413279" lon="17.896128808266">
        <ele>15.2</ele>
        <time>2018-01-06T12:38:19Z</time>
      </trkpt>
      <trkpt lat="62.642045998638" lon="17.896250764911">
        <ele>14</ele>
        <time>2018-01-06T12:38:20Z</time>
      </trkpt>
      <trkpt lat="62.642019092739" lon="17.896360903077">
        <ele>12.8</ele>
        <time>2018-01-06T12:38:21Z</time>
      </trkpt>
      <trkpt lat="62.64199134865" lon="17.896472382347">
        <ele>12.2</ele>
        <time>2018-01-06T12:38:22Z</time>
      </trkpt>
      <trkpt lat="62.64196368838" lon="17.896589058395">
        <ele>11.6</ele>
        <time>2018-01-06T12:38:23Z</time>
      </trkpt>
      <trkpt lat="62.641934770825" lon="17.896705818262">
        <ele>11.2</ele>
        <time>2018-01-06T12:38:24Z</time>
      </trkpt>
      <trkpt lat="62.641911972057" lon="17.89677555567">
        <ele>11.2</ele>
        <time>2018-01-06T12:38:25Z</time>
      </trkpt>
      <trkpt lat="62.641890346755" lon="17.896894494831">
        <ele>11</ele>
        <time>2018-01-06T12:38:26Z</time>
      </trkpt>
      <trkpt lat="62.641904595985" lon="17.897009494499">
        <ele>11.4</ele>
        <time>2018-01-06T12:38:27Z</time>
      </trkpt>
      <trkpt lat="62.641907110555" lon="17.897112005136">
        <ele>11.6</ele>
        <time>2018-01-06T12:38:28Z</time>
      </trkpt>
      <trkpt lat="62.641907362012" lon="17.897282409163">
        <ele>11.6</ele>
        <time>2018-01-06T12:38:29Z</time>
      </trkpt>
      <trkpt lat="62.641893531877" lon="17.897431355526">
        <ele>11.6</ele>
        <time>2018-01-06T12:38:30Z</time>
      </trkpt>
      <trkpt lat="62.641882719226" lon="17.897579966613">
        <ele>11.6</ele>
        <time>2018-01-06T12:38:31Z</time>
      </trkpt>
      <trkpt lat="62.641872577127" lon="17.897723632379">
        <ele>11.4</ele>
        <time>2018-01-06T12:38:32Z</time>
      </trkpt>
      <trkpt lat="62.64185807644" lon="17.897858161874">
        <ele>10.4</ele>
        <time>2018-01-06T12:38:33Z</time>
      </trkpt>
      <trkpt lat="62.641850784187" lon="17.897983303641">
        <ele>9.8</ele>
        <time>2018-01-06T12:38:34Z</time>
      </trkpt>
      <trkpt lat="62.641849778359" lon="17.898071816505">
        <ele>8.8</ele>
        <time>2018-01-06T12:38:35Z</time>
      </trkpt>
      <trkpt lat="62.64183712169" lon="17.898185810345">
        <ele>8.2</ele>
        <time>2018-01-06T12:38:36Z</time>
      </trkpt>
      <trkpt lat="62.641829410342" lon="17.898272479191">
        <ele>7.8</ele>
        <time>2018-01-06T12:38:37Z</time>
      </trkpt>
      <trkpt lat="62.641831170541" lon="17.898321848582">
        <ele>8.2</ele>
        <time>2018-01-06T12:38:38Z</time>
      </trkpt>
      <trkpt lat="62.641823878288" lon="17.898414636215">
        <ele>8.6</ele>
        <time>2018-01-06T12:38:39Z</time>
      </trkpt>
      <trkpt lat="62.641819771157" lon="17.898479344483">
        <ele>9</ele>
        <time>2018-01-06T12:38:40Z</time>
      </trkpt>
      <trkpt lat="62.641818430053" lon="17.898543549837">
        <ele>9.4</ele>
        <time>2018-01-06T12:38:41Z</time>
      </trkpt>
      <trkpt lat="62.64181784332" lon="17.898606330268">
        <ele>9.8</ele>
        <time>2018-01-06T12:38:42Z</time>
      </trkpt>
      <trkpt lat="62.641815831664" lon="17.898671038536">
        <ele>10</ele>
        <time>2018-01-06T12:38:43Z</time>
      </trkpt>
      <trkpt lat="62.641811808352" lon="17.898736836451">
        <ele>10.2</ele>
        <time>2018-01-06T12:38:44Z</time>
      </trkpt>
      <trkpt lat="62.64180610866" lon="17.898791234982">
        <ele>10.4</ele>
        <time>2018-01-06T12:38:45Z</time>
      </trkpt>
      <trkpt lat="62.641801750072" lon="17.898828199161">
        <ele>10.6</ele>
        <time>2018-01-06T12:38:46Z</time>
      </trkpt>
      <trkpt lat="62.641786997928" lon="17.898906653745">
        <ele>10.6</ele>
        <time>2018-01-06T12:38:47Z</time>
      </trkpt>
      <trkpt lat="62.641776604372" lon="17.898959794991">
        <ele>10.8</ele>
        <time>2018-01-06T12:38:48Z</time>
      </trkpt>
      <trkpt lat="62.641763612427" lon="17.899008745287">
        <ele>11</ele>
        <time>2018-01-06T12:38:49Z</time>
      </trkpt>
      <trkpt lat="62.641747770636" lon="17.899047302027">
        <ele>11</ele>
        <time>2018-01-06T12:38:50Z</time>
      </trkpt>
      <trkpt lat="62.641732850854" lon="17.899093821572">
        <ele>10.8</ele>
        <time>2018-01-06T12:38:51Z</time>
      </trkpt>
      <trkpt lat="62.641719523633" lon="17.899116033607">
        <ele>10.8</ele>
        <time>2018-01-06T12:38:52Z</time>
      </trkpt>
      <trkpt lat="62.64170468767" lon="17.899135814891">
        <ele>10.8</ele>
        <time>2018-01-06T12:38:53Z</time>
      </trkpt>
      <trkpt lat="62.641690522259" lon="17.899151740501">
        <ele>11</ele>
        <time>2018-01-06T12:38:54Z</time>
      </trkpt>
      <trkpt lat="62.641687756232" lon="17.899155763813">
        <ele>11</ele>
        <time>2018-01-06T12:38:55Z</time>
      </trkpt>
    </trkseg>
  </trk>
</gpx>